<?xml version="1.0" encoding="UTF-8" standalone="no" ?>
<gpx xmlns="http://www.topografix.com/GPX/1/1" creator="www.cicloide.com" version="1.1" xmlns:xsi="http://www.w3.org/2001/XMLSchema-instance" xsi:schemaLocation="http://www.topografix.com/GPX/1/1 http://www.topografix.com/GPX/1/1/gpx.xsd">
  <trk>
    <name>www.cicloide.com 21897</name>
    <desc>www.cicloide.com 21897</desc>
    <trkseg>
      <trkpt lat="42.495696800" lon="1.211987660">
        <ele>845.60</ele>
        <time>2014-08-08T07:07:04Z</time>
      </trkpt>
      <trkpt lat="42.495733430" lon="1.211905850">
        <ele>845.10</ele>
        <time>2014-08-08T07:07:08Z</time>
      </trkpt>
      <trkpt lat="42.495911290" lon="1.211671410">
        <ele>845.10</ele>
        <time>2014-08-08T07:07:15Z</time>
      </trkpt>
      <trkpt lat="42.496011370" lon="1.211449710">
        <ele>846.10</ele>
        <time>2014-08-08T07:07:22Z</time>
      </trkpt>
      <trkpt lat="42.496128380" lon="1.211177380">
        <ele>845.60</ele>
        <time>2014-08-08T07:07:31Z</time>
      </trkpt>
      <trkpt lat="42.496171460" lon="1.210985850">
        <ele>847.10</ele>
        <time>2014-08-08T07:07:38Z</time>
      </trkpt>
      <trkpt lat="42.496171130" lon="1.210884100">
        <ele>847.10</ele>
        <time>2014-08-08T07:07:45Z</time>
      </trkpt>
      <trkpt lat="42.496210020" lon="1.210862470">
        <ele>847.50</ele>
        <time>2014-08-08T07:07:53Z</time>
      </trkpt>
      <trkpt lat="42.496243550" lon="1.210856860">
        <ele>847.50</ele>
        <time>2014-08-08T07:08:05Z</time>
      </trkpt>
      <trkpt lat="42.496258640" lon="1.210825260">
        <ele>841.30</ele>
        <time>2014-08-08T07:16:42Z</time>
      </trkpt>
      <trkpt lat="42.496281940" lon="1.210778820">
        <ele>840.80</ele>
        <time>2014-08-08T07:16:49Z</time>
      </trkpt>
      <trkpt lat="42.496301720" lon="1.210741270">
        <ele>840.80</ele>
        <time>2014-08-08T07:16:51Z</time>
      </trkpt>
      <trkpt lat="42.496323260" lon="1.210725180">
        <ele>841.30</ele>
        <time>2014-08-08T07:16:55Z</time>
      </trkpt>
      <trkpt lat="42.496391820" lon="1.210595930">
        <ele>842.30</ele>
        <time>2014-08-08T07:17:02Z</time>
      </trkpt>
      <trkpt lat="42.496505230" lon="1.210325530">
        <ele>842.30</ele>
        <time>2014-08-08T07:17:12Z</time>
      </trkpt>
      <trkpt lat="42.496621070" lon="1.210059650">
        <ele>842.70</ele>
        <time>2014-08-08T07:17:21Z</time>
      </trkpt>
      <trkpt lat="42.496726180" lon="1.209830660">
        <ele>843.20</ele>
        <time>2014-08-08T07:17:31Z</time>
      </trkpt>
      <trkpt lat="42.496771190" lon="1.209768130">
        <ele>843.70</ele>
        <time>2014-08-08T07:20:05Z</time>
      </trkpt>
      <trkpt lat="42.496851990" lon="1.209650700">
        <ele>843.70</ele>
        <time>2014-08-08T07:20:13Z</time>
      </trkpt>
      <trkpt lat="42.497034380" lon="1.209510390">
        <ele>844.70</ele>
        <time>2014-08-08T07:20:22Z</time>
      </trkpt>
      <trkpt lat="42.497169830" lon="1.209409550">
        <ele>845.10</ele>
        <time>2014-08-08T07:20:29Z</time>
      </trkpt>
      <trkpt lat="42.497337970" lon="1.209274940">
        <ele>845.60</ele>
        <time>2014-08-08T07:20:37Z</time>
      </trkpt>
      <trkpt lat="42.497549450" lon="1.209213420">
        <ele>845.60</ele>
        <time>2014-08-08T07:20:45Z</time>
      </trkpt>
      <trkpt lat="42.497761850" lon="1.209146610">
        <ele>847.10</ele>
        <time>2014-08-08T07:20:53Z</time>
      </trkpt>
      <trkpt lat="42.497992100" lon="1.209131610">
        <ele>848.00</ele>
        <time>2014-08-08T07:21:02Z</time>
      </trkpt>
      <trkpt lat="42.498304240" lon="1.209091380">
        <ele>847.10</ele>
        <time>2014-08-08T07:21:13Z</time>
      </trkpt>
      <trkpt lat="42.498564500" lon="1.209031870">
        <ele>847.50</ele>
        <time>2014-08-08T07:21:22Z</time>
      </trkpt>
      <trkpt lat="42.498867750" lon="1.208921310">
        <ele>847.50</ele>
        <time>2014-08-08T07:21:31Z</time>
      </trkpt>
      <trkpt lat="42.499120220" lon="1.208814610">
        <ele>848.00</ele>
        <time>2014-08-08T07:21:39Z</time>
      </trkpt>
      <trkpt lat="42.499379970" lon="1.208651240">
        <ele>848.50</ele>
        <time>2014-08-08T07:21:48Z</time>
      </trkpt>
      <trkpt lat="42.499666720" lon="1.208376320">
        <ele>849.90</ele>
        <time>2014-08-08T07:22:00Z</time>
      </trkpt>
      <trkpt lat="42.499879950" lon="1.208101220">
        <ele>851.90</ele>
        <time>2014-08-08T07:22:11Z</time>
      </trkpt>
      <trkpt lat="42.500021520" lon="1.207883460">
        <ele>852.80</ele>
        <time>2014-08-08T07:22:21Z</time>
      </trkpt>
      <trkpt lat="42.500141380" lon="1.207644160">
        <ele>854.80</ele>
        <time>2014-08-08T07:22:31Z</time>
      </trkpt>
      <trkpt lat="42.500261330" lon="1.207360260">
        <ele>856.70</ele>
        <time>2014-08-08T07:22:42Z</time>
      </trkpt>
      <trkpt lat="42.500370630" lon="1.206997490">
        <ele>858.60</ele>
        <time>2014-08-08T07:22:55Z</time>
      </trkpt>
      <trkpt lat="42.500413630" lon="1.206709660">
        <ele>859.60</ele>
        <time>2014-08-08T07:23:05Z</time>
      </trkpt>
      <trkpt lat="42.500419080" lon="1.206450660">
        <ele>861.00</ele>
        <time>2014-08-08T07:23:13Z</time>
      </trkpt>
      <trkpt lat="42.500402650" lon="1.206128540">
        <ele>862.90</ele>
        <time>2014-08-08T07:23:23Z</time>
      </trkpt>
      <trkpt lat="42.500361410" lon="1.205801400">
        <ele>863.90</ele>
        <time>2014-08-08T07:23:33Z</time>
      </trkpt>
      <trkpt lat="42.500319920" lon="1.205433680">
        <ele>864.40</ele>
        <time>2014-08-08T07:23:44Z</time>
      </trkpt>
      <trkpt lat="42.500341380" lon="1.205064710">
        <ele>865.30</ele>
        <time>2014-08-08T07:23:54Z</time>
      </trkpt>
      <trkpt lat="42.500419160" lon="1.204682160">
        <ele>866.30</ele>
        <time>2014-08-08T07:24:04Z</time>
      </trkpt>
      <trkpt lat="42.500565680" lon="1.204318800">
        <ele>866.30</ele>
        <time>2014-08-08T07:24:13Z</time>
      </trkpt>
      <trkpt lat="42.500805310" lon="1.203974060">
        <ele>865.80</ele>
        <time>2014-08-08T07:24:22Z</time>
      </trkpt>
      <trkpt lat="42.501079650" lon="1.203746490">
        <ele>865.80</ele>
        <time>2014-08-08T07:24:30Z</time>
      </trkpt>
      <trkpt lat="42.501489950" lon="1.203589080">
        <ele>865.30</ele>
        <time>2014-08-08T07:24:40Z</time>
      </trkpt>
      <trkpt lat="42.501927480" lon="1.203540540">
        <ele>864.40</ele>
        <time>2014-08-08T07:24:49Z</time>
      </trkpt>
      <trkpt lat="42.502352530" lon="1.203523610">
        <ele>864.80</ele>
        <time>2014-08-08T07:24:58Z</time>
      </trkpt>
      <trkpt lat="42.502469460" lon="1.203524280">
        <ele>863.90</ele>
        <time>2014-08-08T07:25:00Z</time>
      </trkpt>
      <trkpt lat="42.502998270" lon="1.203421100">
        <ele>863.90</ele>
        <time>2014-08-08T07:25:11Z</time>
      </trkpt>
      <trkpt lat="42.503427430" lon="1.203243990">
        <ele>862.90</ele>
        <time>2014-08-08T07:25:19Z</time>
      </trkpt>
      <trkpt lat="42.503882310" lon="1.202982560">
        <ele>862.00</ele>
        <time>2014-08-08T07:25:27Z</time>
      </trkpt>
      <trkpt lat="42.504355220" lon="1.202739070">
        <ele>860.00</ele>
        <time>2014-08-08T07:25:35Z</time>
      </trkpt>
      <trkpt lat="42.504419930" lon="1.202715770">
        <ele>860.00</ele>
        <time>2014-08-08T07:25:36Z</time>
      </trkpt>
      <trkpt lat="42.504841120" lon="1.202727250">
        <ele>860.00</ele>
        <time>2014-08-08T07:25:43Z</time>
      </trkpt>
      <trkpt lat="42.504959970" lon="1.202759180">
        <ele>860.00</ele>
        <time>2014-08-08T07:25:45Z</time>
      </trkpt>
      <trkpt lat="42.505387280" lon="1.202924890">
        <ele>859.60</ele>
        <time>2014-08-08T07:25:54Z</time>
      </trkpt>
      <trkpt lat="42.505522990" lon="1.202984910">
        <ele>860.00</ele>
        <time>2014-08-08T07:25:57Z</time>
      </trkpt>
      <trkpt lat="42.505929090" lon="1.203136290">
        <ele>860.50</ele>
        <time>2014-08-08T07:26:05Z</time>
      </trkpt>
      <trkpt lat="42.506475760" lon="1.202996640">
        <ele>861.50</ele>
        <time>2014-08-08T07:26:16Z</time>
      </trkpt>
      <trkpt lat="42.506957800" lon="1.202910390">
        <ele>862.00</ele>
        <time>2014-08-08T07:26:28Z</time>
      </trkpt>
      <trkpt lat="42.507289550" lon="1.202755500">
        <ele>862.90</ele>
        <time>2014-08-08T07:26:37Z</time>
      </trkpt>
      <trkpt lat="42.507681660" lon="1.202401780">
        <ele>862.40</ele>
        <time>2014-08-08T07:26:48Z</time>
      </trkpt>
      <trkpt lat="42.507900340" lon="1.202085870">
        <ele>862.40</ele>
        <time>2014-08-08T07:26:55Z</time>
      </trkpt>
      <trkpt lat="42.508286160" lon="1.201624530">
        <ele>862.90</ele>
        <time>2014-08-08T07:27:05Z</time>
      </trkpt>
      <trkpt lat="42.508459500" lon="1.201473740">
        <ele>862.40</ele>
        <time>2014-08-08T07:27:09Z</time>
      </trkpt>
      <trkpt lat="42.508910610" lon="1.201148100">
        <ele>862.40</ele>
        <time>2014-08-08T07:27:19Z</time>
      </trkpt>
      <trkpt lat="42.509448980" lon="1.200764630">
        <ele>862.00</ele>
        <time>2014-08-08T07:27:31Z</time>
      </trkpt>
      <trkpt lat="42.509830950" lon="1.200353240">
        <ele>861.50</ele>
        <time>2014-08-08T07:27:41Z</time>
      </trkpt>
      <trkpt lat="42.510071590" lon="1.199848150">
        <ele>861.50</ele>
        <time>2014-08-08T07:27:50Z</time>
      </trkpt>
      <trkpt lat="42.510240490" lon="1.199328890">
        <ele>861.00</ele>
        <time>2014-08-08T07:27:58Z</time>
      </trkpt>
      <trkpt lat="42.510487920" lon="1.198637050">
        <ele>861.00</ele>
        <time>2014-08-08T07:28:09Z</time>
      </trkpt>
      <trkpt lat="42.510705850" lon="1.198056940">
        <ele>861.50</ele>
        <time>2014-08-08T07:28:19Z</time>
      </trkpt>
      <trkpt lat="42.511021430" lon="1.197245230">
        <ele>861.00</ele>
        <time>2014-08-08T07:28:33Z</time>
      </trkpt>
      <trkpt lat="42.511287390" lon="1.196628320">
        <ele>861.00</ele>
        <time>2014-08-08T07:28:44Z</time>
      </trkpt>
      <trkpt lat="42.511612440" lon="1.196014770">
        <ele>861.00</ele>
        <time>2014-08-08T07:28:56Z</time>
      </trkpt>
      <trkpt lat="42.511934550" lon="1.195544210">
        <ele>862.90</ele>
        <time>2014-08-08T07:29:07Z</time>
      </trkpt>
      <trkpt lat="42.512360520" lon="1.195067950">
        <ele>864.80</ele>
        <time>2014-08-08T07:29:21Z</time>
      </trkpt>
      <trkpt lat="42.512713480" lon="1.194802580">
        <ele>865.30</ele>
        <time>2014-08-08T07:29:32Z</time>
      </trkpt>
      <trkpt lat="42.513024290" lon="1.194659750">
        <ele>866.80</ele>
        <time>2014-08-08T07:29:41Z</time>
      </trkpt>
      <trkpt lat="42.513349000" lon="1.194619350">
        <ele>867.70</ele>
        <time>2014-08-08T07:29:50Z</time>
      </trkpt>
      <trkpt lat="42.513734740" lon="1.194639380">
        <ele>868.70</ele>
        <time>2014-08-08T07:30:00Z</time>
      </trkpt>
      <trkpt lat="42.514071860" lon="1.194682630">
        <ele>868.70</ele>
        <time>2014-08-08T07:30:09Z</time>
      </trkpt>
      <trkpt lat="42.514338570" lon="1.194767630">
        <ele>868.70</ele>
        <time>2014-08-08T07:30:16Z</time>
      </trkpt>
      <trkpt lat="42.514728660" lon="1.194996790">
        <ele>867.70</ele>
        <time>2014-08-08T07:30:25Z</time>
      </trkpt>
      <trkpt lat="42.515126220" lon="1.195244560">
        <ele>867.70</ele>
        <time>2014-08-08T07:30:33Z</time>
      </trkpt>
      <trkpt lat="42.515567190" lon="1.195286300">
        <ele>867.70</ele>
        <time>2014-08-08T07:30:41Z</time>
      </trkpt>
      <trkpt lat="42.516041770" lon="1.195177420">
        <ele>865.80</ele>
        <time>2014-08-08T07:30:49Z</time>
      </trkpt>
      <trkpt lat="42.516505880" lon="1.194981530">
        <ele>865.80</ele>
        <time>2014-08-08T07:30:57Z</time>
      </trkpt>
      <trkpt lat="42.517004260" lon="1.194641980">
        <ele>866.80</ele>
        <time>2014-08-08T07:31:08Z</time>
      </trkpt>
      <trkpt lat="42.517312130" lon="1.194346770">
        <ele>867.30</ele>
        <time>2014-08-08T07:31:16Z</time>
      </trkpt>
      <trkpt lat="42.517697870" lon="1.193909570">
        <ele>867.30</ele>
        <time>2014-08-08T07:31:26Z</time>
      </trkpt>
      <trkpt lat="42.517973040" lon="1.193608160">
        <ele>867.70</ele>
        <time>2014-08-08T07:31:33Z</time>
      </trkpt>
      <trkpt lat="42.518414440" lon="1.193281180">
        <ele>867.70</ele>
        <time>2014-08-08T07:31:43Z</time>
      </trkpt>
      <trkpt lat="42.518860600" lon="1.193031310">
        <ele>868.20</ele>
        <time>2014-08-08T07:31:53Z</time>
      </trkpt>
      <trkpt lat="42.519234100" lon="1.192839200">
        <ele>868.20</ele>
        <time>2014-08-08T07:32:01Z</time>
      </trkpt>
      <trkpt lat="42.519634170" lon="1.192727050">
        <ele>868.70</ele>
        <time>2014-08-08T07:32:09Z</time>
      </trkpt>
      <trkpt lat="42.519989560" lon="1.192767030">
        <ele>868.70</ele>
        <time>2014-08-08T07:32:16Z</time>
      </trkpt>
      <trkpt lat="42.520144290" lon="1.192818250">
        <ele>869.20</ele>
        <time>2014-08-08T07:32:19Z</time>
      </trkpt>
      <trkpt lat="42.520556100" lon="1.193107250">
        <ele>870.10</ele>
        <time>2014-08-08T07:32:28Z</time>
      </trkpt>
      <trkpt lat="42.520853490" lon="1.193365670">
        <ele>869.70</ele>
        <time>2014-08-08T07:32:36Z</time>
      </trkpt>
      <trkpt lat="42.521272500" lon="1.193614360">
        <ele>870.60</ele>
        <time>2014-08-08T07:32:45Z</time>
      </trkpt>
      <trkpt lat="42.521647590" lon="1.193682420">
        <ele>871.10</ele>
        <time>2014-08-08T07:32:52Z</time>
      </trkpt>
      <trkpt lat="42.521910360" lon="1.193655350">
        <ele>870.60</ele>
        <time>2014-08-08T07:32:58Z</time>
      </trkpt>
      <trkpt lat="42.521938520" lon="1.193651660">
        <ele>871.60</ele>
        <time>2014-08-08T07:32:59Z</time>
      </trkpt>
      <trkpt lat="42.522353340" lon="1.193437590">
        <ele>871.60</ele>
        <time>2014-08-08T07:33:07Z</time>
      </trkpt>
      <trkpt lat="42.522669760" lon="1.193224270">
        <ele>870.60</ele>
        <time>2014-08-08T07:33:13Z</time>
      </trkpt>
      <trkpt lat="42.523046190" lon="1.193029970">
        <ele>870.60</ele>
        <time>2014-08-08T07:33:20Z</time>
      </trkpt>
      <trkpt lat="42.523467130" lon="1.192732250">
        <ele>870.60</ele>
        <time>2014-08-08T07:33:29Z</time>
      </trkpt>
      <trkpt lat="42.523622280" lon="1.192554050">
        <ele>872.10</ele>
        <time>2014-08-08T07:33:33Z</time>
      </trkpt>
      <trkpt lat="42.523868120" lon="1.192015930">
        <ele>873.00</ele>
        <time>2014-08-08T07:33:43Z</time>
      </trkpt>
      <trkpt lat="42.523912960" lon="1.191840830">
        <ele>873.00</ele>
        <time>2014-08-08T07:33:46Z</time>
      </trkpt>
      <trkpt lat="42.523935850" lon="1.191713430">
        <ele>873.50</ele>
        <time>2014-08-08T07:33:48Z</time>
      </trkpt>
      <trkpt lat="42.523983200" lon="1.191412270">
        <ele>873.50</ele>
        <time>2014-08-08T07:33:53Z</time>
      </trkpt>
      <trkpt lat="42.524159060" lon="1.190860320">
        <ele>874.50</ele>
        <time>2014-08-08T07:34:02Z</time>
      </trkpt>
      <trkpt lat="42.524190910" lon="1.190802320">
        <ele>874.50</ele>
        <time>2014-08-08T07:34:03Z</time>
      </trkpt>
      <trkpt lat="42.524612180" lon="1.190250790">
        <ele>875.40</ele>
        <time>2014-08-08T07:34:15Z</time>
      </trkpt>
      <trkpt lat="42.524956010" lon="1.189839740">
        <ele>875.40</ele>
        <time>2014-08-08T07:34:24Z</time>
      </trkpt>
      <trkpt lat="42.525237810" lon="1.189438410">
        <ele>875.40</ele>
        <time>2014-08-08T07:34:32Z</time>
      </trkpt>
      <trkpt lat="42.525492790" lon="1.188746230">
        <ele>876.40</ele>
        <time>2014-08-08T07:34:45Z</time>
      </trkpt>
      <trkpt lat="42.525736280" lon="1.188086580">
        <ele>879.70</ele>
        <time>2014-08-08T07:34:57Z</time>
      </trkpt>
      <trkpt lat="42.525764440" lon="1.188010220">
        <ele>879.70</ele>
        <time>2014-08-08T07:34:58Z</time>
      </trkpt>
      <trkpt lat="42.525741810" lon="1.187323990">
        <ele>881.20</ele>
        <time>2014-08-08T07:35:09Z</time>
      </trkpt>
      <trkpt lat="42.525638380" lon="1.186739690">
        <ele>882.60</ele>
        <time>2014-08-08T07:35:21Z</time>
      </trkpt>
      <trkpt lat="42.525584820" lon="1.186320090">
        <ele>883.10</ele>
        <time>2014-08-08T07:35:30Z</time>
      </trkpt>
      <trkpt lat="42.525592110" lon="1.186072990">
        <ele>884.10</ele>
        <time>2014-08-08T07:35:35Z</time>
      </trkpt>
      <trkpt lat="42.525617420" lon="1.185756740">
        <ele>885.00</ele>
        <time>2014-08-08T07:35:41Z</time>
      </trkpt>
      <trkpt lat="42.525468650" lon="1.185677200">
        <ele>884.60</ele>
        <time>2014-08-08T07:35:46Z</time>
      </trkpt>
      <trkpt lat="42.525295810" lon="1.185579800">
        <ele>885.50</ele>
        <time>2014-08-08T07:35:52Z</time>
      </trkpt>
      <trkpt lat="42.525125660" lon="1.185478720">
        <ele>885.50</ele>
        <time>2014-08-08T07:35:58Z</time>
      </trkpt>
      <trkpt lat="42.524906890" lon="1.185332960">
        <ele>887.00</ele>
        <time>2014-08-08T07:36:06Z</time>
      </trkpt>
      <trkpt lat="42.524688040" lon="1.185116870">
        <ele>887.90</ele>
        <time>2014-08-08T07:36:15Z</time>
      </trkpt>
      <trkpt lat="42.524542110" lon="1.184931040">
        <ele>888.90</ele>
        <time>2014-08-08T07:36:23Z</time>
      </trkpt>
      <trkpt lat="42.524429710" lon="1.184749160">
        <ele>890.30</ele>
        <time>2014-08-08T07:36:31Z</time>
      </trkpt>
      <trkpt lat="42.524290650" lon="1.184590400">
        <ele>891.30</ele>
        <time>2014-08-08T07:36:40Z</time>
      </trkpt>
      <trkpt lat="42.524163420" lon="1.184469370">
        <ele>892.20</ele>
        <time>2014-08-08T07:36:48Z</time>
      </trkpt>
      <trkpt lat="42.524006930" lon="1.184257560">
        <ele>894.20</ele>
        <time>2014-08-08T07:36:59Z</time>
      </trkpt>
      <trkpt lat="42.523891930" lon="1.184076090">
        <ele>894.60</ele>
        <time>2014-08-08T07:37:08Z</time>
      </trkpt>
      <trkpt lat="42.523809200" lon="1.183802000">
        <ele>895.60</ele>
        <time>2014-08-08T07:37:19Z</time>
      </trkpt>
      <trkpt lat="42.523714980" lon="1.183540650">
        <ele>896.60</ele>
        <time>2014-08-08T07:37:29Z</time>
      </trkpt>
      <trkpt lat="42.523618590" lon="1.183416940">
        <ele>897.10</ele>
        <time>2014-08-08T07:37:35Z</time>
      </trkpt>
      <trkpt lat="42.523521610" lon="1.183278130">
        <ele>897.50</ele>
        <time>2014-08-08T07:37:42Z</time>
      </trkpt>
      <trkpt lat="42.523476940" lon="1.183224990">
        <ele>899.50</ele>
        <time>2014-08-08T07:37:46Z</time>
      </trkpt>
      <trkpt lat="42.523467130" lon="1.183184090">
        <ele>899.00</ele>
        <time>2014-08-08T07:37:48Z</time>
      </trkpt>
      <trkpt lat="42.523337460" lon="1.183094230">
        <ele>900.90</ele>
        <time>2014-08-08T07:37:57Z</time>
      </trkpt>
      <trkpt lat="42.523217350" lon="1.183028020">
        <ele>902.30</ele>
        <time>2014-08-08T07:38:05Z</time>
      </trkpt>
      <trkpt lat="42.523197150" lon="1.182998760">
        <ele>901.40</ele>
        <time>2014-08-08T07:38:07Z</time>
      </trkpt>
      <trkpt lat="42.523169820" lon="1.182978400">
        <ele>902.80</ele>
        <time>2014-08-08T07:38:09Z</time>
      </trkpt>
      <trkpt lat="42.523100340" lon="1.182887120">
        <ele>903.30</ele>
        <time>2014-08-08T07:38:15Z</time>
      </trkpt>
      <trkpt lat="42.522997830" lon="1.182712350">
        <ele>904.30</ele>
        <time>2014-08-08T07:38:24Z</time>
      </trkpt>
      <trkpt lat="42.522868240" lon="1.182482270">
        <ele>905.70</ele>
        <time>2014-08-08T07:38:35Z</time>
      </trkpt>
      <trkpt lat="42.522734050" lon="1.182309270">
        <ele>907.60</ele>
        <time>2014-08-08T07:38:45Z</time>
      </trkpt>
      <trkpt lat="42.522590800" lon="1.182207430">
        <ele>908.60</ele>
        <time>2014-08-08T07:38:54Z</time>
      </trkpt>
      <trkpt lat="42.522400200" lon="1.182151270">
        <ele>909.50</ele>
        <time>2014-08-08T07:39:05Z</time>
      </trkpt>
      <trkpt lat="42.522180680" lon="1.182183710">
        <ele>911.00</ele>
        <time>2014-08-08T07:39:16Z</time>
      </trkpt>
      <trkpt lat="42.522039610" lon="1.182166520">
        <ele>911.50</ele>
        <time>2014-08-08T07:39:24Z</time>
      </trkpt>
      <trkpt lat="42.521903070" lon="1.181905010">
        <ele>912.40</ele>
        <time>2014-08-08T07:39:36Z</time>
      </trkpt>
      <trkpt lat="42.521762250" lon="1.181698230">
        <ele>914.40</ele>
        <time>2014-08-08T07:39:48Z</time>
      </trkpt>
      <trkpt lat="42.521653370" lon="1.181548780">
        <ele>915.80</ele>
        <time>2014-08-08T07:39:57Z</time>
      </trkpt>
      <trkpt lat="42.521546670" lon="1.181482140">
        <ele>915.80</ele>
        <time>2014-08-08T07:40:04Z</time>
      </trkpt>
      <trkpt lat="42.521418430" lon="1.181503430">
        <ele>917.20</ele>
        <time>2014-08-08T07:40:11Z</time>
      </trkpt>
      <trkpt lat="42.521298650" lon="1.181520780">
        <ele>918.70</ele>
        <time>2014-08-08T07:40:18Z</time>
      </trkpt>
      <trkpt lat="42.521236960" lon="1.181508710">
        <ele>919.60</ele>
        <time>2014-08-08T07:40:22Z</time>
      </trkpt>
      <trkpt lat="42.521178790" lon="1.181394300">
        <ele>920.60</ele>
        <time>2014-08-08T07:40:28Z</time>
      </trkpt>
      <trkpt lat="42.521165710" lon="1.181304950">
        <ele>920.60</ele>
        <time>2014-08-08T07:40:31Z</time>
      </trkpt>
      <trkpt lat="42.521102260" lon="1.180987690">
        <ele>922.50</ele>
        <time>2014-08-08T07:40:44Z</time>
      </trkpt>
      <trkpt lat="42.521080550" lon="1.180895410">
        <ele>922.50</ele>
        <time>2014-08-08T07:40:48Z</time>
      </trkpt>
      <trkpt lat="42.521032440" lon="1.180822570">
        <ele>924.00</ele>
        <time>2014-08-08T07:40:54Z</time>
      </trkpt>
      <trkpt lat="42.520923640" lon="1.180666330">
        <ele>924.90</ele>
        <time>2014-08-08T07:41:02Z</time>
      </trkpt>
      <trkpt lat="42.520792470" lon="1.180434660">
        <ele>926.40</ele>
        <time>2014-08-08T07:41:14Z</time>
      </trkpt>
      <trkpt lat="42.520657270" lon="1.180256040">
        <ele>926.90</ele>
        <time>2014-08-08T07:41:25Z</time>
      </trkpt>
      <trkpt lat="42.520537820" lon="1.180160730">
        <ele>927.80</ele>
        <time>2014-08-08T07:41:33Z</time>
      </trkpt>
      <trkpt lat="42.520369350" lon="1.180080860">
        <ele>929.30</ele>
        <time>2014-08-08T07:41:43Z</time>
      </trkpt>
      <trkpt lat="42.520211600" lon="1.180015900">
        <ele>931.70</ele>
        <time>2014-08-08T07:41:52Z</time>
      </trkpt>
      <trkpt lat="42.520109590" lon="1.179882290">
        <ele>930.70</ele>
        <time>2014-08-08T07:42:00Z</time>
      </trkpt>
      <trkpt lat="42.519973970" lon="1.179708950">
        <ele>932.60</ele>
        <time>2014-08-08T07:42:10Z</time>
      </trkpt>
      <trkpt lat="42.519838770" lon="1.179559420">
        <ele>934.50</ele>
        <time>2014-08-08T07:42:20Z</time>
      </trkpt>
      <trkpt lat="42.519782530" lon="1.179471070">
        <ele>934.50</ele>
        <time>2014-08-08T07:42:25Z</time>
      </trkpt>
      <trkpt lat="42.519663420" lon="1.179363110">
        <ele>936.00</ele>
        <time>2014-08-08T07:42:33Z</time>
      </trkpt>
      <trkpt lat="42.519522770" lon="1.179231680">
        <ele>936.50</ele>
        <time>2014-08-08T07:42:42Z</time>
      </trkpt>
      <trkpt lat="42.519396630" lon="1.179115930">
        <ele>937.90</ele>
        <time>2014-08-08T07:42:50Z</time>
      </trkpt>
      <trkpt lat="42.519208120" lon="1.179075110">
        <ele>937.40</ele>
        <time>2014-08-08T07:42:58Z</time>
      </trkpt>
      <trkpt lat="42.518974350" lon="1.179143930">
        <ele>938.90</ele>
        <time>2014-08-08T07:43:08Z</time>
      </trkpt>
      <trkpt lat="42.518801510" lon="1.179171000">
        <ele>939.40</ele>
        <time>2014-08-08T07:43:16Z</time>
      </trkpt>
      <trkpt lat="42.518663550" lon="1.179052140">
        <ele>940.30</ele>
        <time>2014-08-08T07:43:25Z</time>
      </trkpt>
      <trkpt lat="42.518565230" lon="1.178834550">
        <ele>941.80</ele>
        <time>2014-08-08T07:43:35Z</time>
      </trkpt>
      <trkpt lat="42.518447710" lon="1.178693060">
        <ele>942.70</ele>
        <time>2014-08-08T07:43:43Z</time>
      </trkpt>
      <trkpt lat="42.518300270" lon="1.178584430">
        <ele>943.70</ele>
        <time>2014-08-08T07:43:52Z</time>
      </trkpt>
      <trkpt lat="42.518077820" lon="1.178604550">
        <ele>944.60</ele>
        <time>2014-08-08T07:44:02Z</time>
      </trkpt>
      <trkpt lat="42.517872460" lon="1.178612350">
        <ele>946.10</ele>
        <time>2014-08-08T07:44:12Z</time>
      </trkpt>
      <trkpt lat="42.517704820" lon="1.178539000">
        <ele>947.50</ele>
        <time>2014-08-08T07:44:21Z</time>
      </trkpt>
      <trkpt lat="42.517565350" lon="1.178450580">
        <ele>949.00</ele>
        <time>2014-08-08T07:44:30Z</time>
      </trkpt>
      <trkpt lat="42.517432330" lon="1.178325850">
        <ele>949.90</ele>
        <time>2014-08-08T07:44:40Z</time>
      </trkpt>
      <trkpt lat="42.517325790" lon="1.178212530">
        <ele>951.80</ele>
        <time>2014-08-08T07:44:49Z</time>
      </trkpt>
      <trkpt lat="42.517229650" lon="1.178034830">
        <ele>952.80</ele>
        <time>2014-08-08T07:44:58Z</time>
      </trkpt>
      <trkpt lat="42.517128570" lon="1.177904580">
        <ele>953.80</ele>
        <time>2014-08-08T07:45:06Z</time>
      </trkpt>
      <trkpt lat="42.517093450" lon="1.177834000">
        <ele>954.30</ele>
        <time>2014-08-08T07:45:10Z</time>
      </trkpt>
      <trkpt lat="42.516962770" lon="1.177686230">
        <ele>955.70</ele>
        <time>2014-08-08T07:45:20Z</time>
      </trkpt>
      <trkpt lat="42.516843750" lon="1.177507190">
        <ele>957.10</ele>
        <time>2014-08-08T07:45:31Z</time>
      </trkpt>
      <trkpt lat="42.516756750" lon="1.177361010">
        <ele>958.60</ele>
        <time>2014-08-08T07:45:40Z</time>
      </trkpt>
      <trkpt lat="42.516638140" lon="1.177241900">
        <ele>960.50</ele>
        <time>2014-08-08T07:45:49Z</time>
      </trkpt>
      <trkpt lat="42.516518780" lon="1.177088180">
        <ele>961.90</ele>
        <time>2014-08-08T07:45:59Z</time>
      </trkpt>
      <trkpt lat="42.516440410" lon="1.176990780">
        <ele>962.40</ele>
        <time>2014-08-08T07:46:06Z</time>
      </trkpt>
      <trkpt lat="42.516331370" lon="1.176874110">
        <ele>963.90</ele>
        <time>2014-08-08T07:46:15Z</time>
      </trkpt>
      <trkpt lat="42.516228600" lon="1.176759950">
        <ele>965.30</ele>
        <time>2014-08-08T07:46:24Z</time>
      </trkpt>
      <trkpt lat="42.516101790" lon="1.176653410">
        <ele>967.20</ele>
        <time>2014-08-08T07:46:33Z</time>
      </trkpt>
      <trkpt lat="42.515960630" lon="1.176555010">
        <ele>968.70</ele>
        <time>2014-08-08T07:46:43Z</time>
      </trkpt>
      <trkpt lat="42.515849490" lon="1.176426430">
        <ele>970.60</ele>
        <time>2014-08-08T07:46:52Z</time>
      </trkpt>
      <trkpt lat="42.515722590" lon="1.176289470">
        <ele>971.60</ele>
        <time>2014-08-08T07:47:00Z</time>
      </trkpt>
      <trkpt lat="42.515665930" lon="1.176137340">
        <ele>971.10</ele>
        <time>2014-08-08T07:47:06Z</time>
      </trkpt>
      <trkpt lat="42.515610860" lon="1.176065670">
        <ele>971.60</ele>
        <time>2014-08-08T07:47:10Z</time>
      </trkpt>
      <trkpt lat="42.515466020" lon="1.175940280">
        <ele>971.60</ele>
        <time>2014-08-08T07:47:19Z</time>
      </trkpt>
      <trkpt lat="42.515380190" lon="1.175870540">
        <ele>972.50</ele>
        <time>2014-08-08T07:47:24Z</time>
      </trkpt>
      <trkpt lat="42.515268790" lon="1.175760740">
        <ele>972.50</ele>
        <time>2014-08-08T07:47:32Z</time>
      </trkpt>
      <trkpt lat="42.515244230" lon="1.175732910">
        <ele>973.00</ele>
        <time>2014-08-08T07:47:34Z</time>
      </trkpt>
      <trkpt lat="42.515099230" lon="1.175625120">
        <ele>974.40</ele>
        <time>2014-08-08T07:47:43Z</time>
      </trkpt>
      <trkpt lat="42.515019600" lon="1.175545240">
        <ele>975.40</ele>
        <time>2014-08-08T07:47:48Z</time>
      </trkpt>
      <trkpt lat="42.514905440" lon="1.175399560">
        <ele>975.90</ele>
        <time>2014-08-08T07:47:57Z</time>
      </trkpt>
      <trkpt lat="42.514869310" lon="1.175378190">
        <ele>976.80</ele>
        <time>2014-08-08T07:47:59Z</time>
      </trkpt>
      <trkpt lat="42.514828830" lon="1.175312560">
        <ele>977.30</ele>
        <time>2014-08-08T07:48:04Z</time>
      </trkpt>
      <trkpt lat="42.514710720" lon="1.175235360">
        <ele>978.30</ele>
        <time>2014-08-08T07:48:12Z</time>
      </trkpt>
      <trkpt lat="42.514616760" lon="1.175165460">
        <ele>979.20</ele>
        <time>2014-08-08T07:48:18Z</time>
      </trkpt>
      <trkpt lat="42.514601840" lon="1.175138630">
        <ele>979.20</ele>
        <time>2014-08-08T07:48:20Z</time>
      </trkpt>
      <trkpt lat="42.514456590" lon="1.175047940">
        <ele>981.20</ele>
        <time>2014-08-08T07:48:29Z</time>
      </trkpt>
      <trkpt lat="42.514291880" lon="1.174920290">
        <ele>982.10</ele>
        <time>2014-08-08T07:48:40Z</time>
      </trkpt>
      <trkpt lat="42.514236480" lon="1.174877540">
        <ele>983.60</ele>
        <time>2014-08-08T07:48:44Z</time>
      </trkpt>
      <trkpt lat="42.514125670" lon="1.174788350">
        <ele>984.50</ele>
        <time>2014-08-08T07:48:52Z</time>
      </trkpt>
      <trkpt lat="42.514106980" lon="1.174758100">
        <ele>985.00</ele>
        <time>2014-08-08T07:48:54Z</time>
      </trkpt>
      <trkpt lat="42.514037990" lon="1.174676200">
        <ele>986.50</ele>
        <time>2014-08-08T07:49:00Z</time>
      </trkpt>
      <trkpt lat="42.513799190" lon="1.174591460">
        <ele>987.90</ele>
        <time>2014-08-08T07:49:12Z</time>
      </trkpt>
      <trkpt lat="42.513633730" lon="1.174563300">
        <ele>989.30</ele>
        <time>2014-08-08T07:49:22Z</time>
      </trkpt>
      <trkpt lat="42.513471380" lon="1.174558860">
        <ele>990.80</ele>
        <time>2014-08-08T07:49:31Z</time>
      </trkpt>
      <trkpt lat="42.513322850" lon="1.174514770">
        <ele>990.80</ele>
        <time>2014-08-08T07:49:40Z</time>
      </trkpt>
      <trkpt lat="42.513210030" lon="1.174345450">
        <ele>992.20</ele>
        <time>2014-08-08T07:49:49Z</time>
      </trkpt>
      <trkpt lat="42.513187980" lon="1.174305220">
        <ele>993.20</ele>
        <time>2014-08-08T07:49:51Z</time>
      </trkpt>
      <trkpt lat="42.513117070" lon="1.174200870">
        <ele>994.10</ele>
        <time>2014-08-08T07:49:57Z</time>
      </trkpt>
      <trkpt lat="42.512999310" lon="1.174063240">
        <ele>995.10</ele>
        <time>2014-08-08T07:50:06Z</time>
      </trkpt>
      <trkpt lat="42.512867040" lon="1.173839270">
        <ele>996.10</ele>
        <time>2014-08-08T07:50:17Z</time>
      </trkpt>
      <trkpt lat="42.512739220" lon="1.173646650">
        <ele>998.00</ele>
        <time>2014-08-08T07:50:28Z</time>
      </trkpt>
      <trkpt lat="42.512688000" lon="1.173432080">
        <ele>997.50</ele>
        <time>2014-08-08T07:50:36Z</time>
      </trkpt>
      <trkpt lat="42.512645170" lon="1.173204510">
        <ele>997.00</ele>
        <time>2014-08-08T07:50:43Z</time>
      </trkpt>
      <trkpt lat="42.512517430" lon="1.173045590">
        <ele>997.00</ele>
        <time>2014-08-08T07:50:50Z</time>
      </trkpt>
      <trkpt lat="42.512502090" lon="1.173004100">
        <ele>997.50</ele>
        <time>2014-08-08T07:50:52Z</time>
      </trkpt>
      <trkpt lat="42.512562690" lon="1.172848110">
        <ele>999.00</ele>
        <time>2014-08-08T07:51:01Z</time>
      </trkpt>
      <trkpt lat="42.512582890" lon="1.172709140">
        <ele>1000.40</ele>
        <time>2014-08-08T07:51:08Z</time>
      </trkpt>
      <trkpt lat="42.512553980" lon="1.172605040">
        <ele>1000.90</ele>
        <time>2014-08-08T07:51:13Z</time>
      </trkpt>
      <trkpt lat="42.512509470" lon="1.172594810">
        <ele>1001.80</ele>
        <time>2014-08-08T07:51:18Z</time>
      </trkpt>
      <trkpt lat="42.512474940" lon="1.172601600">
        <ele>1001.80</ele>
        <time>2014-08-08T07:51:21Z</time>
      </trkpt>
      <trkpt lat="42.512424480" lon="1.172748950">
        <ele>1003.30</ele>
        <time>2014-08-08T07:51:30Z</time>
      </trkpt>
      <trkpt lat="42.512345600" lon="1.172935700">
        <ele>1003.80</ele>
        <time>2014-08-08T07:51:38Z</time>
      </trkpt>
      <trkpt lat="42.512257680" lon="1.173132010">
        <ele>1005.20</ele>
        <time>2014-08-08T07:51:47Z</time>
      </trkpt>
      <trkpt lat="42.512143430" lon="1.173386150">
        <ele>1006.60</ele>
        <time>2014-08-08T07:51:58Z</time>
      </trkpt>
      <trkpt lat="42.512137060" lon="1.173517830">
        <ele>1007.60</ele>
        <time>2014-08-08T07:52:05Z</time>
      </trkpt>
      <trkpt lat="42.512189110" lon="1.173658050">
        <ele>1008.10</ele>
        <time>2014-08-08T07:52:13Z</time>
      </trkpt>
      <trkpt lat="42.512241080" lon="1.173791240">
        <ele>1009.00</ele>
        <time>2014-08-08T07:52:21Z</time>
      </trkpt>
      <trkpt lat="42.512246110" lon="1.173803400">
        <ele>1010.00</ele>
        <time>2014-08-08T07:52:22Z</time>
      </trkpt>
      <trkpt lat="42.512271170" lon="1.174022250">
        <ele>1011.00</ele>
        <time>2014-08-08T07:52:31Z</time>
      </trkpt>
      <trkpt lat="42.512259770" lon="1.174176390">
        <ele>1012.40</ele>
        <time>2014-08-08T07:52:38Z</time>
      </trkpt>
      <trkpt lat="42.512212920" lon="1.174405640">
        <ele>1012.90</ele>
        <time>2014-08-08T07:52:48Z</time>
      </trkpt>
      <trkpt lat="42.512103870" lon="1.174579730">
        <ele>1014.30</ele>
        <time>2014-08-08T07:52:56Z</time>
      </trkpt>
      <trkpt lat="42.511882330" lon="1.174827080">
        <ele>1015.80</ele>
        <time>2014-08-08T07:53:06Z</time>
      </trkpt>
      <trkpt lat="42.511766160" lon="1.175008880">
        <ele>1016.30</ele>
        <time>2014-08-08T07:53:13Z</time>
      </trkpt>
      <trkpt lat="42.511779410" lon="1.175026570">
        <ele>1016.70</ele>
        <time>2014-08-08T07:53:14Z</time>
      </trkpt>
      <trkpt lat="42.511797170" lon="1.175063110">
        <ele>1016.70</ele>
        <time>2014-08-08T07:53:17Z</time>
      </trkpt>
      <trkpt lat="42.511915020" lon="1.175016840">
        <ele>1017.70</ele>
        <time>2014-08-08T07:53:21Z</time>
      </trkpt>
      <trkpt lat="42.512085850" lon="1.174939230">
        <ele>1018.70</ele>
        <time>2014-08-08T07:53:29Z</time>
      </trkpt>
      <trkpt lat="42.512231610" lon="1.174895310">
        <ele>1019.10</ele>
        <time>2014-08-08T07:53:32Z</time>
      </trkpt>
      <trkpt lat="42.512328760" lon="1.174910390">
        <ele>1020.10</ele>
        <time>2014-08-08T07:53:36Z</time>
      </trkpt>
      <trkpt lat="42.512445180" lon="1.175014410">
        <ele>1021.10</ele>
        <time>2014-08-08T07:53:44Z</time>
      </trkpt>
      <trkpt lat="42.512455150" lon="1.175049110">
        <ele>1022.00</ele>
        <time>2014-08-08T07:53:46Z</time>
      </trkpt>
      <trkpt lat="42.512532770" lon="1.175182300">
        <ele>1022.50</ele>
        <time>2014-08-08T07:53:53Z</time>
      </trkpt>
      <trkpt lat="42.512586830" lon="1.175211390">
        <ele>1022.50</ele>
        <time>2014-08-08T07:53:55Z</time>
      </trkpt>
      <trkpt lat="42.512707700" lon="1.175318840">
        <ele>1023.00</ele>
        <time>2014-08-08T07:54:01Z</time>
      </trkpt>
      <trkpt lat="42.512785490" lon="1.175353630">
        <ele>1024.40</ele>
        <time>2014-08-08T07:54:05Z</time>
      </trkpt>
      <trkpt lat="42.512903840" lon="1.175393780">
        <ele>1024.90</ele>
        <time>2014-08-08T07:54:11Z</time>
      </trkpt>
      <trkpt lat="42.513029650" lon="1.175528060">
        <ele>1025.40</ele>
        <time>2014-08-08T07:54:21Z</time>
      </trkpt>
      <trkpt lat="42.513127890" lon="1.175629900">
        <ele>1026.30</ele>
        <time>2014-08-08T07:54:28Z</time>
      </trkpt>
      <trkpt lat="42.513232830" lon="1.175829720">
        <ele>1027.30</ele>
        <time>2014-08-08T07:54:38Z</time>
      </trkpt>
      <trkpt lat="42.513343890" lon="1.176006750">
        <ele>1028.80</ele>
        <time>2014-08-08T07:54:48Z</time>
      </trkpt>
      <trkpt lat="42.513423600" lon="1.176087550">
        <ele>1029.20</ele>
        <time>2014-08-08T07:54:55Z</time>
      </trkpt>
      <trkpt lat="42.513474310" lon="1.176144710">
        <ele>1030.20</ele>
        <time>2014-08-08T07:54:59Z</time>
      </trkpt>
      <trkpt lat="42.513593920" lon="1.176302540">
        <ele>1031.20</ele>
        <time>2014-08-08T07:55:09Z</time>
      </trkpt>
      <trkpt lat="42.513663410" lon="1.176489550">
        <ele>1032.60</ele>
        <time>2014-08-08T07:55:19Z</time>
      </trkpt>
      <trkpt lat="42.513731050" lon="1.176651650">
        <ele>1033.10</ele>
        <time>2014-08-08T07:55:27Z</time>
      </trkpt>
      <trkpt lat="42.513912520" lon="1.176845110">
        <ele>1035.00</ele>
        <time>2014-08-08T07:55:40Z</time>
      </trkpt>
      <trkpt lat="42.513973200" lon="1.176885510">
        <ele>1036.00</ele>
        <time>2014-08-08T07:55:45Z</time>
      </trkpt>
      <trkpt lat="42.514118040" lon="1.177002270">
        <ele>1036.40</ele>
        <time>2014-08-08T07:55:56Z</time>
      </trkpt>
      <trkpt lat="42.514162630" lon="1.177095390">
        <ele>1037.90</ele>
        <time>2014-08-08T07:56:01Z</time>
      </trkpt>
      <trkpt lat="42.514117370" lon="1.177192700">
        <ele>1038.40</ele>
        <time>2014-08-08T07:56:07Z</time>
      </trkpt>
      <trkpt lat="42.514046540" lon="1.177193120">
        <ele>1039.80</ele>
        <time>2014-08-08T07:56:12Z</time>
      </trkpt>
      <trkpt lat="42.513916290" lon="1.177070240">
        <ele>1040.80</ele>
        <time>2014-08-08T07:56:21Z</time>
      </trkpt>
      <trkpt lat="42.513811850" lon="1.176971000">
        <ele>1040.80</ele>
        <time>2014-08-08T07:56:29Z</time>
      </trkpt>
      <trkpt lat="42.513671870" lon="1.176872680">
        <ele>1041.70</ele>
        <time>2014-08-08T07:56:39Z</time>
      </trkpt>
      <trkpt lat="42.513545810" lon="1.176728850">
        <ele>1042.70</ele>
        <time>2014-08-08T07:56:48Z</time>
      </trkpt>
      <trkpt lat="42.513436680" lon="1.176539840">
        <ele>1043.70</ele>
        <time>2014-08-08T07:56:58Z</time>
      </trkpt>
      <trkpt lat="42.513299970" lon="1.176377900">
        <ele>1046.10</ele>
        <time>2014-08-08T07:57:09Z</time>
      </trkpt>
      <trkpt lat="42.513152610" lon="1.176233310">
        <ele>1047.50</ele>
        <time>2014-08-08T07:57:21Z</time>
      </trkpt>
      <trkpt lat="42.513060330" lon="1.176131390">
        <ele>1047.50</ele>
        <time>2014-08-08T07:57:28Z</time>
      </trkpt>
      <trkpt lat="42.512956480" lon="1.175984870">
        <ele>1048.50</ele>
        <time>2014-08-08T07:57:36Z</time>
      </trkpt>
      <trkpt lat="42.512792610" lon="1.175821590">
        <ele>1048.90</ele>
        <time>2014-08-08T07:57:48Z</time>
      </trkpt>
      <trkpt lat="42.512641400" lon="1.175741290">
        <ele>1050.40</ele>
        <time>2014-08-08T07:57:58Z</time>
      </trkpt>
      <trkpt lat="42.512442750" lon="1.175687060">
        <ele>1052.30</ele>
        <time>2014-08-08T07:58:10Z</time>
      </trkpt>
      <trkpt lat="42.512253150" lon="1.175676920">
        <ele>1053.70</ele>
        <time>2014-08-08T07:58:21Z</time>
      </trkpt>
      <trkpt lat="42.512083080" lon="1.175703740">
        <ele>1056.20</ele>
        <time>2014-08-08T07:58:32Z</time>
      </trkpt>
      <trkpt lat="42.511926680" lon="1.175841120">
        <ele>1056.60</ele>
        <time>2014-08-08T07:58:44Z</time>
      </trkpt>
      <trkpt lat="42.511815610" lon="1.175990400">
        <ele>1058.60</ele>
        <time>2014-08-08T07:58:54Z</time>
      </trkpt>
      <trkpt lat="42.511724670" lon="1.176126520">
        <ele>1059.50</ele>
        <time>2014-08-08T07:59:03Z</time>
      </trkpt>
      <trkpt lat="42.511656190" lon="1.176172120">
        <ele>1060.00</ele>
        <time>2014-08-08T07:59:08Z</time>
      </trkpt>
      <trkpt lat="42.511607320" lon="1.176217470">
        <ele>1061.40</ele>
        <time>2014-08-08T07:59:12Z</time>
      </trkpt>
      <trkpt lat="42.511445050" lon="1.176350570">
        <ele>1061.40</ele>
        <time>2014-08-08T07:59:24Z</time>
      </trkpt>
      <trkpt lat="42.511333570" lon="1.176401790">
        <ele>1063.40</ele>
        <time>2014-08-08T07:59:31Z</time>
      </trkpt>
      <trkpt lat="42.511212450" lon="1.176465410">
        <ele>1064.30</ele>
        <time>2014-08-08T07:59:40Z</time>
      </trkpt>
      <trkpt lat="42.511110280" lon="1.176486780">
        <ele>1065.80</ele>
        <time>2014-08-08T07:59:47Z</time>
      </trkpt>
      <trkpt lat="42.511051690" lon="1.176460120">
        <ele>1065.80</ele>
        <time>2014-08-08T07:59:54Z</time>
      </trkpt>
      <trkpt lat="42.511056470" lon="1.176445790">
        <ele>1066.20</ele>
        <time>2014-08-08T07:59:55Z</time>
      </trkpt>
      <trkpt lat="42.511192340" lon="1.176351240">
        <ele>1068.20</ele>
        <time>2014-08-08T08:00:07Z</time>
      </trkpt>
      <trkpt lat="42.511161830" lon="1.176090060">
        <ele>1068.20</ele>
        <time>2014-08-08T08:00:14Z</time>
      </trkpt>
      <trkpt lat="42.511148330" lon="1.175892330">
        <ele>1070.10</ele>
        <time>2014-08-08T08:00:23Z</time>
      </trkpt>
      <trkpt lat="42.511146740" lon="1.175724030">
        <ele>1072.00</ele>
        <time>2014-08-08T08:00:32Z</time>
      </trkpt>
      <trkpt lat="42.511149760" lon="1.175688740">
        <ele>1071.50</ele>
        <time>2014-08-08T08:00:34Z</time>
      </trkpt>
      <trkpt lat="42.511166020" lon="1.175414650">
        <ele>1072.50</ele>
        <time>2014-08-08T08:00:43Z</time>
      </trkpt>
      <trkpt lat="42.511180520" lon="1.175275170">
        <ele>1073.90</ele>
        <time>2014-08-08T08:00:51Z</time>
      </trkpt>
      <trkpt lat="42.511206670" lon="1.175074930">
        <ele>1074.90</ele>
        <time>2014-08-08T08:01:00Z</time>
      </trkpt>
      <trkpt lat="42.511196020" lon="1.174876280">
        <ele>1075.40</ele>
        <time>2014-08-08T08:01:09Z</time>
      </trkpt>
      <trkpt lat="42.511236760" lon="1.174778710">
        <ele>1075.90</ele>
        <time>2014-08-08T08:04:01Z</time>
      </trkpt>
      <trkpt lat="42.511254950" lon="1.174768320">
        <ele>1075.90</ele>
        <time>2014-08-08T08:04:20Z</time>
      </trkpt>
      <trkpt lat="42.511275740" lon="1.174567070">
        <ele>1077.80</ele>
        <time>2014-08-08T08:04:31Z</time>
      </trkpt>
      <trkpt lat="42.511306000" lon="1.174373030">
        <ele>1078.30</ele>
        <time>2014-08-08T08:04:41Z</time>
      </trkpt>
      <trkpt lat="42.511276240" lon="1.174143700">
        <ele>1079.70</ele>
        <time>2014-08-08T08:04:52Z</time>
      </trkpt>
      <trkpt lat="42.511214380" lon="1.173980000">
        <ele>1080.20</ele>
        <time>2014-08-08T08:05:00Z</time>
      </trkpt>
      <trkpt lat="42.511142210" lon="1.173764500">
        <ele>1082.60</ele>
        <time>2014-08-08T08:05:11Z</time>
      </trkpt>
      <trkpt lat="42.511045230" lon="1.173583870">
        <ele>1082.60</ele>
        <time>2014-08-08T08:05:21Z</time>
      </trkpt>
      <trkpt lat="42.510922860" lon="1.173401650">
        <ele>1083.50</ele>
        <time>2014-08-08T08:05:32Z</time>
      </trkpt>
      <trkpt lat="42.510815400" lon="1.173253040">
        <ele>1085.00</ele>
        <time>2014-08-08T08:05:42Z</time>
      </trkpt>
      <trkpt lat="42.510699310" lon="1.173119100">
        <ele>1085.50</ele>
        <time>2014-08-08T08:05:51Z</time>
      </trkpt>
      <trkpt lat="42.510580960" lon="1.172986920">
        <ele>1086.90</ele>
        <time>2014-08-08T08:06:01Z</time>
      </trkpt>
      <trkpt lat="42.510452300" lon="1.172863950">
        <ele>1088.40</ele>
        <time>2014-08-08T08:06:11Z</time>
      </trkpt>
      <trkpt lat="42.510328580" lon="1.172740320">
        <ele>1089.80</ele>
        <time>2014-08-08T08:06:21Z</time>
      </trkpt>
      <trkpt lat="42.510218440" lon="1.172634960">
        <ele>1090.30</ele>
        <time>2014-08-08T08:06:30Z</time>
      </trkpt>
      <trkpt lat="42.510113590" lon="1.172437980">
        <ele>1091.70</ele>
        <time>2014-08-08T08:06:41Z</time>
      </trkpt>
      <trkpt lat="42.510113420" lon="1.172341420">
        <ele>1093.20</ele>
        <time>2014-08-08T08:06:46Z</time>
      </trkpt>
      <trkpt lat="42.510198490" lon="1.172177060">
        <ele>1093.20</ele>
        <time>2014-08-08T08:06:56Z</time>
      </trkpt>
      <trkpt lat="42.510236460" lon="1.171955520">
        <ele>1096.00</ele>
        <time>2014-08-08T08:07:07Z</time>
      </trkpt>
      <trkpt lat="42.510203690" lon="1.171684870">
        <ele>1097.50</ele>
        <time>2014-08-08T08:07:20Z</time>
      </trkpt>
      <trkpt lat="42.510120290" lon="1.171555450">
        <ele>1098.40</ele>
        <time>2014-08-08T08:07:29Z</time>
      </trkpt>
      <trkpt lat="42.510002020" lon="1.171354790">
        <ele>1099.90</ele>
        <time>2014-08-08T08:07:41Z</time>
      </trkpt>
      <trkpt lat="42.509924320" lon="1.171195450">
        <ele>1101.30</ele>
        <time>2014-08-08T08:07:50Z</time>
      </trkpt>
      <trkpt lat="42.509843020" lon="1.171010710">
        <ele>1102.30</ele>
        <time>2014-08-08T08:08:00Z</time>
      </trkpt>
      <trkpt lat="42.509781240" lon="1.170798820">
        <ele>1104.20</ele>
        <time>2014-08-08T08:08:11Z</time>
      </trkpt>
      <trkpt lat="42.509725340" lon="1.170553570">
        <ele>1105.70</ele>
        <time>2014-08-08T08:08:23Z</time>
      </trkpt>
      <trkpt lat="42.509689460" lon="1.170346280">
        <ele>1107.60</ele>
        <time>2014-08-08T08:08:33Z</time>
      </trkpt>
      <trkpt lat="42.509651740" lon="1.170166320">
        <ele>1108.50</ele>
        <time>2014-08-08T08:08:42Z</time>
      </trkpt>
      <trkpt lat="42.509558870" lon="1.170020730">
        <ele>1110.50</ele>
        <time>2014-08-08T08:08:52Z</time>
      </trkpt>
      <trkpt lat="42.509395930" lon="1.170021730">
        <ele>1111.40</ele>
        <time>2014-08-08T08:09:03Z</time>
      </trkpt>
      <trkpt lat="42.509246560" lon="1.170080660">
        <ele>1112.90</ele>
        <time>2014-08-08T08:09:13Z</time>
      </trkpt>
      <trkpt lat="42.509119410" lon="1.170118540">
        <ele>1113.80</ele>
        <time>2014-08-08T08:09:21Z</time>
      </trkpt>
      <trkpt lat="42.508994940" lon="1.170128770">
        <ele>1115.30</ele>
        <time>2014-08-08T08:09:30Z</time>
      </trkpt>
      <trkpt lat="42.508820260" lon="1.170079400">
        <ele>1117.70</ele>
        <time>2014-08-08T08:09:42Z</time>
      </trkpt>
      <trkpt lat="42.508667790" lon="1.170033050">
        <ele>1118.60</ele>
        <time>2014-08-08T08:09:52Z</time>
      </trkpt>
      <trkpt lat="42.508542730" lon="1.169973870">
        <ele>1120.10</ele>
        <time>2014-08-08T08:10:01Z</time>
      </trkpt>
      <trkpt lat="42.508411470" lon="1.169876470">
        <ele>1121.00</ele>
        <time>2014-08-08T08:10:11Z</time>
      </trkpt>
      <trkpt lat="42.508298150" lon="1.169803970">
        <ele>1122.50</ele>
        <time>2014-08-08T08:10:20Z</time>
      </trkpt>
      <trkpt lat="42.508179380" lon="1.169683690">
        <ele>1123.40</ele>
        <time>2014-08-08T08:10:29Z</time>
      </trkpt>
      <trkpt lat="42.508031860" lon="1.169603640">
        <ele>1125.40</ele>
        <time>2014-08-08T08:10:38Z</time>
      </trkpt>
      <trkpt lat="42.507837140" lon="1.169544800">
        <ele>1127.30</ele>
        <time>2014-08-08T08:10:50Z</time>
      </trkpt>
      <trkpt lat="42.507706470" lon="1.169476240">
        <ele>1128.20</ele>
        <time>2014-08-08T08:11:00Z</time>
      </trkpt>
      <trkpt lat="42.507627760" lon="1.169323860">
        <ele>1129.70</ele>
        <time>2014-08-08T08:11:10Z</time>
      </trkpt>
      <trkpt lat="42.507646370" lon="1.169171890">
        <ele>1130.70</ele>
        <time>2014-08-08T08:11:19Z</time>
      </trkpt>
      <trkpt lat="42.507685100" lon="1.168977770">
        <ele>1133.10</ele>
        <time>2014-08-08T08:11:29Z</time>
      </trkpt>
      <trkpt lat="42.507665320" lon="1.168736960">
        <ele>1134.00</ele>
        <time>2014-08-08T08:11:40Z</time>
      </trkpt>
      <trkpt lat="42.507541260" lon="1.168509050">
        <ele>1135.50</ele>
        <time>2014-08-08T08:11:52Z</time>
      </trkpt>
      <trkpt lat="42.507432380" lon="1.168359600">
        <ele>1136.90</ele>
        <time>2014-08-08T08:12:01Z</time>
      </trkpt>
      <trkpt lat="42.507342860" lon="1.168256090">
        <ele>1137.90</ele>
        <time>2014-08-08T08:12:09Z</time>
      </trkpt>
      <trkpt lat="42.507198110" lon="1.168129270">
        <ele>1139.80</ele>
        <time>2014-08-08T08:12:20Z</time>
      </trkpt>
      <trkpt lat="42.507063660" lon="1.168030950">
        <ele>1141.20</ele>
        <time>2014-08-08T08:12:30Z</time>
      </trkpt>
      <trkpt lat="42.506925530" lon="1.167928100">
        <ele>1143.10</ele>
        <time>2014-08-08T08:12:40Z</time>
      </trkpt>
      <trkpt lat="42.506822930" lon="1.167808740">
        <ele>1144.10</ele>
        <time>2014-08-08T08:12:48Z</time>
      </trkpt>
      <trkpt lat="42.506687990" lon="1.167678150">
        <ele>1145.60</ele>
        <time>2014-08-08T08:12:59Z</time>
      </trkpt>
      <trkpt lat="42.506554210" lon="1.167647390">
        <ele>1147.00</ele>
        <time>2014-08-08T08:13:08Z</time>
      </trkpt>
      <trkpt lat="42.506434520" lon="1.167591150">
        <ele>1148.40</ele>
        <time>2014-08-08T08:13:16Z</time>
      </trkpt>
      <trkpt lat="42.506269640" lon="1.167481510">
        <ele>1149.40</ele>
        <time>2014-08-08T08:13:27Z</time>
      </trkpt>
      <trkpt lat="42.506191690" lon="1.167393500">
        <ele>1149.90</ele>
        <time>2014-08-08T08:13:35Z</time>
      </trkpt>
      <trkpt lat="42.506088510" lon="1.167222350">
        <ele>1151.30</ele>
        <time>2014-08-08T08:13:45Z</time>
      </trkpt>
      <trkpt lat="42.506086000" lon="1.167195520">
        <ele>1151.80</ele>
        <time>2014-08-08T08:13:46Z</time>
      </trkpt>
      <trkpt lat="42.506120110" lon="1.167093010">
        <ele>1151.80</ele>
        <time>2014-08-08T08:13:50Z</time>
      </trkpt>
      <trkpt lat="42.506225560" lon="1.166952110">
        <ele>1152.30</ele>
        <time>2014-08-08T08:13:59Z</time>
      </trkpt>
      <trkpt lat="42.506388500" lon="1.166945320">
        <ele>1153.70</ele>
        <time>2014-08-08T08:14:10Z</time>
      </trkpt>
      <trkpt lat="42.506505090" lon="1.166896040">
        <ele>1155.20</ele>
        <time>2014-08-08T08:14:18Z</time>
      </trkpt>
      <trkpt lat="42.506646910" lon="1.166828730">
        <ele>1156.60</ele>
        <time>2014-08-08T08:14:27Z</time>
      </trkpt>
      <trkpt lat="42.506757140" lon="1.166777850">
        <ele>1157.10</ele>
        <time>2014-08-08T08:14:35Z</time>
      </trkpt>
      <trkpt lat="42.506809690" lon="1.166773750">
        <ele>1158.10</ele>
        <time>2014-08-08T08:14:39Z</time>
      </trkpt>
      <trkpt lat="42.506829470" lon="1.166757070">
        <ele>1158.50</ele>
        <time>2014-08-08T08:15:58Z</time>
      </trkpt>
      <trkpt lat="42.506916310" lon="1.166718930">
        <ele>1159.50</ele>
        <time>2014-08-08T08:16:06Z</time>
      </trkpt>
      <trkpt lat="42.507087130" lon="1.166669730">
        <ele>1160.90</ele>
        <time>2014-08-08T08:16:17Z</time>
      </trkpt>
      <trkpt lat="42.507201540" lon="1.166665620">
        <ele>1161.90</ele>
        <time>2014-08-08T08:16:24Z</time>
      </trkpt>
      <trkpt lat="42.507368510" lon="1.166707610">
        <ele>1163.80</ele>
        <time>2014-08-08T08:16:35Z</time>
      </trkpt>
      <trkpt lat="42.507472280" lon="1.166740720">
        <ele>1165.30</ele>
        <time>2014-08-08T08:16:43Z</time>
      </trkpt>
      <trkpt lat="42.507597000" lon="1.166830490">
        <ele>1165.70</ele>
        <time>2014-08-08T08:16:52Z</time>
      </trkpt>
      <trkpt lat="42.507723400" lon="1.166972060">
        <ele>1165.70</ele>
        <time>2014-08-08T08:17:00Z</time>
      </trkpt>
      <trkpt lat="42.507833960" lon="1.167015310">
        <ele>1165.70</ele>
        <time>2014-08-08T08:17:08Z</time>
      </trkpt>
      <trkpt lat="42.507881150" lon="1.167038360">
        <ele>1166.70</ele>
        <time>2014-08-08T08:17:12Z</time>
      </trkpt>
      <trkpt lat="42.507915770" lon="1.167039790">
        <ele>1166.70</ele>
        <time>2014-08-08T08:17:15Z</time>
      </trkpt>
      <trkpt lat="42.507948880" lon="1.167044230">
        <ele>1166.70</ele>
        <time>2014-08-08T08:17:18Z</time>
      </trkpt>
      <trkpt lat="42.508091120" lon="1.167023020">
        <ele>1167.70</ele>
        <time>2014-08-08T08:17:28Z</time>
      </trkpt>
      <trkpt lat="42.508123550" lon="1.167011040">
        <ele>1168.60</ele>
        <time>2014-08-08T08:17:30Z</time>
      </trkpt>
      <trkpt lat="42.508178790" lon="1.166948840">
        <ele>1169.10</ele>
        <time>2014-08-08T08:17:35Z</time>
      </trkpt>
      <trkpt lat="42.508190270" lon="1.166786070">
        <ele>1171.00</ele>
        <time>2014-08-08T08:17:45Z</time>
      </trkpt>
      <trkpt lat="42.508186840" lon="1.166768880">
        <ele>1171.00</ele>
        <time>2014-08-08T08:17:46Z</time>
      </trkpt>
      <trkpt lat="42.508164790" lon="1.166619180">
        <ele>1171.50</ele>
        <time>2014-08-08T08:17:56Z</time>
      </trkpt>
      <trkpt lat="42.508127830" lon="1.166484320">
        <ele>1173.00</ele>
        <time>2014-08-08T08:18:05Z</time>
      </trkpt>
      <trkpt lat="42.508082650" lon="1.166330510">
        <ele>1174.40</ele>
        <time>2014-08-08T08:18:14Z</time>
      </trkpt>
      <trkpt lat="42.508056250" lon="1.166162710">
        <ele>1175.40</ele>
        <time>2014-08-08T08:18:24Z</time>
      </trkpt>
      <trkpt lat="42.508031350" lon="1.165997410">
        <ele>1175.80</ele>
        <time>2014-08-08T08:18:33Z</time>
      </trkpt>
      <trkpt lat="42.508003110" lon="1.165811000">
        <ele>1176.80</ele>
        <time>2014-08-08T08:18:43Z</time>
      </trkpt>
      <trkpt lat="42.507990110" lon="1.165735900">
        <ele>1177.30</ele>
        <time>2014-08-08T08:18:47Z</time>
      </trkpt>
      <trkpt lat="42.507989780" lon="1.165544710">
        <ele>1177.30</ele>
        <time>2014-08-08T08:18:57Z</time>
      </trkpt>
      <trkpt lat="42.507958010" lon="1.165330130">
        <ele>1177.80</ele>
        <time>2014-08-08T08:19:07Z</time>
      </trkpt>
      <trkpt lat="42.507947790" lon="1.165227120">
        <ele>1178.70</ele>
        <time>2014-08-08T08:19:11Z</time>
      </trkpt>
      <trkpt lat="42.507943090" lon="1.165199790">
        <ele>1177.30</ele>
        <time>2014-08-08T08:19:12Z</time>
      </trkpt>
      <trkpt lat="42.507924150" lon="1.164926880">
        <ele>1178.20</ele>
        <time>2014-08-08T08:19:22Z</time>
      </trkpt>
      <trkpt lat="42.507935970" lon="1.164735940">
        <ele>1177.80</ele>
        <time>2014-08-08T08:19:28Z</time>
      </trkpt>
      <trkpt lat="42.507944100" lon="1.164308800">
        <ele>1177.80</ele>
        <time>2014-08-08T08:19:39Z</time>
      </trkpt>
      <trkpt lat="42.507948960" lon="1.163891710">
        <ele>1176.80</ele>
        <time>2014-08-08T08:19:49Z</time>
      </trkpt>
      <trkpt lat="42.507925910" lon="1.163578480">
        <ele>1176.30</ele>
        <time>2014-08-08T08:19:56Z</time>
      </trkpt>
      <trkpt lat="42.507915100" lon="1.163247980">
        <ele>1176.30</ele>
        <time>2014-08-08T08:20:02Z</time>
      </trkpt>
      <trkpt lat="42.507611500" lon="1.162468720">
        <ele>1174.40</ele>
        <time>2014-08-08T08:20:12Z</time>
      </trkpt>
      <trkpt lat="42.507498930" lon="1.162130510">
        <ele>1174.40</ele>
        <time>2014-08-08T08:20:19Z</time>
      </trkpt>
      <trkpt lat="42.507371700" lon="1.162026820">
        <ele>1175.40</ele>
        <time>2014-08-08T08:20:26Z</time>
      </trkpt>
      <trkpt lat="42.507157200" lon="1.161982150">
        <ele>1176.80</ele>
        <time>2014-08-08T08:20:36Z</time>
      </trkpt>
      <trkpt lat="42.507079920" lon="1.161962370">
        <ele>1176.80</ele>
        <time>2014-08-08T08:20:40Z</time>
      </trkpt>
      <trkpt lat="42.506939610" lon="1.161934120">
        <ele>1177.30</ele>
        <time>2014-08-08T08:20:48Z</time>
      </trkpt>
      <trkpt lat="42.506848000" lon="1.161897240">
        <ele>1178.70</ele>
        <time>2014-08-08T08:20:54Z</time>
      </trkpt>
      <trkpt lat="42.506703830" lon="1.161873520">
        <ele>1180.20</ele>
        <time>2014-08-08T08:21:03Z</time>
      </trkpt>
      <trkpt lat="42.506548680" lon="1.161859940">
        <ele>1182.10</ele>
        <time>2014-08-08T08:21:12Z</time>
      </trkpt>
      <trkpt lat="42.506415570" lon="1.161805370">
        <ele>1181.60</ele>
        <time>2014-08-08T08:21:20Z</time>
      </trkpt>
      <trkpt lat="42.506298730" lon="1.161612420">
        <ele>1182.10</ele>
        <time>2014-08-08T08:21:29Z</time>
      </trkpt>
      <trkpt lat="42.506288840" lon="1.161590210">
        <ele>1182.60</ele>
        <time>2014-08-08T08:21:30Z</time>
      </trkpt>
      <trkpt lat="42.506216920" lon="1.161514440">
        <ele>1182.60</ele>
        <time>2014-08-08T08:21:35Z</time>
      </trkpt>
      <trkpt lat="42.506018440" lon="1.161386610">
        <ele>1182.10</ele>
        <time>2014-08-08T08:21:45Z</time>
      </trkpt>
      <trkpt lat="42.505833950" lon="1.161202710">
        <ele>1181.60</ele>
        <time>2014-08-08T08:21:53Z</time>
      </trkpt>
      <trkpt lat="42.505710570" lon="1.161085200">
        <ele>1182.60</ele>
        <time>2014-08-08T08:21:59Z</time>
      </trkpt>
      <trkpt lat="42.505519880" lon="1.161002810">
        <ele>1182.10</ele>
        <time>2014-08-08T08:22:07Z</time>
      </trkpt>
      <trkpt lat="42.505451150" lon="1.160951930">
        <ele>1183.50</ele>
        <time>2014-08-08T08:22:10Z</time>
      </trkpt>
      <trkpt lat="42.505264070" lon="1.160706420">
        <ele>1182.60</ele>
        <time>2014-08-08T08:22:18Z</time>
      </trkpt>
      <trkpt lat="42.505204720" lon="1.160632410">
        <ele>1182.60</ele>
        <time>2014-08-08T08:22:20Z</time>
      </trkpt>
      <trkpt lat="42.505152670" lon="1.160364270">
        <ele>1180.60</ele>
        <time>2014-08-08T08:22:25Z</time>
      </trkpt>
      <trkpt lat="42.505282090" lon="1.160265450">
        <ele>1180.60</ele>
        <time>2014-08-08T08:22:29Z</time>
      </trkpt>
      <trkpt lat="42.505318800" lon="1.160250450">
        <ele>1181.10</ele>
        <time>2014-08-08T08:22:30Z</time>
      </trkpt>
      <trkpt lat="42.505565730" lon="1.160130080">
        <ele>1181.60</ele>
        <time>2014-08-08T08:22:38Z</time>
      </trkpt>
      <trkpt lat="42.505740910" lon="1.160052130">
        <ele>1181.10</ele>
        <time>2014-08-08T08:22:46Z</time>
      </trkpt>
      <trkpt lat="42.505900510" lon="1.160002760">
        <ele>1182.10</ele>
        <time>2014-08-08T08:22:53Z</time>
      </trkpt>
      <trkpt lat="42.506063700" lon="1.159960930">
        <ele>1183.00</ele>
        <time>2014-08-08T08:23:01Z</time>
      </trkpt>
      <trkpt lat="42.506254140" lon="1.159918690">
        <ele>1184.50</ele>
        <time>2014-08-08T08:23:09Z</time>
      </trkpt>
      <trkpt lat="42.506505010" lon="1.159808970">
        <ele>1185.00</ele>
        <time>2014-08-08T08:23:18Z</time>
      </trkpt>
      <trkpt lat="42.506744900" lon="1.159647700">
        <ele>1186.40</ele>
        <time>2014-08-08T08:23:28Z</time>
      </trkpt>
      <trkpt lat="42.506936590" lon="1.159496910">
        <ele>1186.90</ele>
        <time>2014-08-08T08:23:37Z</time>
      </trkpt>
      <trkpt lat="42.507009850" lon="1.159299180">
        <ele>1188.80</ele>
        <time>2014-08-08T08:23:45Z</time>
      </trkpt>
      <trkpt lat="42.506937100" lon="1.159024420">
        <ele>1189.80</ele>
        <time>2014-08-08T08:23:54Z</time>
      </trkpt>
      <trkpt lat="42.506889490" lon="1.158728210">
        <ele>1191.70</ele>
        <time>2014-08-08T08:24:06Z</time>
      </trkpt>
      <trkpt lat="42.506888310" lon="1.158683370">
        <ele>1192.70</ele>
        <time>2014-08-08T08:24:08Z</time>
      </trkpt>
      <trkpt lat="42.506902650" lon="1.158421850">
        <ele>1194.10</ele>
        <time>2014-08-08T08:24:19Z</time>
      </trkpt>
      <trkpt lat="42.506911280" lon="1.158258150">
        <ele>1194.60</ele>
        <time>2014-08-08T08:24:25Z</time>
      </trkpt>
      <trkpt lat="42.506990740" lon="1.158045500">
        <ele>1195.50</ele>
        <time>2014-08-08T08:24:34Z</time>
      </trkpt>
      <trkpt lat="42.507055360" lon="1.157913150">
        <ele>1196.50</ele>
        <time>2014-08-08T08:24:40Z</time>
      </trkpt>
      <trkpt lat="42.507122840" lon="1.157718270">
        <ele>1197.50</ele>
        <time>2014-08-08T08:24:48Z</time>
      </trkpt>
      <trkpt lat="42.507171290" lon="1.157524060">
        <ele>1198.40</ele>
        <time>2014-08-08T08:24:56Z</time>
      </trkpt>
      <trkpt lat="42.507227610" lon="1.157307890">
        <ele>1199.40</ele>
        <time>2014-08-08T08:25:05Z</time>
      </trkpt>
      <trkpt lat="42.507265080" lon="1.156997010">
        <ele>1200.30</ele>
        <time>2014-08-08T08:25:17Z</time>
      </trkpt>
      <trkpt lat="42.507286370" lon="1.156704570">
        <ele>1201.80</ele>
        <time>2014-08-08T08:25:28Z</time>
      </trkpt>
      <trkpt lat="42.507217890" lon="1.156540620">
        <ele>1201.30</ele>
        <time>2014-08-08T08:25:35Z</time>
      </trkpt>
      <trkpt lat="42.507065840" lon="1.156362920">
        <ele>1201.80</ele>
        <time>2014-08-08T08:25:44Z</time>
      </trkpt>
      <trkpt lat="42.506982440" lon="1.156290580">
        <ele>1202.30</ele>
        <time>2014-08-08T08:25:50Z</time>
      </trkpt>
      <trkpt lat="42.506840870" lon="1.156211960">
        <ele>1202.80</ele>
        <time>2014-08-08T08:25:57Z</time>
      </trkpt>
      <trkpt lat="42.506685720" lon="1.156098300">
        <ele>1203.20</ele>
        <time>2014-08-08T08:26:05Z</time>
      </trkpt>
      <trkpt lat="42.506520770" lon="1.155916160">
        <ele>1204.70</ele>
        <time>2014-08-08T08:26:14Z</time>
      </trkpt>
      <trkpt lat="42.506418260" lon="1.155696310">
        <ele>1204.70</ele>
        <time>2014-08-08T08:26:22Z</time>
      </trkpt>
      <trkpt lat="42.506338960" lon="1.155490700">
        <ele>1205.20</ele>
        <time>2014-08-08T08:26:30Z</time>
      </trkpt>
      <trkpt lat="42.506267880" lon="1.155279390">
        <ele>1206.10</ele>
        <time>2014-08-08T08:26:39Z</time>
      </trkpt>
      <trkpt lat="42.506266540" lon="1.155269420">
        <ele>1205.60</ele>
        <time>2014-08-08T08:26:44Z</time>
      </trkpt>
      <trkpt lat="42.506266380" lon="1.155252400">
        <ele>1205.60</ele>
        <time>2014-08-08T08:26:58Z</time>
      </trkpt>
      <trkpt lat="42.506256320" lon="1.155263460">
        <ele>1206.60</ele>
        <time>2014-08-08T08:27:12Z</time>
      </trkpt>
      <trkpt lat="42.506243160" lon="1.155253910">
        <ele>1205.60</ele>
        <time>2014-08-08T08:27:26Z</time>
      </trkpt>
      <trkpt lat="42.506235870" lon="1.155240920">
        <ele>1206.60</ele>
        <time>2014-08-08T08:27:30Z</time>
      </trkpt>
      <trkpt lat="42.506147940" lon="1.155068920">
        <ele>1206.60</ele>
        <time>2014-08-08T08:27:38Z</time>
      </trkpt>
      <trkpt lat="42.506047440" lon="1.154866750">
        <ele>1207.60</ele>
        <time>2014-08-08T08:27:46Z</time>
      </trkpt>
      <trkpt lat="42.505943510" lon="1.154629880">
        <ele>1207.60</ele>
        <time>2014-08-08T08:27:55Z</time>
      </trkpt>
      <trkpt lat="42.505869830" lon="1.154379930">
        <ele>1208.50</ele>
        <time>2014-08-08T08:28:04Z</time>
      </trkpt>
      <trkpt lat="42.505777960" lon="1.154128050">
        <ele>1210.00</ele>
        <time>2014-08-08T08:28:13Z</time>
      </trkpt>
      <trkpt lat="42.505707390" lon="1.153928900">
        <ele>1211.40</ele>
        <time>2014-08-08T08:28:21Z</time>
      </trkpt>
      <trkpt lat="42.505610580" lon="1.153707530">
        <ele>1212.40</ele>
        <time>2014-08-08T08:28:30Z</time>
      </trkpt>
      <trkpt lat="42.505494570" lon="1.153566300">
        <ele>1214.30</ele>
        <time>2014-08-08T08:28:39Z</time>
      </trkpt>
      <trkpt lat="42.505345620" lon="1.153425230">
        <ele>1214.30</ele>
        <time>2014-08-08T08:28:48Z</time>
      </trkpt>
      <trkpt lat="42.505211350" lon="1.153292130">
        <ele>1215.70</ele>
        <time>2014-08-08T08:28:56Z</time>
      </trkpt>
      <trkpt lat="42.505041280" lon="1.153226490">
        <ele>1216.20</ele>
        <time>2014-08-08T08:29:04Z</time>
      </trkpt>
      <trkpt lat="42.504846570" lon="1.153247950">
        <ele>1217.20</ele>
        <time>2014-08-08T08:29:12Z</time>
      </trkpt>
      <trkpt lat="42.504726960" lon="1.153130190">
        <ele>1217.70</ele>
        <time>2014-08-08T08:29:19Z</time>
      </trkpt>
      <trkpt lat="42.504562670" lon="1.152983750">
        <ele>1219.60</ele>
        <time>2014-08-08T08:29:29Z</time>
      </trkpt>
      <trkpt lat="42.504446160" lon="1.152940500">
        <ele>1219.10</ele>
        <time>2014-08-08T08:29:37Z</time>
      </trkpt>
      <trkpt lat="42.504309620" lon="1.153013430">
        <ele>1218.60</ele>
        <time>2014-08-08T08:29:43Z</time>
      </trkpt>
      <trkpt lat="42.504227810" lon="1.153056760">
        <ele>1217.70</ele>
        <time>2014-08-08T08:29:45Z</time>
      </trkpt>
      <trkpt lat="42.504123710" lon="1.153088190">
        <ele>1217.70</ele>
        <time>2014-08-08T08:29:47Z</time>
      </trkpt>
      <trkpt lat="42.503963110" lon="1.153073270">
        <ele>1215.70</ele>
        <time>2014-08-08T08:29:50Z</time>
      </trkpt>
      <trkpt lat="42.503845430" lon="1.152961960">
        <ele>1215.20</ele>
        <time>2014-08-08T08:29:53Z</time>
      </trkpt>
      <trkpt lat="42.503646190" lon="1.152691730">
        <ele>1212.80</ele>
        <time>2014-08-08T08:29:58Z</time>
      </trkpt>
      <trkpt lat="42.503308820" lon="1.152459130">
        <ele>1210.40</ele>
        <time>2014-08-08T08:30:03Z</time>
      </trkpt>
      <trkpt lat="42.503184430" lon="1.152336590">
        <ele>1210.90</ele>
        <time>2014-08-08T08:30:05Z</time>
      </trkpt>
      <trkpt lat="42.503018470" lon="1.152181940">
        <ele>1211.90</ele>
        <time>2014-08-08T08:30:08Z</time>
      </trkpt>
      <trkpt lat="42.502936830" lon="1.151972900">
        <ele>1212.40</ele>
        <time>2014-08-08T08:30:12Z</time>
      </trkpt>
      <trkpt lat="42.503010260" lon="1.151882290">
        <ele>1211.90</ele>
        <time>2014-08-08T08:30:16Z</time>
      </trkpt>
      <trkpt lat="42.503104390" lon="1.151881950">
        <ele>1212.80</ele>
        <time>2014-08-08T08:30:19Z</time>
      </trkpt>
      <trkpt lat="42.503344950" lon="1.151973740">
        <ele>1213.80</ele>
        <time>2014-08-08T08:30:29Z</time>
      </trkpt>
      <trkpt lat="42.503497250" lon="1.151972390">
        <ele>1215.20</ele>
        <time>2014-08-08T08:30:37Z</time>
      </trkpt>
      <trkpt lat="42.503635460" lon="1.151960910">
        <ele>1216.20</ele>
        <time>2014-08-08T08:30:45Z</time>
      </trkpt>
      <trkpt lat="42.503748870" lon="1.151907520">
        <ele>1216.70</ele>
        <time>2014-08-08T08:30:53Z</time>
      </trkpt>
      <trkpt lat="42.503832190" lon="1.151848930">
        <ele>1218.10</ele>
        <time>2014-08-08T08:30:59Z</time>
      </trkpt>
      <trkpt lat="42.504021870" lon="1.151771560">
        <ele>1218.10</ele>
        <time>2014-08-08T08:31:10Z</time>
      </trkpt>
      <trkpt lat="42.504126900" lon="1.151668380">
        <ele>1219.60</ele>
        <time>2014-08-08T08:31:19Z</time>
      </trkpt>
      <trkpt lat="42.504246250" lon="1.151634520">
        <ele>1220.10</ele>
        <time>2014-08-08T08:31:26Z</time>
      </trkpt>
      <trkpt lat="42.504467540" lon="1.151615160">
        <ele>1221.00</ele>
        <time>2014-08-08T08:31:37Z</time>
      </trkpt>
      <trkpt lat="42.504581110" lon="1.151556230">
        <ele>1222.00</ele>
        <time>2014-08-08T08:31:44Z</time>
      </trkpt>
      <trkpt lat="42.504674070" lon="1.151557410">
        <ele>1223.40</ele>
        <time>2014-08-08T08:31:49Z</time>
      </trkpt>
      <trkpt lat="42.504808850" lon="1.151591440">
        <ele>1223.40</ele>
        <time>2014-08-08T08:31:56Z</time>
      </trkpt>
      <trkpt lat="42.505013030" lon="1.151562520">
        <ele>1224.90</ele>
        <time>2014-08-08T08:32:05Z</time>
      </trkpt>
      <trkpt lat="42.505275220" lon="1.151554720">
        <ele>1226.80</ele>
        <time>2014-08-08T08:32:16Z</time>
      </trkpt>
      <trkpt lat="42.505600010" lon="1.151654300">
        <ele>1227.30</ele>
        <time>2014-08-08T08:32:25Z</time>
      </trkpt>
      <trkpt lat="42.505710570" lon="1.151535950">
        <ele>1228.70</ele>
        <time>2014-08-08T08:32:33Z</time>
      </trkpt>
      <trkpt lat="42.505860270" lon="1.151554050">
        <ele>1229.70</ele>
        <time>2014-08-08T08:32:41Z</time>
      </trkpt>
      <trkpt lat="42.506005200" lon="1.151558660">
        <ele>1229.70</ele>
        <time>2014-08-08T08:32:48Z</time>
      </trkpt>
      <trkpt lat="42.506180880" lon="1.151675420">
        <ele>1230.60</ele>
        <time>2014-08-08T08:32:59Z</time>
      </trkpt>
      <trkpt lat="42.506201840" lon="1.151680200">
        <ele>1230.60</ele>
        <time>2014-08-08T08:33:00Z</time>
      </trkpt>
      <trkpt lat="42.506283810" lon="1.151611550">
        <ele>1231.60</ele>
        <time>2014-08-08T08:33:04Z</time>
      </trkpt>
      <trkpt lat="42.506412810" lon="1.151452380">
        <ele>1231.10</ele>
        <time>2014-08-08T08:33:13Z</time>
      </trkpt>
      <trkpt lat="42.506516160" lon="1.151340900">
        <ele>1232.60</ele>
        <time>2014-08-08T08:33:21Z</time>
      </trkpt>
      <trkpt lat="42.506649010" lon="1.151240320">
        <ele>1234.00</ele>
        <time>2014-08-08T08:33:30Z</time>
      </trkpt>
      <trkpt lat="42.506727550" lon="1.151124560">
        <ele>1235.40</ele>
        <time>2014-08-08T08:33:37Z</time>
      </trkpt>
      <trkpt lat="42.506729060" lon="1.150956680">
        <ele>1237.40</ele>
        <time>2014-08-08T08:33:45Z</time>
      </trkpt>
      <trkpt lat="42.506729060" lon="1.150916110">
        <ele>1236.90</ele>
        <time>2014-08-08T08:33:47Z</time>
      </trkpt>
      <trkpt lat="42.506685810" lon="1.150797840">
        <ele>1237.40</ele>
        <time>2014-08-08T08:33:53Z</time>
      </trkpt>
      <trkpt lat="42.506640800" lon="1.150657860">
        <ele>1238.30</ele>
        <time>2014-08-08T08:34:00Z</time>
      </trkpt>
      <trkpt lat="42.506664260" lon="1.150490980">
        <ele>1239.80</ele>
        <time>2014-08-08T08:34:08Z</time>
      </trkpt>
      <trkpt lat="42.506675080" lon="1.150325100">
        <ele>1240.70</ele>
        <time>2014-08-08T08:34:17Z</time>
      </trkpt>
      <trkpt lat="42.506661580" lon="1.150194680">
        <ele>1242.60</ele>
        <time>2014-08-08T08:34:24Z</time>
      </trkpt>
      <trkpt lat="42.506658730" lon="1.150046230">
        <ele>1242.60</ele>
        <time>2014-08-08T08:34:32Z</time>
      </trkpt>
      <trkpt lat="42.506642560" lon="1.149895610">
        <ele>1244.10</ele>
        <time>2014-08-08T08:34:39Z</time>
      </trkpt>
      <trkpt lat="42.506639870" lon="1.149883790">
        <ele>1244.60</ele>
        <time>2014-08-08T08:34:40Z</time>
      </trkpt>
      <trkpt lat="42.506620430" lon="1.149698470">
        <ele>1245.50</ele>
        <time>2014-08-08T08:34:49Z</time>
      </trkpt>
      <trkpt lat="42.506606770" lon="1.149542560">
        <ele>1247.00</ele>
        <time>2014-08-08T08:34:57Z</time>
      </trkpt>
      <trkpt lat="42.506581200" lon="1.149423460">
        <ele>1248.40</ele>
        <time>2014-08-08T08:35:04Z</time>
      </trkpt>
      <trkpt lat="42.506575580" lon="1.149292110">
        <ele>1249.90</ele>
        <time>2014-08-08T08:35:11Z</time>
      </trkpt>
      <trkpt lat="42.506568710" lon="1.149185500">
        <ele>1249.90</ele>
        <time>2014-08-08T08:35:16Z</time>
      </trkpt>
      <trkpt lat="42.506557060" lon="1.149113910">
        <ele>1250.30</ele>
        <time>2014-08-08T08:35:20Z</time>
      </trkpt>
      <trkpt lat="42.506558570" lon="1.149033530">
        <ele>1250.80</ele>
        <time>2014-08-08T08:35:24Z</time>
      </trkpt>
      <trkpt lat="42.506585980" lon="1.148804870">
        <ele>1253.20</ele>
        <time>2014-08-08T08:35:35Z</time>
      </trkpt>
      <trkpt lat="42.506592010" lon="1.148770510">
        <ele>1253.70</ele>
        <time>2014-08-08T08:35:37Z</time>
      </trkpt>
      <trkpt lat="42.506595450" lon="1.148635470">
        <ele>1253.70</ele>
        <time>2014-08-08T08:35:44Z</time>
      </trkpt>
      <trkpt lat="42.506588660" lon="1.148475550">
        <ele>1255.10</ele>
        <time>2014-08-08T08:35:53Z</time>
      </trkpt>
      <trkpt lat="42.506576930" lon="1.148399020">
        <ele>1255.60</ele>
        <time>2014-08-08T08:35:57Z</time>
      </trkpt>
      <trkpt lat="42.506569130" lon="1.148276140">
        <ele>1257.50</ele>
        <time>2014-08-08T08:36:03Z</time>
      </trkpt>
      <trkpt lat="42.506479780" lon="1.148089560">
        <ele>1258.00</ele>
        <time>2014-08-08T08:36:14Z</time>
      </trkpt>
      <trkpt lat="42.506371150" lon="1.148017980">
        <ele>1259.00</ele>
        <time>2014-08-08T08:36:22Z</time>
      </trkpt>
      <trkpt lat="42.506258580" lon="1.147883950">
        <ele>1260.90</ele>
        <time>2014-08-08T08:36:33Z</time>
      </trkpt>
      <trkpt lat="42.506205940" lon="1.147775240">
        <ele>1261.90</ele>
        <time>2014-08-08T08:36:40Z</time>
      </trkpt>
      <trkpt lat="42.506178530" lon="1.147707680">
        <ele>1262.80</ele>
        <time>2014-08-08T08:36:44Z</time>
      </trkpt>
      <trkpt lat="42.506168480" lon="1.147496540">
        <ele>1264.30</ele>
        <time>2014-08-08T08:36:54Z</time>
      </trkpt>
      <trkpt lat="42.506163950" lon="1.147359250">
        <ele>1266.20</ele>
        <time>2014-08-08T08:37:02Z</time>
      </trkpt>
      <trkpt lat="42.506121370" lon="1.147183650">
        <ele>1266.70</ele>
        <time>2014-08-08T08:37:10Z</time>
      </trkpt>
      <trkpt lat="42.506097150" lon="1.147035450">
        <ele>1267.20</ele>
        <time>2014-08-08T08:37:17Z</time>
      </trkpt>
      <trkpt lat="42.506104270" lon="1.146857420">
        <ele>1268.60</ele>
        <time>2014-08-08T08:37:25Z</time>
      </trkpt>
      <trkpt lat="42.506097310" lon="1.146648460">
        <ele>1270.50</ele>
        <time>2014-08-08T08:37:35Z</time>
      </trkpt>
      <trkpt lat="42.506091530" lon="1.146497080">
        <ele>1271.00</ele>
        <time>2014-08-08T08:37:43Z</time>
      </trkpt>
      <trkpt lat="42.506062610" lon="1.146347220">
        <ele>1272.00</ele>
        <time>2014-08-08T08:37:51Z</time>
      </trkpt>
      <trkpt lat="42.506056240" lon="1.146254090">
        <ele>1273.40</ele>
        <time>2014-08-08T08:39:59Z</time>
      </trkpt>
      <trkpt lat="42.506056490" lon="1.146250660">
        <ele>1272.90</ele>
        <time>2014-08-08T08:40:12Z</time>
      </trkpt>
      <trkpt lat="42.506032940" lon="1.146223410">
        <ele>1273.40</ele>
        <time>2014-08-08T08:40:19Z</time>
      </trkpt>
      <trkpt lat="42.506019530" lon="1.146216210">
        <ele>1273.40</ele>
        <time>2014-08-08T08:40:22Z</time>
      </trkpt>
      <trkpt lat="42.505934870" lon="1.146114280">
        <ele>1275.30</ele>
        <time>2014-08-08T08:40:32Z</time>
      </trkpt>
      <trkpt lat="42.505840320" lon="1.146110850">
        <ele>1276.80</ele>
        <time>2014-08-08T08:40:40Z</time>
      </trkpt>
      <trkpt lat="42.505791040" lon="1.146234230">
        <ele>1278.20</ele>
        <time>2014-08-08T08:40:48Z</time>
      </trkpt>
      <trkpt lat="42.505820290" lon="1.146379230">
        <ele>1278.20</ele>
        <time>2014-08-08T08:40:57Z</time>
      </trkpt>
      <trkpt lat="42.505890620" lon="1.146516450">
        <ele>1279.20</ele>
        <time>2014-08-08T08:41:06Z</time>
      </trkpt>
      <trkpt lat="42.505905540" lon="1.146690370">
        <ele>1280.60</ele>
        <time>2014-08-08T08:41:15Z</time>
      </trkpt>
      <trkpt lat="42.505836890" lon="1.146879130">
        <ele>1281.60</ele>
        <time>2014-08-08T08:41:26Z</time>
      </trkpt>
      <trkpt lat="42.505784420" lon="1.147037130">
        <ele>1282.50</ele>
        <time>2014-08-08T08:41:36Z</time>
      </trkpt>
      <trkpt lat="42.505735130" lon="1.147207870">
        <ele>1284.90</ele>
        <time>2014-08-08T08:41:46Z</time>
      </trkpt>
      <trkpt lat="42.505692300" lon="1.147381290">
        <ele>1285.40</ele>
        <time>2014-08-08T08:41:56Z</time>
      </trkpt>
      <trkpt lat="42.505687020" lon="1.147396130">
        <ele>1284.90</ele>
        <time>2014-08-08T08:41:57Z</time>
      </trkpt>
      <trkpt lat="42.505630940" lon="1.147534510">
        <ele>1285.90</ele>
        <time>2014-08-08T08:42:06Z</time>
      </trkpt>
      <trkpt lat="42.505631110" lon="1.147551440">
        <ele>1285.40</ele>
        <time>2014-08-08T08:42:07Z</time>
      </trkpt>
      <trkpt lat="42.505610830" lon="1.147743810">
        <ele>1287.30</ele>
        <time>2014-08-08T08:42:17Z</time>
      </trkpt>
      <trkpt lat="42.505623740" lon="1.147926530">
        <ele>1287.80</ele>
        <time>2014-08-08T08:42:27Z</time>
      </trkpt>
      <trkpt lat="42.505668580" lon="1.148105820">
        <ele>1288.80</ele>
        <time>2014-08-08T08:42:36Z</time>
      </trkpt>
      <trkpt lat="42.505730350" lon="1.148301620">
        <ele>1289.30</ele>
        <time>2014-08-08T08:42:47Z</time>
      </trkpt>
      <trkpt lat="42.505778470" lon="1.148437660">
        <ele>1291.20</ele>
        <time>2014-08-08T08:42:56Z</time>
      </trkpt>
      <trkpt lat="42.505823310" lon="1.148554250">
        <ele>1292.20</ele>
        <time>2014-08-08T08:43:03Z</time>
      </trkpt>
      <trkpt lat="42.505822470" lon="1.148719630">
        <ele>1293.10</ele>
        <time>2014-08-08T08:43:12Z</time>
      </trkpt>
      <trkpt lat="42.505768830" lon="1.148863630">
        <ele>1293.60</ele>
        <time>2014-08-08T08:43:20Z</time>
      </trkpt>
      <trkpt lat="42.505725910" lon="1.149002020">
        <ele>1294.60</ele>
        <time>2014-08-08T08:43:28Z</time>
      </trkpt>
      <trkpt lat="42.505702270" lon="1.149129250">
        <ele>1295.50</ele>
        <time>2014-08-08T08:43:35Z</time>
      </trkpt>
      <trkpt lat="42.505700510" lon="1.149313570">
        <ele>1296.00</ele>
        <time>2014-08-08T08:43:45Z</time>
      </trkpt>
      <trkpt lat="42.505680150" lon="1.149465870">
        <ele>1297.90</ele>
        <time>2014-08-08T08:43:54Z</time>
      </trkpt>
      <trkpt lat="42.505660360" lon="1.149584730">
        <ele>1299.40</ele>
        <time>2014-08-08T08:44:01Z</time>
      </trkpt>
      <trkpt lat="42.505547630" lon="1.149725540">
        <ele>1300.30</ele>
        <time>2014-08-08T08:44:13Z</time>
      </trkpt>
      <trkpt lat="42.505429280" lon="1.149733090">
        <ele>1301.30</ele>
        <time>2014-08-08T08:44:21Z</time>
      </trkpt>
      <trkpt lat="42.505319300" lon="1.149728310">
        <ele>1302.20</ele>
        <time>2014-08-08T08:44:29Z</time>
      </trkpt>
      <trkpt lat="42.505204810" lon="1.149709200">
        <ele>1303.20</ele>
        <time>2014-08-08T08:44:37Z</time>
      </trkpt>
      <trkpt lat="42.505058630" lon="1.149664690">
        <ele>1304.20</ele>
        <time>2014-08-08T08:44:48Z</time>
      </trkpt>
      <trkpt lat="42.504906920" lon="1.149631660">
        <ele>1306.10</ele>
        <time>2014-08-08T08:45:00Z</time>
      </trkpt>
      <trkpt lat="42.504796190" lon="1.149625710">
        <ele>1307.50</ele>
        <time>2014-08-08T08:45:08Z</time>
      </trkpt>
      <trkpt lat="42.504675070" lon="1.149657730">
        <ele>1309.00</ele>
        <time>2014-08-08T08:45:16Z</time>
      </trkpt>
      <trkpt lat="42.504570720" lon="1.149686310">
        <ele>1309.90</ele>
        <time>2014-08-08T08:45:24Z</time>
      </trkpt>
      <trkpt lat="42.504468630" lon="1.149715480">
        <ele>1311.40</ele>
        <time>2014-08-08T08:45:32Z</time>
      </trkpt>
      <trkpt lat="42.504390000" lon="1.149722360">
        <ele>1312.80</ele>
        <time>2014-08-08T08:45:38Z</time>
      </trkpt>
      <trkpt lat="42.504285900" lon="1.149755130">
        <ele>1313.80</ele>
        <time>2014-08-08T08:45:46Z</time>
      </trkpt>
      <trkpt lat="42.504188170" lon="1.149806760">
        <ele>1314.70</ele>
        <time>2014-08-08T08:45:54Z</time>
      </trkpt>
      <trkpt lat="42.504069650" lon="1.149851440">
        <ele>1315.70</ele>
        <time>2014-08-08T08:46:03Z</time>
      </trkpt>
      <trkpt lat="42.503947860" lon="1.149893850">
        <ele>1317.10</ele>
        <time>2014-08-08T08:46:12Z</time>
      </trkpt>
      <trkpt lat="42.503820450" lon="1.149919750">
        <ele>1318.10</ele>
        <time>2014-08-08T08:46:22Z</time>
      </trkpt>
      <trkpt lat="42.503719120" lon="1.149924700">
        <ele>1319.60</ele>
        <time>2014-08-08T08:46:30Z</time>
      </trkpt>
      <trkpt lat="42.503589360" lon="1.149915640">
        <ele>1321.00</ele>
        <time>2014-08-08T08:46:39Z</time>
      </trkpt>
      <trkpt lat="42.503461120" lon="1.149920420">
        <ele>1322.40</ele>
        <time>2014-08-08T08:46:48Z</time>
      </trkpt>
      <trkpt lat="42.503360540" lon="1.149976750">
        <ele>1323.40</ele>
        <time>2014-08-08T08:46:56Z</time>
      </trkpt>
      <trkpt lat="42.503334050" lon="1.149986470">
        <ele>1324.40</ele>
        <time>2014-08-08T08:46:58Z</time>
      </trkpt>
      <trkpt lat="42.503226680" lon="1.149995690">
        <ele>1325.30</ele>
        <time>2014-08-08T08:47:06Z</time>
      </trkpt>
      <trkpt lat="42.503143780" lon="1.149973810">
        <ele>1326.30</ele>
        <time>2014-08-08T08:47:12Z</time>
      </trkpt>
      <trkpt lat="42.503047890" lon="1.149925870">
        <ele>1327.20</ele>
        <time>2014-08-08T08:47:19Z</time>
      </trkpt>
      <trkpt lat="42.502928120" lon="1.149813970">
        <ele>1328.20</ele>
        <time>2014-08-08T08:47:29Z</time>
      </trkpt>
      <trkpt lat="42.502819650" lon="1.149779600">
        <ele>1330.10</ele>
        <time>2014-08-08T08:47:37Z</time>
      </trkpt>
      <trkpt lat="42.502716470" lon="1.149764180">
        <ele>1330.60</ele>
        <time>2014-08-08T08:47:44Z</time>
      </trkpt>
      <trkpt lat="42.502605080" lon="1.149757640">
        <ele>1332.00</ele>
        <time>2014-08-08T08:47:53Z</time>
      </trkpt>
      <trkpt lat="42.502465180" lon="1.149697550">
        <ele>1333.50</ele>
        <time>2014-08-08T08:48:03Z</time>
      </trkpt>
      <trkpt lat="42.502350770" lon="1.149584640">
        <ele>1334.90</ele>
        <time>2014-08-08T08:48:12Z</time>
      </trkpt>
      <trkpt lat="42.502273240" lon="1.149478950">
        <ele>1336.40</ele>
        <time>2014-08-08T08:48:21Z</time>
      </trkpt>
      <trkpt lat="42.502133260" lon="1.149346260">
        <ele>1338.30</ele>
        <time>2014-08-08T08:48:33Z</time>
      </trkpt>
      <trkpt lat="42.502012730" lon="1.149233020">
        <ele>1338.80</ele>
        <time>2014-08-08T08:48:43Z</time>
      </trkpt>
      <trkpt lat="42.501952800" lon="1.149128500">
        <ele>1340.70</ele>
        <time>2014-08-08T08:48:50Z</time>
      </trkpt>
      <trkpt lat="42.501923130" lon="1.149058340">
        <ele>1340.70</ele>
        <time>2014-08-08T08:48:54Z</time>
      </trkpt>
      <trkpt lat="42.501912560" lon="1.149015010">
        <ele>1340.70</ele>
        <time>2014-08-08T08:49:02Z</time>
      </trkpt>
      <trkpt lat="42.501878700" lon="1.148993550">
        <ele>1340.20</ele>
        <time>2014-08-08T08:49:15Z</time>
      </trkpt>
      <trkpt lat="42.501878370" lon="1.148969240">
        <ele>1340.20</ele>
        <time>2014-08-08T08:49:32Z</time>
      </trkpt>
      <trkpt lat="42.501876520" lon="1.148971250">
        <ele>1340.20</ele>
        <time>2014-08-08T08:49:48Z</time>
      </trkpt>
      <trkpt lat="42.501870490" lon="1.148945440">
        <ele>1341.20</ele>
        <time>2014-08-08T08:51:28Z</time>
      </trkpt>
      <trkpt lat="42.501827660" lon="1.148860190">
        <ele>1341.70</ele>
        <time>2014-08-08T08:51:49Z</time>
      </trkpt>
      <trkpt lat="42.501755240" lon="1.148751480">
        <ele>1343.10</ele>
        <time>2014-08-08T08:51:58Z</time>
      </trkpt>
      <trkpt lat="42.501672420" lon="1.148698930">
        <ele>1344.50</ele>
        <time>2014-08-08T08:52:05Z</time>
      </trkpt>
      <trkpt lat="42.501584920" lon="1.148645030">
        <ele>1346.00</ele>
        <time>2014-08-08T08:52:14Z</time>
      </trkpt>
      <trkpt lat="42.501518780" lon="1.148567410">
        <ele>1346.00</ele>
        <time>2014-08-08T08:52:21Z</time>
      </trkpt>
      <trkpt lat="42.501450800" lon="1.148459450">
        <ele>1346.90</ele>
        <time>2014-08-08T08:52:29Z</time>
      </trkpt>
      <trkpt lat="42.501365390" lon="1.148391480">
        <ele>1347.90</ele>
        <time>2014-08-08T08:52:37Z</time>
      </trkpt>
      <trkpt lat="42.501269000" lon="1.148327860">
        <ele>1349.40</ele>
        <time>2014-08-08T08:52:45Z</time>
      </trkpt>
      <trkpt lat="42.501199350" lon="1.148286370">
        <ele>1349.80</ele>
        <time>2014-08-08T08:52:51Z</time>
      </trkpt>
      <trkpt lat="42.501143190" lon="1.148269940">
        <ele>1350.80</ele>
        <time>2014-08-08T08:52:56Z</time>
      </trkpt>
      <trkpt lat="42.501023080" lon="1.148200790">
        <ele>1351.80</ele>
        <time>2014-08-08T08:53:06Z</time>
      </trkpt>
      <trkpt lat="42.500918300" lon="1.148077740">
        <ele>1352.70</ele>
        <time>2014-08-08T08:53:16Z</time>
      </trkpt>
      <trkpt lat="42.500869350" lon="1.147940450">
        <ele>1354.20</ele>
        <time>2014-08-08T08:53:24Z</time>
      </trkpt>
      <trkpt lat="42.500782680" lon="1.147860320">
        <ele>1354.60</ele>
        <time>2014-08-08T08:53:32Z</time>
      </trkpt>
      <trkpt lat="42.500688970" lon="1.147891330">
        <ele>1356.10</ele>
        <time>2014-08-08T08:53:40Z</time>
      </trkpt>
      <trkpt lat="42.500599620" lon="1.147939440">
        <ele>1357.50</ele>
        <time>2014-08-08T08:53:47Z</time>
      </trkpt>
      <trkpt lat="42.500488480" lon="1.148014210">
        <ele>1358.50</ele>
        <time>2014-08-08T08:53:56Z</time>
      </trkpt>
      <trkpt lat="42.500416310" lon="1.148050250">
        <ele>1359.00</ele>
        <time>2014-08-08T08:54:03Z</time>
      </trkpt>
      <trkpt lat="42.500322850" lon="1.148026360">
        <ele>1359.90</ele>
        <time>2014-08-08T08:54:10Z</time>
      </trkpt>
      <trkpt lat="42.500229810" lon="1.147956120">
        <ele>1360.90</ele>
        <time>2014-08-08T08:54:18Z</time>
      </trkpt>
      <trkpt lat="42.500131490" lon="1.147861150">
        <ele>1361.80</ele>
        <time>2014-08-08T08:54:26Z</time>
      </trkpt>
      <trkpt lat="42.500037450" lon="1.147794850">
        <ele>1362.30</ele>
        <time>2014-08-08T08:54:33Z</time>
      </trkpt>
      <trkpt lat="42.499985730" lon="1.147780020">
        <ele>1363.30</ele>
        <time>2014-08-08T08:54:37Z</time>
      </trkpt>
      <trkpt lat="42.499881630" lon="1.147867190">
        <ele>1364.30</ele>
        <time>2014-08-08T08:54:46Z</time>
      </trkpt>
      <trkpt lat="42.499791940" lon="1.147949580">
        <ele>1364.70</ele>
        <time>2014-08-08T08:54:54Z</time>
      </trkpt>
      <trkpt lat="42.499700580" lon="1.148017640">
        <ele>1366.70</ele>
        <time>2014-08-08T08:55:03Z</time>
      </trkpt>
      <trkpt lat="42.499672750" lon="1.148031890">
        <ele>1367.10</ele>
        <time>2014-08-08T08:55:06Z</time>
      </trkpt>
      <trkpt lat="42.499590780" lon="1.148075400">
        <ele>1368.10</ele>
        <time>2014-08-08T08:55:14Z</time>
      </trkpt>
      <trkpt lat="42.499461950" lon="1.148060480">
        <ele>1369.10</ele>
        <time>2014-08-08T08:55:23Z</time>
      </trkpt>
      <trkpt lat="42.499407970" lon="1.148052680">
        <ele>1369.50</ele>
        <time>2014-08-08T08:55:29Z</time>
      </trkpt>
      <trkpt lat="42.499283160" lon="1.148074980">
        <ele>1370.00</ele>
        <time>2014-08-08T08:55:37Z</time>
      </trkpt>
      <trkpt lat="42.499243180" lon="1.148093840">
        <ele>1370.50</ele>
        <time>2014-08-08T08:55:40Z</time>
      </trkpt>
      <trkpt lat="42.499104960" lon="1.148188300">
        <ele>1371.90</ele>
        <time>2014-08-08T08:55:49Z</time>
      </trkpt>
      <trkpt lat="42.499086770" lon="1.148208580">
        <ele>1372.40</ele>
        <time>2014-08-08T08:55:51Z</time>
      </trkpt>
      <trkpt lat="42.499008150" lon="1.148324170">
        <ele>1373.40</ele>
        <time>2014-08-08T08:56:00Z</time>
      </trkpt>
      <trkpt lat="42.498916790" lon="1.148377140">
        <ele>1374.30</ele>
        <time>2014-08-08T08:56:08Z</time>
      </trkpt>
      <trkpt lat="42.498836910" lon="1.148360210">
        <ele>1374.80</ele>
        <time>2014-08-08T08:56:15Z</time>
      </trkpt>
      <trkpt lat="42.498745290" lon="1.148333470">
        <ele>1377.20</ele>
        <time>2014-08-08T08:56:23Z</time>
      </trkpt>
      <trkpt lat="42.498698940" lon="1.148324420">
        <ele>1376.80</ele>
        <time>2014-08-08T08:56:27Z</time>
      </trkpt>
      <trkpt lat="42.498635490" lon="1.148324930">
        <ele>1378.20</ele>
        <time>2014-08-08T08:56:33Z</time>
      </trkpt>
      <trkpt lat="42.498526190" lon="1.148291730">
        <ele>1379.20</ele>
        <time>2014-08-08T08:56:41Z</time>
      </trkpt>
      <trkpt lat="42.498428880" lon="1.148272870">
        <ele>1381.10</ele>
        <time>2014-08-08T08:56:49Z</time>
      </trkpt>
      <trkpt lat="42.498369790" lon="1.148270950">
        <ele>1381.60</ele>
        <time>2014-08-08T08:56:52Z</time>
      </trkpt>
      <trkpt lat="42.498321510" lon="1.148235160">
        <ele>1380.60</ele>
        <time>2014-08-08T08:56:56Z</time>
      </trkpt>
      <trkpt lat="42.498236010" lon="1.148130550">
        <ele>1382.50</ele>
        <time>2014-08-08T08:57:05Z</time>
      </trkpt>
      <trkpt lat="42.498137440" lon="1.148049080">
        <ele>1383.50</ele>
        <time>2014-08-08T08:57:13Z</time>
      </trkpt>
      <trkpt lat="42.498064100" lon="1.147946820">
        <ele>1384.40</ele>
        <time>2014-08-08T08:57:21Z</time>
      </trkpt>
      <trkpt lat="42.497998630" lon="1.147826620">
        <ele>1385.90</ele>
        <time>2014-08-08T08:57:29Z</time>
      </trkpt>
      <trkpt lat="42.497912470" lon="1.147718830">
        <ele>1386.40</ele>
        <time>2014-08-08T08:57:38Z</time>
      </trkpt>
      <trkpt lat="42.497849600" lon="1.147638620">
        <ele>1387.80</ele>
        <time>2014-08-08T08:57:43Z</time>
      </trkpt>
      <trkpt lat="42.497774330" lon="1.147520850">
        <ele>1389.70</ele>
        <time>2014-08-08T08:57:51Z</time>
      </trkpt>
      <trkpt lat="42.497755810" lon="1.147489330">
        <ele>1389.20</ele>
        <time>2014-08-08T08:57:53Z</time>
      </trkpt>
      <trkpt lat="42.497696970" lon="1.147418250">
        <ele>1390.20</ele>
        <time>2014-08-08T08:58:01Z</time>
      </trkpt>
      <trkpt lat="42.497678280" lon="1.147374170">
        <ele>1391.20</ele>
        <time>2014-08-08T08:58:04Z</time>
      </trkpt>
      <trkpt lat="42.497616840" lon="1.147248020">
        <ele>1392.10</ele>
        <time>2014-08-08T08:58:12Z</time>
      </trkpt>
      <trkpt lat="42.497595720" lon="1.147181210">
        <ele>1392.60</ele>
        <time>2014-08-08T08:58:16Z</time>
      </trkpt>
      <trkpt lat="42.497537460" lon="1.147074090">
        <ele>1393.10</ele>
        <time>2014-08-08T08:58:24Z</time>
      </trkpt>
      <trkpt lat="42.497492950" lon="1.146934200">
        <ele>1394.50</ele>
        <time>2014-08-08T08:58:32Z</time>
      </trkpt>
      <trkpt lat="42.497488180" lon="1.146916850">
        <ele>1395.00</ele>
        <time>2014-08-08T08:58:33Z</time>
      </trkpt>
      <trkpt lat="42.497479630" lon="1.146859350">
        <ele>1395.50</ele>
        <time>2014-08-08T08:58:36Z</time>
      </trkpt>
      <trkpt lat="42.497389350" lon="1.146752980">
        <ele>1396.50</ele>
        <time>2014-08-08T08:58:46Z</time>
      </trkpt>
      <trkpt lat="42.497320870" lon="1.146771590">
        <ele>1397.40</ele>
        <time>2014-08-08T08:58:53Z</time>
      </trkpt>
      <trkpt lat="42.497242420" lon="1.146825650">
        <ele>1397.40</ele>
        <time>2014-08-08T08:58:59Z</time>
      </trkpt>
      <trkpt lat="42.497161200" lon="1.146927330">
        <ele>1398.40</ele>
        <time>2014-08-08T08:59:08Z</time>
      </trkpt>
      <trkpt lat="42.497084420" lon="1.147009720">
        <ele>1399.30</ele>
        <time>2014-08-08T08:59:17Z</time>
      </trkpt>
      <trkpt lat="42.497026750" lon="1.147064450">
        <ele>1400.30</ele>
        <time>2014-08-08T08:59:22Z</time>
      </trkpt>
      <trkpt lat="42.496956600" lon="1.147088760">
        <ele>1401.30</ele>
        <time>2014-08-08T08:59:27Z</time>
      </trkpt>
      <trkpt lat="42.496869420" lon="1.147075850">
        <ele>1402.70</ele>
        <time>2014-08-08T08:59:37Z</time>
      </trkpt>
      <trkpt lat="42.496850150" lon="1.147078620">
        <ele>1402.20</ele>
        <time>2014-08-08T08:59:39Z</time>
      </trkpt>
      <trkpt lat="42.496727350" lon="1.147125980">
        <ele>1403.20</ele>
        <time>2014-08-08T08:59:48Z</time>
      </trkpt>
      <trkpt lat="42.496623920" lon="1.147197390">
        <ele>1404.60</ele>
        <time>2014-08-08T08:59:54Z</time>
      </trkpt>
      <trkpt lat="42.496597010" lon="1.147195970">
        <ele>1404.60</ele>
        <time>2014-08-08T08:59:57Z</time>
      </trkpt>
      <trkpt lat="42.496516210" lon="1.147175260">
        <ele>1406.10</ele>
        <time>2014-08-08T09:00:02Z</time>
      </trkpt>
      <trkpt lat="42.496432060" lon="1.147082730">
        <ele>1406.60</ele>
        <time>2014-08-08T09:00:11Z</time>
      </trkpt>
      <trkpt lat="42.496389390" lon="1.147002430">
        <ele>1408.00</ele>
        <time>2014-08-08T09:00:19Z</time>
      </trkpt>
      <trkpt lat="42.496323760" lon="1.146836380">
        <ele>1409.40</ele>
        <time>2014-08-08T09:00:30Z</time>
      </trkpt>
      <trkpt lat="42.496239860" lon="1.146717610">
        <ele>1410.40</ele>
        <time>2014-08-08T09:00:40Z</time>
      </trkpt>
      <trkpt lat="42.496199120" lon="1.146655840">
        <ele>1410.90</ele>
        <time>2014-08-08T09:00:45Z</time>
      </trkpt>
      <trkpt lat="42.496114470" lon="1.146520890">
        <ele>1412.30</ele>
        <time>2014-08-08T09:00:54Z</time>
      </trkpt>
      <trkpt lat="42.496005750" lon="1.146394240">
        <ele>1413.30</ele>
        <time>2014-08-08T09:01:03Z</time>
      </trkpt>
      <trkpt lat="42.495909280" lon="1.146298600">
        <ele>1414.20</ele>
        <time>2014-08-08T09:01:11Z</time>
      </trkpt>
      <trkpt lat="42.495823700" lon="1.146242270">
        <ele>1414.70</ele>
        <time>2014-08-08T09:01:18Z</time>
      </trkpt>
      <trkpt lat="42.495741640" lon="1.146210840">
        <ele>1415.70</ele>
        <time>2014-08-08T09:01:25Z</time>
      </trkpt>
      <trkpt lat="42.495644070" lon="1.146157530">
        <ele>1416.20</ele>
        <time>2014-08-08T09:01:33Z</time>
      </trkpt>
      <trkpt lat="42.495557660" lon="1.146074890">
        <ele>1418.10</ele>
        <time>2014-08-08T09:01:42Z</time>
      </trkpt>
      <trkpt lat="42.495456490" lon="1.145963320">
        <ele>1419.00</ele>
        <time>2014-08-08T09:01:52Z</time>
      </trkpt>
      <trkpt lat="42.495359930" lon="1.145872550">
        <ele>1421.00</ele>
        <time>2014-08-08T09:02:00Z</time>
      </trkpt>
      <trkpt lat="42.495277700" lon="1.145814880">
        <ele>1421.00</ele>
        <time>2014-08-08T09:02:07Z</time>
      </trkpt>
      <trkpt lat="42.495223550" lon="1.145815720">
        <ele>1421.50</ele>
        <time>2014-08-08T09:02:11Z</time>
      </trkpt>
      <trkpt lat="42.495221630" lon="1.145838600">
        <ele>1423.40</ele>
        <time>2014-08-08T09:09:38Z</time>
      </trkpt>
      <trkpt lat="42.495215420" lon="1.145854280">
        <ele>1423.40</ele>
        <time>2014-08-08T09:09:40Z</time>
      </trkpt>
      <trkpt lat="42.495211990" lon="1.145884530">
        <ele>1423.40</ele>
        <time>2014-08-08T09:09:42Z</time>
      </trkpt>
      <trkpt lat="42.495232860" lon="1.146031130">
        <ele>1423.90</ele>
        <time>2014-08-08T09:09:51Z</time>
      </trkpt>
      <trkpt lat="42.495238730" lon="1.146071700">
        <ele>1423.90</ele>
        <time>2014-08-08T09:09:54Z</time>
      </trkpt>
      <trkpt lat="42.495291030" lon="1.146194160">
        <ele>1425.30</ele>
        <time>2014-08-08T09:10:02Z</time>
      </trkpt>
      <trkpt lat="42.495301920" lon="1.146338250">
        <ele>1424.80</ele>
        <time>2014-08-08T09:10:09Z</time>
      </trkpt>
      <trkpt lat="42.495393460" lon="1.146491130">
        <ele>1426.30</ele>
        <time>2014-08-08T09:10:18Z</time>
      </trkpt>
      <trkpt lat="42.495455480" lon="1.146644020">
        <ele>1427.20</ele>
        <time>2014-08-08T09:10:27Z</time>
      </trkpt>
      <trkpt lat="42.495434530" lon="1.146843000">
        <ele>1428.20</ele>
        <time>2014-08-08T09:10:37Z</time>
      </trkpt>
      <trkpt lat="42.495406280" lon="1.146918530">
        <ele>1427.70</ele>
        <time>2014-08-08T09:10:41Z</time>
      </trkpt>
      <trkpt lat="42.495397060" lon="1.147002090">
        <ele>1429.10</ele>
        <time>2014-08-08T09:10:45Z</time>
      </trkpt>
      <trkpt lat="42.495362530" lon="1.147132260">
        <ele>1430.10</ele>
        <time>2014-08-08T09:10:52Z</time>
      </trkpt>
      <trkpt lat="42.495265880" lon="1.147293620">
        <ele>1430.60</ele>
        <time>2014-08-08T09:11:03Z</time>
      </trkpt>
      <trkpt lat="42.495207040" lon="1.147352620">
        <ele>1431.50</ele>
        <time>2014-08-08T09:11:09Z</time>
      </trkpt>
      <trkpt lat="42.495105870" lon="1.147478020">
        <ele>1433.50</ele>
        <time>2014-08-08T09:11:18Z</time>
      </trkpt>
      <trkpt lat="42.495070670" lon="1.147529730">
        <ele>1433.50</ele>
        <time>2014-08-08T09:11:22Z</time>
      </trkpt>
      <trkpt lat="42.495015520" lon="1.147599220">
        <ele>1433.90</ele>
        <time>2014-08-08T09:11:28Z</time>
      </trkpt>
      <trkpt lat="42.494936810" lon="1.147670470">
        <ele>1434.90</ele>
        <time>2014-08-08T09:11:38Z</time>
      </trkpt>
      <trkpt lat="42.494867070" lon="1.147715900">
        <ele>1436.80</ele>
        <time>2014-08-08T09:11:45Z</time>
      </trkpt>
      <trkpt lat="42.494811830" lon="1.147766360">
        <ele>1437.30</ele>
        <time>2014-08-08T09:11:49Z</time>
      </trkpt>
      <trkpt lat="42.494706810" lon="1.147902140">
        <ele>1438.30</ele>
        <time>2014-08-08T09:11:59Z</time>
      </trkpt>
      <trkpt lat="42.494629360" lon="1.147994260">
        <ele>1439.70</ele>
        <time>2014-08-08T09:12:07Z</time>
      </trkpt>
      <trkpt lat="42.494518220" lon="1.148067010">
        <ele>1441.20</ele>
        <time>2014-08-08T09:12:17Z</time>
      </trkpt>
      <trkpt lat="42.494442360" lon="1.148132310">
        <ele>1442.60</ele>
        <time>2014-08-08T09:12:24Z</time>
      </trkpt>
      <trkpt lat="42.494386540" lon="1.148231300">
        <ele>1444.50</ele>
        <time>2014-08-08T09:12:31Z</time>
      </trkpt>
      <trkpt lat="42.494354430" lon="1.148316880">
        <ele>1445.00</ele>
        <time>2014-08-08T09:12:37Z</time>
      </trkpt>
      <trkpt lat="42.494356530" lon="1.148438840">
        <ele>1445.50</ele>
        <time>2014-08-08T09:12:45Z</time>
      </trkpt>
      <trkpt lat="42.494353760" lon="1.148466910">
        <ele>1445.50</ele>
        <time>2014-08-08T09:12:47Z</time>
      </trkpt>
      <trkpt lat="42.494311520" lon="1.148606730">
        <ele>1446.40</ele>
        <time>2014-08-08T09:12:56Z</time>
      </trkpt>
      <trkpt lat="42.494238760" lon="1.148766400">
        <ele>1448.40</ele>
        <time>2014-08-08T09:13:07Z</time>
      </trkpt>
      <trkpt lat="42.494183360" lon="1.148832030">
        <ele>1449.80</ele>
        <time>2014-08-08T09:13:14Z</time>
      </trkpt>
      <trkpt lat="42.494123430" lon="1.148882660">
        <ele>1450.80</ele>
        <time>2014-08-08T09:13:22Z</time>
      </trkpt>
      <trkpt lat="42.494110100" lon="1.148889700">
        <ele>1451.30</ele>
        <time>2014-08-08T09:13:24Z</time>
      </trkpt>
      <trkpt lat="42.493999380" lon="1.148985170">
        <ele>1451.70</ele>
        <time>2014-08-08T09:13:33Z</time>
      </trkpt>
      <trkpt lat="42.493871890" lon="1.149067810">
        <ele>1453.20</ele>
        <time>2014-08-08T09:13:42Z</time>
      </trkpt>
      <trkpt lat="42.493828390" lon="1.149132610">
        <ele>1453.20</ele>
        <time>2014-08-08T09:13:46Z</time>
      </trkpt>
      <trkpt lat="42.493825370" lon="1.149145680">
        <ele>1453.20</ele>
        <time>2014-08-08T09:13:47Z</time>
      </trkpt>
      <trkpt lat="42.493826960" lon="1.149160270">
        <ele>1452.70</ele>
        <time>2014-08-08T09:13:48Z</time>
      </trkpt>
      <trkpt lat="42.493920750" lon="1.149245760">
        <ele>1455.10</ele>
        <time>2014-08-08T09:13:57Z</time>
      </trkpt>
      <trkpt lat="42.493930730" lon="1.149256490">
        <ele>1455.60</ele>
        <time>2014-08-08T09:13:59Z</time>
      </trkpt>
      <trkpt lat="42.493954280" lon="1.149260760">
        <ele>1455.10</ele>
        <time>2014-08-08T09:14:01Z</time>
      </trkpt>
      <trkpt lat="42.494054360" lon="1.149289430">
        <ele>1455.60</ele>
        <time>2014-08-08T09:14:09Z</time>
      </trkpt>
      <trkpt lat="42.494099460" lon="1.149284230">
        <ele>1456.10</ele>
        <time>2014-08-08T09:14:15Z</time>
      </trkpt>
      <trkpt lat="42.494111280" lon="1.149288760">
        <ele>1456.10</ele>
        <time>2014-08-08T09:14:16Z</time>
      </trkpt>
      <trkpt lat="42.494196100" lon="1.149306870">
        <ele>1456.50</ele>
        <time>2014-08-08T09:14:25Z</time>
      </trkpt>
      <trkpt lat="42.494267510" lon="1.149316170">
        <ele>1458.50</ele>
        <time>2014-08-08T09:14:32Z</time>
      </trkpt>
      <trkpt lat="42.494299450" lon="1.149332350">
        <ele>1457.00</ele>
        <time>2014-08-08T09:14:34Z</time>
      </trkpt>
      <trkpt lat="42.494309760" lon="1.149339470">
        <ele>1458.90</ele>
        <time>2014-08-08T09:14:35Z</time>
      </trkpt>
      <trkpt lat="42.494393410" lon="1.149393530">
        <ele>1459.90</ele>
        <time>2014-08-08T09:14:42Z</time>
      </trkpt>
      <trkpt lat="42.494406150" lon="1.149409380">
        <ele>1459.40</ele>
        <time>2014-08-08T09:14:43Z</time>
      </trkpt>
      <trkpt lat="42.494441940" lon="1.149459920">
        <ele>1459.90</ele>
        <time>2014-08-08T09:14:48Z</time>
      </trkpt>
      <trkpt lat="42.494553000" lon="1.149473830">
        <ele>1461.30</ele>
        <time>2014-08-08T09:14:57Z</time>
      </trkpt>
      <trkpt lat="42.494568010" lon="1.149471990">
        <ele>1461.80</ele>
        <time>2014-08-08T09:14:58Z</time>
      </trkpt>
      <trkpt lat="42.494654760" lon="1.149496550">
        <ele>1462.80</ele>
        <time>2014-08-08T09:15:06Z</time>
      </trkpt>
      <trkpt lat="42.494667920" lon="1.149495630">
        <ele>1463.30</ele>
        <time>2014-08-08T09:15:07Z</time>
      </trkpt>
      <trkpt lat="42.494766660" lon="1.149486990">
        <ele>1463.30</ele>
        <time>2014-08-08T09:15:15Z</time>
      </trkpt>
      <trkpt lat="42.494798930" lon="1.149503500">
        <ele>1464.20</ele>
        <time>2014-08-08T09:15:17Z</time>
      </trkpt>
      <trkpt lat="42.495016690" lon="1.149559500">
        <ele>1465.70</ele>
        <time>2014-08-08T09:15:25Z</time>
      </trkpt>
      <trkpt lat="42.495108470" lon="1.149552540">
        <ele>1467.10</ele>
        <time>2014-08-08T09:15:32Z</time>
      </trkpt>
      <trkpt lat="42.495162700" lon="1.149550950">
        <ele>1467.60</ele>
        <time>2014-08-08T09:15:37Z</time>
      </trkpt>
      <trkpt lat="42.495214840" lon="1.149555810">
        <ele>1467.60</ele>
        <time>2014-08-08T09:15:41Z</time>
      </trkpt>
      <trkpt lat="42.495339480" lon="1.149575340">
        <ele>1468.10</ele>
        <time>2014-08-08T09:15:49Z</time>
      </trkpt>
      <trkpt lat="42.495401000" lon="1.149601820">
        <ele>1469.00</ele>
        <time>2014-08-08T09:15:53Z</time>
      </trkpt>
      <trkpt lat="42.495493120" lon="1.149693350">
        <ele>1469.50</ele>
        <time>2014-08-08T09:16:02Z</time>
      </trkpt>
      <trkpt lat="42.495571320" lon="1.149825710">
        <ele>1471.00</ele>
        <time>2014-08-08T09:16:13Z</time>
      </trkpt>
      <trkpt lat="42.495595630" lon="1.149843470">
        <ele>1472.40</ele>
        <time>2014-08-08T09:16:16Z</time>
      </trkpt>
      <trkpt lat="42.495623960" lon="1.149863170">
        <ele>1471.40</ele>
        <time>2014-08-08T09:16:19Z</time>
      </trkpt>
      <trkpt lat="42.495760580" lon="1.149856130">
        <ele>1473.40</ele>
        <time>2014-08-08T09:16:29Z</time>
      </trkpt>
      <trkpt lat="42.495873820" lon="1.149847250">
        <ele>1474.80</ele>
        <time>2014-08-08T09:16:37Z</time>
      </trkpt>
      <trkpt lat="42.495974240" lon="1.149909190">
        <ele>1475.30</ele>
        <time>2014-08-08T09:16:43Z</time>
      </trkpt>
      <trkpt lat="42.496045730" lon="1.150001890">
        <ele>1476.20</ele>
        <time>2014-08-08T09:16:49Z</time>
      </trkpt>
      <trkpt lat="42.496061490" lon="1.150032320">
        <ele>1476.20</ele>
        <time>2014-08-08T09:16:51Z</time>
      </trkpt>
      <trkpt lat="42.496040040" lon="1.150117900">
        <ele>1476.70</ele>
        <time>2014-08-08T09:16:56Z</time>
      </trkpt>
      <trkpt lat="42.495985800" lon="1.150233900">
        <ele>1476.70</ele>
        <time>2014-08-08T09:17:04Z</time>
      </trkpt>
      <trkpt lat="42.495974660" lon="1.150263070">
        <ele>1477.70</ele>
        <time>2014-08-08T09:17:06Z</time>
      </trkpt>
      <trkpt lat="42.495985970" lon="1.150297520">
        <ele>1478.20</ele>
        <time>2014-08-08T09:17:08Z</time>
      </trkpt>
      <trkpt lat="42.496021430" lon="1.150420320">
        <ele>1478.70</ele>
        <time>2014-08-08T09:17:16Z</time>
      </trkpt>
      <trkpt lat="42.496074400" lon="1.150585270">
        <ele>1480.10</ele>
        <time>2014-08-08T09:17:26Z</time>
      </trkpt>
      <trkpt lat="42.496078590" lon="1.150602790">
        <ele>1480.60</ele>
        <time>2014-08-08T09:17:27Z</time>
      </trkpt>
      <trkpt lat="42.496146400" lon="1.150765900">
        <ele>1481.50</ele>
        <time>2014-08-08T09:17:37Z</time>
      </trkpt>
      <trkpt lat="42.496159230" lon="1.150925580">
        <ele>1483.00</ele>
        <time>2014-08-08T09:17:46Z</time>
      </trkpt>
      <trkpt lat="42.496164340" lon="1.150982490">
        <ele>1484.40</ele>
        <time>2014-08-08T09:17:49Z</time>
      </trkpt>
      <trkpt lat="42.496118910" lon="1.151138810">
        <ele>1484.40</ele>
        <time>2014-08-08T09:17:58Z</time>
      </trkpt>
      <trkpt lat="42.496102060" lon="1.151184830">
        <ele>1485.40</ele>
        <time>2014-08-08T09:18:01Z</time>
      </trkpt>
      <trkpt lat="42.496007430" lon="1.151332770">
        <ele>1487.30</ele>
        <time>2014-08-08T09:18:11Z</time>
      </trkpt>
      <trkpt lat="42.496004080" lon="1.151346010">
        <ele>1486.80</ele>
        <time>2014-08-08T09:18:12Z</time>
      </trkpt>
      <trkpt lat="42.496009780" lon="1.151502250">
        <ele>1488.30</ele>
        <time>2014-08-08T09:18:21Z</time>
      </trkpt>
      <trkpt lat="42.496013970" lon="1.151547930">
        <ele>1488.30</ele>
        <time>2014-08-08T09:18:24Z</time>
      </trkpt>
      <trkpt lat="42.495969040" lon="1.151646590">
        <ele>1489.20</ele>
        <time>2014-08-08T09:18:30Z</time>
      </trkpt>
      <trkpt lat="42.495907850" lon="1.151779690">
        <ele>1490.70</ele>
        <time>2014-08-08T09:18:38Z</time>
      </trkpt>
      <trkpt lat="42.495892260" lon="1.151811630">
        <ele>1490.20</ele>
        <time>2014-08-08T09:18:40Z</time>
      </trkpt>
      <trkpt lat="42.495862840" lon="1.151876340">
        <ele>1490.20</ele>
        <time>2014-08-08T09:18:44Z</time>
      </trkpt>
      <trkpt lat="42.495779440" lon="1.152041130">
        <ele>1492.60</ele>
        <time>2014-08-08T09:18:55Z</time>
      </trkpt>
      <trkpt lat="42.495704420" lon="1.152170540">
        <ele>1492.60</ele>
        <time>2014-08-08T09:19:04Z</time>
      </trkpt>
      <trkpt lat="42.495628650" lon="1.152339520">
        <ele>1494.00</ele>
        <time>2014-08-08T09:19:15Z</time>
      </trkpt>
      <trkpt lat="42.495542070" lon="1.152428030">
        <ele>1495.00</ele>
        <time>2014-08-08T09:19:24Z</time>
      </trkpt>
      <trkpt lat="42.495519690" lon="1.152471540">
        <ele>1495.50</ele>
        <time>2014-08-08T09:19:27Z</time>
      </trkpt>
      <trkpt lat="42.495480630" lon="1.152511270">
        <ele>1496.00</ele>
        <time>2014-08-08T09:19:31Z</time>
      </trkpt>
      <trkpt lat="42.495373510" lon="1.152616800">
        <ele>1496.90</ele>
        <time>2014-08-08T09:19:41Z</time>
      </trkpt>
      <trkpt lat="42.495329000" lon="1.152652080">
        <ele>1497.90</ele>
        <time>2014-08-08T09:19:45Z</time>
      </trkpt>
      <trkpt lat="42.495275020" lon="1.152707910">
        <ele>1497.90</ele>
        <time>2014-08-08T09:19:52Z</time>
      </trkpt>
      <trkpt lat="42.495180970" lon="1.152797090">
        <ele>1499.80</ele>
        <time>2014-08-08T09:20:00Z</time>
      </trkpt>
      <trkpt lat="42.495159350" lon="1.152827010">
        <ele>1498.40</ele>
        <time>2014-08-08T09:20:02Z</time>
      </trkpt>
      <trkpt lat="42.495078040" lon="1.152909240">
        <ele>1499.30</ele>
        <time>2014-08-08T09:20:08Z</time>
      </trkpt>
      <trkpt lat="42.494972930" lon="1.153024240">
        <ele>1500.80</ele>
        <time>2014-08-08T09:20:17Z</time>
      </trkpt>
      <trkpt lat="42.494872270" lon="1.153142680">
        <ele>1501.70</ele>
        <time>2014-08-08T09:20:26Z</time>
      </trkpt>
      <trkpt lat="42.494781320" lon="1.153275950">
        <ele>1502.70</ele>
        <time>2014-08-08T09:20:36Z</time>
      </trkpt>
      <trkpt lat="42.494771600" lon="1.153289440">
        <ele>1503.20</ele>
        <time>2014-08-08T09:20:37Z</time>
      </trkpt>
      <trkpt lat="42.494729110" lon="1.153360610">
        <ele>1504.10</ele>
        <time>2014-08-08T09:20:42Z</time>
      </trkpt>
      <trkpt lat="42.494706470" lon="1.153429090">
        <ele>1504.10</ele>
        <time>2014-08-08T09:20:46Z</time>
      </trkpt>
      <trkpt lat="42.494669590" lon="1.153579120">
        <ele>1505.60</ele>
        <time>2014-08-08T09:20:56Z</time>
      </trkpt>
      <trkpt lat="42.494695580" lon="1.153659840">
        <ele>1505.10</ele>
        <time>2014-08-08T09:21:02Z</time>
      </trkpt>
      <trkpt lat="42.494726590" lon="1.153703170">
        <ele>1506.00</ele>
        <time>2014-08-08T09:21:05Z</time>
      </trkpt>
      <trkpt lat="42.494720390" lon="1.153741650">
        <ele>1507.00</ele>
        <time>2014-08-08T09:21:08Z</time>
      </trkpt>
      <trkpt lat="42.494726840" lon="1.153819260">
        <ele>1507.50</ele>
        <time>2014-08-08T09:21:13Z</time>
      </trkpt>
      <trkpt lat="42.494684930" lon="1.153924120">
        <ele>1508.00</ele>
        <time>2014-08-08T09:21:19Z</time>
      </trkpt>
      <trkpt lat="42.494672530" lon="1.153999140">
        <ele>1508.90</ele>
        <time>2014-08-08T09:21:25Z</time>
      </trkpt>
      <trkpt lat="42.494680910" lon="1.154171300">
        <ele>1509.40</ele>
        <time>2014-08-08T09:21:33Z</time>
      </trkpt>
      <trkpt lat="42.494674040" lon="1.154220090">
        <ele>1509.40</ele>
        <time>2014-08-08T09:21:36Z</time>
      </trkpt>
      <trkpt lat="42.494669090" lon="1.154258390">
        <ele>1509.90</ele>
        <time>2014-08-08T09:21:38Z</time>
      </trkpt>
      <trkpt lat="42.494709580" lon="1.154387220">
        <ele>1510.40</ele>
        <time>2014-08-08T09:21:46Z</time>
      </trkpt>
      <trkpt lat="42.494705640" lon="1.154520490">
        <ele>1511.80</ele>
        <time>2014-08-08T09:21:54Z</time>
      </trkpt>
      <trkpt lat="42.494710920" lon="1.154602220">
        <ele>1513.30</ele>
        <time>2014-08-08T09:22:01Z</time>
      </trkpt>
      <trkpt lat="42.494687280" lon="1.154772450">
        <ele>1513.70</ele>
        <time>2014-08-08T09:22:08Z</time>
      </trkpt>
      <trkpt lat="42.494689380" lon="1.154803300">
        <ele>1513.70</ele>
        <time>2014-08-08T09:22:10Z</time>
      </trkpt>
      <trkpt lat="42.494759200" lon="1.154899020">
        <ele>1515.20</ele>
        <time>2014-08-08T09:22:20Z</time>
      </trkpt>
      <trkpt lat="42.494777800" lon="1.154925760">
        <ele>1515.70</ele>
        <time>2014-08-08T09:22:23Z</time>
      </trkpt>
      <trkpt lat="42.494806050" lon="1.154970850">
        <ele>1515.70</ele>
        <time>2014-08-08T09:22:28Z</time>
      </trkpt>
      <trkpt lat="42.494877130" lon="1.154989040">
        <ele>1516.10</ele>
        <time>2014-08-08T09:22:35Z</time>
      </trkpt>
      <trkpt lat="42.494908230" lon="1.154989630">
        <ele>1516.60</ele>
        <time>2014-08-08T09:22:38Z</time>
      </trkpt>
      <trkpt lat="42.495025070" lon="1.154980410">
        <ele>1518.50</ele>
        <time>2014-08-08T09:22:47Z</time>
      </trkpt>
      <trkpt lat="42.495114000" lon="1.154994490">
        <ele>1518.50</ele>
        <time>2014-08-08T09:22:55Z</time>
      </trkpt>
      <trkpt lat="42.495145770" lon="1.155015110">
        <ele>1520.00</ele>
        <time>2014-08-08T09:22:58Z</time>
      </trkpt>
      <trkpt lat="42.495223550" lon="1.155032630">
        <ele>1519.50</ele>
        <time>2014-08-08T09:23:05Z</time>
      </trkpt>
      <trkpt lat="42.495295970" lon="1.155044030">
        <ele>1521.40</ele>
        <time>2014-08-08T09:23:11Z</time>
      </trkpt>
      <trkpt lat="42.495392530" lon="1.155075630">
        <ele>1521.90</ele>
        <time>2014-08-08T09:23:17Z</time>
      </trkpt>
      <trkpt lat="42.495422120" lon="1.155088700">
        <ele>1521.90</ele>
        <time>2014-08-08T09:23:19Z</time>
      </trkpt>
      <trkpt lat="42.495530920" lon="1.155203700">
        <ele>1522.90</ele>
        <time>2014-08-08T09:23:28Z</time>
      </trkpt>
      <trkpt lat="42.495617170" lon="1.155328840">
        <ele>1523.80</ele>
        <time>2014-08-08T09:23:36Z</time>
      </trkpt>
      <trkpt lat="42.495676850" lon="1.155486260">
        <ele>1524.30</ele>
        <time>2014-08-08T09:23:45Z</time>
      </trkpt>
      <trkpt lat="42.495715910" lon="1.155623300">
        <ele>1525.30</ele>
        <time>2014-08-08T09:23:53Z</time>
      </trkpt>
      <trkpt lat="42.495723450" lon="1.155764790">
        <ele>1527.20</ele>
        <time>2014-08-08T09:24:01Z</time>
      </trkpt>
      <trkpt lat="42.495718920" lon="1.155798480">
        <ele>1526.20</ele>
        <time>2014-08-08T09:24:03Z</time>
      </trkpt>
      <trkpt lat="42.495675590" lon="1.155956150">
        <ele>1528.60</ele>
        <time>2014-08-08T09:24:12Z</time>
      </trkpt>
      <trkpt lat="42.495626300" lon="1.156057900">
        <ele>1529.10</ele>
        <time>2014-08-08T09:24:19Z</time>
      </trkpt>
      <trkpt lat="42.495544750" lon="1.156206090">
        <ele>1530.10</ele>
        <time>2014-08-08T09:24:29Z</time>
      </trkpt>
      <trkpt lat="42.495471490" lon="1.156339870">
        <ele>1531.00</ele>
        <time>2014-08-08T09:24:38Z</time>
      </trkpt>
      <trkpt lat="42.495451290" lon="1.156373400">
        <ele>1532.00</ele>
        <time>2014-08-08T09:24:40Z</time>
      </trkpt>
      <trkpt lat="42.495412400" lon="1.156490410">
        <ele>1532.50</ele>
        <time>2014-08-08T09:24:48Z</time>
      </trkpt>
      <trkpt lat="42.495346350" lon="1.156658210">
        <ele>1534.40</ele>
        <time>2014-08-08T09:24:58Z</time>
      </trkpt>
      <trkpt lat="42.495268980" lon="1.156798610">
        <ele>1535.80</ele>
        <time>2014-08-08T09:25:07Z</time>
      </trkpt>
      <trkpt lat="42.495232860" lon="1.156907160">
        <ele>1536.30</ele>
        <time>2014-08-08T09:25:15Z</time>
      </trkpt>
      <trkpt lat="42.495220120" lon="1.157004390">
        <ele>1537.30</ele>
        <time>2014-08-08T09:25:22Z</time>
      </trkpt>
      <trkpt lat="42.495238890" lon="1.157125000">
        <ele>1537.80</ele>
        <time>2014-08-08T09:25:31Z</time>
      </trkpt>
      <trkpt lat="42.495201590" lon="1.157257440">
        <ele>1538.70</ele>
        <time>2014-08-08T09:25:39Z</time>
      </trkpt>
      <trkpt lat="42.495142250" lon="1.157422140">
        <ele>1540.20</ele>
        <time>2014-08-08T09:25:47Z</time>
      </trkpt>
      <trkpt lat="42.495070080" lon="1.157547950">
        <ele>1541.60</ele>
        <time>2014-08-08T09:25:55Z</time>
      </trkpt>
      <trkpt lat="42.495056670" lon="1.157599840">
        <ele>1541.10</ele>
        <time>2014-08-08T09:25:58Z</time>
      </trkpt>
      <trkpt lat="42.495024650" lon="1.157806280">
        <ele>1543.10</ele>
        <time>2014-08-08T09:26:08Z</time>
      </trkpt>
      <trkpt lat="42.494994810" lon="1.157850710">
        <ele>1544.00</ele>
        <time>2014-08-08T09:26:12Z</time>
      </trkpt>
      <trkpt lat="42.494936980" lon="1.157881050">
        <ele>1544.50</ele>
        <time>2014-08-08T09:26:18Z</time>
      </trkpt>
      <trkpt lat="42.494854250" lon="1.157881800">
        <ele>1546.40</ele>
        <time>2014-08-08T09:26:27Z</time>
      </trkpt>
      <trkpt lat="42.494735060" lon="1.157980790">
        <ele>1547.90</ele>
        <time>2014-08-08T09:26:37Z</time>
      </trkpt>
      <trkpt lat="42.494716030" lon="1.158011050">
        <ele>1548.80</ele>
        <time>2014-08-08T09:26:39Z</time>
      </trkpt>
      <trkpt lat="42.494713430" lon="1.158027650">
        <ele>1548.80</ele>
        <time>2014-08-08T09:26:40Z</time>
      </trkpt>
      <trkpt lat="42.494701530" lon="1.158068300">
        <ele>1548.80</ele>
        <time>2014-08-08T09:26:44Z</time>
      </trkpt>
      <trkpt lat="42.494706220" lon="1.158099400">
        <ele>1548.80</ele>
        <time>2014-08-08T09:26:51Z</time>
      </trkpt>
      <trkpt lat="42.494707060" lon="1.158146920">
        <ele>1552.20</ele>
        <time>2014-08-08T09:31:06Z</time>
      </trkpt>
      <trkpt lat="42.494811160" lon="1.158251780">
        <ele>1553.60</ele>
        <time>2014-08-08T09:31:18Z</time>
      </trkpt>
      <trkpt lat="42.494862630" lon="1.158330150">
        <ele>1554.10</ele>
        <time>2014-08-08T09:31:25Z</time>
      </trkpt>
      <trkpt lat="42.494946620" lon="1.158479940">
        <ele>1556.00</ele>
        <time>2014-08-08T09:31:36Z</time>
      </trkpt>
      <trkpt lat="42.494955000" lon="1.158492760">
        <ele>1556.00</ele>
        <time>2014-08-08T09:31:37Z</time>
      </trkpt>
      <trkpt lat="42.495019290" lon="1.158580350">
        <ele>1556.50</ele>
        <time>2014-08-08T09:31:45Z</time>
      </trkpt>
      <trkpt lat="42.495092880" lon="1.158625870">
        <ele>1556.50</ele>
        <time>2014-08-08T09:31:51Z</time>
      </trkpt>
      <trkpt lat="42.495160520" lon="1.158650590">
        <ele>1557.00</ele>
        <time>2014-08-08T09:31:57Z</time>
      </trkpt>
      <trkpt lat="42.495185420" lon="1.158677830">
        <ele>1558.40</ele>
        <time>2014-08-08T09:31:59Z</time>
      </trkpt>
      <trkpt lat="42.495214670" lon="1.158709180">
        <ele>1557.50</ele>
        <time>2014-08-08T09:32:02Z</time>
      </trkpt>
      <trkpt lat="42.495254320" lon="1.158755530">
        <ele>1558.90</ele>
        <time>2014-08-08T09:32:06Z</time>
      </trkpt>
      <trkpt lat="42.495328080" lon="1.158837840">
        <ele>1560.40</ele>
        <time>2014-08-08T09:32:13Z</time>
      </trkpt>
      <trkpt lat="42.495362780" lon="1.158890900">
        <ele>1561.30</ele>
        <time>2014-08-08T09:32:17Z</time>
      </trkpt>
      <trkpt lat="42.495409460" lon="1.159007160">
        <ele>1562.80</ele>
        <time>2014-08-08T09:32:25Z</time>
      </trkpt>
      <trkpt lat="42.495412820" lon="1.159027610">
        <ele>1561.30</ele>
        <time>2014-08-08T09:32:27Z</time>
      </trkpt>
      <trkpt lat="42.495420440" lon="1.159123250">
        <ele>1563.20</ele>
        <time>2014-08-08T09:32:33Z</time>
      </trkpt>
      <trkpt lat="42.495414070" lon="1.159215200">
        <ele>1563.20</ele>
        <time>2014-08-08T09:32:39Z</time>
      </trkpt>
      <trkpt lat="42.495428830" lon="1.159361540">
        <ele>1564.70</ele>
        <time>2014-08-08T09:32:48Z</time>
      </trkpt>
      <trkpt lat="42.495433440" lon="1.159398930">
        <ele>1564.70</ele>
        <time>2014-08-08T09:32:50Z</time>
      </trkpt>
      <trkpt lat="42.495457910" lon="1.159564640">
        <ele>1565.60</ele>
        <time>2014-08-08T09:32:59Z</time>
      </trkpt>
      <trkpt lat="42.495487670" lon="1.159729930">
        <ele>1567.10</ele>
        <time>2014-08-08T09:33:09Z</time>
      </trkpt>
      <trkpt lat="42.495506610" lon="1.159819450">
        <ele>1567.60</ele>
        <time>2014-08-08T09:33:14Z</time>
      </trkpt>
      <trkpt lat="42.495514320" lon="1.159969650">
        <ele>1569.50</ele>
        <time>2014-08-08T09:33:23Z</time>
      </trkpt>
      <trkpt lat="42.495520860" lon="1.160083390">
        <ele>1569.50</ele>
        <time>2014-08-08T09:33:30Z</time>
      </trkpt>
      <trkpt lat="42.495520520" lon="1.160159670">
        <ele>1569.50</ele>
        <time>2014-08-08T09:33:36Z</time>
      </trkpt>
      <trkpt lat="42.495521700" lon="1.160235950">
        <ele>1570.00</ele>
        <time>2014-08-08T09:33:41Z</time>
      </trkpt>
      <trkpt lat="42.495478700" lon="1.160350110">
        <ele>1571.40</ele>
        <time>2014-08-08T09:33:48Z</time>
      </trkpt>
      <trkpt lat="42.495436370" lon="1.160513220">
        <ele>1572.40</ele>
        <time>2014-08-08T09:33:56Z</time>
      </trkpt>
      <trkpt lat="42.495407540" lon="1.160603910">
        <ele>1573.80</ele>
        <time>2014-08-08T09:34:03Z</time>
      </trkpt>
      <trkpt lat="42.495405690" lon="1.160702900">
        <ele>1574.30</ele>
        <time>2014-08-08T09:34:08Z</time>
      </trkpt>
      <trkpt lat="42.495422960" lon="1.160847150">
        <ele>1574.80</ele>
        <time>2014-08-08T09:34:17Z</time>
      </trkpt>
      <trkpt lat="42.495459090" lon="1.160975730">
        <ele>1576.70</ele>
        <time>2014-08-08T09:34:25Z</time>
      </trkpt>
      <trkpt lat="42.495509290" lon="1.161103050">
        <ele>1577.20</ele>
        <time>2014-08-08T09:34:34Z</time>
      </trkpt>
      <trkpt lat="42.495560000" lon="1.161222660">
        <ele>1577.70</ele>
        <time>2014-08-08T09:34:42Z</time>
      </trkpt>
      <trkpt lat="42.495619010" lon="1.161341690">
        <ele>1579.10</ele>
        <time>2014-08-08T09:34:50Z</time>
      </trkpt>
      <trkpt lat="42.495677520" lon="1.161449060">
        <ele>1579.60</ele>
        <time>2014-08-08T09:34:58Z</time>
      </trkpt>
      <trkpt lat="42.495732420" lon="1.161581990">
        <ele>1581.00</ele>
        <time>2014-08-08T09:35:07Z</time>
      </trkpt>
      <trkpt lat="42.495787570" lon="1.161687520">
        <ele>1582.00</ele>
        <time>2014-08-08T09:35:15Z</time>
      </trkpt>
      <trkpt lat="42.495855880" lon="1.161824320">
        <ele>1582.50</ele>
        <time>2014-08-08T09:35:25Z</time>
      </trkpt>
      <trkpt lat="42.495863180" lon="1.161836390">
        <ele>1583.00</ele>
        <time>2014-08-08T09:35:26Z</time>
      </trkpt>
      <trkpt lat="42.495883800" lon="1.161856170">
        <ele>1583.40</ele>
        <time>2014-08-08T09:35:28Z</time>
      </trkpt>
      <trkpt lat="42.495927300" lon="1.161944430">
        <ele>1584.40</ele>
        <time>2014-08-08T09:35:34Z</time>
      </trkpt>
      <trkpt lat="42.495978180" lon="1.162096980">
        <ele>1584.90</ele>
        <time>2014-08-08T09:35:44Z</time>
      </trkpt>
      <trkpt lat="42.496004750" lon="1.162208460">
        <ele>1587.30</ele>
        <time>2014-08-08T09:35:51Z</time>
      </trkpt>
      <trkpt lat="42.496014550" lon="1.162300410">
        <ele>1586.80</ele>
        <time>2014-08-08T09:35:56Z</time>
      </trkpt>
      <trkpt lat="42.496012290" lon="1.162423120">
        <ele>1588.20</ele>
        <time>2014-08-08T09:36:04Z</time>
      </trkpt>
      <trkpt lat="42.495982200" lon="1.162542060">
        <ele>1589.70</ele>
        <time>2014-08-08T09:36:12Z</time>
      </trkpt>
      <trkpt lat="42.495966190" lon="1.162667870">
        <ele>1589.70</ele>
        <time>2014-08-08T09:36:19Z</time>
      </trkpt>
      <trkpt lat="42.495985050" lon="1.162816570">
        <ele>1590.60</ele>
        <time>2014-08-08T09:36:27Z</time>
      </trkpt>
      <trkpt lat="42.496016060" lon="1.162936260">
        <ele>1591.60</ele>
        <time>2014-08-08T09:36:35Z</time>
      </trkpt>
      <trkpt lat="42.496010870" lon="1.163077750">
        <ele>1592.60</ele>
        <time>2014-08-08T09:36:44Z</time>
      </trkpt>
      <trkpt lat="42.495991670" lon="1.163190480">
        <ele>1593.50</ele>
        <time>2014-08-08T09:36:52Z</time>
      </trkpt>
      <trkpt lat="42.495971810" lon="1.163301210">
        <ele>1594.50</ele>
        <time>2014-08-08T09:36:59Z</time>
      </trkpt>
      <trkpt lat="42.495947670" lon="1.163381420">
        <ele>1595.00</ele>
        <time>2014-08-08T09:37:04Z</time>
      </trkpt>
      <trkpt lat="42.495901570" lon="1.163511170">
        <ele>1595.50</ele>
        <time>2014-08-08T09:37:12Z</time>
      </trkpt>
      <trkpt lat="42.495896540" lon="1.163528110">
        <ele>1595.90</ele>
        <time>2014-08-08T09:37:13Z</time>
      </trkpt>
      <trkpt lat="42.495902490" lon="1.163646630">
        <ele>1595.90</ele>
        <time>2014-08-08T09:37:19Z</time>
      </trkpt>
      <trkpt lat="42.495891340" lon="1.163763470">
        <ele>1597.40</ele>
        <time>2014-08-08T09:37:27Z</time>
      </trkpt>
      <trkpt lat="42.495892510" lon="1.163901600">
        <ele>1597.40</ele>
        <time>2014-08-08T09:37:35Z</time>
      </trkpt>
      <trkpt lat="42.495879520" lon="1.163979720">
        <ele>1598.80</ele>
        <time>2014-08-08T09:37:40Z</time>
      </trkpt>
      <trkpt lat="42.495845490" lon="1.164114340">
        <ele>1599.30</ele>
        <time>2014-08-08T09:37:49Z</time>
      </trkpt>
      <trkpt lat="42.495794030" lon="1.164237050">
        <ele>1600.30</ele>
        <time>2014-08-08T09:37:57Z</time>
      </trkpt>
      <trkpt lat="42.495785390" lon="1.164375430">
        <ele>1601.20</ele>
        <time>2014-08-08T09:38:05Z</time>
      </trkpt>
      <trkpt lat="42.495737530" lon="1.164482800">
        <ele>1603.10</ele>
        <time>2014-08-08T09:38:12Z</time>
      </trkpt>
      <trkpt lat="42.495704590" lon="1.164591770">
        <ele>1603.10</ele>
        <time>2014-08-08T09:38:18Z</time>
      </trkpt>
      <trkpt lat="42.495694370" lon="1.164640470">
        <ele>1604.10</ele>
        <time>2014-08-08T09:38:21Z</time>
      </trkpt>
      <trkpt lat="42.495650280" lon="1.164793270">
        <ele>1605.10</ele>
        <time>2014-08-08T09:38:30Z</time>
      </trkpt>
      <trkpt lat="42.495643490" lon="1.164806760">
        <ele>1604.60</ele>
        <time>2014-08-08T09:38:31Z</time>
      </trkpt>
      <trkpt lat="42.495589170" lon="1.164984130">
        <ele>1605.50</ele>
        <time>2014-08-08T09:38:41Z</time>
      </trkpt>
      <trkpt lat="42.495564860" lon="1.165103740">
        <ele>1607.00</ele>
        <time>2014-08-08T09:38:49Z</time>
      </trkpt>
      <trkpt lat="42.495564360" lon="1.165230300">
        <ele>1609.40</ele>
        <time>2014-08-08T09:38:57Z</time>
      </trkpt>
      <trkpt lat="42.495552120" lon="1.165361230">
        <ele>1608.90</ele>
        <time>2014-08-08T09:39:05Z</time>
      </trkpt>
      <trkpt lat="42.495546680" lon="1.165526430">
        <ele>1609.90</ele>
        <time>2014-08-08T09:39:14Z</time>
      </trkpt>
      <trkpt lat="42.495544500" lon="1.165670350">
        <ele>1611.30</ele>
        <time>2014-08-08T09:39:22Z</time>
      </trkpt>
      <trkpt lat="42.495536280" lon="1.165805050">
        <ele>1613.20</ele>
        <time>2014-08-08T09:39:30Z</time>
      </trkpt>
      <trkpt lat="42.495515160" lon="1.165891970">
        <ele>1612.80</ele>
        <time>2014-08-08T09:39:37Z</time>
      </trkpt>
      <trkpt lat="42.495499320" lon="1.165933540">
        <ele>1612.80</ele>
        <time>2014-08-08T09:39:40Z</time>
      </trkpt>
      <trkpt lat="42.495433690" lon="1.166160610">
        <ele>1614.70</ele>
        <time>2014-08-08T09:39:53Z</time>
      </trkpt>
      <trkpt lat="42.495377780" lon="1.166328000">
        <ele>1615.60</ele>
        <time>2014-08-08T09:40:03Z</time>
      </trkpt>
      <trkpt lat="42.495328910" lon="1.166467810">
        <ele>1618.00</ele>
        <time>2014-08-08T09:40:13Z</time>
      </trkpt>
      <trkpt lat="42.495257500" lon="1.166672320">
        <ele>1618.50</ele>
        <time>2014-08-08T09:40:25Z</time>
      </trkpt>
      <trkpt lat="42.495193040" lon="1.166778270">
        <ele>1619.00</ele>
        <time>2014-08-08T09:40:32Z</time>
      </trkpt>
      <trkpt lat="42.495116180" lon="1.166931330">
        <ele>1620.00</ele>
        <time>2014-08-08T09:40:43Z</time>
      </trkpt>
      <trkpt lat="42.495054410" lon="1.167049010">
        <ele>1621.40</ele>
        <time>2014-08-08T09:40:52Z</time>
      </trkpt>
      <trkpt lat="42.495023140" lon="1.167087230">
        <ele>1621.90</ele>
        <time>2014-08-08T09:40:56Z</time>
      </trkpt>
      <trkpt lat="42.494932120" lon="1.167196190">
        <ele>1623.80</ele>
        <time>2014-08-08T09:41:07Z</time>
      </trkpt>
      <trkpt lat="42.494842510" lon="1.167294510">
        <ele>1624.30</ele>
        <time>2014-08-08T09:41:16Z</time>
      </trkpt>
      <trkpt lat="42.494791970" lon="1.167390070">
        <ele>1625.70</ele>
        <time>2014-08-08T09:41:24Z</time>
      </trkpt>
      <trkpt lat="42.494788530" lon="1.167527450">
        <ele>1627.70</ele>
        <time>2014-08-08T09:41:32Z</time>
      </trkpt>
      <trkpt lat="42.494780400" lon="1.167632050">
        <ele>1628.10</ele>
        <time>2014-08-08T09:41:39Z</time>
      </trkpt>
      <trkpt lat="42.494786440" lon="1.167748980">
        <ele>1629.60</ele>
        <time>2014-08-08T09:41:47Z</time>
      </trkpt>
      <trkpt lat="42.494772860" lon="1.167894320">
        <ele>1630.50</ele>
        <time>2014-08-08T09:41:56Z</time>
      </trkpt>
      <trkpt lat="42.494734470" lon="1.168055760">
        <ele>1632.00</ele>
        <time>2014-08-08T09:42:05Z</time>
      </trkpt>
      <trkpt lat="42.494736310" lon="1.168244020">
        <ele>1633.40</ele>
        <time>2014-08-08T09:42:12Z</time>
      </trkpt>
      <trkpt lat="42.494752830" lon="1.168427080">
        <ele>1634.40</ele>
        <time>2014-08-08T09:42:22Z</time>
      </trkpt>
      <trkpt lat="42.494798510" lon="1.168550710">
        <ele>1634.90</ele>
        <time>2014-08-08T09:42:29Z</time>
      </trkpt>
      <trkpt lat="42.494808730" lon="1.168583310">
        <ele>1635.80</ele>
        <time>2014-08-08T09:42:31Z</time>
      </trkpt>
      <trkpt lat="42.494826590" lon="1.168640060">
        <ele>1635.30</ele>
        <time>2014-08-08T09:42:35Z</time>
      </trkpt>
      <trkpt lat="42.494884170" lon="1.168812730">
        <ele>1636.30</ele>
        <time>2014-08-08T09:42:45Z</time>
      </trkpt>
      <trkpt lat="42.494901860" lon="1.168856310">
        <ele>1636.30</ele>
        <time>2014-08-08T09:42:48Z</time>
      </trkpt>
      <trkpt lat="42.494915100" lon="1.168944910">
        <ele>1636.80</ele>
        <time>2014-08-08T09:42:53Z</time>
      </trkpt>
      <trkpt lat="42.494946700" lon="1.169045160">
        <ele>1638.70</ele>
        <time>2014-08-08T09:43:00Z</time>
      </trkpt>
      <trkpt lat="42.494968660" lon="1.169188150">
        <ele>1639.70</ele>
        <time>2014-08-08T09:43:09Z</time>
      </trkpt>
      <trkpt lat="42.495009140" lon="1.169338690">
        <ele>1640.60</ele>
        <time>2014-08-08T09:43:18Z</time>
      </trkpt>
      <trkpt lat="42.495045350" lon="1.169467190">
        <ele>1641.10</ele>
        <time>2014-08-08T09:43:25Z</time>
      </trkpt>
      <trkpt lat="42.495080060" lon="1.169610850">
        <ele>1643.00</ele>
        <time>2014-08-08T09:43:35Z</time>
      </trkpt>
      <trkpt lat="42.495089950" lon="1.169729960">
        <ele>1644.50</ele>
        <time>2014-08-08T09:43:44Z</time>
      </trkpt>
      <trkpt lat="42.495120540" lon="1.169892320">
        <ele>1645.40</ele>
        <time>2014-08-08T09:43:52Z</time>
      </trkpt>
      <trkpt lat="42.495133450" lon="1.169929450">
        <ele>1645.40</ele>
        <time>2014-08-08T09:43:54Z</time>
      </trkpt>
      <trkpt lat="42.495159180" lon="1.170091810">
        <ele>1647.80</ele>
        <time>2014-08-08T09:44:04Z</time>
      </trkpt>
      <trkpt lat="42.495168650" lon="1.170146120">
        <ele>1647.40</ele>
        <time>2014-08-08T09:44:07Z</time>
      </trkpt>
      <trkpt lat="42.495176360" lon="1.170331860">
        <ele>1648.80</ele>
        <time>2014-08-08T09:44:17Z</time>
      </trkpt>
      <trkpt lat="42.495187600" lon="1.170496740">
        <ele>1649.30</ele>
        <time>2014-08-08T09:44:26Z</time>
      </trkpt>
      <trkpt lat="42.495190860" lon="1.170517610">
        <ele>1649.30</ele>
        <time>2014-08-08T09:44:27Z</time>
      </trkpt>
      <trkpt lat="42.495201340" lon="1.170611650">
        <ele>1650.20</ele>
        <time>2014-08-08T09:44:35Z</time>
      </trkpt>
      <trkpt lat="42.495204690" lon="1.170741820">
        <ele>1651.70</ele>
        <time>2014-08-08T09:44:43Z</time>
      </trkpt>
      <trkpt lat="42.495215930" lon="1.170847100">
        <ele>1652.20</ele>
        <time>2014-08-08T09:44:50Z</time>
      </trkpt>
      <trkpt lat="42.495232270" lon="1.171012140">
        <ele>1654.10</ele>
        <time>2014-08-08T09:44:58Z</time>
      </trkpt>
      <trkpt lat="42.495256830" lon="1.171153790">
        <ele>1654.60</ele>
        <time>2014-08-08T09:45:05Z</time>
      </trkpt>
      <trkpt lat="42.495267060" lon="1.171297880">
        <ele>1656.00</ele>
        <time>2014-08-08T09:45:13Z</time>
      </trkpt>
      <trkpt lat="42.495270320" lon="1.171452110">
        <ele>1657.90</ele>
        <time>2014-08-08T09:45:22Z</time>
      </trkpt>
      <trkpt lat="42.495286250" lon="1.171579340">
        <ele>1657.50</ele>
        <time>2014-08-08T09:45:30Z</time>
      </trkpt>
      <trkpt lat="42.495287090" lon="1.171676910">
        <ele>1659.40</ele>
        <time>2014-08-08T09:45:37Z</time>
      </trkpt>
      <trkpt lat="42.495297730" lon="1.171781770">
        <ele>1659.40</ele>
        <time>2014-08-08T09:45:44Z</time>
      </trkpt>
      <trkpt lat="42.495318440" lon="1.171980750">
        <ele>1661.30</ele>
        <time>2014-08-08T09:45:53Z</time>
      </trkpt>
      <trkpt lat="42.495325060" lon="1.172161470">
        <ele>1661.80</ele>
        <time>2014-08-08T09:46:01Z</time>
      </trkpt>
      <trkpt lat="42.495324560" lon="1.172241180">
        <ele>1661.80</ele>
        <time>2014-08-08T09:46:05Z</time>
      </trkpt>
      <trkpt lat="42.495290020" lon="1.172352570">
        <ele>1663.20</ele>
        <time>2014-08-08T09:46:12Z</time>
      </trkpt>
      <trkpt lat="42.495281470" lon="1.172372940">
        <ele>1663.20</ele>
        <time>2014-08-08T09:46:13Z</time>
      </trkpt>
      <trkpt lat="42.495263280" lon="1.172445530">
        <ele>1663.70</ele>
        <time>2014-08-08T09:46:21Z</time>
      </trkpt>
      <trkpt lat="42.495249370" lon="1.172452740">
        <ele>1664.70</ele>
        <time>2014-08-08T09:48:07Z</time>
      </trkpt>
      <trkpt lat="42.495242330" lon="1.172431700">
        <ele>1664.20</ele>
        <time>2014-08-08T09:48:09Z</time>
      </trkpt>
      <trkpt lat="42.495190110" lon="1.172265150">
        <ele>1665.10</ele>
        <time>2014-08-08T09:48:19Z</time>
      </trkpt>
      <trkpt lat="42.495163710" lon="1.172115450">
        <ele>1666.60</ele>
        <time>2014-08-08T09:48:28Z</time>
      </trkpt>
      <trkpt lat="42.495110820" lon="1.171972620">
        <ele>1666.10</ele>
        <time>2014-08-08T09:48:36Z</time>
      </trkpt>
      <trkpt lat="42.495067570" lon="1.171846470">
        <ele>1667.10</ele>
        <time>2014-08-08T09:48:43Z</time>
      </trkpt>
      <trkpt lat="42.495008220" lon="1.171671290">
        <ele>1668.50</ele>
        <time>2014-08-08T09:48:53Z</time>
      </trkpt>
      <trkpt lat="42.494980230" lon="1.171502980">
        <ele>1669.00</ele>
        <time>2014-08-08T09:49:02Z</time>
      </trkpt>
      <trkpt lat="42.494938650" lon="1.171349510">
        <ele>1670.90</ele>
        <time>2014-08-08T09:49:11Z</time>
      </trkpt>
      <trkpt lat="42.494906720" lon="1.171259990">
        <ele>1670.00</ele>
        <time>2014-08-08T09:49:16Z</time>
      </trkpt>
      <trkpt lat="42.494887440" lon="1.171172650">
        <ele>1670.00</ele>
        <time>2014-08-08T09:49:21Z</time>
      </trkpt>
      <trkpt lat="42.494872860" lon="1.171141140">
        <ele>1670.00</ele>
        <time>2014-08-08T09:49:23Z</time>
      </trkpt>
      <trkpt lat="42.494837150" lon="1.171053880">
        <ele>1671.40</ele>
        <time>2014-08-08T09:49:28Z</time>
      </trkpt>
      <trkpt lat="42.494829600" lon="1.171039880">
        <ele>1672.40</ele>
        <time>2014-08-08T09:49:29Z</time>
      </trkpt>
      <trkpt lat="42.494773530" lon="1.170856910">
        <ele>1672.40</ele>
        <time>2014-08-08T09:49:39Z</time>
      </trkpt>
      <trkpt lat="42.494766490" lon="1.170817760">
        <ele>1672.80</ele>
        <time>2014-08-08T09:49:41Z</time>
      </trkpt>
      <trkpt lat="42.494733800" lon="1.170738720">
        <ele>1673.30</ele>
        <time>2014-08-08T09:49:46Z</time>
      </trkpt>
      <trkpt lat="42.494680410" lon="1.170610310">
        <ele>1674.30</ele>
        <time>2014-08-08T09:49:54Z</time>
      </trkpt>
      <trkpt lat="42.494627270" lon="1.170478130">
        <ele>1674.30</ele>
        <time>2014-08-08T09:50:02Z</time>
      </trkpt>
      <trkpt lat="42.494608320" lon="1.170407050">
        <ele>1675.70</ele>
        <time>2014-08-08T09:50:06Z</time>
      </trkpt>
      <trkpt lat="42.494555600" lon="1.170259190">
        <ele>1676.20</ele>
        <time>2014-08-08T09:50:14Z</time>
      </trkpt>
      <trkpt lat="42.494538000" lon="1.170189460">
        <ele>1676.20</ele>
        <time>2014-08-08T09:50:18Z</time>
      </trkpt>
      <trkpt lat="42.494503720" lon="1.170078140">
        <ele>1677.60</ele>
        <time>2014-08-08T09:50:25Z</time>
      </trkpt>
      <trkpt lat="42.494465830" lon="1.169892570">
        <ele>1679.10</ele>
        <time>2014-08-08T09:50:35Z</time>
      </trkpt>
      <trkpt lat="42.494391820" lon="1.169779580">
        <ele>1679.10</ele>
        <time>2014-08-08T09:50:43Z</time>
      </trkpt>
      <trkpt lat="42.494332890" lon="1.169677490">
        <ele>1681.00</ele>
        <time>2014-08-08T09:50:51Z</time>
      </trkpt>
      <trkpt lat="42.494272040" lon="1.169607830">
        <ele>1680.50</ele>
        <time>2014-08-08T09:50:56Z</time>
      </trkpt>
      <trkpt lat="42.494223590" lon="1.169502220">
        <ele>1681.00</ele>
        <time>2014-08-08T09:51:02Z</time>
      </trkpt>
      <trkpt lat="42.494170120" lon="1.169338940">
        <ele>1682.40</ele>
        <time>2014-08-08T09:51:11Z</time>
      </trkpt>
      <trkpt lat="42.494102390" lon="1.169165190">
        <ele>1682.40</ele>
        <time>2014-08-08T09:51:21Z</time>
      </trkpt>
      <trkpt lat="42.494084790" lon="1.169136520">
        <ele>1682.40</ele>
        <time>2014-08-08T09:51:23Z</time>
      </trkpt>
      <trkpt lat="42.494042040" lon="1.169052200">
        <ele>1682.40</ele>
        <time>2014-08-08T09:51:28Z</time>
      </trkpt>
      <trkpt lat="42.493964680" lon="1.168972240">
        <ele>1684.40</ele>
        <time>2014-08-08T09:51:35Z</time>
      </trkpt>
      <trkpt lat="42.493903150" lon="1.168920350">
        <ele>1684.40</ele>
        <time>2014-08-08T09:51:40Z</time>
      </trkpt>
      <trkpt lat="42.493856300" lon="1.168817840">
        <ele>1684.90</ele>
        <time>2014-08-08T09:51:46Z</time>
      </trkpt>
      <trkpt lat="42.493728890" lon="1.168710470">
        <ele>1686.30</ele>
        <time>2014-08-08T09:51:56Z</time>
      </trkpt>
      <trkpt lat="42.493619260" lon="1.168616670">
        <ele>1686.30</ele>
        <time>2014-08-08T09:52:05Z</time>
      </trkpt>
      <trkpt lat="42.493584560" lon="1.168579790">
        <ele>1688.70</ele>
        <time>2014-08-08T09:52:08Z</time>
      </trkpt>
      <trkpt lat="42.493553120" lon="1.168534780">
        <ele>1687.30</ele>
        <time>2014-08-08T09:52:11Z</time>
      </trkpt>
      <trkpt lat="42.493520520" lon="1.168411320">
        <ele>1689.20</ele>
        <time>2014-08-08T09:52:18Z</time>
      </trkpt>
      <trkpt lat="42.493560920" lon="1.168259020">
        <ele>1689.70</ele>
        <time>2014-08-08T09:52:27Z</time>
      </trkpt>
      <trkpt lat="42.493566870" lon="1.168246360">
        <ele>1689.70</ele>
        <time>2014-08-08T09:52:28Z</time>
      </trkpt>
      <trkpt lat="42.493610370" lon="1.168117450">
        <ele>1690.10</ele>
        <time>2014-08-08T09:52:37Z</time>
      </trkpt>
      <trkpt lat="42.493620600" lon="1.168002780">
        <ele>1690.60</ele>
        <time>2014-08-08T09:52:44Z</time>
      </trkpt>
      <trkpt lat="42.493620680" lon="1.167987610">
        <ele>1690.60</ele>
        <time>2014-08-08T09:52:45Z</time>
      </trkpt>
      <trkpt lat="42.493627050" lon="1.167908070">
        <ele>1692.50</ele>
        <time>2014-08-08T09:52:49Z</time>
      </trkpt>
      <trkpt lat="42.493626380" lon="1.167840430">
        <ele>1692.10</ele>
        <time>2014-08-08T09:52:52Z</time>
      </trkpt>
      <trkpt lat="42.493654040" lon="1.167651750">
        <ele>1693.00</ele>
        <time>2014-08-08T09:53:00Z</time>
      </trkpt>
      <trkpt lat="42.493618920" lon="1.167567510">
        <ele>1693.50</ele>
        <time>2014-08-08T09:53:06Z</time>
      </trkpt>
      <trkpt lat="42.493568710" lon="1.167319910">
        <ele>1695.40</ele>
        <time>2014-08-08T09:53:18Z</time>
      </trkpt>
      <trkpt lat="42.493502580" lon="1.167184290">
        <ele>1694.90</ele>
        <time>2014-08-08T09:53:26Z</time>
      </trkpt>
      <trkpt lat="42.493497800" lon="1.167168200">
        <ele>1696.40</ele>
        <time>2014-08-08T09:53:27Z</time>
      </trkpt>
      <trkpt lat="42.493470900" lon="1.167083460">
        <ele>1696.40</ele>
        <time>2014-08-08T09:53:31Z</time>
      </trkpt>
      <trkpt lat="42.493432590" lon="1.166938950">
        <ele>1696.90</ele>
        <time>2014-08-08T09:53:39Z</time>
      </trkpt>
      <trkpt lat="42.493423290" lon="1.166920760">
        <ele>1696.90</ele>
        <time>2014-08-08T09:53:40Z</time>
      </trkpt>
      <trkpt lat="42.493365540" lon="1.166745160">
        <ele>1697.80</ele>
        <time>2014-08-08T09:53:50Z</time>
      </trkpt>
      <trkpt lat="42.493352290" lon="1.166705010">
        <ele>1698.30</ele>
        <time>2014-08-08T09:53:52Z</time>
      </trkpt>
      <trkpt lat="42.493302090" lon="1.166486330">
        <ele>1699.80</ele>
        <time>2014-08-08T09:54:04Z</time>
      </trkpt>
      <trkpt lat="42.493251290" lon="1.166344340">
        <ele>1700.20</ele>
        <time>2014-08-08T09:54:12Z</time>
      </trkpt>
      <trkpt lat="42.493215250" lon="1.166204530">
        <ele>1701.20</ele>
        <time>2014-08-08T09:54:19Z</time>
      </trkpt>
      <trkpt lat="42.493185660" lon="1.166058520">
        <ele>1702.60</ele>
        <time>2014-08-08T09:54:27Z</time>
      </trkpt>
      <trkpt lat="42.493160850" lon="1.165902360">
        <ele>1703.10</ele>
        <time>2014-08-08T09:54:35Z</time>
      </trkpt>
      <trkpt lat="42.493147690" lon="1.165871690">
        <ele>1702.60</ele>
        <time>2014-08-08T09:54:37Z</time>
      </trkpt>
      <trkpt lat="42.493143500" lon="1.165812260">
        <ele>1702.60</ele>
        <time>2014-08-08T09:54:40Z</time>
      </trkpt>
      <trkpt lat="42.493124310" lon="1.165740340">
        <ele>1703.10</ele>
        <time>2014-08-08T09:54:44Z</time>
      </trkpt>
      <trkpt lat="42.493071160" lon="1.165581420">
        <ele>1704.60</ele>
        <time>2014-08-08T09:54:53Z</time>
      </trkpt>
      <trkpt lat="42.493059430" lon="1.165449150">
        <ele>1706.00</ele>
        <time>2014-08-08T09:55:00Z</time>
      </trkpt>
      <trkpt lat="42.493032610" lon="1.165307000">
        <ele>1707.40</ele>
        <time>2014-08-08T09:55:08Z</time>
      </trkpt>
      <trkpt lat="42.492998750" lon="1.165225780">
        <ele>1706.50</ele>
        <time>2014-08-08T09:55:13Z</time>
      </trkpt>
      <trkpt lat="42.492903110" lon="1.165102140">
        <ele>1707.00</ele>
        <time>2014-08-08T09:55:23Z</time>
      </trkpt>
      <trkpt lat="42.492887770" lon="1.165040790">
        <ele>1707.40</ele>
        <time>2014-08-08T09:55:28Z</time>
      </trkpt>
      <trkpt lat="42.492899840" lon="1.164999970">
        <ele>1707.40</ele>
        <time>2014-08-08T09:55:30Z</time>
      </trkpt>
      <trkpt lat="42.492934290" lon="1.164897540">
        <ele>1708.90</ele>
        <time>2014-08-08T09:55:38Z</time>
      </trkpt>
      <trkpt lat="42.492974690" lon="1.164826380">
        <ele>1709.80</ele>
        <time>2014-08-08T09:55:44Z</time>
      </trkpt>
      <trkpt lat="42.492999750" lon="1.164698140">
        <ele>1710.80</ele>
        <time>2014-08-08T09:55:51Z</time>
      </trkpt>
      <trkpt lat="42.493001340" lon="1.164548350">
        <ele>1711.80</ele>
        <time>2014-08-08T09:56:00Z</time>
      </trkpt>
      <trkpt lat="42.493019780" lon="1.164406440">
        <ele>1711.80</ele>
        <time>2014-08-08T09:56:08Z</time>
      </trkpt>
      <trkpt lat="42.492990870" lon="1.164308290">
        <ele>1713.70</ele>
        <time>2014-08-08T09:56:14Z</time>
      </trkpt>
      <trkpt lat="42.492983490" lon="1.164185250">
        <ele>1713.70</ele>
        <time>2014-08-08T09:56:22Z</time>
      </trkpt>
      <trkpt lat="42.492995220" lon="1.164044260">
        <ele>1714.70</ele>
        <time>2014-08-08T09:56:29Z</time>
      </trkpt>
      <trkpt lat="42.493009060" lon="1.163894390">
        <ele>1716.60</ele>
        <time>2014-08-08T09:56:36Z</time>
      </trkpt>
      <trkpt lat="42.493006370" lon="1.163725580">
        <ele>1715.10</ele>
        <time>2014-08-08T09:56:43Z</time>
      </trkpt>
      <trkpt lat="42.493009140" lon="1.163662800">
        <ele>1716.60</ele>
        <time>2014-08-08T09:56:46Z</time>
      </trkpt>
      <trkpt lat="42.492903020" lon="1.163411680">
        <ele>1718.50</ele>
        <time>2014-08-08T09:56:56Z</time>
      </trkpt>
      <trkpt lat="42.492856840" lon="1.163266340">
        <ele>1719.50</ele>
        <time>2014-08-08T09:57:04Z</time>
      </trkpt>
      <trkpt lat="42.492821300" lon="1.163147400">
        <ele>1719.90</ele>
        <time>2014-08-08T09:57:10Z</time>
      </trkpt>
      <trkpt lat="42.492754330" lon="1.162955030">
        <ele>1720.40</ele>
        <time>2014-08-08T09:57:20Z</time>
      </trkpt>
      <trkpt lat="42.492744440" lon="1.162912290">
        <ele>1719.90</ele>
        <time>2014-08-08T09:57:22Z</time>
      </trkpt>
      <trkpt lat="42.492714680" lon="1.162810700">
        <ele>1720.90</ele>
        <time>2014-08-08T09:57:27Z</time>
      </trkpt>
      <trkpt lat="42.492709400" lon="1.162790670">
        <ele>1721.40</ele>
        <time>2014-08-08T09:57:28Z</time>
      </trkpt>
      <trkpt lat="42.492683920" lon="1.162673570">
        <ele>1722.30</ele>
        <time>2014-08-08T09:57:34Z</time>
      </trkpt>
      <trkpt lat="42.492639660" lon="1.162530240">
        <ele>1723.30</ele>
        <time>2014-08-08T09:57:42Z</time>
      </trkpt>
      <trkpt lat="42.492632620" lon="1.162515570">
        <ele>1722.30</ele>
        <time>2014-08-08T09:57:43Z</time>
      </trkpt>
      <trkpt lat="42.492656510" lon="1.162358910">
        <ele>1722.80</ele>
        <time>2014-08-08T09:57:51Z</time>
      </trkpt>
      <trkpt lat="42.492617280" lon="1.162199240">
        <ele>1723.30</ele>
        <time>2014-08-08T09:57:58Z</time>
      </trkpt>
      <trkpt lat="42.492588620" lon="1.162053810">
        <ele>1724.70</ele>
        <time>2014-08-08T09:58:05Z</time>
      </trkpt>
      <trkpt lat="42.492563640" lon="1.162001430">
        <ele>1724.30</ele>
        <time>2014-08-08T09:58:08Z</time>
      </trkpt>
      <trkpt lat="42.492511420" lon="1.161837890">
        <ele>1725.20</ele>
        <time>2014-08-08T09:58:16Z</time>
      </trkpt>
      <trkpt lat="42.492458030" lon="1.161675200">
        <ele>1725.20</ele>
        <time>2014-08-08T09:58:22Z</time>
      </trkpt>
      <trkpt lat="42.492430870" lon="1.161612090">
        <ele>1725.70</ele>
        <time>2014-08-08T09:58:25Z</time>
      </trkpt>
      <trkpt lat="42.492401370" lon="1.161505550">
        <ele>1725.70</ele>
        <time>2014-08-08T09:58:30Z</time>
      </trkpt>
      <trkpt lat="42.492354260" lon="1.161319730">
        <ele>1725.70</ele>
        <time>2014-08-08T09:58:38Z</time>
      </trkpt>
      <trkpt lat="42.492328030" lon="1.161145970">
        <ele>1726.20</ele>
        <time>2014-08-08T09:58:45Z</time>
      </trkpt>
      <trkpt lat="42.492252000" lon="1.161035830">
        <ele>1725.20</ele>
        <time>2014-08-08T09:58:51Z</time>
      </trkpt>
      <trkpt lat="42.492159800" lon="1.160958800">
        <ele>1727.20</ele>
        <time>2014-08-08T09:58:58Z</time>
      </trkpt>
      <trkpt lat="42.492051090" lon="1.160872550">
        <ele>1727.20</ele>
        <time>2014-08-08T09:59:06Z</time>
      </trkpt>
      <trkpt lat="42.491909770" lon="1.160767190">
        <ele>1727.60</ele>
        <time>2014-08-08T09:59:14Z</time>
      </trkpt>
      <trkpt lat="42.491788730" lon="1.160701980">
        <ele>1728.10</ele>
        <time>2014-08-08T09:59:21Z</time>
      </trkpt>
      <trkpt lat="42.491687310" lon="1.160570720">
        <ele>1727.60</ele>
        <time>2014-08-08T09:59:29Z</time>
      </trkpt>
      <trkpt lat="42.491616150" lon="1.160485220">
        <ele>1729.10</ele>
        <time>2014-08-08T09:59:34Z</time>
      </trkpt>
      <trkpt lat="42.491594940" lon="1.160442480">
        <ele>1729.10</ele>
        <time>2014-08-08T09:59:36Z</time>
      </trkpt>
      <trkpt lat="42.491512380" lon="1.160315910">
        <ele>1728.60</ele>
        <time>2014-08-08T09:59:43Z</time>
      </trkpt>
      <trkpt lat="42.491479860" lon="1.160268220">
        <ele>1729.10</ele>
        <time>2014-08-08T09:59:45Z</time>
      </trkpt>
      <trkpt lat="42.491353880" lon="1.160090850">
        <ele>1728.60</ele>
        <time>2014-08-08T09:59:54Z</time>
      </trkpt>
      <trkpt lat="42.491269390" lon="1.159927410">
        <ele>1729.60</ele>
        <time>2014-08-08T10:00:02Z</time>
      </trkpt>
      <trkpt lat="42.491262430" lon="1.159907290">
        <ele>1730.00</ele>
        <time>2014-08-08T10:00:03Z</time>
      </trkpt>
      <trkpt lat="42.491274420" lon="1.159672510">
        <ele>1731.50</ele>
        <time>2014-08-08T10:00:12Z</time>
      </trkpt>
      <trkpt lat="42.491275930" lon="1.159651220">
        <ele>1731.00</ele>
        <time>2014-08-08T10:00:13Z</time>
      </trkpt>
      <trkpt lat="42.491254640" lon="1.159478470">
        <ele>1732.00</ele>
        <time>2014-08-08T10:00:21Z</time>
      </trkpt>
      <trkpt lat="42.491285320" lon="1.159304800">
        <ele>1733.40</ele>
        <time>2014-08-08T10:00:29Z</time>
      </trkpt>
      <trkpt lat="42.491296550" lon="1.159259540">
        <ele>1734.40</ele>
        <time>2014-08-08T10:00:31Z</time>
      </trkpt>
      <trkpt lat="42.491308280" lon="1.159068680">
        <ele>1734.40</ele>
        <time>2014-08-08T10:00:40Z</time>
      </trkpt>
      <trkpt lat="42.491322700" lon="1.158863660">
        <ele>1734.80</ele>
        <time>2014-08-08T10:00:49Z</time>
      </trkpt>
      <trkpt lat="42.491368380" lon="1.158686630">
        <ele>1735.80</ele>
        <time>2014-08-08T10:00:59Z</time>
      </trkpt>
      <trkpt lat="42.491399730" lon="1.158581360">
        <ele>1737.20</ele>
        <time>2014-08-08T10:01:06Z</time>
      </trkpt>
      <trkpt lat="42.491448760" lon="1.158370220">
        <ele>1738.70</ele>
        <time>2014-08-08T10:01:15Z</time>
      </trkpt>
      <trkpt lat="42.491461840" lon="1.158109370">
        <ele>1739.20</ele>
        <time>2014-08-08T10:01:25Z</time>
      </trkpt>
      <trkpt lat="42.491463940" lon="1.158008450">
        <ele>1740.10</ele>
        <time>2014-08-08T10:01:29Z</time>
      </trkpt>
      <trkpt lat="42.491351450" lon="1.157853310">
        <ele>1741.10</ele>
        <time>2014-08-08T10:01:38Z</time>
      </trkpt>
      <trkpt lat="42.491210550" lon="1.157796560">
        <ele>1741.60</ele>
        <time>2014-08-08T10:01:47Z</time>
      </trkpt>
      <trkpt lat="42.491085160" lon="1.157732020">
        <ele>1742.50</ele>
        <time>2014-08-08T10:01:55Z</time>
      </trkpt>
      <trkpt lat="42.491015750" lon="1.157675690">
        <ele>1743.50</ele>
        <time>2014-08-08T10:02:00Z</time>
      </trkpt>
      <trkpt lat="42.490869660" lon="1.157546360">
        <ele>1744.50</ele>
        <time>2014-08-08T10:02:10Z</time>
      </trkpt>
      <trkpt lat="42.490770500" lon="1.157464970">
        <ele>1744.90</ele>
        <time>2014-08-08T10:02:17Z</time>
      </trkpt>
      <trkpt lat="42.490747110" lon="1.157445780">
        <ele>1744.90</ele>
        <time>2014-08-08T10:02:19Z</time>
      </trkpt>
      <trkpt lat="42.490724820" lon="1.157363630">
        <ele>1745.40</ele>
        <time>2014-08-08T10:02:24Z</time>
      </trkpt>
      <trkpt lat="42.490782910" lon="1.157156940">
        <ele>1745.90</ele>
        <time>2014-08-08T10:02:33Z</time>
      </trkpt>
      <trkpt lat="42.490836720" lon="1.156994240">
        <ele>1746.40</ele>
        <time>2014-08-08T10:02:41Z</time>
      </trkpt>
      <trkpt lat="42.490850300" lon="1.156878990">
        <ele>1747.30</ele>
        <time>2014-08-08T10:02:48Z</time>
      </trkpt>
      <trkpt lat="42.490852810" lon="1.156718650">
        <ele>1748.30</ele>
        <time>2014-08-08T10:02:55Z</time>
      </trkpt>
      <trkpt lat="42.490868650" lon="1.156589310">
        <ele>1748.30</ele>
        <time>2014-08-08T10:03:02Z</time>
      </trkpt>
      <trkpt lat="42.490871590" lon="1.156559470">
        <ele>1749.30</ele>
        <time>2014-08-08T10:03:03Z</time>
      </trkpt>
      <trkpt lat="42.490879050" lon="1.156345400">
        <ele>1749.30</ele>
        <time>2014-08-08T10:03:11Z</time>
      </trkpt>
      <trkpt lat="42.490875110" lon="1.156330650">
        <ele>1748.80</ele>
        <time>2014-08-08T10:03:12Z</time>
      </trkpt>
      <trkpt lat="42.490866810" lon="1.156151360">
        <ele>1750.70</ele>
        <time>2014-08-08T10:03:19Z</time>
      </trkpt>
      <trkpt lat="42.490825650" lon="1.155985650">
        <ele>1750.70</ele>
        <time>2014-08-08T10:03:26Z</time>
      </trkpt>
      <trkpt lat="42.490739070" lon="1.155738630">
        <ele>1751.70</ele>
        <time>2014-08-08T10:03:36Z</time>
      </trkpt>
      <trkpt lat="42.490714010" lon="1.155673170">
        <ele>1752.60</ele>
        <time>2014-08-08T10:03:39Z</time>
      </trkpt>
      <trkpt lat="42.490645360" lon="1.155580220">
        <ele>1752.60</ele>
        <time>2014-08-08T10:03:45Z</time>
      </trkpt>
      <trkpt lat="42.490552650" lon="1.155458010">
        <ele>1753.10</ele>
        <time>2014-08-08T10:03:53Z</time>
      </trkpt>
      <trkpt lat="42.490401610" lon="1.155328510">
        <ele>1753.60</ele>
        <time>2014-08-08T10:04:03Z</time>
      </trkpt>
      <trkpt lat="42.490336570" lon="1.155254500">
        <ele>1755.00</ele>
        <time>2014-08-08T10:04:09Z</time>
      </trkpt>
      <trkpt lat="42.490162310" lon="1.155171930">
        <ele>1755.50</ele>
        <time>2014-08-08T10:04:20Z</time>
      </trkpt>
      <trkpt lat="42.490040270" lon="1.155157520">
        <ele>1756.00</ele>
        <time>2014-08-08T10:04:26Z</time>
      </trkpt>
      <trkpt lat="42.489912610" lon="1.155148130">
        <ele>1756.00</ele>
        <time>2014-08-08T10:04:34Z</time>
      </trkpt>
      <trkpt lat="42.489731810" lon="1.155133380">
        <ele>1757.90</ele>
        <time>2014-08-08T10:04:45Z</time>
      </trkpt>
      <trkpt lat="42.489614220" lon="1.155067410">
        <ele>1758.40</ele>
        <time>2014-08-08T10:04:53Z</time>
      </trkpt>
      <trkpt lat="42.489511540" lon="1.154977730">
        <ele>1758.40</ele>
        <time>2014-08-08T10:05:00Z</time>
      </trkpt>
      <trkpt lat="42.489387990" lon="1.154838250">
        <ele>1759.40</ele>
        <time>2014-08-08T10:05:09Z</time>
      </trkpt>
      <trkpt lat="42.489307190" lon="1.154727780">
        <ele>1760.30</ele>
        <time>2014-08-08T10:05:16Z</time>
      </trkpt>
      <trkpt lat="42.489170060" lon="1.154558460">
        <ele>1761.30</ele>
        <time>2014-08-08T10:05:26Z</time>
      </trkpt>
      <trkpt lat="42.489062770" lon="1.154401220">
        <ele>1761.80</ele>
        <time>2014-08-08T10:05:34Z</time>
      </trkpt>
      <trkpt lat="42.488972000" lon="1.154238940">
        <ele>1762.70</ele>
        <time>2014-08-08T10:05:42Z</time>
      </trkpt>
      <trkpt lat="42.488872670" lon="1.154068290">
        <ele>1763.20</ele>
        <time>2014-08-08T10:05:50Z</time>
      </trkpt>
      <trkpt lat="42.488779970" lon="1.153913810">
        <ele>1764.60</ele>
        <time>2014-08-08T10:05:58Z</time>
      </trkpt>
      <trkpt lat="42.488768400" lon="1.153893280">
        <ele>1764.20</ele>
        <time>2014-08-08T10:05:59Z</time>
      </trkpt>
      <trkpt lat="42.488723560" lon="1.153795040">
        <ele>1764.20</ele>
        <time>2014-08-08T10:06:04Z</time>
      </trkpt>
      <trkpt lat="42.488558940" lon="1.153621200">
        <ele>1765.10</ele>
        <time>2014-08-08T10:06:16Z</time>
      </trkpt>
      <trkpt lat="42.488405800" lon="1.153568390">
        <ele>1767.50</ele>
        <time>2014-08-08T10:06:25Z</time>
      </trkpt>
      <trkpt lat="42.488293730" lon="1.153525900">
        <ele>1768.00</ele>
        <time>2014-08-08T10:06:31Z</time>
      </trkpt>
      <trkpt lat="42.488233300" lon="1.153458250">
        <ele>1768.00</ele>
        <time>2014-08-08T10:06:35Z</time>
      </trkpt>
      <trkpt lat="42.488202700" lon="1.153408550">
        <ele>1768.50</ele>
        <time>2014-08-08T10:06:39Z</time>
      </trkpt>
      <trkpt lat="42.488190630" lon="1.153351050">
        <ele>1769.00</ele>
        <time>2014-08-08T10:06:42Z</time>
      </trkpt>
      <trkpt lat="42.488197670" lon="1.153149210">
        <ele>1769.40</ele>
        <time>2014-08-08T10:06:49Z</time>
      </trkpt>
      <trkpt lat="42.488138250" lon="1.152922400">
        <ele>1770.40</ele>
        <time>2014-08-08T10:06:58Z</time>
      </trkpt>
      <trkpt lat="42.488033890" lon="1.152805970">
        <ele>1771.90</ele>
        <time>2014-08-08T10:07:06Z</time>
      </trkpt>
      <trkpt lat="42.487944460" lon="1.152688040">
        <ele>1772.80</ele>
        <time>2014-08-08T10:07:14Z</time>
      </trkpt>
      <trkpt lat="42.487875640" lon="1.152565670">
        <ele>1773.30</ele>
        <time>2014-08-08T10:07:21Z</time>
      </trkpt>
      <trkpt lat="42.487849160" lon="1.152456530">
        <ele>1773.80</ele>
        <time>2014-08-08T10:07:26Z</time>
      </trkpt>
      <trkpt lat="42.487787460" lon="1.152316970">
        <ele>1774.30</ele>
        <time>2014-08-08T10:07:33Z</time>
      </trkpt>
      <trkpt lat="42.487775810" lon="1.152299370">
        <ele>1774.30</ele>
        <time>2014-08-08T10:07:34Z</time>
      </trkpt>
      <trkpt lat="42.487667100" lon="1.152192250">
        <ele>1774.70</ele>
        <time>2014-08-08T10:07:42Z</time>
      </trkpt>
      <trkpt lat="42.487555200" lon="1.152056380">
        <ele>1775.70</ele>
        <time>2014-08-08T10:07:51Z</time>
      </trkpt>
      <trkpt lat="42.487419420" lon="1.151884050">
        <ele>1777.60</ele>
        <time>2014-08-08T10:08:02Z</time>
      </trkpt>
      <trkpt lat="42.487365770" lon="1.151806180">
        <ele>1778.10</ele>
        <time>2014-08-08T10:08:10Z</time>
      </trkpt>
      <trkpt lat="42.487340290" lon="1.151776840">
        <ele>1778.10</ele>
        <time>2014-08-08T10:10:05Z</time>
      </trkpt>
      <trkpt lat="42.487239790" lon="1.151728400">
        <ele>1778.60</ele>
        <time>2014-08-08T10:10:12Z</time>
      </trkpt>
      <trkpt lat="42.487099480" lon="1.151717000">
        <ele>1779.50</ele>
        <time>2014-08-08T10:10:20Z</time>
      </trkpt>
      <trkpt lat="42.486942150" lon="1.151678440">
        <ele>1780.50</ele>
        <time>2014-08-08T10:10:30Z</time>
      </trkpt>
      <trkpt lat="42.486802000" lon="1.151680030">
        <ele>1782.40</ele>
        <time>2014-08-08T10:10:39Z</time>
      </trkpt>
      <trkpt lat="42.486691610" lon="1.151680870">
        <ele>1782.90</ele>
        <time>2014-08-08T10:10:46Z</time>
      </trkpt>
      <trkpt lat="42.486606200" lon="1.151614070">
        <ele>1784.30</ele>
        <time>2014-08-08T10:10:52Z</time>
      </trkpt>
      <trkpt lat="42.486546440" lon="1.151423630">
        <ele>1784.80</ele>
        <time>2014-08-08T10:11:02Z</time>
      </trkpt>
      <trkpt lat="42.486537890" lon="1.151384660">
        <ele>1785.30</ele>
        <time>2014-08-08T10:11:04Z</time>
      </trkpt>
      <trkpt lat="42.486500840" lon="1.151195640">
        <ele>1786.30</ele>
        <time>2014-08-08T10:11:14Z</time>
      </trkpt>
      <trkpt lat="42.486483240" lon="1.150950140">
        <ele>1786.80</ele>
        <time>2014-08-08T10:11:25Z</time>
      </trkpt>
      <trkpt lat="42.486452980" lon="1.150728350">
        <ele>1787.70</ele>
        <time>2014-08-08T10:11:35Z</time>
      </trkpt>
      <trkpt lat="42.486393390" lon="1.150573290">
        <ele>1788.70</ele>
        <time>2014-08-08T10:11:44Z</time>
      </trkpt>
      <trkpt lat="42.486266820" lon="1.150521990">
        <ele>1789.20</ele>
        <time>2014-08-08T10:11:53Z</time>
      </trkpt>
      <trkpt lat="42.486166150" lon="1.150437000">
        <ele>1790.10</ele>
        <time>2014-08-08T10:12:00Z</time>
      </trkpt>
      <trkpt lat="42.486110160" lon="1.150275560">
        <ele>1791.10</ele>
        <time>2014-08-08T10:12:08Z</time>
      </trkpt>
      <trkpt lat="42.486072020" lon="1.150167180">
        <ele>1791.60</ele>
        <time>2014-08-08T10:12:14Z</time>
      </trkpt>
      <trkpt lat="42.486025590" lon="1.149981940">
        <ele>1792.00</ele>
        <time>2014-08-08T10:12:23Z</time>
      </trkpt>
      <trkpt lat="42.486000360" lon="1.149830570">
        <ele>1793.50</ele>
        <time>2014-08-08T10:12:31Z</time>
      </trkpt>
      <trkpt lat="42.486020140" lon="1.149700230">
        <ele>1794.00</ele>
        <time>2014-08-08T10:12:38Z</time>
      </trkpt>
      <trkpt lat="42.486057610" lon="1.149572820">
        <ele>1795.90</ele>
        <time>2014-08-08T10:12:45Z</time>
      </trkpt>
      <trkpt lat="42.486076890" lon="1.149433350">
        <ele>1797.30</ele>
        <time>2014-08-08T10:12:53Z</time>
      </trkpt>
      <trkpt lat="42.486080570" lon="1.149359840">
        <ele>1797.80</ele>
        <time>2014-08-08T10:12:57Z</time>
      </trkpt>
      <trkpt lat="42.486059950" lon="1.149122460">
        <ele>1799.20</ele>
        <time>2014-08-08T10:13:06Z</time>
      </trkpt>
      <trkpt lat="42.486041600" lon="1.149055660">
        <ele>1798.80</ele>
        <time>2014-08-08T10:13:09Z</time>
      </trkpt>
      <trkpt lat="42.486026510" lon="1.149016260">
        <ele>1799.70</ele>
        <time>2014-08-08T10:13:11Z</time>
      </trkpt>
      <trkpt lat="42.485995410" lon="1.148941750">
        <ele>1799.20</ele>
        <time>2014-08-08T10:13:15Z</time>
      </trkpt>
      <trkpt lat="42.485934480" lon="1.148776290">
        <ele>1800.20</ele>
        <time>2014-08-08T10:13:23Z</time>
      </trkpt>
      <trkpt lat="42.485843530" lon="1.148600190">
        <ele>1801.20</ele>
        <time>2014-08-08T10:13:33Z</time>
      </trkpt>
      <trkpt lat="42.485788550" lon="1.148535560">
        <ele>1802.10</ele>
        <time>2014-08-08T10:13:38Z</time>
      </trkpt>
      <trkpt lat="42.485735990" lon="1.148316380">
        <ele>1803.10</ele>
        <time>2014-08-08T10:13:49Z</time>
      </trkpt>
      <trkpt lat="42.485712190" lon="1.148173800">
        <ele>1803.60</ele>
        <time>2014-08-08T10:13:56Z</time>
      </trkpt>
      <trkpt lat="42.485687130" lon="1.148023180">
        <ele>1805.50</ele>
        <time>2014-08-08T10:14:04Z</time>
      </trkpt>
      <trkpt lat="42.485669940" lon="1.147953940">
        <ele>1806.00</ele>
        <time>2014-08-08T10:14:10Z</time>
      </trkpt>
      <trkpt lat="42.485683190" lon="1.147885380">
        <ele>1806.00</ele>
        <time>2014-08-08T10:14:14Z</time>
      </trkpt>
      <trkpt lat="42.485705570" lon="1.147772980">
        <ele>1806.90</ele>
        <time>2014-08-08T10:14:18Z</time>
      </trkpt>
      <trkpt lat="42.485768770" lon="1.147592600">
        <ele>1806.90</ele>
        <time>2014-08-08T10:14:25Z</time>
      </trkpt>
      <trkpt lat="42.485790060" lon="1.147354890">
        <ele>1807.90</ele>
        <time>2014-08-08T10:14:35Z</time>
      </trkpt>
      <trkpt lat="42.485778070" lon="1.147285820">
        <ele>1807.90</ele>
        <time>2014-08-08T10:14:38Z</time>
      </trkpt>
      <trkpt lat="42.485719730" lon="1.147107200">
        <ele>1809.30</ele>
        <time>2014-08-08T10:14:46Z</time>
      </trkpt>
      <trkpt lat="42.485677820" lon="1.146977030">
        <ele>1810.30</ele>
        <time>2014-08-08T10:14:52Z</time>
      </trkpt>
      <trkpt lat="42.485613950" lon="1.146781570">
        <ele>1810.80</ele>
        <time>2014-08-08T10:15:01Z</time>
      </trkpt>
      <trkpt lat="42.485563490" lon="1.146602780">
        <ele>1811.30</ele>
        <time>2014-08-08T10:15:10Z</time>
      </trkpt>
      <trkpt lat="42.485567520" lon="1.146528940">
        <ele>1811.30</ele>
        <time>2014-08-08T10:15:14Z</time>
      </trkpt>
      <trkpt lat="42.485621920" lon="1.146353080">
        <ele>1813.20</ele>
        <time>2014-08-08T10:15:24Z</time>
      </trkpt>
      <trkpt lat="42.485646730" lon="1.146266670">
        <ele>1813.20</ele>
        <time>2014-08-08T10:15:29Z</time>
      </trkpt>
      <trkpt lat="42.485701960" lon="1.146043790">
        <ele>1814.60</ele>
        <time>2014-08-08T10:15:38Z</time>
      </trkpt>
      <trkpt lat="42.485786540" lon="1.145857630">
        <ele>1815.10</ele>
        <time>2014-08-08T10:15:46Z</time>
      </trkpt>
      <trkpt lat="42.485860380" lon="1.145691080">
        <ele>1815.60</ele>
        <time>2014-08-08T10:15:55Z</time>
      </trkpt>
      <trkpt lat="42.485916710" lon="1.145556300">
        <ele>1816.60</ele>
        <time>2014-08-08T10:16:03Z</time>
      </trkpt>
      <trkpt lat="42.485966920" lon="1.145414140">
        <ele>1818.50</ele>
        <time>2014-08-08T10:16:11Z</time>
      </trkpt>
      <trkpt lat="42.486030200" lon="1.145278610">
        <ele>1819.40</ele>
        <time>2014-08-08T10:16:18Z</time>
      </trkpt>
      <trkpt lat="42.486035810" lon="1.145258490">
        <ele>1819.40</ele>
        <time>2014-08-08T10:16:19Z</time>
      </trkpt>
      <trkpt lat="42.486101440" lon="1.145109460">
        <ele>1821.40</ele>
        <time>2014-08-08T10:16:28Z</time>
      </trkpt>
      <trkpt lat="42.486128520" lon="1.145035950">
        <ele>1821.40</ele>
        <time>2014-08-08T10:16:32Z</time>
      </trkpt>
      <trkpt lat="42.486141180" lon="1.144927320">
        <ele>1821.80</ele>
        <time>2014-08-08T10:16:39Z</time>
      </trkpt>
      <trkpt lat="42.486140250" lon="1.144903770">
        <ele>1822.30</ele>
        <time>2014-08-08T10:16:40Z</time>
      </trkpt>
      <trkpt lat="42.486138490" lon="1.144804690">
        <ele>1822.80</ele>
        <time>2014-08-08T10:16:44Z</time>
      </trkpt>
      <trkpt lat="42.486122570" lon="1.144634620">
        <ele>1823.80</ele>
        <time>2014-08-08T10:16:51Z</time>
      </trkpt>
      <trkpt lat="42.486085270" lon="1.144462960">
        <ele>1823.80</ele>
        <time>2014-08-08T10:16:59Z</time>
      </trkpt>
      <trkpt lat="42.486082420" lon="1.144304380">
        <ele>1825.70</ele>
        <time>2014-08-08T10:17:06Z</time>
      </trkpt>
      <trkpt lat="42.486090460" lon="1.144170940">
        <ele>1826.20</ele>
        <time>2014-08-08T10:17:13Z</time>
      </trkpt>
      <trkpt lat="42.486104290" lon="1.144113940">
        <ele>1826.60</ele>
        <time>2014-08-08T10:17:19Z</time>
      </trkpt>
      <trkpt lat="42.486118880" lon="1.144071700">
        <ele>1826.60</ele>
        <time>2014-08-08T10:17:37Z</time>
      </trkpt>
      <trkpt lat="42.486114600" lon="1.144072790">
        <ele>1825.70</ele>
        <time>2014-08-08T10:17:42Z</time>
      </trkpt>
      <trkpt lat="42.486134720" lon="1.144035150">
        <ele>1825.70</ele>
        <time>2014-08-08T10:17:45Z</time>
      </trkpt>
      <trkpt lat="42.486162800" lon="1.143936920">
        <ele>1825.70</ele>
        <time>2014-08-08T10:17:51Z</time>
      </trkpt>
      <trkpt lat="42.486269080" lon="1.143806160">
        <ele>1827.60</ele>
        <time>2014-08-08T10:18:00Z</time>
      </trkpt>
      <trkpt lat="42.486351640" lon="1.143693840">
        <ele>1828.60</ele>
        <time>2014-08-08T10:18:07Z</time>
      </trkpt>
      <trkpt lat="42.486460690" lon="1.143502400">
        <ele>1829.50</ele>
        <time>2014-08-08T10:18:17Z</time>
      </trkpt>
      <trkpt lat="42.486528670" lon="1.143366440">
        <ele>1831.00</ele>
        <time>2014-08-08T10:18:26Z</time>
      </trkpt>
      <trkpt lat="42.486531600" lon="1.143350940">
        <ele>1831.00</ele>
        <time>2014-08-08T10:18:27Z</time>
      </trkpt>
      <trkpt lat="42.486562700" lon="1.143204500">
        <ele>1833.40</ele>
        <time>2014-08-08T10:18:34Z</time>
      </trkpt>
      <trkpt lat="42.486574850" lon="1.143152790">
        <ele>1832.90</ele>
        <time>2014-08-08T10:18:37Z</time>
      </trkpt>
      <trkpt lat="42.486542330" lon="1.142922790">
        <ele>1833.90</ele>
        <time>2014-08-08T10:18:46Z</time>
      </trkpt>
      <trkpt lat="42.486434960" lon="1.142768140">
        <ele>1833.90</ele>
        <time>2014-08-08T10:18:55Z</time>
      </trkpt>
      <trkpt lat="42.486345690" lon="1.142585170">
        <ele>1834.30</ele>
        <time>2014-08-08T10:19:04Z</time>
      </trkpt>
      <trkpt lat="42.486341420" lon="1.142540830">
        <ele>1834.30</ele>
        <time>2014-08-08T10:19:11Z</time>
      </trkpt>
      <trkpt lat="42.486339910" lon="1.142530430">
        <ele>1834.30</ele>
        <time>2014-08-08T10:19:23Z</time>
      </trkpt>
      <trkpt lat="42.486343260" lon="1.142531020">
        <ele>1834.30</ele>
        <time>2014-08-08T10:19:35Z</time>
      </trkpt>
      <trkpt lat="42.486356250" lon="1.142526830">
        <ele>1834.80</ele>
        <time>2014-08-08T10:19:41Z</time>
      </trkpt>
      <trkpt lat="42.486354580" lon="1.142493130">
        <ele>1833.90</ele>
        <time>2014-08-08T10:19:44Z</time>
      </trkpt>
      <trkpt lat="42.486348380" lon="1.142391630">
        <ele>1833.90</ele>
        <time>2014-08-08T10:19:49Z</time>
      </trkpt>
      <trkpt lat="42.486350810" lon="1.142145370">
        <ele>1835.30</ele>
        <time>2014-08-08T10:19:57Z</time>
      </trkpt>
      <trkpt lat="42.486353910" lon="1.142090550">
        <ele>1836.30</ele>
        <time>2014-08-08T10:19:59Z</time>
      </trkpt>
      <trkpt lat="42.486405880" lon="1.141838840">
        <ele>1834.30</ele>
        <time>2014-08-08T10:20:06Z</time>
      </trkpt>
      <trkpt lat="42.486451810" lon="1.141605240">
        <ele>1834.80</ele>
        <time>2014-08-08T10:20:12Z</time>
      </trkpt>
      <trkpt lat="42.486486010" lon="1.141493840">
        <ele>1833.90</ele>
        <time>2014-08-08T10:20:15Z</time>
      </trkpt>
      <trkpt lat="42.486705530" lon="1.141244730">
        <ele>1833.90</ele>
        <time>2014-08-08T10:20:21Z</time>
      </trkpt>
      <trkpt lat="42.486873590" lon="1.141048510">
        <ele>1833.90</ele>
        <time>2014-08-08T10:20:27Z</time>
      </trkpt>
      <trkpt lat="42.486950110" lon="1.140967370">
        <ele>1834.30</ele>
        <time>2014-08-08T10:20:29Z</time>
      </trkpt>
      <trkpt lat="42.487037450" lon="1.140908200">
        <ele>1833.90</ele>
        <time>2014-08-08T10:20:31Z</time>
      </trkpt>
      <trkpt lat="42.487155130" lon="1.140650040">
        <ele>1834.30</ele>
        <time>2014-08-08T10:20:36Z</time>
      </trkpt>
      <trkpt lat="42.487210790" lon="1.139925760">
        <ele>1833.90</ele>
        <time>2014-08-08T10:20:47Z</time>
      </trkpt>
      <trkpt lat="42.487224870" lon="1.139508670">
        <ele>1833.40</ele>
        <time>2014-08-08T10:20:53Z</time>
      </trkpt>
      <trkpt lat="42.487236770" lon="1.139356210">
        <ele>1832.40</ele>
        <time>2014-08-08T10:20:55Z</time>
      </trkpt>
      <trkpt lat="42.487283460" lon="1.139050600">
        <ele>1832.40</ele>
        <time>2014-08-08T10:20:59Z</time>
      </trkpt>
      <trkpt lat="42.487320340" lon="1.138903830">
        <ele>1832.40</ele>
        <time>2014-08-08T10:21:01Z</time>
      </trkpt>
      <trkpt lat="42.487395610" lon="1.138630330">
        <ele>1832.90</ele>
        <time>2014-08-08T10:21:05Z</time>
      </trkpt>
      <trkpt lat="42.487494270" lon="1.138341070">
        <ele>1832.40</ele>
        <time>2014-08-08T10:21:10Z</time>
      </trkpt>
      <trkpt lat="42.487703650" lon="1.138074360">
        <ele>1831.90</ele>
        <time>2014-08-08T10:21:17Z</time>
      </trkpt>
      <trkpt lat="42.487744550" lon="1.138056260">
        <ele>1831.90</ele>
        <time>2014-08-08T10:21:18Z</time>
      </trkpt>
      <trkpt lat="42.487827030" lon="1.138033460">
        <ele>1831.90</ele>
        <time>2014-08-08T10:21:20Z</time>
      </trkpt>
      <trkpt lat="42.487913780" lon="1.138020130">
        <ele>1831.50</ele>
        <time>2014-08-08T10:21:22Z</time>
      </trkpt>
      <trkpt lat="42.488219640" lon="1.137926590">
        <ele>1830.50</ele>
        <time>2014-08-08T10:21:29Z</time>
      </trkpt>
      <trkpt lat="42.488600590" lon="1.137794410">
        <ele>1828.10</ele>
        <time>2014-08-08T10:21:37Z</time>
      </trkpt>
      <trkpt lat="42.488829000" lon="1.137648390">
        <ele>1829.10</ele>
        <time>2014-08-08T10:21:43Z</time>
      </trkpt>
      <trkpt lat="42.489043660" lon="1.137461390">
        <ele>1830.00</ele>
        <time>2014-08-08T10:21:50Z</time>
      </trkpt>
      <trkpt lat="42.489209120" lon="1.137335330">
        <ele>1831.00</ele>
        <time>2014-08-08T10:21:56Z</time>
      </trkpt>
      <trkpt lat="42.489362760" lon="1.137266350">
        <ele>1831.50</ele>
        <time>2014-08-08T10:22:02Z</time>
      </trkpt>
      <trkpt lat="42.489528810" lon="1.137158050">
        <ele>1832.40</ele>
        <time>2014-08-08T10:22:08Z</time>
      </trkpt>
      <trkpt lat="42.489752270" lon="1.136946830">
        <ele>1832.40</ele>
        <time>2014-08-08T10:22:16Z</time>
      </trkpt>
      <trkpt lat="42.489925860" lon="1.136828640">
        <ele>1832.90</ele>
        <time>2014-08-08T10:22:23Z</time>
      </trkpt>
      <trkpt lat="42.490047560" lon="1.136810870">
        <ele>1833.90</ele>
        <time>2014-08-08T10:22:28Z</time>
      </trkpt>
      <trkpt lat="42.490225340" lon="1.136834760">
        <ele>1834.30</ele>
        <time>2014-08-08T10:22:35Z</time>
      </trkpt>
      <trkpt lat="42.490484090" lon="1.136858400">
        <ele>1834.30</ele>
        <time>2014-08-08T10:22:44Z</time>
      </trkpt>
      <trkpt lat="42.490694480" lon="1.136885970">
        <ele>1835.30</ele>
        <time>2014-08-08T10:22:51Z</time>
      </trkpt>
      <trkpt lat="42.490812330" lon="1.136939370">
        <ele>1835.80</ele>
        <time>2014-08-08T10:22:56Z</time>
      </trkpt>
      <trkpt lat="42.490956750" lon="1.136914220">
        <ele>1835.80</ele>
        <time>2014-08-08T10:23:02Z</time>
      </trkpt>
      <trkpt lat="42.491184730" lon="1.136761840">
        <ele>1836.30</ele>
        <time>2014-08-08T10:23:09Z</time>
      </trkpt>
      <trkpt lat="42.491312390" lon="1.136684810">
        <ele>1837.20</ele>
        <time>2014-08-08T10:23:16Z</time>
      </trkpt>
      <trkpt lat="42.491487400" lon="1.136490520">
        <ele>1837.70</ele>
        <time>2014-08-08T10:23:24Z</time>
      </trkpt>
      <trkpt lat="42.491532920" lon="1.136440060">
        <ele>1838.20</ele>
        <time>2014-08-08T10:23:26Z</time>
      </trkpt>
      <trkpt lat="42.491705330" lon="1.136223130">
        <ele>1837.70</ele>
        <time>2014-08-08T10:23:33Z</time>
      </trkpt>
      <trkpt lat="42.491886800" lon="1.136025490">
        <ele>1836.70</ele>
        <time>2014-08-08T10:23:40Z</time>
      </trkpt>
      <trkpt lat="42.492117390" lon="1.135701700">
        <ele>1836.30</ele>
        <time>2014-08-08T10:23:48Z</time>
      </trkpt>
      <trkpt lat="42.492197850" lon="1.135589630">
        <ele>1834.30</ele>
        <time>2014-08-08T10:23:52Z</time>
      </trkpt>
      <trkpt lat="42.492215040" lon="1.135557020">
        <ele>1835.30</ele>
        <time>2014-08-08T10:23:53Z</time>
      </trkpt>
      <trkpt lat="42.492430200" lon="1.135164830">
        <ele>1832.90</ele>
        <time>2014-08-08T10:24:00Z</time>
      </trkpt>
      <trkpt lat="42.492539840" lon="1.134901220">
        <ele>1832.40</ele>
        <time>2014-08-08T10:24:05Z</time>
      </trkpt>
      <trkpt lat="42.492569590" lon="1.134718000">
        <ele>1831.90</ele>
        <time>2014-08-08T10:24:08Z</time>
      </trkpt>
      <trkpt lat="42.492648470" lon="1.134310800">
        <ele>1830.50</ele>
        <time>2014-08-08T10:24:14Z</time>
      </trkpt>
      <trkpt lat="42.492685260" lon="1.134071000">
        <ele>1830.00</ele>
        <time>2014-08-08T10:24:17Z</time>
      </trkpt>
      <trkpt lat="42.492773940" lon="1.133500440">
        <ele>1828.60</ele>
        <time>2014-08-08T10:24:25Z</time>
      </trkpt>
      <trkpt lat="42.492779980" lon="1.133419140">
        <ele>1827.60</ele>
        <time>2014-08-08T10:24:26Z</time>
      </trkpt>
      <trkpt lat="42.492762210" lon="1.133178830">
        <ele>1826.20</ele>
        <time>2014-08-08T10:24:29Z</time>
      </trkpt>
      <trkpt lat="42.492787860" lon="1.132863920">
        <ele>1824.70</ele>
        <time>2014-08-08T10:24:33Z</time>
      </trkpt>
      <trkpt lat="42.492870330" lon="1.132571470">
        <ele>1824.70</ele>
        <time>2014-08-08T10:24:37Z</time>
      </trkpt>
      <trkpt lat="42.492893380" lon="1.132418500">
        <ele>1823.30</ele>
        <time>2014-08-08T10:24:39Z</time>
      </trkpt>
      <trkpt lat="42.492955750" lon="1.131994710">
        <ele>1821.80</ele>
        <time>2014-08-08T10:24:44Z</time>
      </trkpt>
      <trkpt lat="42.493086170" lon="1.131645020">
        <ele>1820.90</ele>
        <time>2014-08-08T10:24:47Z</time>
      </trkpt>
      <trkpt lat="42.493248190" lon="1.131318130">
        <ele>1820.90</ele>
        <time>2014-08-08T10:24:51Z</time>
      </trkpt>
      <trkpt lat="42.493370990" lon="1.130751850">
        <ele>1819.00</ele>
        <time>2014-08-08T10:24:58Z</time>
      </trkpt>
      <trkpt lat="42.493474670" lon="1.130417160">
        <ele>1819.40</ele>
        <time>2014-08-08T10:25:02Z</time>
      </trkpt>
      <trkpt lat="42.493575000" lon="1.129787510">
        <ele>1817.50</ele>
        <time>2014-08-08T10:25:10Z</time>
      </trkpt>
      <trkpt lat="42.493761250" lon="1.129200360">
        <ele>1816.10</ele>
        <time>2014-08-08T10:25:18Z</time>
      </trkpt>
      <trkpt lat="42.493811790" lon="1.129037080">
        <ele>1815.60</ele>
        <time>2014-08-08T10:25:20Z</time>
      </trkpt>
      <trkpt lat="42.493878850" lon="1.128879830">
        <ele>1814.60</ele>
        <time>2014-08-08T10:25:22Z</time>
      </trkpt>
      <trkpt lat="42.494041710" lon="1.128532400">
        <ele>1814.60</ele>
        <time>2014-08-08T10:25:27Z</time>
      </trkpt>
      <trkpt lat="42.494110270" lon="1.128349680">
        <ele>1815.10</ele>
        <time>2014-08-08T10:25:30Z</time>
      </trkpt>
      <trkpt lat="42.494181600" lon="1.127997970">
        <ele>1814.60</ele>
        <time>2014-08-08T10:25:36Z</time>
      </trkpt>
      <trkpt lat="42.494335240" lon="1.127742240">
        <ele>1815.10</ele>
        <time>2014-08-08T10:25:41Z</time>
      </trkpt>
      <trkpt lat="42.494397680" lon="1.127645260">
        <ele>1814.60</ele>
        <time>2014-08-08T10:25:43Z</time>
      </trkpt>
      <trkpt lat="42.494543360" lon="1.127273440">
        <ele>1814.60</ele>
        <time>2014-08-08T10:25:50Z</time>
      </trkpt>
      <trkpt lat="42.494712510" lon="1.126993570">
        <ele>1815.10</ele>
        <time>2014-08-08T10:25:56Z</time>
      </trkpt>
      <trkpt lat="42.494746880" lon="1.126958110">
        <ele>1815.10</ele>
        <time>2014-08-08T10:25:57Z</time>
      </trkpt>
      <trkpt lat="42.495075860" lon="1.126764070">
        <ele>1815.10</ele>
        <time>2014-08-08T10:26:07Z</time>
      </trkpt>
      <trkpt lat="42.495275770" lon="1.126712100">
        <ele>1816.10</ele>
        <time>2014-08-08T10:26:14Z</time>
      </trkpt>
      <trkpt lat="42.495450620" lon="1.126604150">
        <ele>1816.60</ele>
        <time>2014-08-08T10:26:22Z</time>
      </trkpt>
      <trkpt lat="42.495612730" lon="1.126434750">
        <ele>1816.60</ele>
        <time>2014-08-08T10:26:31Z</time>
      </trkpt>
      <trkpt lat="42.495661090" lon="1.126374150">
        <ele>1817.50</ele>
        <time>2014-08-08T10:26:34Z</time>
      </trkpt>
      <trkpt lat="42.495775590" lon="1.126242890">
        <ele>1818.00</ele>
        <time>2014-08-08T10:26:42Z</time>
      </trkpt>
      <trkpt lat="42.495821180" lon="1.126178510">
        <ele>1818.00</ele>
        <time>2014-08-08T10:26:49Z</time>
      </trkpt>
      <trkpt lat="42.495857060" lon="1.126142470">
        <ele>1818.00</ele>
        <time>2014-08-08T10:26:53Z</time>
      </trkpt>
      <trkpt lat="42.496003910" lon="1.125971560">
        <ele>1819.00</ele>
        <time>2014-08-08T10:27:02Z</time>
      </trkpt>
      <trkpt lat="42.496156210" lon="1.125810460">
        <ele>1819.40</ele>
        <time>2014-08-08T10:27:10Z</time>
      </trkpt>
      <trkpt lat="42.496330640" lon="1.125586580">
        <ele>1818.50</ele>
        <time>2014-08-08T10:27:19Z</time>
      </trkpt>
      <trkpt lat="42.496534480" lon="1.125397400">
        <ele>1819.00</ele>
        <time>2014-08-08T10:27:28Z</time>
      </trkpt>
      <trkpt lat="42.496784600" lon="1.125157510">
        <ele>1819.00</ele>
        <time>2014-08-08T10:27:37Z</time>
      </trkpt>
      <trkpt lat="42.497007810" lon="1.124940340">
        <ele>1819.40</ele>
        <time>2014-08-08T10:27:45Z</time>
      </trkpt>
      <trkpt lat="42.497249800" lon="1.124610590">
        <ele>1818.50</ele>
        <time>2014-08-08T10:27:53Z</time>
      </trkpt>
      <trkpt lat="42.497448360" lon="1.124336760">
        <ele>1818.00</ele>
        <time>2014-08-08T10:27:59Z</time>
      </trkpt>
      <trkpt lat="42.497676430" lon="1.124013050">
        <ele>1816.60</ele>
        <time>2014-08-08T10:28:05Z</time>
      </trkpt>
      <trkpt lat="42.497803340" lon="1.123898550">
        <ele>1816.10</ele>
        <time>2014-08-08T10:28:08Z</time>
      </trkpt>
      <trkpt lat="42.498078930" lon="1.123673920">
        <ele>1816.10</ele>
        <time>2014-08-08T10:28:16Z</time>
      </trkpt>
      <trkpt lat="42.498252020" lon="1.123521530">
        <ele>1817.00</ele>
        <time>2014-08-08T10:28:24Z</time>
      </trkpt>
      <trkpt lat="42.498406670" lon="1.123327830">
        <ele>1818.00</ele>
        <time>2014-08-08T10:28:32Z</time>
      </trkpt>
      <trkpt lat="42.498425110" lon="1.123303770">
        <ele>1818.00</ele>
        <time>2014-08-08T10:28:33Z</time>
      </trkpt>
      <trkpt lat="42.498618390" lon="1.123096240">
        <ele>1818.50</ele>
        <time>2014-08-08T10:28:42Z</time>
      </trkpt>
      <trkpt lat="42.498809000" lon="1.122909230">
        <ele>1819.90</ele>
        <time>2014-08-08T10:28:52Z</time>
      </trkpt>
      <trkpt lat="42.498868680" lon="1.122883420">
        <ele>1820.40</ele>
        <time>2014-08-08T10:28:55Z</time>
      </trkpt>
      <trkpt lat="42.499044190" lon="1.122722650">
        <ele>1821.80</ele>
        <time>2014-08-08T10:29:05Z</time>
      </trkpt>
      <trkpt lat="42.499172690" lon="1.122538590">
        <ele>1823.30</ele>
        <time>2014-08-08T10:29:14Z</time>
      </trkpt>
      <trkpt lat="42.499270250" lon="1.122432640">
        <ele>1823.80</ele>
        <time>2014-08-08T10:29:21Z</time>
      </trkpt>
      <trkpt lat="42.499387350" lon="1.122359050">
        <ele>1824.70</ele>
        <time>2014-08-08T10:29:29Z</time>
      </trkpt>
      <trkpt lat="42.499497650" lon="1.122275900">
        <ele>1825.20</ele>
        <time>2014-08-08T10:29:35Z</time>
      </trkpt>
      <trkpt lat="42.499613740" lon="1.122144720">
        <ele>1826.60</ele>
        <time>2014-08-08T10:29:42Z</time>
      </trkpt>
      <trkpt lat="42.499757660" lon="1.121990660">
        <ele>1827.60</ele>
        <time>2014-08-08T10:29:50Z</time>
      </trkpt>
      <trkpt lat="42.499881290" lon="1.121848090">
        <ele>1829.10</ele>
        <time>2014-08-08T10:29:58Z</time>
      </trkpt>
      <trkpt lat="42.500001990" lon="1.121767370">
        <ele>1830.50</ele>
        <time>2014-08-08T10:30:06Z</time>
      </trkpt>
      <trkpt lat="42.500183290" lon="1.121598390">
        <ele>1831.90</ele>
        <time>2014-08-08T10:30:16Z</time>
      </trkpt>
      <trkpt lat="42.500310870" lon="1.121514320">
        <ele>1832.90</ele>
        <time>2014-08-08T10:30:23Z</time>
      </trkpt>
      <trkpt lat="42.500440950" lon="1.121450950">
        <ele>1833.90</ele>
        <time>2014-08-08T10:30:30Z</time>
      </trkpt>
      <trkpt lat="42.500594510" lon="1.121369060">
        <ele>1834.30</ele>
        <time>2014-08-08T10:30:38Z</time>
      </trkpt>
      <trkpt lat="42.500771790" lon="1.121242740">
        <ele>1835.30</ele>
        <time>2014-08-08T10:30:47Z</time>
      </trkpt>
      <trkpt lat="42.500908410" lon="1.121067650">
        <ele>1836.30</ele>
        <time>2014-08-08T10:30:56Z</time>
      </trkpt>
      <trkpt lat="42.501035730" lon="1.120961030">
        <ele>1837.20</ele>
        <time>2014-08-08T10:31:04Z</time>
      </trkpt>
      <trkpt lat="42.501168750" lon="1.120803110">
        <ele>1838.20</ele>
        <time>2014-08-08T10:31:13Z</time>
      </trkpt>
      <trkpt lat="42.501282330" lon="1.120653830">
        <ele>1839.10</ele>
        <time>2014-08-08T10:31:21Z</time>
      </trkpt>
      <trkpt lat="42.501408980" lon="1.120519050">
        <ele>1840.60</ele>
        <time>2014-08-08T10:31:30Z</time>
      </trkpt>
      <trkpt lat="42.501516350" lon="1.120380920">
        <ele>1841.50</ele>
        <time>2014-08-08T10:31:38Z</time>
      </trkpt>
      <trkpt lat="42.501650800" lon="1.120224180">
        <ele>1843.00</ele>
        <time>2014-08-08T10:31:48Z</time>
      </trkpt>
      <trkpt lat="42.501773260" lon="1.120100290">
        <ele>1844.00</ele>
        <time>2014-08-08T10:31:56Z</time>
      </trkpt>
      <trkpt lat="42.501887080" lon="1.119998370">
        <ele>1846.40</ele>
        <time>2014-08-08T10:32:05Z</time>
      </trkpt>
      <trkpt lat="42.501978030" lon="1.119890490">
        <ele>1847.30</ele>
        <time>2014-08-08T10:32:13Z</time>
      </trkpt>
      <trkpt lat="42.502111550" lon="1.119807340">
        <ele>1848.30</ele>
        <time>2014-08-08T10:32:22Z</time>
      </trkpt>
      <trkpt lat="42.502151200" lon="1.119776000">
        <ele>1849.70</ele>
        <time>2014-08-08T10:32:25Z</time>
      </trkpt>
      <trkpt lat="42.502251860" lon="1.119708770">
        <ele>1850.20</ele>
        <time>2014-08-08T10:32:32Z</time>
      </trkpt>
      <trkpt lat="42.502343230" lon="1.119664940">
        <ele>1851.20</ele>
        <time>2014-08-08T10:32:39Z</time>
      </trkpt>
      <trkpt lat="42.502373070" lon="1.119644060">
        <ele>1851.20</ele>
        <time>2014-08-08T10:32:41Z</time>
      </trkpt>
      <trkpt lat="42.502521260" lon="1.119578020">
        <ele>1851.60</ele>
        <time>2014-08-08T10:32:51Z</time>
      </trkpt>
      <trkpt lat="42.502678590" lon="1.119538120">
        <ele>1852.60</ele>
        <time>2014-08-08T10:33:00Z</time>
      </trkpt>
      <trkpt lat="42.502778000" lon="1.119463520">
        <ele>1853.60</ele>
        <time>2014-08-08T10:33:04Z</time>
      </trkpt>
      <trkpt lat="42.502922000" lon="1.119335190">
        <ele>1854.50</ele>
        <time>2014-08-08T10:33:12Z</time>
      </trkpt>
      <trkpt lat="42.503075800" lon="1.119187420">
        <ele>1855.50</ele>
        <time>2014-08-08T10:33:22Z</time>
      </trkpt>
      <trkpt lat="42.503223830" lon="1.119059510">
        <ele>1856.90</ele>
        <time>2014-08-08T10:33:31Z</time>
      </trkpt>
      <trkpt lat="42.503357690" lon="1.119000500">
        <ele>1857.40</ele>
        <time>2014-08-08T10:33:39Z</time>
      </trkpt>
      <trkpt lat="42.503492220" lon="1.118906210">
        <ele>1858.40</ele>
        <time>2014-08-08T10:33:48Z</time>
      </trkpt>
      <trkpt lat="42.503618620" lon="1.118812750">
        <ele>1858.90</ele>
        <time>2014-08-08T10:33:56Z</time>
      </trkpt>
      <trkpt lat="42.503760770" lon="1.118705960">
        <ele>1860.30</ele>
        <time>2014-08-08T10:34:05Z</time>
      </trkpt>
      <trkpt lat="42.503841490" lon="1.118638570">
        <ele>1861.70</ele>
        <time>2014-08-08T10:34:11Z</time>
      </trkpt>
      <trkpt lat="42.503999070" lon="1.118551320">
        <ele>1863.20</ele>
        <time>2014-08-08T10:34:21Z</time>
      </trkpt>
      <trkpt lat="42.504137460" lon="1.118409240">
        <ele>1864.60</ele>
        <time>2014-08-08T10:34:30Z</time>
      </trkpt>
      <trkpt lat="42.504195040" lon="1.118344280">
        <ele>1865.60</ele>
        <time>2014-08-08T10:34:35Z</time>
      </trkpt>
      <trkpt lat="42.504318170" lon="1.118229790">
        <ele>1866.50</ele>
        <time>2014-08-08T10:34:44Z</time>
      </trkpt>
      <trkpt lat="42.504445320" lon="1.118086200">
        <ele>1868.00</ele>
        <time>2014-08-08T10:34:54Z</time>
      </trkpt>
      <trkpt lat="42.504549260" lon="1.117993500">
        <ele>1868.90</ele>
        <time>2014-08-08T10:35:02Z</time>
      </trkpt>
      <trkpt lat="42.504660990" lon="1.117890490">
        <ele>1870.90</ele>
        <time>2014-08-08T10:35:10Z</time>
      </trkpt>
      <trkpt lat="42.504803990" lon="1.117778670">
        <ele>1872.30</ele>
        <time>2014-08-08T10:35:20Z</time>
      </trkpt>
      <trkpt lat="42.504804400" lon="1.117778090">
        <ele>1869.90</ele>
        <time>2014-08-08T10:36:28Z</time>
      </trkpt>
      <trkpt lat="42.504802900" lon="1.117781270">
        <ele>1870.40</ele>
        <time>2014-08-08T10:36:30Z</time>
      </trkpt>
      <trkpt lat="42.504802060" lon="1.117780520">
        <ele>1879.00</ele>
        <time>2014-08-08T10:38:05Z</time>
      </trkpt>
      <trkpt lat="42.504819240" lon="1.117691420">
        <ele>1878.10</ele>
        <time>2014-08-08T10:49:40Z</time>
      </trkpt>
      <trkpt lat="42.504837680" lon="1.117655290">
        <ele>1877.60</ele>
        <time>2014-08-08T10:49:47Z</time>
      </trkpt>
      <trkpt lat="42.504841790" lon="1.117645150">
        <ele>1877.60</ele>
        <time>2014-08-08T10:49:48Z</time>
      </trkpt>
      <trkpt lat="42.504896770" lon="1.117553530">
        <ele>1878.60</ele>
        <time>2014-08-08T10:49:55Z</time>
      </trkpt>
      <trkpt lat="42.504965000" lon="1.117425370">
        <ele>1879.00</ele>
        <time>2014-08-08T10:50:04Z</time>
      </trkpt>
      <trkpt lat="42.504984620" lon="1.117385140">
        <ele>1879.50</ele>
        <time>2014-08-08T10:50:07Z</time>
      </trkpt>
      <trkpt lat="42.505013530" lon="1.117332840">
        <ele>1880.00</ele>
        <time>2014-08-08T10:50:11Z</time>
      </trkpt>
      <trkpt lat="42.505049490" lon="1.117262680">
        <ele>1880.00</ele>
        <time>2014-08-08T10:50:16Z</time>
      </trkpt>
      <trkpt lat="42.505125930" lon="1.117124460">
        <ele>1881.40</ele>
        <time>2014-08-08T10:50:26Z</time>
      </trkpt>
      <trkpt lat="42.505213940" lon="1.117041730">
        <ele>1882.40</ele>
        <time>2014-08-08T10:50:34Z</time>
      </trkpt>
      <trkpt lat="42.505312600" lon="1.116969820">
        <ele>1883.40</ele>
        <time>2014-08-08T10:50:43Z</time>
      </trkpt>
      <trkpt lat="42.505333390" lon="1.116957580">
        <ele>1883.80</ele>
        <time>2014-08-08T10:50:45Z</time>
      </trkpt>
      <trkpt lat="42.505380910" lon="1.116926990">
        <ele>1884.30</ele>
        <time>2014-08-08T10:50:49Z</time>
      </trkpt>
      <trkpt lat="42.505455010" lon="1.116856580">
        <ele>1884.30</ele>
        <time>2014-08-08T10:50:57Z</time>
      </trkpt>
      <trkpt lat="42.505535050" lon="1.116811320">
        <ele>1885.30</ele>
        <time>2014-08-08T10:51:04Z</time>
      </trkpt>
      <trkpt lat="42.505633880" lon="1.116752560">
        <ele>1886.70</ele>
        <time>2014-08-08T10:51:14Z</time>
      </trkpt>
      <trkpt lat="42.505653160" lon="1.116754570">
        <ele>1890.10</ele>
        <time>2014-08-08T12:05:43Z</time>
      </trkpt>
      <trkpt lat="42.505677460" lon="1.116782650">
        <ele>1889.60</ele>
        <time>2014-08-08T12:05:49Z</time>
      </trkpt>
      <trkpt lat="42.505676290" lon="1.116780140">
        <ele>1888.20</ele>
        <time>2014-08-08T12:05:51Z</time>
      </trkpt>
      <trkpt lat="42.505699760" lon="1.116778710">
        <ele>1889.60</ele>
        <time>2014-08-08T12:06:05Z</time>
      </trkpt>
      <trkpt lat="42.505799080" lon="1.116708300">
        <ele>1890.60</ele>
        <time>2014-08-08T12:06:14Z</time>
      </trkpt>
      <trkpt lat="42.505897070" lon="1.116645940">
        <ele>1891.10</ele>
        <time>2014-08-08T12:06:23Z</time>
      </trkpt>
      <trkpt lat="42.505926660" lon="1.116628170">
        <ele>1893.50</ele>
        <time>2014-08-08T12:06:26Z</time>
      </trkpt>
      <trkpt lat="42.506041150" lon="1.116571340">
        <ele>1896.30</ele>
        <time>2014-08-08T12:06:36Z</time>
      </trkpt>
      <trkpt lat="42.506115250" lon="1.116537650">
        <ele>1899.70</ele>
        <time>2014-08-08T12:06:43Z</time>
      </trkpt>
      <trkpt lat="42.506248190" lon="1.116452490">
        <ele>1902.60</ele>
        <time>2014-08-08T12:06:55Z</time>
      </trkpt>
      <trkpt lat="42.506320190" lon="1.116430190">
        <ele>1905.00</ele>
        <time>2014-08-08T12:07:01Z</time>
      </trkpt>
      <trkpt lat="42.506382210" lon="1.116409740">
        <ele>1906.90</ele>
        <time>2014-08-08T12:07:06Z</time>
      </trkpt>
      <trkpt lat="42.506401490" lon="1.116400180">
        <ele>1907.90</ele>
        <time>2014-08-08T12:07:08Z</time>
      </trkpt>
      <trkpt lat="42.506524710" lon="1.116370090">
        <ele>1910.80</ele>
        <time>2014-08-08T12:07:18Z</time>
      </trkpt>
      <trkpt lat="42.506650850" lon="1.116362720">
        <ele>1913.20</ele>
        <time>2014-08-08T12:07:28Z</time>
      </trkpt>
      <trkpt lat="42.506738110" lon="1.116336820">
        <ele>1915.10</ele>
        <time>2014-08-08T12:07:35Z</time>
      </trkpt>
      <trkpt lat="42.506858310" lon="1.116294490">
        <ele>1917.50</ele>
        <time>2014-08-08T12:07:45Z</time>
      </trkpt>
      <trkpt lat="42.506970540" lon="1.116295580">
        <ele>1920.40</ele>
        <time>2014-08-08T12:07:54Z</time>
      </trkpt>
      <trkpt lat="42.506981350" lon="1.116294740">
        <ele>1920.40</ele>
        <time>2014-08-08T12:07:55Z</time>
      </trkpt>
      <trkpt lat="42.507104730" lon="1.116293730">
        <ele>1923.70</ele>
        <time>2014-08-08T12:08:05Z</time>
      </trkpt>
      <trkpt lat="42.507116380" lon="1.116290460">
        <ele>1924.20</ele>
        <time>2014-08-08T12:08:06Z</time>
      </trkpt>
      <trkpt lat="42.507228620" lon="1.116277810">
        <ele>1925.70</ele>
        <time>2014-08-08T12:08:16Z</time>
      </trkpt>
      <trkpt lat="42.507277650" lon="1.116268000">
        <ele>1928.50</ele>
        <time>2014-08-08T12:08:20Z</time>
      </trkpt>
      <trkpt lat="42.507374460" lon="1.116236570">
        <ele>1929.00</ele>
        <time>2014-08-08T12:08:29Z</time>
      </trkpt>
      <trkpt lat="42.507496090" lon="1.116214190">
        <ele>1930.50</ele>
        <time>2014-08-08T12:08:38Z</time>
      </trkpt>
      <trkpt lat="42.507654340" lon="1.116162470">
        <ele>1931.90</ele>
        <time>2014-08-08T12:08:51Z</time>
      </trkpt>
      <trkpt lat="42.507812590" lon="1.116103050">
        <ele>1933.40</ele>
        <time>2014-08-08T12:09:02Z</time>
      </trkpt>
      <trkpt lat="42.507947450" lon="1.116056530">
        <ele>1934.80</ele>
        <time>2014-08-08T12:09:12Z</time>
      </trkpt>
      <trkpt lat="42.507984580" lon="1.116046130">
        <ele>1935.30</ele>
        <time>2014-08-08T12:09:15Z</time>
      </trkpt>
      <trkpt lat="42.508121960" lon="1.116044200">
        <ele>1936.20</ele>
        <time>2014-08-08T12:09:26Z</time>
      </trkpt>
      <trkpt lat="42.508164540" lon="1.116035240">
        <ele>1935.80</ele>
        <time>2014-08-08T12:09:29Z</time>
      </trkpt>
      <trkpt lat="42.508210980" lon="1.116034480">
        <ele>1936.70</ele>
        <time>2014-08-08T12:09:33Z</time>
      </trkpt>
      <trkpt lat="42.508311730" lon="1.116096840">
        <ele>1938.20</ele>
        <time>2014-08-08T12:09:41Z</time>
      </trkpt>
      <trkpt lat="42.508450620" lon="1.116189380">
        <ele>1939.10</ele>
        <time>2014-08-08T12:09:52Z</time>
      </trkpt>
      <trkpt lat="42.508506100" lon="1.116228440">
        <ele>1940.60</ele>
        <time>2014-08-08T12:09:57Z</time>
      </trkpt>
      <trkpt lat="42.508572660" lon="1.116270430">
        <ele>1940.60</ele>
        <time>2014-08-08T12:10:03Z</time>
      </trkpt>
      <trkpt lat="42.508586070" lon="1.116275710">
        <ele>1941.00</ele>
        <time>2014-08-08T12:10:04Z</time>
      </trkpt>
      <trkpt lat="42.508703750" lon="1.116364640">
        <ele>1941.50</ele>
        <time>2014-08-08T12:10:15Z</time>
      </trkpt>
      <trkpt lat="42.508803240" lon="1.116412090">
        <ele>1942.50</ele>
        <time>2014-08-08T12:10:24Z</time>
      </trkpt>
      <trkpt lat="42.508921760" lon="1.116465230">
        <ele>1943.40</ele>
        <time>2014-08-08T12:10:33Z</time>
      </trkpt>
      <trkpt lat="42.509050090" lon="1.116477970">
        <ele>1943.40</ele>
        <time>2014-08-08T12:10:43Z</time>
      </trkpt>
      <trkpt lat="42.509178000" lon="1.116496070">
        <ele>1945.40</ele>
        <time>2014-08-08T12:10:54Z</time>
      </trkpt>
      <trkpt lat="42.509252090" lon="1.116522900">
        <ele>1945.90</ele>
        <time>2014-08-08T12:11:02Z</time>
      </trkpt>
      <trkpt lat="42.509373040" lon="1.116515440">
        <ele>1947.30</ele>
        <time>2014-08-08T12:11:12Z</time>
      </trkpt>
      <trkpt lat="42.509486870" lon="1.116501020">
        <ele>1948.30</ele>
        <time>2014-08-08T12:11:21Z</time>
      </trkpt>
      <trkpt lat="42.509595580" lon="1.116498000">
        <ele>1949.20</ele>
        <time>2014-08-08T12:11:29Z</time>
      </trkpt>
      <trkpt lat="42.509695240" lon="1.116486600">
        <ele>1949.70</ele>
        <time>2014-08-08T12:11:37Z</time>
      </trkpt>
      <trkpt lat="42.509804380" lon="1.116508980">
        <ele>1950.70</ele>
        <time>2014-08-08T12:11:46Z</time>
      </trkpt>
      <trkpt lat="42.509898510" lon="1.116530270">
        <ele>1951.10</ele>
        <time>2014-08-08T12:11:54Z</time>
      </trkpt>
      <trkpt lat="42.510023310" lon="1.116558850">
        <ele>1953.10</ele>
        <time>2014-08-08T12:12:04Z</time>
      </trkpt>
      <trkpt lat="42.510048210" lon="1.116566900">
        <ele>1952.60</ele>
        <time>2014-08-08T12:12:06Z</time>
      </trkpt>
      <trkpt lat="42.510129010" lon="1.116615100">
        <ele>1955.50</ele>
        <time>2014-08-08T12:12:13Z</time>
      </trkpt>
      <trkpt lat="42.510149460" lon="1.116624400">
        <ele>1953.10</ele>
        <time>2014-08-08T12:12:15Z</time>
      </trkpt>
      <trkpt lat="42.510178800" lon="1.116651810">
        <ele>1954.50</ele>
        <time>2014-08-08T12:12:18Z</time>
      </trkpt>
      <trkpt lat="42.510269070" lon="1.116709220">
        <ele>1955.50</ele>
        <time>2014-08-08T12:12:27Z</time>
      </trkpt>
      <trkpt lat="42.510385660" lon="1.116769320">
        <ele>1956.40</ele>
        <time>2014-08-08T12:12:37Z</time>
      </trkpt>
      <trkpt lat="42.510488760" lon="1.116806040">
        <ele>1957.90</ele>
        <time>2014-08-08T12:12:46Z</time>
      </trkpt>
      <trkpt lat="42.510597140" lon="1.116848280">
        <ele>1958.80</ele>
        <time>2014-08-08T12:12:55Z</time>
      </trkpt>
      <trkpt lat="42.510692100" lon="1.116882230">
        <ele>1959.30</ele>
        <time>2014-08-08T12:13:03Z</time>
      </trkpt>
      <trkpt lat="42.510794870" lon="1.116906790">
        <ele>1960.80</ele>
        <time>2014-08-08T12:13:12Z</time>
      </trkpt>
      <trkpt lat="42.510889330" lon="1.116930760">
        <ele>1961.70</ele>
        <time>2014-08-08T12:13:20Z</time>
      </trkpt>
      <trkpt lat="42.510968290" lon="1.116976860">
        <ele>1963.60</ele>
        <time>2014-08-08T12:13:27Z</time>
      </trkpt>
      <trkpt lat="42.511061330" lon="1.117027070">
        <ele>1963.20</ele>
        <time>2014-08-08T12:13:35Z</time>
      </trkpt>
      <trkpt lat="42.511096450" lon="1.117044920">
        <ele>1964.10</ele>
        <time>2014-08-08T12:13:38Z</time>
      </trkpt>
      <trkpt lat="42.511140450" lon="1.117080880">
        <ele>1964.60</ele>
        <time>2014-08-08T12:13:42Z</time>
      </trkpt>
      <trkpt lat="42.511262910" lon="1.117170820">
        <ele>1965.60</ele>
        <time>2014-08-08T12:13:53Z</time>
      </trkpt>
      <trkpt lat="42.511332480" lon="1.117215160">
        <ele>1967.00</ele>
        <time>2014-08-08T12:14:00Z</time>
      </trkpt>
      <trkpt lat="42.511430550" lon="1.117281790">
        <ele>1968.40</ele>
        <time>2014-08-08T12:14:09Z</time>
      </trkpt>
      <trkpt lat="42.511571620" lon="1.117373490">
        <ele>1969.40</ele>
        <time>2014-08-08T12:14:20Z</time>
      </trkpt>
      <trkpt lat="42.511581260" lon="1.117376840">
        <ele>1969.40</ele>
        <time>2014-08-08T12:14:21Z</time>
      </trkpt>
      <trkpt lat="42.511642700" lon="1.117389580">
        <ele>1970.40</ele>
        <time>2014-08-08T12:14:27Z</time>
      </trkpt>
      <trkpt lat="42.511737910" lon="1.117435430">
        <ele>1971.30</ele>
        <time>2014-08-08T12:14:36Z</time>
      </trkpt>
      <trkpt lat="42.511780410" lon="1.117460750">
        <ele>1971.80</ele>
        <time>2014-08-08T12:14:40Z</time>
      </trkpt>
      <trkpt lat="42.511890300" lon="1.117521180">
        <ele>1971.80</ele>
        <time>2014-08-08T12:14:48Z</time>
      </trkpt>
      <trkpt lat="42.511907060" lon="1.117525200">
        <ele>1973.20</ele>
        <time>2014-08-08T12:14:49Z</time>
      </trkpt>
      <trkpt lat="42.512026250" lon="1.117574150">
        <ele>1974.20</ele>
        <time>2014-08-08T12:14:58Z</time>
      </trkpt>
      <trkpt lat="42.512148880" lon="1.117668950">
        <ele>1975.20</ele>
        <time>2014-08-08T12:15:09Z</time>
      </trkpt>
      <trkpt lat="42.512175200" lon="1.117684960">
        <ele>1978.10</ele>
        <time>2014-08-08T12:15:11Z</time>
      </trkpt>
      <trkpt lat="42.512232780" lon="1.117709270">
        <ele>1976.60</ele>
        <time>2014-08-08T12:15:15Z</time>
      </trkpt>
      <trkpt lat="42.512377450" lon="1.117751100">
        <ele>1976.10</ele>
        <time>2014-08-08T12:15:26Z</time>
      </trkpt>
      <trkpt lat="42.512466640" lon="1.117752600">
        <ele>1977.60</ele>
        <time>2014-08-08T12:15:34Z</time>
      </trkpt>
      <trkpt lat="42.512521870" lon="1.117737520">
        <ele>1979.00</ele>
        <time>2014-08-08T12:15:39Z</time>
      </trkpt>
      <trkpt lat="42.512682810" lon="1.117657720">
        <ele>1979.50</ele>
        <time>2014-08-08T12:15:47Z</time>
      </trkpt>
      <trkpt lat="42.512744920" lon="1.117644900">
        <ele>1980.00</ele>
        <time>2014-08-08T12:15:50Z</time>
      </trkpt>
      <trkpt lat="42.512853290" lon="1.117586220">
        <ele>1980.50</ele>
        <time>2014-08-08T12:15:57Z</time>
      </trkpt>
      <trkpt lat="42.512958740" lon="1.117540710">
        <ele>1979.50</ele>
        <time>2014-08-08T12:16:05Z</time>
      </trkpt>
      <trkpt lat="42.512984390" lon="1.117518410">
        <ele>1980.50</ele>
        <time>2014-08-08T12:16:07Z</time>
      </trkpt>
      <trkpt lat="42.513081530" lon="1.117469130">
        <ele>1981.90</ele>
        <time>2014-08-08T12:16:15Z</time>
      </trkpt>
      <trkpt lat="42.513176420" lon="1.117423530">
        <ele>1982.90</ele>
        <time>2014-08-08T12:16:23Z</time>
      </trkpt>
      <trkpt lat="42.513252860" lon="1.117399810">
        <ele>1983.80</ele>
        <time>2014-08-08T12:16:29Z</time>
      </trkpt>
      <trkpt lat="42.513363080" lon="1.117334180">
        <ele>1984.80</ele>
        <time>2014-08-08T12:16:38Z</time>
      </trkpt>
      <trkpt lat="42.513393170" lon="1.117290930">
        <ele>1985.30</ele>
        <time>2014-08-08T12:16:43Z</time>
      </trkpt>
      <trkpt lat="42.513481270" lon="1.117206190">
        <ele>1986.20</ele>
        <time>2014-08-08T12:16:53Z</time>
      </trkpt>
      <trkpt lat="42.513597270" lon="1.117131670">
        <ele>1985.30</ele>
        <time>2014-08-08T12:17:02Z</time>
      </trkpt>
      <trkpt lat="42.513724170" lon="1.117090270">
        <ele>1986.20</ele>
        <time>2014-08-08T12:17:10Z</time>
      </trkpt>
      <trkpt lat="42.513859630" lon="1.117049450">
        <ele>1987.70</ele>
        <time>2014-08-08T12:17:19Z</time>
      </trkpt>
      <trkpt lat="42.513989130" lon="1.116959680">
        <ele>1988.60</ele>
        <time>2014-08-08T12:17:29Z</time>
      </trkpt>
      <trkpt lat="42.514064310" lon="1.116828160">
        <ele>1989.10</ele>
        <time>2014-08-08T12:17:39Z</time>
      </trkpt>
      <trkpt lat="42.514057360" lon="1.116802180">
        <ele>1990.10</ele>
        <time>2014-08-08T12:17:41Z</time>
      </trkpt>
      <trkpt lat="42.513994830" lon="1.116791030">
        <ele>1990.10</ele>
        <time>2014-08-08T12:17:47Z</time>
      </trkpt>
      <trkpt lat="42.513888540" lon="1.116841740">
        <ele>1991.50</ele>
        <time>2014-08-08T12:17:57Z</time>
      </trkpt>
      <trkpt lat="42.513760220" lon="1.116888090">
        <ele>1993.00</ele>
        <time>2014-08-08T12:18:07Z</time>
      </trkpt>
      <trkpt lat="42.513670780" lon="1.116894800">
        <ele>1993.00</ele>
        <time>2014-08-08T12:18:14Z</time>
      </trkpt>
      <trkpt lat="42.513566760" lon="1.116891950">
        <ele>1993.90</ele>
        <time>2014-08-08T12:18:22Z</time>
      </trkpt>
      <trkpt lat="42.513468440" lon="1.116880630">
        <ele>1994.40</ele>
        <time>2014-08-08T12:18:30Z</time>
      </trkpt>
      <trkpt lat="42.513353690" lon="1.116850380">
        <ele>1995.80</ele>
        <time>2014-08-08T12:18:40Z</time>
      </trkpt>
      <trkpt lat="42.513257390" lon="1.116837220">
        <ele>1996.30</ele>
        <time>2014-08-08T12:18:48Z</time>
      </trkpt>
      <trkpt lat="42.513192090" lon="1.116804110">
        <ele>1998.20</ele>
        <time>2014-08-08T12:18:54Z</time>
      </trkpt>
      <trkpt lat="42.513117660" lon="1.116781390">
        <ele>1998.70</ele>
        <time>2014-08-08T12:19:00Z</time>
      </trkpt>
      <trkpt lat="42.513008700" lon="1.116760100">
        <ele>1999.20</ele>
        <time>2014-08-08T12:19:10Z</time>
      </trkpt>
      <trkpt lat="42.512899060" lon="1.116720210">
        <ele>2000.20</ele>
        <time>2014-08-08T12:19:19Z</time>
      </trkpt>
      <trkpt lat="42.512787250" lon="1.116667320">
        <ele>2001.60</ele>
        <time>2014-08-08T12:19:28Z</time>
      </trkpt>
      <trkpt lat="42.512736370" lon="1.116627840">
        <ele>2002.10</ele>
        <time>2014-08-08T12:19:33Z</time>
      </trkpt>
      <trkpt lat="42.512577450" lon="1.116547120">
        <ele>2003.00</ele>
        <time>2014-08-08T12:19:45Z</time>
      </trkpt>
      <trkpt lat="42.512494970" lon="1.116487440">
        <ele>2003.50</ele>
        <time>2014-08-08T12:19:52Z</time>
      </trkpt>
      <trkpt lat="42.512450880" lon="1.116436560">
        <ele>2005.00</ele>
        <time>2014-08-08T12:19:57Z</time>
      </trkpt>
      <trkpt lat="42.512378540" lon="1.116342600">
        <ele>2005.90</ele>
        <time>2014-08-08T12:20:05Z</time>
      </trkpt>
      <trkpt lat="42.512324980" lon="1.116314600">
        <ele>2006.90</ele>
        <time>2014-08-08T12:20:09Z</time>
      </trkpt>
      <trkpt lat="42.512231270" lon="1.116253000">
        <ele>2006.90</ele>
        <time>2014-08-08T12:20:17Z</time>
      </trkpt>
      <trkpt lat="42.512139490" lon="1.116152500">
        <ele>2005.90</ele>
        <time>2014-08-08T12:20:26Z</time>
      </trkpt>
      <trkpt lat="42.511991800" lon="1.116000030">
        <ele>2006.90</ele>
        <time>2014-08-08T12:20:38Z</time>
      </trkpt>
      <trkpt lat="42.511860210" lon="1.115841280">
        <ele>2007.90</ele>
        <time>2014-08-08T12:20:49Z</time>
      </trkpt>
      <trkpt lat="42.511738840" lon="1.115702390">
        <ele>2009.30</ele>
        <time>2014-08-08T12:21:00Z</time>
      </trkpt>
      <trkpt lat="42.511716880" lon="1.115677830">
        <ele>2008.30</ele>
        <time>2014-08-08T12:21:02Z</time>
      </trkpt>
      <trkpt lat="42.511630120" lon="1.115549920">
        <ele>2009.80</ele>
        <time>2014-08-08T12:21:11Z</time>
      </trkpt>
      <trkpt lat="42.511551670" lon="1.115468120">
        <ele>2011.20</ele>
        <time>2014-08-08T12:21:18Z</time>
      </trkpt>
      <trkpt lat="42.511414540" lon="1.115413890">
        <ele>2009.30</ele>
        <time>2014-08-08T12:21:28Z</time>
      </trkpt>
      <trkpt lat="42.511347400" lon="1.115387310">
        <ele>2011.20</ele>
        <time>2014-08-08T12:21:33Z</time>
      </trkpt>
      <trkpt lat="42.511281180" lon="1.115361920">
        <ele>2012.20</ele>
        <time>2014-08-08T12:21:38Z</time>
      </trkpt>
      <trkpt lat="42.511155040" lon="1.115312380">
        <ele>2013.10</ele>
        <time>2014-08-08T12:21:47Z</time>
      </trkpt>
      <trkpt lat="42.511078590" lon="1.115270300">
        <ele>2012.20</ele>
        <time>2014-08-08T12:21:53Z</time>
      </trkpt>
      <trkpt lat="42.510981950" lon="1.115218920">
        <ele>2014.60</ele>
        <time>2014-08-08T12:22:01Z</time>
      </trkpt>
      <trkpt lat="42.510953700" lon="1.115203080">
        <ele>2013.10</ele>
        <time>2014-08-08T12:22:03Z</time>
      </trkpt>
      <trkpt lat="42.510846420" lon="1.115137120">
        <ele>2015.10</ele>
        <time>2014-08-08T12:22:12Z</time>
      </trkpt>
      <trkpt lat="42.510739970" lon="1.115085150">
        <ele>2016.00</ele>
        <time>2014-08-08T12:22:20Z</time>
      </trkpt>
      <trkpt lat="42.510689510" lon="1.115030660">
        <ele>2016.50</ele>
        <time>2014-08-08T12:22:25Z</time>
      </trkpt>
      <trkpt lat="42.510561680" lon="1.114889350">
        <ele>2017.00</ele>
        <time>2014-08-08T12:22:38Z</time>
      </trkpt>
      <trkpt lat="42.510472580" lon="1.114780130">
        <ele>2017.00</ele>
        <time>2014-08-08T12:22:47Z</time>
      </trkpt>
      <trkpt lat="42.510413410" lon="1.114727410">
        <ele>2017.90</ele>
        <time>2014-08-08T12:22:52Z</time>
      </trkpt>
      <trkpt lat="42.510303940" lon="1.114609640">
        <ele>2017.50</ele>
        <time>2014-08-08T12:23:02Z</time>
      </trkpt>
      <trkpt lat="42.510214920" lon="1.114469080">
        <ele>2018.40</ele>
        <time>2014-08-08T12:23:12Z</time>
      </trkpt>
      <trkpt lat="42.510151720" lon="1.114335390">
        <ele>2018.90</ele>
        <time>2014-08-08T12:23:20Z</time>
      </trkpt>
      <trkpt lat="42.510125400" lon="1.114174700">
        <ele>2019.90</ele>
        <time>2014-08-08T12:23:29Z</time>
      </trkpt>
      <trkpt lat="42.510150050" lon="1.114031120">
        <ele>2020.80</ele>
        <time>2014-08-08T12:23:37Z</time>
      </trkpt>
      <trkpt lat="42.510198660" lon="1.113872620">
        <ele>2021.80</ele>
        <time>2014-08-08T12:23:46Z</time>
      </trkpt>
      <trkpt lat="42.510262360" lon="1.113741530">
        <ele>2022.30</ele>
        <time>2014-08-08T12:23:54Z</time>
      </trkpt>
      <trkpt lat="42.510398490" lon="1.113660480">
        <ele>2021.80</ele>
        <time>2014-08-08T12:24:04Z</time>
      </trkpt>
      <trkpt lat="42.510517840" lon="1.113587550">
        <ele>2023.20</ele>
        <time>2014-08-08T12:24:13Z</time>
      </trkpt>
      <trkpt lat="42.510606440" lon="1.113578580">
        <ele>2023.70</ele>
        <time>2014-08-08T12:24:18Z</time>
      </trkpt>
      <trkpt lat="42.510664610" lon="1.113570540">
        <ele>2023.20</ele>
        <time>2014-08-08T12:24:22Z</time>
      </trkpt>
      <trkpt lat="42.510725970" lon="1.113598110">
        <ele>2023.20</ele>
        <time>2014-08-08T12:24:26Z</time>
      </trkpt>
      <trkpt lat="42.510866780" lon="1.113677910">
        <ele>2023.70</ele>
        <time>2014-08-08T12:24:35Z</time>
      </trkpt>
      <trkpt lat="42.511003490" lon="1.113754860">
        <ele>2025.20</ele>
        <time>2014-08-08T12:24:45Z</time>
      </trkpt>
      <trkpt lat="42.511099130" lon="1.113845130">
        <ele>2024.70</ele>
        <time>2014-08-08T12:24:52Z</time>
      </trkpt>
      <trkpt lat="42.511213380" lon="1.113941940">
        <ele>2025.20</ele>
        <time>2014-08-08T12:25:01Z</time>
      </trkpt>
      <trkpt lat="42.511307760" lon="1.114032050">
        <ele>2026.10</ele>
        <time>2014-08-08T12:25:09Z</time>
      </trkpt>
      <trkpt lat="42.511412530" lon="1.114119380">
        <ele>2027.10</ele>
        <time>2014-08-08T12:25:17Z</time>
      </trkpt>
      <trkpt lat="42.511570440" lon="1.114216360">
        <ele>2027.10</ele>
        <time>2014-08-08T12:25:28Z</time>
      </trkpt>
      <trkpt lat="42.511727940" lon="1.114310910">
        <ele>2028.00</ele>
        <time>2014-08-08T12:25:39Z</time>
      </trkpt>
      <trkpt lat="42.511931870" lon="1.114351980">
        <ele>2030.00</ele>
        <time>2014-08-08T12:25:52Z</time>
      </trkpt>
      <trkpt lat="42.512123400" lon="1.114369580">
        <ele>2030.00</ele>
        <time>2014-08-08T12:26:03Z</time>
      </trkpt>
      <trkpt lat="42.512263710" lon="1.114371090">
        <ele>2030.40</ele>
        <time>2014-08-08T12:26:12Z</time>
      </trkpt>
      <trkpt lat="42.512389610" lon="1.114374360">
        <ele>2031.90</ele>
        <time>2014-08-08T12:26:20Z</time>
      </trkpt>
      <trkpt lat="42.512584320" lon="1.114389110">
        <ele>2032.40</ele>
        <time>2014-08-08T12:26:32Z</time>
      </trkpt>
      <trkpt lat="42.512721360" lon="1.114382320">
        <ele>2032.80</ele>
        <time>2014-08-08T12:26:40Z</time>
      </trkpt>
      <trkpt lat="42.512859330" lon="1.114353410">
        <ele>2032.80</ele>
        <time>2014-08-08T12:26:49Z</time>
      </trkpt>
      <trkpt lat="42.513056640" lon="1.114282920">
        <ele>2033.80</ele>
        <time>2014-08-08T12:27:01Z</time>
      </trkpt>
      <trkpt lat="42.513246320" lon="1.114193230">
        <ele>2034.30</ele>
        <time>2014-08-08T12:27:12Z</time>
      </trkpt>
      <trkpt lat="42.513381100" lon="1.114138160">
        <ele>2034.30</ele>
        <time>2014-08-08T12:27:21Z</time>
      </trkpt>
      <trkpt lat="42.513534410" lon="1.114196670">
        <ele>2034.80</ele>
        <time>2014-08-08T12:27:30Z</time>
      </trkpt>
      <trkpt lat="42.513707410" lon="1.114332030">
        <ele>2034.80</ele>
        <time>2014-08-08T12:27:39Z</time>
      </trkpt>
      <trkpt lat="42.513896590" lon="1.114325410">
        <ele>2035.30</ele>
        <time>2014-08-08T12:27:48Z</time>
      </trkpt>
      <trkpt lat="42.514104880" lon="1.114366900">
        <ele>2035.70</ele>
        <time>2014-08-08T12:27:58Z</time>
      </trkpt>
      <trkpt lat="42.514274190" lon="1.114386850">
        <ele>2036.20</ele>
        <time>2014-08-08T12:28:06Z</time>
      </trkpt>
      <trkpt lat="42.514471760" lon="1.114310910">
        <ele>2037.20</ele>
        <time>2014-08-08T12:28:16Z</time>
      </trkpt>
      <trkpt lat="42.514605530" lon="1.114187610">
        <ele>2036.20</ele>
        <time>2014-08-08T12:28:24Z</time>
      </trkpt>
      <trkpt lat="42.514727070" lon="1.114072700">
        <ele>2037.20</ele>
        <time>2014-08-08T12:28:32Z</time>
      </trkpt>
      <trkpt lat="42.514894040" lon="1.113892990">
        <ele>2038.10</ele>
        <time>2014-08-08T12:28:43Z</time>
      </trkpt>
      <trkpt lat="42.514975420" lon="1.113812860">
        <ele>2041.00</ele>
        <time>2014-08-08T12:28:48Z</time>
      </trkpt>
      <trkpt lat="42.515092520" lon="1.113678830">
        <ele>2039.60</ele>
        <time>2014-08-08T12:28:56Z</time>
      </trkpt>
      <trkpt lat="42.515219250" lon="1.113520670">
        <ele>2039.10</ele>
        <time>2014-08-08T12:29:05Z</time>
      </trkpt>
      <trkpt lat="42.515354120" lon="1.113300640">
        <ele>2040.10</ele>
        <time>2014-08-08T12:29:16Z</time>
      </trkpt>
      <trkpt lat="42.515448160" lon="1.113093690">
        <ele>2040.50</ele>
        <time>2014-08-08T12:29:25Z</time>
      </trkpt>
      <trkpt lat="42.515551260" lon="1.112944160">
        <ele>2040.50</ele>
        <time>2014-08-08T12:29:32Z</time>
      </trkpt>
      <trkpt lat="42.515617140" lon="1.112854890">
        <ele>2037.70</ele>
        <time>2014-08-08T12:29:36Z</time>
      </trkpt>
      <trkpt lat="42.515633570" lon="1.112836120">
        <ele>2040.50</ele>
        <time>2014-08-08T12:29:37Z</time>
      </trkpt>
      <trkpt lat="42.515646900" lon="1.112816920">
        <ele>2045.30</ele>
        <time>2014-08-08T12:29:38Z</time>
      </trkpt>
      <trkpt lat="42.515658470" lon="1.112798900">
        <ele>2041.50</ele>
        <time>2014-08-08T12:29:39Z</time>
      </trkpt>
      <trkpt lat="42.515773130" lon="1.112623630">
        <ele>2041.00</ele>
        <time>2014-08-08T12:29:48Z</time>
      </trkpt>
      <trkpt lat="42.515809760" lon="1.112562610">
        <ele>2036.70</ele>
        <time>2014-08-08T12:29:51Z</time>
      </trkpt>
      <trkpt lat="42.515820740" lon="1.112545510">
        <ele>2042.90</ele>
        <time>2014-08-08T12:29:52Z</time>
      </trkpt>
      <trkpt lat="42.515919900" lon="1.112417020">
        <ele>2041.50</ele>
        <time>2014-08-08T12:29:59Z</time>
      </trkpt>
      <trkpt lat="42.515984020" lon="1.112303950">
        <ele>2037.20</ele>
        <time>2014-08-08T12:30:03Z</time>
      </trkpt>
      <trkpt lat="42.515999110" lon="1.112284670">
        <ele>2037.70</ele>
        <time>2014-08-08T12:30:04Z</time>
      </trkpt>
      <trkpt lat="42.516012770" lon="1.112266900">
        <ele>2048.70</ele>
        <time>2014-08-08T12:30:05Z</time>
      </trkpt>
      <trkpt lat="42.516025010" lon="1.112247200">
        <ele>2042.00</ele>
        <time>2014-08-08T12:30:06Z</time>
      </trkpt>
      <trkpt lat="42.516091060" lon="1.112054080">
        <ele>2042.90</ele>
        <time>2014-08-08T12:30:13Z</time>
      </trkpt>
      <trkpt lat="42.516102370" lon="1.111931200">
        <ele>2040.50</ele>
        <time>2014-08-08T12:30:17Z</time>
      </trkpt>
      <trkpt lat="42.516105810" lon="1.111902540">
        <ele>2044.40</ele>
        <time>2014-08-08T12:30:18Z</time>
      </trkpt>
      <trkpt lat="42.516110250" lon="1.111878400">
        <ele>2042.90</ele>
        <time>2014-08-08T12:30:19Z</time>
      </trkpt>
      <trkpt lat="42.516137910" lon="1.111689470">
        <ele>2035.70</ele>
        <time>2014-08-08T12:30:27Z</time>
      </trkpt>
      <trkpt lat="42.516145540" lon="1.111663490">
        <ele>2042.00</ele>
        <time>2014-08-08T12:30:28Z</time>
      </trkpt>
      <trkpt lat="42.516157520" lon="1.111639770">
        <ele>2045.80</ele>
        <time>2014-08-08T12:30:29Z</time>
      </trkpt>
      <trkpt lat="42.516165070" lon="1.111611690">
        <ele>2042.00</ele>
        <time>2014-08-08T12:30:30Z</time>
      </trkpt>
      <trkpt lat="42.516159280" lon="1.111335170">
        <ele>2042.00</ele>
        <time>2014-08-08T12:30:38Z</time>
      </trkpt>
      <trkpt lat="42.516216870" lon="1.111048170">
        <ele>2042.00</ele>
        <time>2014-08-08T12:30:45Z</time>
      </trkpt>
      <trkpt lat="42.516297330" lon="1.110945740">
        <ele>2042.00</ele>
        <time>2014-08-08T12:30:48Z</time>
      </trkpt>
      <trkpt lat="42.516435800" lon="1.110576350">
        <ele>2038.10</ele>
        <time>2014-08-08T12:30:54Z</time>
      </trkpt>
      <trkpt lat="42.516458180" lon="1.110497400">
        <ele>2038.10</ele>
        <time>2014-08-08T12:30:55Z</time>
      </trkpt>
      <trkpt lat="42.516558430" lon="1.110166980">
        <ele>2036.70</ele>
        <time>2014-08-08T12:30:59Z</time>
      </trkpt>
      <trkpt lat="42.516634960" lon="1.109718210">
        <ele>2035.30</ele>
        <time>2014-08-08T12:31:04Z</time>
      </trkpt>
      <trkpt lat="42.516868390" lon="1.108975240">
        <ele>2031.90</ele>
        <time>2014-08-08T12:31:12Z</time>
      </trkpt>
      <trkpt lat="42.516899490" lon="1.108874830">
        <ele>2030.90</ele>
        <time>2014-08-08T12:31:13Z</time>
      </trkpt>
      <trkpt lat="42.516957660" lon="1.108467970">
        <ele>2029.50</ele>
        <time>2014-08-08T12:31:17Z</time>
      </trkpt>
      <trkpt lat="42.516965120" lon="1.108370240">
        <ele>2028.50</ele>
        <time>2014-08-08T12:31:18Z</time>
      </trkpt>
      <trkpt lat="42.516939980" lon="1.107998250">
        <ele>2026.60</ele>
        <time>2014-08-08T12:31:22Z</time>
      </trkpt>
      <trkpt lat="42.516965040" lon="1.107413440">
        <ele>2022.80</ele>
        <time>2014-08-08T12:31:28Z</time>
      </trkpt>
      <trkpt lat="42.516981050" lon="1.107040530">
        <ele>2020.80</ele>
        <time>2014-08-08T12:31:32Z</time>
      </trkpt>
      <trkpt lat="42.517001250" lon="1.106640880">
        <ele>2018.40</ele>
        <time>2014-08-08T12:31:36Z</time>
      </trkpt>
      <trkpt lat="42.517003930" lon="1.106313070">
        <ele>2015.50</ele>
        <time>2014-08-08T12:31:39Z</time>
      </trkpt>
      <trkpt lat="42.517015080" lon="1.106098910">
        <ele>2015.10</ele>
        <time>2014-08-08T12:31:41Z</time>
      </trkpt>
      <trkpt lat="42.517139050" lon="1.105628010">
        <ele>2012.20</ele>
        <time>2014-08-08T12:31:46Z</time>
      </trkpt>
      <trkpt lat="42.517258490" lon="1.105374540">
        <ele>2011.20</ele>
        <time>2014-08-08T12:31:49Z</time>
      </trkpt>
      <trkpt lat="42.517373910" lon="1.104999370">
        <ele>2008.30</ele>
        <time>2014-08-08T12:31:53Z</time>
      </trkpt>
      <trkpt lat="42.517496370" lon="1.104723440">
        <ele>2006.90</ele>
        <time>2014-08-08T12:31:56Z</time>
      </trkpt>
      <trkpt lat="42.517698870" lon="1.104387410">
        <ele>2004.00</ele>
        <time>2014-08-08T12:32:00Z</time>
      </trkpt>
      <trkpt lat="42.517975560" lon="1.103981300">
        <ele>2002.60</ele>
        <time>2014-08-08T12:32:05Z</time>
      </trkpt>
      <trkpt lat="42.518206400" lon="1.103701600">
        <ele>1999.20</ele>
        <time>2014-08-08T12:32:09Z</time>
      </trkpt>
      <trkpt lat="42.518400100" lon="1.103463390">
        <ele>1997.80</ele>
        <time>2014-08-08T12:32:58Z</time>
      </trkpt>
      <trkpt lat="42.518451060" lon="1.103245540">
        <ele>1998.20</ele>
        <time>2014-08-08T12:33:07Z</time>
      </trkpt>
      <trkpt lat="42.518533210" lon="1.103139510">
        <ele>1999.20</ele>
        <time>2014-08-08T12:33:15Z</time>
      </trkpt>
      <trkpt lat="42.518624070" lon="1.103017300">
        <ele>1999.20</ele>
        <time>2014-08-08T12:33:23Z</time>
      </trkpt>
      <trkpt lat="42.518709310" lon="1.102902130">
        <ele>2001.60</ele>
        <time>2014-08-08T12:33:32Z</time>
      </trkpt>
      <trkpt lat="42.518803690" lon="1.102807340">
        <ele>2002.60</ele>
        <time>2014-08-08T12:33:40Z</time>
      </trkpt>
      <trkpt lat="42.518899500" lon="1.102714130">
        <ele>2003.50</ele>
        <time>2014-08-08T12:33:48Z</time>
      </trkpt>
      <trkpt lat="42.519003520" lon="1.102608520">
        <ele>2003.50</ele>
        <time>2014-08-08T12:33:56Z</time>
      </trkpt>
      <trkpt lat="42.519098150" lon="1.102513470">
        <ele>2005.00</ele>
        <time>2014-08-08T12:34:05Z</time>
      </trkpt>
      <trkpt lat="42.519183890" lon="1.102355130">
        <ele>2005.90</ele>
        <time>2014-08-08T12:34:13Z</time>
      </trkpt>
      <trkpt lat="42.519277940" lon="1.102260670">
        <ele>2005.50</ele>
        <time>2014-08-08T12:34:20Z</time>
      </trkpt>
      <trkpt lat="42.519380110" lon="1.102160170">
        <ele>2006.40</ele>
        <time>2014-08-08T12:34:28Z</time>
      </trkpt>
      <trkpt lat="42.519499810" lon="1.102021620">
        <ele>2006.40</ele>
        <time>2014-08-08T12:34:38Z</time>
      </trkpt>
      <trkpt lat="42.519615390" lon="1.101878700">
        <ele>2007.40</ele>
        <time>2014-08-08T12:34:47Z</time>
      </trkpt>
      <trkpt lat="42.519730230" lon="1.101695560">
        <ele>2007.90</ele>
        <time>2014-08-08T12:34:56Z</time>
      </trkpt>
      <trkpt lat="42.519802480" lon="1.101581310">
        <ele>2009.30</ele>
        <time>2014-08-08T12:35:03Z</time>
      </trkpt>
      <trkpt lat="42.519895690" lon="1.101407310">
        <ele>2010.70</ele>
        <time>2014-08-08T12:35:12Z</time>
      </trkpt>
      <trkpt lat="42.519978830" lon="1.101251240">
        <ele>2011.20</ele>
        <time>2014-08-08T12:35:21Z</time>
      </trkpt>
      <trkpt lat="42.520055700" lon="1.101081330">
        <ele>2011.70</ele>
        <time>2014-08-08T12:35:30Z</time>
      </trkpt>
      <trkpt lat="42.520133480" lon="1.100910680">
        <ele>2012.20</ele>
        <time>2014-08-08T12:35:40Z</time>
      </trkpt>
      <trkpt lat="42.520204980" lon="1.100758130">
        <ele>2013.10</ele>
        <time>2014-08-08T12:35:48Z</time>
      </trkpt>
      <trkpt lat="42.520291400" lon="1.100593590">
        <ele>2014.10</ele>
        <time>2014-08-08T12:35:57Z</time>
      </trkpt>
      <trkpt lat="42.520354850" lon="1.100426120">
        <ele>2013.60</ele>
        <time>2014-08-08T12:36:06Z</time>
      </trkpt>
      <trkpt lat="42.520438830" lon="1.100241130">
        <ele>2015.50</ele>
        <time>2014-08-08T12:36:16Z</time>
      </trkpt>
      <trkpt lat="42.520516110" lon="1.100053880">
        <ele>2017.00</ele>
        <time>2014-08-08T12:36:25Z</time>
      </trkpt>
      <trkpt lat="42.520584180" lon="1.099919430">
        <ele>2017.00</ele>
        <time>2014-08-08T12:36:32Z</time>
      </trkpt>
      <trkpt lat="42.520676040" lon="1.099754650">
        <ele>2017.50</ele>
        <time>2014-08-08T12:36:40Z</time>
      </trkpt>
      <trkpt lat="42.520756670" lon="1.099561950">
        <ele>2017.50</ele>
        <time>2014-08-08T12:36:49Z</time>
      </trkpt>
      <trkpt lat="42.520848370" lon="1.099401180">
        <ele>2018.40</ele>
        <time>2014-08-08T12:36:58Z</time>
      </trkpt>
      <trkpt lat="42.520906630" lon="1.099257350">
        <ele>2019.40</ele>
        <time>2014-08-08T12:37:05Z</time>
      </trkpt>
      <trkpt lat="42.520977370" lon="1.099101610">
        <ele>2019.40</ele>
        <time>2014-08-08T12:37:13Z</time>
      </trkpt>
      <trkpt lat="42.521073260" lon="1.098878990">
        <ele>2019.90</ele>
        <time>2014-08-08T12:37:23Z</time>
      </trkpt>
      <trkpt lat="42.521158170" lon="1.098701630">
        <ele>2020.40</ele>
        <time>2014-08-08T12:37:32Z</time>
      </trkpt>
      <trkpt lat="42.521256820" lon="1.098471290">
        <ele>2021.30</ele>
        <time>2014-08-08T12:37:43Z</time>
      </trkpt>
      <trkpt lat="42.521326230" lon="1.098292590">
        <ele>2022.30</ele>
        <time>2014-08-08T12:37:51Z</time>
      </trkpt>
      <trkpt lat="42.521405270" lon="1.098139450">
        <ele>2021.80</ele>
        <time>2014-08-08T12:37:58Z</time>
      </trkpt>
      <trkpt lat="42.521511300" lon="1.097993610">
        <ele>2023.70</ele>
        <time>2014-08-08T12:38:06Z</time>
      </trkpt>
      <trkpt lat="42.521620430" lon="1.097779530">
        <ele>2023.70</ele>
        <time>2014-08-08T12:38:16Z</time>
      </trkpt>
      <trkpt lat="42.521675330" lon="1.097574260">
        <ele>2022.30</ele>
        <time>2014-08-08T12:38:24Z</time>
      </trkpt>
      <trkpt lat="42.521749680" lon="1.097400250">
        <ele>2024.20</ele>
        <time>2014-08-08T12:38:32Z</time>
      </trkpt>
      <trkpt lat="42.521879260" lon="1.097189110">
        <ele>2025.20</ele>
        <time>2014-08-08T12:38:42Z</time>
      </trkpt>
      <trkpt lat="42.522007250" lon="1.097013180">
        <ele>2026.60</ele>
        <time>2014-08-08T12:38:52Z</time>
      </trkpt>
      <trkpt lat="42.522104990" lon="1.096856690">
        <ele>2026.60</ele>
        <time>2014-08-08T12:39:00Z</time>
      </trkpt>
      <trkpt lat="42.522191240" lon="1.096705140">
        <ele>2026.10</ele>
        <time>2014-08-08T12:39:07Z</time>
      </trkpt>
      <trkpt lat="42.522307410" lon="1.096533730">
        <ele>2025.60</ele>
        <time>2014-08-08T12:39:15Z</time>
      </trkpt>
      <trkpt lat="42.522361890" lon="1.096367520">
        <ele>2026.10</ele>
        <time>2014-08-08T12:39:22Z</time>
      </trkpt>
      <trkpt lat="42.522363990" lon="1.096297110">
        <ele>2026.10</ele>
        <time>2014-08-08T12:39:25Z</time>
      </trkpt>
      <trkpt lat="42.522348730" lon="1.096094770">
        <ele>2026.60</ele>
        <time>2014-08-08T12:39:33Z</time>
      </trkpt>
      <trkpt lat="42.522350910" lon="1.095945410">
        <ele>2025.20</ele>
        <time>2014-08-08T12:39:38Z</time>
      </trkpt>
      <trkpt lat="42.522394250" lon="1.095718760">
        <ele>2025.60</ele>
        <time>2014-08-08T12:39:46Z</time>
      </trkpt>
      <trkpt lat="42.522481000" lon="1.095531760">
        <ele>2026.60</ele>
        <time>2014-08-08T12:39:54Z</time>
      </trkpt>
      <trkpt lat="42.522580490" lon="1.095331520">
        <ele>2026.10</ele>
        <time>2014-08-08T12:40:02Z</time>
      </trkpt>
      <trkpt lat="42.522734130" lon="1.095103190">
        <ele>2027.10</ele>
        <time>2014-08-08T12:40:11Z</time>
      </trkpt>
      <trkpt lat="42.522881320" lon="1.095013670">
        <ele>2026.10</ele>
        <time>2014-08-08T12:40:18Z</time>
      </trkpt>
      <trkpt lat="42.523021630" lon="1.094972270">
        <ele>2028.50</ele>
        <time>2014-08-08T12:40:26Z</time>
      </trkpt>
      <trkpt lat="42.523057090" lon="1.094958270">
        <ele>2023.20</ele>
        <time>2014-08-08T12:40:28Z</time>
      </trkpt>
      <trkpt lat="42.523073100" lon="1.094949640">
        <ele>2032.40</ele>
        <time>2014-08-08T12:40:29Z</time>
      </trkpt>
      <trkpt lat="42.523087350" lon="1.094938150">
        <ele>2026.10</ele>
        <time>2014-08-08T12:40:30Z</time>
      </trkpt>
      <trkpt lat="42.523102180" lon="1.094933380">
        <ele>2030.40</ele>
        <time>2014-08-08T12:40:31Z</time>
      </trkpt>
      <trkpt lat="42.523148700" lon="1.094927760">
        <ele>2025.20</ele>
        <time>2014-08-08T12:40:34Z</time>
      </trkpt>
      <trkpt lat="42.523164290" lon="1.094923320">
        <ele>2033.80</ele>
        <time>2014-08-08T12:40:35Z</time>
      </trkpt>
      <trkpt lat="42.523178710" lon="1.094920470">
        <ele>2028.00</ele>
        <time>2014-08-08T12:40:36Z</time>
      </trkpt>
      <trkpt lat="42.523292700" lon="1.094889370">
        <ele>2029.50</ele>
        <time>2014-08-08T12:40:43Z</time>
      </trkpt>
      <trkpt lat="42.523377360" lon="1.094866820">
        <ele>2024.70</ele>
        <time>2014-08-08T12:40:48Z</time>
      </trkpt>
      <trkpt lat="42.523391530" lon="1.094860120">
        <ele>2034.30</ele>
        <time>2014-08-08T12:40:49Z</time>
      </trkpt>
      <trkpt lat="42.523405360" lon="1.094855260">
        <ele>2029.50</ele>
        <time>2014-08-08T12:40:50Z</time>
      </trkpt>
      <trkpt lat="42.523471150" lon="1.094823660">
        <ele>2030.00</ele>
        <time>2014-08-08T12:40:55Z</time>
      </trkpt>
      <trkpt lat="42.523639380" lon="1.094736820">
        <ele>2031.40</ele>
        <time>2014-08-08T12:41:06Z</time>
      </trkpt>
      <trkpt lat="42.523693020" lon="1.094704470">
        <ele>2032.40</ele>
        <time>2014-08-08T12:41:10Z</time>
      </trkpt>
      <trkpt lat="42.523713140" lon="1.094702710">
        <ele>2033.80</ele>
        <time>2014-08-08T12:41:11Z</time>
      </trkpt>
      <trkpt lat="42.523842560" lon="1.094595000">
        <ele>2033.80</ele>
        <time>2014-08-08T12:41:22Z</time>
      </trkpt>
      <trkpt lat="42.523956380" lon="1.094553260">
        <ele>2033.80</ele>
        <time>2014-08-08T12:41:29Z</time>
      </trkpt>
      <trkpt lat="42.524111530" lon="1.094479410">
        <ele>2036.70</ele>
        <time>2014-08-08T12:41:40Z</time>
      </trkpt>
      <trkpt lat="42.524220500" lon="1.094394080">
        <ele>2037.70</ele>
        <time>2014-08-08T12:41:49Z</time>
      </trkpt>
      <trkpt lat="42.524319320" lon="1.094334820">
        <ele>2039.60</ele>
        <time>2014-08-08T12:41:57Z</time>
      </trkpt>
      <trkpt lat="42.524432310" lon="1.094263750">
        <ele>2040.50</ele>
        <time>2014-08-08T12:42:06Z</time>
      </trkpt>
      <trkpt lat="42.524564240" lon="1.094140700">
        <ele>2042.00</ele>
        <time>2014-08-08T12:42:17Z</time>
      </trkpt>
      <trkpt lat="42.524689040" lon="1.094009440">
        <ele>2042.50</ele>
        <time>2014-08-08T12:42:28Z</time>
      </trkpt>
      <trkpt lat="42.524818290" lon="1.093916730">
        <ele>2043.90</ele>
        <time>2014-08-08T12:42:38Z</time>
      </trkpt>
      <trkpt lat="42.524942510" lon="1.093775250">
        <ele>2044.40</ele>
        <time>2014-08-08T12:42:49Z</time>
      </trkpt>
      <trkpt lat="42.525028430" lon="1.093614320">
        <ele>2045.30</ele>
        <time>2014-08-08T12:42:59Z</time>
      </trkpt>
      <trkpt lat="42.525125240" lon="1.093421360">
        <ele>2046.30</ele>
        <time>2014-08-08T12:43:11Z</time>
      </trkpt>
      <trkpt lat="42.525223560" lon="1.093300920">
        <ele>2046.30</ele>
        <time>2014-08-08T12:43:20Z</time>
      </trkpt>
      <trkpt lat="42.525335040" lon="1.093191110">
        <ele>2048.20</ele>
        <time>2014-08-08T12:43:29Z</time>
      </trkpt>
      <trkpt lat="42.525456910" lon="1.093046190">
        <ele>2050.20</ele>
        <time>2014-08-08T12:43:41Z</time>
      </trkpt>
      <trkpt lat="42.525560260" lon="1.092873610">
        <ele>2051.10</ele>
        <time>2014-08-08T12:43:53Z</time>
      </trkpt>
      <trkpt lat="42.525624300" lon="1.092734800">
        <ele>2054.50</ele>
        <time>2014-08-08T12:44:02Z</time>
      </trkpt>
      <trkpt lat="42.525672740" lon="1.092595080">
        <ele>2057.40</ele>
        <time>2014-08-08T12:44:10Z</time>
      </trkpt>
      <trkpt lat="42.525756650" lon="1.092395920">
        <ele>2058.30</ele>
        <time>2014-08-08T12:44:21Z</time>
      </trkpt>
      <trkpt lat="42.525822280" lon="1.092221910">
        <ele>2058.30</ele>
        <time>2014-08-08T12:44:31Z</time>
      </trkpt>
      <trkpt lat="42.525886480" lon="1.092049330">
        <ele>2059.30</ele>
        <time>2014-08-08T12:44:41Z</time>
      </trkpt>
      <trkpt lat="42.525932000" lon="1.091933740">
        <ele>2060.20</ele>
        <time>2014-08-08T12:44:48Z</time>
      </trkpt>
      <trkpt lat="42.526012630" lon="1.091799380">
        <ele>2060.20</ele>
        <time>2014-08-08T12:44:57Z</time>
      </trkpt>
      <trkpt lat="42.526081360" lon="1.091705840">
        <ele>2061.20</ele>
        <time>2014-08-08T12:45:04Z</time>
      </trkpt>
      <trkpt lat="42.526100890" lon="1.091642470">
        <ele>2063.10</ele>
        <time>2014-08-08T12:45:08Z</time>
      </trkpt>
      <trkpt lat="42.526107260" lon="1.091627550">
        <ele>2062.20</ele>
        <time>2014-08-08T12:45:09Z</time>
      </trkpt>
      <trkpt lat="42.526144810" lon="1.091451950">
        <ele>2060.20</ele>
        <time>2014-08-08T12:45:18Z</time>
      </trkpt>
      <trkpt lat="42.526153610" lon="1.091413400">
        <ele>2061.70</ele>
        <time>2014-08-08T12:45:20Z</time>
      </trkpt>
      <trkpt lat="42.526163090" lon="1.091364110">
        <ele>2062.70</ele>
        <time>2014-08-08T12:45:23Z</time>
      </trkpt>
      <trkpt lat="42.526249340" lon="1.091180460">
        <ele>2063.60</ele>
        <time>2014-08-08T12:45:34Z</time>
      </trkpt>
      <trkpt lat="42.526323600" lon="1.091063370">
        <ele>2064.10</ele>
        <time>2014-08-08T12:45:42Z</time>
      </trkpt>
      <trkpt lat="42.526379260" lon="1.090943420">
        <ele>2065.50</ele>
        <time>2014-08-08T12:45:50Z</time>
      </trkpt>
      <trkpt lat="42.526433150" lon="1.090786680">
        <ele>2066.00</ele>
        <time>2014-08-08T12:45:59Z</time>
      </trkpt>
      <trkpt lat="42.526513450" lon="1.090584510">
        <ele>2066.50</ele>
        <time>2014-08-08T12:46:11Z</time>
      </trkpt>
      <trkpt lat="42.526556870" lon="1.090503790">
        <ele>2069.40</ele>
        <time>2014-08-08T12:46:16Z</time>
      </trkpt>
      <trkpt lat="42.526564410" lon="1.090487030">
        <ele>2069.40</ele>
        <time>2014-08-08T12:46:17Z</time>
      </trkpt>
      <trkpt lat="42.526571540" lon="1.090469340">
        <ele>2066.50</ele>
        <time>2014-08-08T12:46:18Z</time>
      </trkpt>
      <trkpt lat="42.526634820" lon="1.090299440">
        <ele>2067.00</ele>
        <time>2014-08-08T12:46:27Z</time>
      </trkpt>
      <trkpt lat="42.526697260" lon="1.090096430">
        <ele>2069.90</ele>
        <time>2014-08-08T12:46:38Z</time>
      </trkpt>
      <trkpt lat="42.526790640" lon="1.089975730">
        <ele>2069.40</ele>
        <time>2014-08-08T12:46:47Z</time>
      </trkpt>
      <trkpt lat="42.526918130" lon="1.089909260">
        <ele>2071.30</ele>
        <time>2014-08-08T12:46:56Z</time>
      </trkpt>
      <trkpt lat="42.526940090" lon="1.089900550">
        <ele>2072.30</ele>
        <time>2014-08-08T12:46:58Z</time>
      </trkpt>
      <trkpt lat="42.527016620" lon="1.089759310">
        <ele>2070.30</ele>
        <time>2014-08-08T12:47:07Z</time>
      </trkpt>
      <trkpt lat="42.527058610" lon="1.089642050">
        <ele>2071.80</ele>
        <time>2014-08-08T12:47:14Z</time>
      </trkpt>
      <trkpt lat="42.527097920" lon="1.089592850">
        <ele>2074.70</ele>
        <time>2014-08-08T12:47:18Z</time>
      </trkpt>
      <trkpt lat="42.527311660" lon="1.089508520">
        <ele>2074.70</ele>
        <time>2014-08-08T12:47:33Z</time>
      </trkpt>
      <trkpt lat="42.527438140" lon="1.089464850">
        <ele>2075.10</ele>
        <time>2014-08-08T12:47:42Z</time>
      </trkpt>
      <trkpt lat="42.527474520" lon="1.089428560">
        <ele>2076.60</ele>
        <time>2014-08-08T12:47:45Z</time>
      </trkpt>
      <trkpt lat="42.527586420" lon="1.089309790">
        <ele>2078.00</ele>
        <time>2014-08-08T12:47:55Z</time>
      </trkpt>
      <trkpt lat="42.527725220" lon="1.089266040">
        <ele>2080.40</ele>
        <time>2014-08-08T12:48:05Z</time>
      </trkpt>
      <trkpt lat="42.527840640" lon="1.089232760">
        <ele>2080.90</ele>
        <time>2014-08-08T12:48:13Z</time>
      </trkpt>
      <trkpt lat="42.527972400" lon="1.089105100">
        <ele>2081.90</ele>
        <time>2014-08-08T12:48:24Z</time>
      </trkpt>
      <trkpt lat="42.528118580" lon="1.089031430">
        <ele>2082.40</ele>
        <time>2014-08-08T12:48:35Z</time>
      </trkpt>
      <trkpt lat="42.528249930" lon="1.088944420">
        <ele>2082.80</ele>
        <time>2014-08-08T12:48:45Z</time>
      </trkpt>
      <trkpt lat="42.528354700" lon="1.088873930">
        <ele>2084.30</ele>
        <time>2014-08-08T12:48:53Z</time>
      </trkpt>
      <trkpt lat="42.528392920" lon="1.088866550">
        <ele>2084.80</ele>
        <time>2014-08-08T12:48:56Z</time>
      </trkpt>
      <trkpt lat="42.528551260" lon="1.088848200">
        <ele>2085.70</ele>
        <time>2014-08-08T12:49:07Z</time>
      </trkpt>
      <trkpt lat="42.528625690" lon="1.088834700">
        <ele>2084.80</ele>
        <time>2014-08-08T12:49:12Z</time>
      </trkpt>
      <trkpt lat="42.528751170" lon="1.088815760">
        <ele>2087.20</ele>
        <time>2014-08-08T12:49:21Z</time>
      </trkpt>
      <trkpt lat="42.528895590" lon="1.088810900">
        <ele>2087.60</ele>
        <time>2014-08-08T12:49:31Z</time>
      </trkpt>
      <trkpt lat="42.528905140" lon="1.088811490">
        <ele>2088.60</ele>
        <time>2014-08-08T12:49:39Z</time>
      </trkpt>
      <trkpt lat="42.528917970" lon="1.088820960">
        <ele>2088.10</ele>
        <time>2014-08-08T12:49:56Z</time>
      </trkpt>
      <trkpt lat="42.528907070" lon="1.088814920">
        <ele>2088.60</ele>
        <time>2014-08-08T12:50:03Z</time>
      </trkpt>
      <trkpt lat="42.528914110" lon="1.088816180">
        <ele>2087.60</ele>
        <time>2014-08-08T12:50:20Z</time>
      </trkpt>
      <trkpt lat="42.528932720" lon="1.088816680">
        <ele>2087.60</ele>
        <time>2014-08-08T12:50:29Z</time>
      </trkpt>
      <trkpt lat="42.529068420" lon="1.088788690">
        <ele>2088.60</ele>
        <time>2014-08-08T12:50:38Z</time>
      </trkpt>
      <trkpt lat="42.529207560" lon="1.088751300">
        <ele>2090.00</ele>
        <time>2014-08-08T12:50:47Z</time>
      </trkpt>
      <trkpt lat="42.529298000" lon="1.088704280">
        <ele>2089.60</ele>
        <time>2014-08-08T12:50:54Z</time>
      </trkpt>
      <trkpt lat="42.529424570" lon="1.088679470">
        <ele>2091.00</ele>
        <time>2014-08-08T12:51:03Z</time>
      </trkpt>
      <trkpt lat="42.529547950" lon="1.088675030">
        <ele>2092.90</ele>
        <time>2014-08-08T12:51:11Z</time>
      </trkpt>
      <trkpt lat="42.529718350" lon="1.088648210">
        <ele>2093.40</ele>
        <time>2014-08-08T12:51:22Z</time>
      </trkpt>
      <trkpt lat="42.529863450" lon="1.088597910">
        <ele>2094.90</ele>
        <time>2014-08-08T12:51:32Z</time>
      </trkpt>
      <trkpt lat="42.530019100" lon="1.088571180">
        <ele>2096.80</ele>
        <time>2014-08-08T12:51:43Z</time>
      </trkpt>
      <trkpt lat="42.530132000" lon="1.088557090">
        <ele>2097.70</ele>
        <time>2014-08-08T12:51:51Z</time>
      </trkpt>
      <trkpt lat="42.530269050" lon="1.088526420">
        <ele>2098.70</ele>
        <time>2014-08-08T12:52:01Z</time>
      </trkpt>
      <trkpt lat="42.530397120" lon="1.088495910">
        <ele>2100.60</ele>
        <time>2014-08-08T12:52:10Z</time>
      </trkpt>
      <trkpt lat="42.530511450" lon="1.088461540">
        <ele>2102.10</ele>
        <time>2014-08-08T12:52:18Z</time>
      </trkpt>
      <trkpt lat="42.530648080" lon="1.088452990">
        <ele>2104.00</ele>
        <time>2014-08-08T12:52:27Z</time>
      </trkpt>
      <trkpt lat="42.530784360" lon="1.088402360">
        <ele>2102.50</ele>
        <time>2014-08-08T12:52:36Z</time>
      </trkpt>
      <trkpt lat="42.530830380" lon="1.088376800">
        <ele>2105.90</ele>
        <time>2014-08-08T12:52:40Z</time>
      </trkpt>
      <trkpt lat="42.530928700" lon="1.088270770">
        <ele>2104.90</ele>
        <time>2014-08-08T12:52:49Z</time>
      </trkpt>
      <trkpt lat="42.531003890" lon="1.088148900">
        <ele>2105.40</ele>
        <time>2014-08-08T12:52:57Z</time>
      </trkpt>
      <trkpt lat="42.531089970" lon="1.088040770">
        <ele>2105.90</ele>
        <time>2014-08-08T12:53:05Z</time>
      </trkpt>
      <trkpt lat="42.531161550" lon="1.087960720">
        <ele>2107.40</ele>
        <time>2014-08-08T12:53:12Z</time>
      </trkpt>
      <trkpt lat="42.531253580" lon="1.087818900">
        <ele>2109.30</ele>
        <time>2014-08-08T12:53:22Z</time>
      </trkpt>
      <trkpt lat="42.531335470" lon="1.087685460">
        <ele>2109.30</ele>
        <time>2014-08-08T12:53:31Z</time>
      </trkpt>
      <trkpt lat="42.531414520" lon="1.087598790">
        <ele>2110.70</ele>
        <time>2014-08-08T12:53:38Z</time>
      </trkpt>
      <trkpt lat="42.531514510" lon="1.087513380">
        <ele>2111.70</ele>
        <time>2014-08-08T12:53:46Z</time>
      </trkpt>
      <trkpt lat="42.531628000" lon="1.087409610">
        <ele>2112.60</ele>
        <time>2014-08-08T12:53:55Z</time>
      </trkpt>
      <trkpt lat="42.531769490" lon="1.087280950">
        <ele>2114.10</ele>
        <time>2014-08-08T12:54:06Z</time>
      </trkpt>
      <trkpt lat="42.531860940" lon="1.087224200">
        <ele>2114.60</ele>
        <time>2014-08-08T12:54:13Z</time>
      </trkpt>
      <trkpt lat="42.532003510" lon="1.087208360">
        <ele>2115.00</ele>
        <time>2014-08-08T12:54:23Z</time>
      </trkpt>
      <trkpt lat="42.532166710" lon="1.087165030">
        <ele>2117.40</ele>
        <time>2014-08-08T12:54:34Z</time>
      </trkpt>
      <trkpt lat="42.532279440" lon="1.087052120">
        <ele>2117.40</ele>
        <time>2014-08-08T12:54:43Z</time>
      </trkpt>
      <trkpt lat="42.532382880" lon="1.086948190">
        <ele>2118.40</ele>
        <time>2014-08-08T12:54:52Z</time>
      </trkpt>
      <trkpt lat="42.532444150" lon="1.086885320">
        <ele>2119.40</ele>
        <time>2014-08-08T12:54:57Z</time>
      </trkpt>
      <trkpt lat="42.532525870" lon="1.086844170">
        <ele>2119.40</ele>
        <time>2014-08-08T12:55:03Z</time>
      </trkpt>
      <trkpt lat="42.532654790" lon="1.086832600">
        <ele>2119.80</ele>
        <time>2014-08-08T12:55:12Z</time>
      </trkpt>
      <trkpt lat="42.532794430" lon="1.086835870">
        <ele>2121.80</ele>
        <time>2014-08-08T12:55:21Z</time>
      </trkpt>
      <trkpt lat="42.532915970" lon="1.086796560">
        <ele>2121.80</ele>
        <time>2014-08-08T12:55:30Z</time>
      </trkpt>
      <trkpt lat="42.533055440" lon="1.086722970">
        <ele>2123.70</ele>
        <time>2014-08-08T12:55:41Z</time>
      </trkpt>
      <trkpt lat="42.533191560" lon="1.086642580">
        <ele>2124.20</ele>
        <time>2014-08-08T12:55:52Z</time>
      </trkpt>
      <trkpt lat="42.533312010" lon="1.086534290">
        <ele>2125.60</ele>
        <time>2014-08-08T12:56:03Z</time>
      </trkpt>
      <trkpt lat="42.533475460" lon="1.086465220">
        <ele>2126.10</ele>
        <time>2014-08-08T12:56:15Z</time>
      </trkpt>
      <trkpt lat="42.533573020" lon="1.086455500">
        <ele>2128.50</ele>
        <time>2014-08-08T12:56:22Z</time>
      </trkpt>
      <trkpt lat="42.533745440" lon="1.086438070">
        <ele>2129.50</ele>
        <time>2014-08-08T12:56:34Z</time>
      </trkpt>
      <trkpt lat="42.533813420" lon="1.086416940">
        <ele>2129.90</ele>
        <time>2014-08-08T12:56:39Z</time>
      </trkpt>
      <trkpt lat="42.533973180" lon="1.086364220">
        <ele>2130.90</ele>
        <time>2014-08-08T12:56:50Z</time>
      </trkpt>
      <trkpt lat="42.534085160" lon="1.086358190">
        <ele>2131.40</ele>
        <time>2014-08-08T12:56:58Z</time>
      </trkpt>
      <trkpt lat="42.534141990" lon="1.086370670">
        <ele>2133.30</ele>
        <time>2014-08-08T12:57:02Z</time>
      </trkpt>
      <trkpt lat="42.534294960" lon="1.086356090">
        <ele>2133.30</ele>
        <time>2014-08-08T12:57:12Z</time>
      </trkpt>
      <trkpt lat="42.534414230" lon="1.086342090">
        <ele>2134.30</ele>
        <time>2014-08-08T12:57:20Z</time>
      </trkpt>
      <trkpt lat="42.534542390" lon="1.086302280">
        <ele>2135.70</ele>
        <time>2014-08-08T12:57:29Z</time>
      </trkpt>
      <trkpt lat="42.534659990" lon="1.086285350">
        <ele>2135.70</ele>
        <time>2014-08-08T12:57:37Z</time>
      </trkpt>
      <trkpt lat="42.534837430" lon="1.086265480">
        <ele>2138.60</ele>
        <time>2014-08-08T12:57:49Z</time>
      </trkpt>
      <trkpt lat="42.534979260" lon="1.086247630">
        <ele>2139.10</ele>
        <time>2014-08-08T12:57:59Z</time>
      </trkpt>
      <trkpt lat="42.535065510" lon="1.086242430">
        <ele>2140.50</ele>
        <time>2014-08-08T12:58:05Z</time>
      </trkpt>
      <trkpt lat="42.535174220" lon="1.086213600">
        <ele>2141.00</ele>
        <time>2014-08-08T12:58:13Z</time>
      </trkpt>
      <trkpt lat="42.535300870" lon="1.086199100">
        <ele>2142.00</ele>
        <time>2014-08-08T12:58:21Z</time>
      </trkpt>
      <trkpt lat="42.535308330" lon="1.086194240">
        <ele>2142.00</ele>
        <time>2014-08-08T12:58:27Z</time>
      </trkpt>
      <trkpt lat="42.535308830" lon="1.086194820">
        <ele>2141.00</ele>
        <time>2014-08-08T12:58:38Z</time>
      </trkpt>
      <trkpt lat="42.535299530" lon="1.086197920">
        <ele>2142.00</ele>
        <time>2014-08-08T12:58:56Z</time>
      </trkpt>
      <trkpt lat="42.535301960" lon="1.086200350">
        <ele>2142.00</ele>
        <time>2014-08-08T12:59:18Z</time>
      </trkpt>
      <trkpt lat="42.535304890" lon="1.086191970">
        <ele>2142.90</ele>
        <time>2014-08-08T12:59:49Z</time>
      </trkpt>
      <trkpt lat="42.535305310" lon="1.086182170">
        <ele>2142.00</ele>
        <time>2014-08-08T13:00:06Z</time>
      </trkpt>
      <trkpt lat="42.535307070" lon="1.086192810">
        <ele>2142.00</ele>
        <time>2014-08-08T13:00:24Z</time>
      </trkpt>
      <trkpt lat="42.535312020" lon="1.086195160">
        <ele>2142.00</ele>
        <time>2014-08-08T13:00:37Z</time>
      </trkpt>
      <trkpt lat="42.535310680" lon="1.086200100">
        <ele>2142.40</ele>
        <time>2014-08-08T13:00:55Z</time>
      </trkpt>
      <trkpt lat="42.535313020" lon="1.086195160">
        <ele>2141.50</ele>
        <time>2014-08-08T13:01:04Z</time>
      </trkpt>
      <trkpt lat="42.535432880" lon="1.086165570">
        <ele>2142.40</ele>
        <time>2014-08-08T13:01:14Z</time>
      </trkpt>
      <trkpt lat="42.535581660" lon="1.086115360">
        <ele>2144.40</ele>
        <time>2014-08-08T13:01:25Z</time>
      </trkpt>
      <trkpt lat="42.535699430" lon="1.086063810">
        <ele>2145.30</ele>
        <time>2014-08-08T13:01:34Z</time>
      </trkpt>
      <trkpt lat="42.535808060" lon="1.086033140">
        <ele>2146.30</ele>
        <time>2014-08-08T13:01:43Z</time>
      </trkpt>
      <trkpt lat="42.535959020" lon="1.086018550">
        <ele>2147.20</ele>
        <time>2014-08-08T13:01:54Z</time>
      </trkpt>
      <trkpt lat="42.535972010" lon="1.086014360">
        <ele>2147.70</ele>
        <time>2014-08-08T13:01:55Z</time>
      </trkpt>
      <trkpt lat="42.536111230" lon="1.086010840">
        <ele>2149.70</ele>
        <time>2014-08-08T13:02:06Z</time>
      </trkpt>
      <trkpt lat="42.536233100" lon="1.086048220">
        <ele>2150.60</ele>
        <time>2014-08-08T13:02:15Z</time>
      </trkpt>
      <trkpt lat="42.536355980" lon="1.086050070">
        <ele>2152.50</ele>
        <time>2014-08-08T13:02:25Z</time>
      </trkpt>
      <trkpt lat="42.536424380" lon="1.085933890">
        <ele>2154.00</ele>
        <time>2014-08-08T13:02:34Z</time>
      </trkpt>
      <trkpt lat="42.536357490" lon="1.085832470">
        <ele>2154.00</ele>
        <time>2014-08-08T13:02:42Z</time>
      </trkpt>
      <trkpt lat="42.536222960" lon="1.085813870">
        <ele>2154.90</ele>
        <time>2014-08-08T13:02:52Z</time>
      </trkpt>
      <trkpt lat="42.536178870" lon="1.085797190">
        <ele>2155.90</ele>
        <time>2014-08-08T13:02:55Z</time>
      </trkpt>
      <trkpt lat="42.536045770" lon="1.085753770">
        <ele>2156.40</ele>
        <time>2014-08-08T13:03:04Z</time>
      </trkpt>
      <trkpt lat="42.535973180" lon="1.085738850">
        <ele>2156.40</ele>
        <time>2014-08-08T13:03:09Z</time>
      </trkpt>
      <trkpt lat="42.535819040" lon="1.085685040">
        <ele>2156.90</ele>
        <time>2014-08-08T13:03:19Z</time>
      </trkpt>
      <trkpt lat="42.535648130" lon="1.085643880">
        <ele>2158.30</ele>
        <time>2014-08-08T13:03:30Z</time>
      </trkpt>
      <trkpt lat="42.535505890" lon="1.085591330">
        <ele>2159.30</ele>
        <time>2014-08-08T13:03:40Z</time>
      </trkpt>
      <trkpt lat="42.535347810" lon="1.085545060">
        <ele>2159.70</ele>
        <time>2014-08-08T13:03:51Z</time>
      </trkpt>
      <trkpt lat="42.535198440" lon="1.085503400">
        <ele>2160.20</ele>
        <time>2014-08-08T13:04:01Z</time>
      </trkpt>
      <trkpt lat="42.535115960" lon="1.085469290">
        <ele>2161.20</ele>
        <time>2014-08-08T13:04:07Z</time>
      </trkpt>
      <trkpt lat="42.534962910" lon="1.085404660">
        <ele>2161.70</ele>
        <time>2014-08-08T13:04:17Z</time>
      </trkpt>
      <trkpt lat="42.534778590" lon="1.085330900">
        <ele>2162.10</ele>
        <time>2014-08-08T13:04:29Z</time>
      </trkpt>
      <trkpt lat="42.534650430" lon="1.085272230">
        <ele>2163.10</ele>
        <time>2014-08-08T13:04:38Z</time>
      </trkpt>
      <trkpt lat="42.534495280" lon="1.085195450">
        <ele>2164.60</ele>
        <time>2014-08-08T13:04:49Z</time>
      </trkpt>
      <trkpt lat="42.534360170" lon="1.085141720">
        <ele>2164.60</ele>
        <time>2014-08-08T13:04:58Z</time>
      </trkpt>
      <trkpt lat="42.534235030" lon="1.085144400">
        <ele>2165.00</ele>
        <time>2014-08-08T13:05:06Z</time>
      </trkpt>
      <trkpt lat="42.534063530" lon="1.085164940">
        <ele>2166.50</ele>
        <time>2014-08-08T13:05:17Z</time>
      </trkpt>
      <trkpt lat="42.533925150" lon="1.085146410">
        <ele>2166.00</ele>
        <time>2014-08-08T13:05:26Z</time>
      </trkpt>
      <trkpt lat="42.533751310" lon="1.085125210">
        <ele>2167.00</ele>
        <time>2014-08-08T13:05:37Z</time>
      </trkpt>
      <trkpt lat="42.533594310" lon="1.085094190">
        <ele>2168.40</ele>
        <time>2014-08-08T13:05:48Z</time>
      </trkpt>
      <trkpt lat="42.533459620" lon="1.085049690">
        <ele>2170.30</ele>
        <time>2014-08-08T13:05:58Z</time>
      </trkpt>
      <trkpt lat="42.533408320" lon="1.084911890">
        <ele>2171.30</ele>
        <time>2014-08-08T13:06:07Z</time>
      </trkpt>
      <trkpt lat="42.533440090" lon="1.084778950">
        <ele>2172.70</ele>
        <time>2014-08-08T13:06:15Z</time>
      </trkpt>
      <trkpt lat="42.533425590" lon="1.084648110">
        <ele>2174.20</ele>
        <time>2014-08-08T13:06:21Z</time>
      </trkpt>
      <trkpt lat="42.533364820" lon="1.084481140">
        <ele>2173.20</ele>
        <time>2014-08-08T13:06:30Z</time>
      </trkpt>
      <trkpt lat="42.533340760" lon="1.084252070">
        <ele>2174.60</ele>
        <time>2014-08-08T13:06:40Z</time>
      </trkpt>
      <trkpt lat="42.533339920" lon="1.084029530">
        <ele>2172.70</ele>
        <time>2014-08-08T13:06:48Z</time>
      </trkpt>
      <trkpt lat="42.533300700" lon="1.083820150">
        <ele>2171.30</ele>
        <time>2014-08-08T13:06:54Z</time>
      </trkpt>
      <trkpt lat="42.533319390" lon="1.083777400">
        <ele>2172.20</ele>
        <time>2014-08-08T13:06:59Z</time>
      </trkpt>
      <trkpt lat="42.533332460" lon="1.083752000">
        <ele>2170.80</ele>
        <time>2014-08-08T13:11:20Z</time>
      </trkpt>
      <trkpt lat="42.533272870" lon="1.083651330">
        <ele>2173.20</ele>
        <time>2014-08-08T13:11:27Z</time>
      </trkpt>
      <trkpt lat="42.533272530" lon="1.083627780">
        <ele>2172.20</ele>
        <time>2014-08-08T13:11:28Z</time>
      </trkpt>
      <trkpt lat="42.533205560" lon="1.083362910">
        <ele>2170.80</ele>
        <time>2014-08-08T13:11:36Z</time>
      </trkpt>
      <trkpt lat="42.533097770" lon="1.083034090">
        <ele>2170.80</ele>
        <time>2014-08-08T13:11:45Z</time>
      </trkpt>
      <trkpt lat="42.532939690" lon="1.082787660">
        <ele>2171.30</ele>
        <time>2014-08-08T13:11:52Z</time>
      </trkpt>
      <trkpt lat="42.532791500" lon="1.082501250">
        <ele>2170.80</ele>
        <time>2014-08-08T13:12:00Z</time>
      </trkpt>
      <trkpt lat="42.532628130" lon="1.082225740">
        <ele>2171.80</ele>
        <time>2014-08-08T13:12:08Z</time>
      </trkpt>
      <trkpt lat="42.532581440" lon="1.082145690">
        <ele>2170.30</ele>
        <time>2014-08-08T13:12:10Z</time>
      </trkpt>
      <trkpt lat="42.532303580" lon="1.081687290">
        <ele>2169.80</ele>
        <time>2014-08-08T13:12:21Z</time>
      </trkpt>
      <trkpt lat="42.532042570" lon="1.081292580">
        <ele>2168.90</ele>
        <time>2014-08-08T13:12:31Z</time>
      </trkpt>
      <trkpt lat="42.531873930" lon="1.081016730">
        <ele>2170.30</ele>
        <time>2014-08-08T13:12:39Z</time>
      </trkpt>
      <trkpt lat="42.531713920" lon="1.080783970">
        <ele>2170.30</ele>
        <time>2014-08-08T13:12:46Z</time>
      </trkpt>
      <trkpt lat="42.531586180" lon="1.080460510">
        <ele>2170.80</ele>
        <time>2014-08-08T13:12:54Z</time>
      </trkpt>
      <trkpt lat="42.531596400" lon="1.080159850">
        <ele>2171.30</ele>
        <time>2014-08-08T13:13:01Z</time>
      </trkpt>
      <trkpt lat="42.531716350" lon="1.079774370">
        <ele>2170.30</ele>
        <time>2014-08-08T13:13:10Z</time>
      </trkpt>
      <trkpt lat="42.531795560" lon="1.079245050">
        <ele>2170.30</ele>
        <time>2014-08-08T13:13:21Z</time>
      </trkpt>
      <trkpt lat="42.531865130" lon="1.078844820">
        <ele>2168.90</ele>
        <time>2014-08-08T13:13:29Z</time>
      </trkpt>
      <trkpt lat="42.531899240" lon="1.078333020">
        <ele>2169.40</ele>
        <time>2014-08-08T13:13:38Z</time>
      </trkpt>
      <trkpt lat="42.531907120" lon="1.077956170">
        <ele>2168.40</ele>
        <time>2014-08-08T13:13:44Z</time>
      </trkpt>
      <trkpt lat="42.531938470" lon="1.077707730">
        <ele>2168.90</ele>
        <time>2014-08-08T13:13:48Z</time>
      </trkpt>
      <trkpt lat="42.531866050" lon="1.077368260">
        <ele>2168.90</ele>
        <time>2014-08-08T13:13:54Z</time>
      </trkpt>
      <trkpt lat="42.531792960" lon="1.076960400">
        <ele>2169.80</ele>
        <time>2014-08-08T13:14:02Z</time>
      </trkpt>
      <trkpt lat="42.531684330" lon="1.076444240">
        <ele>2169.40</ele>
        <time>2014-08-08T13:14:12Z</time>
      </trkpt>
      <trkpt lat="42.531540920" lon="1.075970490">
        <ele>2170.80</ele>
        <time>2014-08-08T13:14:22Z</time>
      </trkpt>
      <trkpt lat="42.531411750" lon="1.075609320">
        <ele>2171.30</ele>
        <time>2014-08-08T13:14:30Z</time>
      </trkpt>
      <trkpt lat="42.531248640" lon="1.075226260">
        <ele>2172.20</ele>
        <time>2014-08-08T13:14:39Z</time>
      </trkpt>
      <trkpt lat="42.531075890" lon="1.074839860">
        <ele>2172.70</ele>
        <time>2014-08-08T13:14:49Z</time>
      </trkpt>
      <trkpt lat="42.530935410" lon="1.074523190">
        <ele>2174.20</ele>
        <time>2014-08-08T13:14:57Z</time>
      </trkpt>
      <trkpt lat="42.530855950" lon="1.074253130">
        <ele>2173.20</ele>
        <time>2014-08-08T13:15:03Z</time>
      </trkpt>
      <trkpt lat="42.530843210" lon="1.074200650">
        <ele>2173.20</ele>
        <time>2014-08-08T13:15:04Z</time>
      </trkpt>
      <trkpt lat="42.530790320" lon="1.073809550">
        <ele>2173.20</ele>
        <time>2014-08-08T13:15:11Z</time>
      </trkpt>
      <trkpt lat="42.530718900" lon="1.073601100">
        <ele>2172.70</ele>
        <time>2014-08-08T13:15:15Z</time>
      </trkpt>
      <trkpt lat="42.530612450" lon="1.073151410">
        <ele>2173.70</ele>
        <time>2014-08-08T13:15:23Z</time>
      </trkpt>
      <trkpt lat="42.530524360" lon="1.072712620">
        <ele>2174.20</ele>
        <time>2014-08-08T13:15:32Z</time>
      </trkpt>
      <trkpt lat="42.530454370" lon="1.072371390">
        <ele>2174.60</ele>
        <time>2014-08-08T13:15:40Z</time>
      </trkpt>
      <trkpt lat="42.530433580" lon="1.072050110">
        <ele>2174.60</ele>
        <time>2014-08-08T13:15:48Z</time>
      </trkpt>
      <trkpt lat="42.530375330" lon="1.071732850">
        <ele>2175.60</ele>
        <time>2014-08-08T13:15:55Z</time>
      </trkpt>
      <trkpt lat="42.530178440" lon="1.071677200">
        <ele>2174.60</ele>
        <time>2014-08-08T13:16:00Z</time>
      </trkpt>
      <trkpt lat="42.529904520" lon="1.071911470">
        <ele>2176.10</ele>
        <time>2014-08-08T13:16:09Z</time>
      </trkpt>
      <trkpt lat="42.529625150" lon="1.072107110">
        <ele>2177.50</ele>
        <time>2014-08-08T13:16:18Z</time>
      </trkpt>
      <trkpt lat="42.529322390" lon="1.072289580">
        <ele>2177.00</ele>
        <time>2014-08-08T13:16:27Z</time>
      </trkpt>
      <trkpt lat="42.529006400" lon="1.072485050">
        <ele>2178.00</ele>
        <time>2014-08-08T13:16:37Z</time>
      </trkpt>
      <trkpt lat="42.528779920" lon="1.072602900">
        <ele>2179.00</ele>
        <time>2014-08-08T13:16:44Z</time>
      </trkpt>
      <trkpt lat="42.528539610" lon="1.072768690">
        <ele>2178.50</ele>
        <time>2014-08-08T13:16:52Z</time>
      </trkpt>
      <trkpt lat="42.528266860" lon="1.072934320">
        <ele>2179.90</ele>
        <time>2014-08-08T13:17:03Z</time>
      </trkpt>
      <trkpt lat="42.528072570" lon="1.073077140">
        <ele>2181.40</ele>
        <time>2014-08-08T13:17:13Z</time>
      </trkpt>
      <trkpt lat="42.527949940" lon="1.073214610">
        <ele>2182.80</ele>
        <time>2014-08-08T13:17:21Z</time>
      </trkpt>
      <trkpt lat="42.527807110" lon="1.073375370">
        <ele>2184.30</ele>
        <time>2014-08-08T13:17:30Z</time>
      </trkpt>
      <trkpt lat="42.527663700" lon="1.073553570">
        <ele>2185.20</ele>
        <time>2014-08-08T13:17:40Z</time>
      </trkpt>
      <trkpt lat="42.527537630" lon="1.073709980">
        <ele>2185.20</ele>
        <time>2014-08-08T13:17:49Z</time>
      </trkpt>
      <trkpt lat="42.527408970" lon="1.073894880">
        <ele>2186.70</ele>
        <time>2014-08-08T13:17:59Z</time>
      </trkpt>
      <trkpt lat="42.527256170" lon="1.074019940">
        <ele>2186.70</ele>
        <time>2014-08-08T13:18:08Z</time>
      </trkpt>
      <trkpt lat="42.527077380" lon="1.074138040">
        <ele>2188.10</ele>
        <time>2014-08-08T13:18:19Z</time>
      </trkpt>
      <trkpt lat="42.526829450" lon="1.074217420">
        <ele>2189.10</ele>
        <time>2014-08-08T13:18:32Z</time>
      </trkpt>
      <trkpt lat="42.526663070" lon="1.074261510">
        <ele>2191.00</ele>
        <time>2014-08-08T13:18:42Z</time>
      </trkpt>
      <trkpt lat="42.526508420" lon="1.074279360">
        <ele>2192.40</ele>
        <time>2014-08-08T13:18:51Z</time>
      </trkpt>
      <trkpt lat="42.526300970" lon="1.074293440">
        <ele>2193.40</ele>
        <time>2014-08-08T13:19:02Z</time>
      </trkpt>
      <trkpt lat="42.526111960" lon="1.074295790">
        <ele>2193.40</ele>
        <time>2014-08-08T13:19:12Z</time>
      </trkpt>
      <trkpt lat="42.525915150" lon="1.074296960">
        <ele>2193.90</ele>
        <time>2014-08-08T13:19:22Z</time>
      </trkpt>
      <trkpt lat="42.525897380" lon="1.074296540">
        <ele>2194.40</ele>
        <time>2014-08-08T13:19:23Z</time>
      </trkpt>
      <trkpt lat="42.525719850" lon="1.074298470">
        <ele>2195.30</ele>
        <time>2014-08-08T13:19:32Z</time>
      </trkpt>
      <trkpt lat="42.525566290" lon="1.074290260">
        <ele>2196.30</ele>
        <time>2014-08-08T13:19:40Z</time>
      </trkpt>
      <trkpt lat="42.525357920" lon="1.074318000">
        <ele>2197.20</ele>
        <time>2014-08-08T13:19:51Z</time>
      </trkpt>
      <trkpt lat="42.525217020" lon="1.074337870">
        <ele>2197.70</ele>
        <time>2014-08-08T13:19:59Z</time>
      </trkpt>
      <trkpt lat="42.525064300" lon="1.074326050">
        <ele>2198.20</ele>
        <time>2014-08-08T13:20:08Z</time>
      </trkpt>
      <trkpt lat="42.524934550" lon="1.074319340">
        <ele>2198.20</ele>
        <time>2014-08-08T13:20:15Z</time>
      </trkpt>
      <trkpt lat="42.524869260" lon="1.074330490">
        <ele>2200.10</ele>
        <time>2014-08-08T13:20:19Z</time>
      </trkpt>
      <trkpt lat="42.524679490" lon="1.074358820">
        <ele>2201.60</ele>
        <time>2014-08-08T13:20:29Z</time>
      </trkpt>
      <trkpt lat="42.524480500" lon="1.074372400">
        <ele>2204.40</ele>
        <time>2014-08-08T13:20:41Z</time>
      </trkpt>
      <trkpt lat="42.524258470" lon="1.074353620">
        <ele>2203.00</ele>
        <time>2014-08-08T13:20:53Z</time>
      </trkpt>
      <trkpt lat="42.524072140" lon="1.074345910">
        <ele>2203.50</ele>
        <time>2014-08-08T13:21:04Z</time>
      </trkpt>
      <trkpt lat="42.523911200" lon="1.074327560">
        <ele>2206.40</ele>
        <time>2014-08-08T13:21:14Z</time>
      </trkpt>
      <trkpt lat="42.523776420" lon="1.074293780">
        <ele>2206.80</ele>
        <time>2014-08-08T13:21:23Z</time>
      </trkpt>
      <trkpt lat="42.523619090" lon="1.074277100">
        <ele>2208.80</ele>
        <time>2014-08-08T13:21:34Z</time>
      </trkpt>
      <trkpt lat="42.523473170" lon="1.074212560">
        <ele>2209.70</ele>
        <time>2014-08-08T13:21:44Z</time>
      </trkpt>
      <trkpt lat="42.523418100" lon="1.074172740">
        <ele>2211.20</ele>
        <time>2014-08-08T13:21:48Z</time>
      </trkpt>
      <trkpt lat="42.523303180" lon="1.074066380">
        <ele>2213.10</ele>
        <time>2014-08-08T13:21:57Z</time>
      </trkpt>
      <trkpt lat="42.523211650" lon="1.073907960">
        <ele>2215.00</ele>
        <time>2014-08-08T13:22:06Z</time>
      </trkpt>
      <trkpt lat="42.523175940" lon="1.073807120">
        <ele>2215.00</ele>
        <time>2014-08-08T13:22:16Z</time>
      </trkpt>
      <trkpt lat="42.523175270" lon="1.073809220">
        <ele>2216.00</ele>
        <time>2014-08-08T13:22:31Z</time>
      </trkpt>
      <trkpt lat="42.523176280" lon="1.073808050">
        <ele>2215.00</ele>
        <time>2014-08-08T13:22:44Z</time>
      </trkpt>
      <trkpt lat="42.523175270" lon="1.073810140">
        <ele>2216.00</ele>
        <time>2014-08-08T13:22:57Z</time>
      </trkpt>
      <trkpt lat="42.523170660" lon="1.073789770">
        <ele>2216.00</ele>
        <time>2014-08-08T13:24:19Z</time>
      </trkpt>
      <trkpt lat="42.523142670" lon="1.073584500">
        <ele>2216.90</ele>
        <time>2014-08-08T13:24:29Z</time>
      </trkpt>
      <trkpt lat="42.523099000" lon="1.073366240">
        <ele>2216.90</ele>
        <time>2014-08-08T13:24:39Z</time>
      </trkpt>
      <trkpt lat="42.523049630" lon="1.073083260">
        <ele>2216.90</ele>
        <time>2014-08-08T13:24:50Z</time>
      </trkpt>
      <trkpt lat="42.523050130" lon="1.072884440">
        <ele>2216.50</ele>
        <time>2014-08-08T13:24:58Z</time>
      </trkpt>
      <trkpt lat="42.523067480" lon="1.072632990">
        <ele>2216.90</ele>
        <time>2014-08-08T13:25:07Z</time>
      </trkpt>
      <trkpt lat="42.523120620" lon="1.072362170">
        <ele>2215.50</ele>
        <time>2014-08-08T13:25:16Z</time>
      </trkpt>
      <trkpt lat="42.523116010" lon="1.072192020">
        <ele>2215.00</ele>
        <time>2014-08-08T13:25:23Z</time>
      </trkpt>
      <trkpt lat="42.523104610" lon="1.071976770">
        <ele>2215.00</ele>
        <time>2014-08-08T13:25:31Z</time>
      </trkpt>
      <trkpt lat="42.523051640" lon="1.071707120">
        <ele>2214.50</ele>
        <time>2014-08-08T13:25:39Z</time>
      </trkpt>
      <trkpt lat="42.522962880" lon="1.071409980">
        <ele>2212.60</ele>
        <time>2014-08-08T13:25:47Z</time>
      </trkpt>
      <trkpt lat="42.522888440" lon="1.071170510">
        <ele>2213.60</ele>
        <time>2014-08-08T13:25:54Z</time>
      </trkpt>
      <trkpt lat="42.522797500" lon="1.070793490">
        <ele>2213.60</ele>
        <time>2014-08-08T13:26:05Z</time>
      </trkpt>
      <trkpt lat="42.522727680" lon="1.070484290">
        <ele>2215.00</ele>
        <time>2014-08-08T13:26:13Z</time>
      </trkpt>
      <trkpt lat="42.522722570" lon="1.070095450">
        <ele>2214.50</ele>
        <time>2014-08-08T13:26:23Z</time>
      </trkpt>
      <trkpt lat="42.522740670" lon="1.069762020">
        <ele>2215.50</ele>
        <time>2014-08-08T13:26:32Z</time>
      </trkpt>
      <trkpt lat="42.522769000" lon="1.069368740">
        <ele>2216.00</ele>
        <time>2014-08-08T13:26:41Z</time>
      </trkpt>
      <trkpt lat="42.522825500" lon="1.069036480">
        <ele>2217.40</ele>
        <time>2014-08-08T13:26:48Z</time>
      </trkpt>
      <trkpt lat="42.522904030" lon="1.068613950">
        <ele>2217.90</ele>
        <time>2014-08-08T13:26:57Z</time>
      </trkpt>
      <trkpt lat="42.522992550" lon="1.068117740">
        <ele>2219.80</ele>
        <time>2014-08-08T13:27:08Z</time>
      </trkpt>
      <trkpt lat="42.523047700" lon="1.067814650">
        <ele>2219.30</ele>
        <time>2014-08-08T13:27:14Z</time>
      </trkpt>
      <trkpt lat="42.523077460" lon="1.067313660">
        <ele>2219.30</ele>
        <time>2014-08-08T13:27:23Z</time>
      </trkpt>
      <trkpt lat="42.523071340" lon="1.067251300">
        <ele>2219.30</ele>
        <time>2014-08-08T13:27:24Z</time>
      </trkpt>
      <trkpt lat="42.522961200" lon="1.066824500">
        <ele>2220.30</ele>
        <time>2014-08-08T13:27:31Z</time>
      </trkpt>
      <trkpt lat="42.522840670" lon="1.066298950">
        <ele>2218.90</ele>
        <time>2014-08-08T13:27:38Z</time>
      </trkpt>
      <trkpt lat="42.522746450" lon="1.065844740">
        <ele>2216.90</ele>
        <time>2014-08-08T13:27:43Z</time>
      </trkpt>
      <trkpt lat="42.522598770" lon="1.065416340">
        <ele>2217.40</ele>
        <time>2014-08-08T13:27:48Z</time>
      </trkpt>
      <trkpt lat="42.522527180" lon="1.065047450">
        <ele>2215.00</ele>
        <time>2014-08-08T13:27:52Z</time>
      </trkpt>
      <trkpt lat="42.522341690" lon="1.064596420">
        <ele>2213.10</ele>
        <time>2014-08-08T13:27:57Z</time>
      </trkpt>
      <trkpt lat="42.522281090" lon="1.064301880">
        <ele>2214.50</ele>
        <time>2014-08-08T13:28:00Z</time>
      </trkpt>
      <trkpt lat="42.522235160" lon="1.064041200">
        <ele>2216.90</ele>
        <time>2014-08-08T13:28:04Z</time>
      </trkpt>
      <trkpt lat="42.522229960" lon="1.063994680">
        <ele>2216.90</ele>
        <time>2014-08-08T13:28:05Z</time>
      </trkpt>
      <trkpt lat="42.522138850" lon="1.063714980">
        <ele>2218.40</ele>
        <time>2014-08-08T13:28:12Z</time>
      </trkpt>
      <trkpt lat="42.521946990" lon="1.063653120">
        <ele>2217.90</ele>
        <time>2014-08-08T13:28:18Z</time>
      </trkpt>
      <trkpt lat="42.521713800" lon="1.063742890">
        <ele>2218.90</ele>
        <time>2014-08-08T13:28:25Z</time>
      </trkpt>
      <trkpt lat="42.521626380" lon="1.063806510">
        <ele>2220.30</ele>
        <time>2014-08-08T13:28:28Z</time>
      </trkpt>
      <trkpt lat="42.521399480" lon="1.063846660">
        <ele>2222.20</ele>
        <time>2014-08-08T13:28:35Z</time>
      </trkpt>
      <trkpt lat="42.521371400" lon="1.063842800">
        <ele>2222.70</ele>
        <time>2014-08-08T13:28:36Z</time>
      </trkpt>
      <trkpt lat="42.521333350" lon="1.063714310">
        <ele>2221.30</ele>
        <time>2014-08-08T13:28:39Z</time>
      </trkpt>
      <trkpt lat="42.521151710" lon="1.063567200">
        <ele>2216.90</ele>
        <time>2014-08-08T13:28:44Z</time>
      </trkpt>
      <trkpt lat="42.520976200" lon="1.063540130">
        <ele>2215.00</ele>
        <time>2014-08-08T13:28:47Z</time>
      </trkpt>
      <trkpt lat="42.520844430" lon="1.063514060">
        <ele>2212.60</ele>
        <time>2014-08-08T13:28:49Z</time>
      </trkpt>
      <trkpt lat="42.520491970" lon="1.063615070">
        <ele>2211.20</ele>
        <time>2014-08-08T13:28:54Z</time>
      </trkpt>
      <trkpt lat="42.520422320" lon="1.063671730">
        <ele>2210.20</ele>
        <time>2014-08-08T13:28:55Z</time>
      </trkpt>
      <trkpt lat="42.520161900" lon="1.063949840">
        <ele>2208.80</ele>
        <time>2014-08-08T13:28:59Z</time>
      </trkpt>
      <trkpt lat="42.520036500" lon="1.064185540">
        <ele>2207.80</ele>
        <time>2014-08-08T13:29:02Z</time>
      </trkpt>
      <trkpt lat="42.519830140" lon="1.064308670">
        <ele>2207.30</ele>
        <time>2014-08-08T13:29:06Z</time>
      </trkpt>
      <trkpt lat="42.519719080" lon="1.064296600">
        <ele>2206.40</ele>
        <time>2014-08-08T13:29:08Z</time>
      </trkpt>
      <trkpt lat="42.519611200" lon="1.064295510">
        <ele>2206.80</ele>
        <time>2014-08-08T13:29:10Z</time>
      </trkpt>
      <trkpt lat="42.519323620" lon="1.064520480">
        <ele>2206.80</ele>
        <time>2014-08-08T13:29:16Z</time>
      </trkpt>
      <trkpt lat="42.519220940" lon="1.064763890">
        <ele>2207.30</ele>
        <time>2014-08-08T13:29:20Z</time>
      </trkpt>
      <trkpt lat="42.519061940" lon="1.065052230">
        <ele>2208.80</ele>
        <time>2014-08-08T13:29:25Z</time>
      </trkpt>
      <trkpt lat="42.518881810" lon="1.065587410">
        <ele>2208.30</ele>
        <time>2014-08-08T13:29:33Z</time>
      </trkpt>
      <trkpt lat="42.518867650" lon="1.065648600">
        <ele>2208.80</ele>
        <time>2014-08-08T13:29:34Z</time>
      </trkpt>
      <trkpt lat="42.518850040" lon="1.065767290">
        <ele>2209.70</ele>
        <time>2014-08-08T13:29:36Z</time>
      </trkpt>
      <trkpt lat="42.518814840" lon="1.065980350">
        <ele>2210.70</ele>
        <time>2014-08-08T13:29:42Z</time>
      </trkpt>
      <trkpt lat="42.518602360" lon="1.066144140">
        <ele>2212.10</ele>
        <time>2014-08-08T13:29:50Z</time>
      </trkpt>
      <trkpt lat="42.518431280" lon="1.066182530">
        <ele>2211.20</ele>
        <time>2014-08-08T13:29:58Z</time>
      </trkpt>
      <trkpt lat="42.518202040" lon="1.066221920">
        <ele>2210.70</ele>
        <time>2014-08-08T13:30:08Z</time>
      </trkpt>
      <trkpt lat="42.518019150" lon="1.066214880">
        <ele>2211.70</ele>
        <time>2014-08-08T13:30:16Z</time>
      </trkpt>
      <trkpt lat="42.517796770" lon="1.066120330">
        <ele>2210.20</ele>
        <time>2014-08-08T13:30:26Z</time>
      </trkpt>
      <trkpt lat="42.517561490" lon="1.066029560">
        <ele>2209.30</ele>
        <time>2014-08-08T13:30:34Z</time>
      </trkpt>
      <trkpt lat="42.517283130" lon="1.065983870">
        <ele>2208.30</ele>
        <time>2014-08-08T13:30:42Z</time>
      </trkpt>
      <trkpt lat="42.517068470" lon="1.066031150">
        <ele>2209.30</ele>
        <time>2014-08-08T13:30:49Z</time>
      </trkpt>
      <trkpt lat="42.516937130" lon="1.066238680">
        <ele>2209.30</ele>
        <time>2014-08-08T13:30:55Z</time>
      </trkpt>
      <trkpt lat="42.516908380" lon="1.066316470">
        <ele>2208.30</ele>
        <time>2014-08-08T13:30:57Z</time>
      </trkpt>
      <trkpt lat="42.516805450" lon="1.066653000">
        <ele>2208.30</ele>
        <time>2014-08-08T13:31:06Z</time>
      </trkpt>
      <trkpt lat="42.516695060" lon="1.067024910">
        <ele>2209.70</ele>
        <time>2014-08-08T13:31:15Z</time>
      </trkpt>
      <trkpt lat="42.516568490" lon="1.067261110">
        <ele>2209.70</ele>
        <time>2014-08-08T13:31:22Z</time>
      </trkpt>
      <trkpt lat="42.516405210" lon="1.067476190">
        <ele>2210.20</ele>
        <time>2014-08-08T13:31:31Z</time>
      </trkpt>
      <trkpt lat="42.516225420" lon="1.067637040">
        <ele>2210.20</ele>
        <time>2014-08-08T13:31:40Z</time>
      </trkpt>
      <trkpt lat="42.515990810" lon="1.067730080">
        <ele>2212.60</ele>
        <time>2014-08-08T13:31:50Z</time>
      </trkpt>
      <trkpt lat="42.515763240" lon="1.067704600">
        <ele>2214.10</ele>
        <time>2014-08-08T13:32:00Z</time>
      </trkpt>
      <trkpt lat="42.515702890" lon="1.067664110">
        <ele>2215.50</ele>
        <time>2014-08-08T13:32:03Z</time>
      </trkpt>
      <trkpt lat="42.515632150" lon="1.067594880">
        <ele>2214.10</ele>
        <time>2014-08-08T13:32:07Z</time>
      </trkpt>
      <trkpt lat="42.515456130" lon="1.067391280">
        <ele>2212.60</ele>
        <time>2014-08-08T13:32:18Z</time>
      </trkpt>
      <trkpt lat="42.515273570" lon="1.067351050">
        <ele>2216.00</ele>
        <time>2014-08-08T13:32:27Z</time>
      </trkpt>
      <trkpt lat="42.515189500" lon="1.067320790">
        <ele>2217.40</ele>
        <time>2014-08-08T13:32:32Z</time>
      </trkpt>
      <trkpt lat="42.515036190" lon="1.067269070">
        <ele>2217.90</ele>
        <time>2014-08-08T13:32:40Z</time>
      </trkpt>
      <trkpt lat="42.514858830" lon="1.067289100">
        <ele>2220.80</ele>
        <time>2014-08-08T13:32:49Z</time>
      </trkpt>
      <trkpt lat="42.514820610" lon="1.067290280">
        <ele>2221.70</ele>
        <time>2014-08-08T13:32:51Z</time>
      </trkpt>
      <trkpt lat="42.514786750" lon="1.067289610">
        <ele>2223.70</ele>
        <time>2014-08-08T13:32:53Z</time>
      </trkpt>
      <trkpt lat="42.514645850" lon="1.067207800">
        <ele>2222.20</ele>
        <time>2014-08-08T13:33:02Z</time>
      </trkpt>
      <trkpt lat="42.514499250" lon="1.067079980">
        <ele>2220.80</ele>
        <time>2014-08-08T13:33:11Z</time>
      </trkpt>
      <trkpt lat="42.514308310" lon="1.067086350">
        <ele>2219.30</ele>
        <time>2014-08-08T13:33:19Z</time>
      </trkpt>
      <trkpt lat="42.514153500" lon="1.067205290">
        <ele>2220.30</ele>
        <time>2014-08-08T13:33:26Z</time>
      </trkpt>
      <trkpt lat="42.513963980" lon="1.067322720">
        <ele>2221.70</ele>
        <time>2014-08-08T13:33:35Z</time>
      </trkpt>
      <trkpt lat="42.513753090" lon="1.067460010">
        <ele>2224.60</ele>
        <time>2014-08-08T13:33:45Z</time>
      </trkpt>
      <trkpt lat="42.513538520" lon="1.067609880">
        <ele>2225.60</ele>
        <time>2014-08-08T13:33:56Z</time>
      </trkpt>
      <trkpt lat="42.513407250" lon="1.067799980">
        <ele>2225.10</ele>
        <time>2014-08-08T13:34:04Z</time>
      </trkpt>
      <trkpt lat="42.513324190" lon="1.067972060">
        <ele>2225.10</ele>
        <time>2014-08-08T13:34:12Z</time>
      </trkpt>
      <trkpt lat="42.513232070" lon="1.068151430">
        <ele>2225.60</ele>
        <time>2014-08-08T13:34:21Z</time>
      </trkpt>
      <trkpt lat="42.513141720" lon="1.068311110">
        <ele>2227.00</ele>
        <time>2014-08-08T13:34:30Z</time>
      </trkpt>
      <trkpt lat="42.513037780" lon="1.068444720">
        <ele>2228.50</ele>
        <time>2014-08-08T13:34:39Z</time>
      </trkpt>
      <trkpt lat="42.512903170" lon="1.068577570">
        <ele>2228.00</ele>
        <time>2014-08-08T13:34:48Z</time>
      </trkpt>
      <trkpt lat="42.512852370" lon="1.068713690">
        <ele>2231.80</ele>
        <time>2014-08-08T13:34:55Z</time>
      </trkpt>
      <trkpt lat="42.512771150" lon="1.068892140">
        <ele>2232.80</ele>
        <time>2014-08-08T13:35:03Z</time>
      </trkpt>
      <trkpt lat="42.512668640" lon="1.069064730">
        <ele>2233.30</ele>
        <time>2014-08-08T13:35:14Z</time>
      </trkpt>
      <trkpt lat="42.512647180" lon="1.069089290">
        <ele>2233.30</ele>
        <time>2014-08-08T13:35:16Z</time>
      </trkpt>
      <trkpt lat="42.512524890" lon="1.069228510">
        <ele>2232.30</ele>
        <time>2014-08-08T13:35:25Z</time>
      </trkpt>
      <trkpt lat="42.512410140" lon="1.069339150">
        <ele>2233.80</ele>
        <time>2014-08-08T13:35:32Z</time>
      </trkpt>
      <trkpt lat="42.512322550" lon="1.069468150">
        <ele>2230.90</ele>
        <time>2014-08-08T13:35:39Z</time>
      </trkpt>
      <trkpt lat="42.512195320" lon="1.069643920">
        <ele>2232.30</ele>
        <time>2014-08-08T13:35:49Z</time>
      </trkpt>
      <trkpt lat="42.512057010" lon="1.069834860">
        <ele>2233.80</ele>
        <time>2014-08-08T13:35:59Z</time>
      </trkpt>
      <trkpt lat="42.511916950" lon="1.069994530">
        <ele>2233.80</ele>
        <time>2014-08-08T13:36:09Z</time>
      </trkpt>
      <trkpt lat="42.511756610" lon="1.070148260">
        <ele>2234.70</ele>
        <time>2014-08-08T13:36:19Z</time>
      </trkpt>
      <trkpt lat="42.511598190" lon="1.070281030">
        <ele>2233.80</ele>
        <time>2014-08-08T13:36:28Z</time>
      </trkpt>
      <trkpt lat="42.511457370" lon="1.070420580">
        <ele>2235.20</ele>
        <time>2014-08-08T13:36:36Z</time>
      </trkpt>
      <trkpt lat="42.511295180" lon="1.070583190">
        <ele>2235.70</ele>
        <time>2014-08-08T13:36:45Z</time>
      </trkpt>
      <trkpt lat="42.511103150" lon="1.070718140">
        <ele>2235.70</ele>
        <time>2014-08-08T13:36:55Z</time>
      </trkpt>
      <trkpt lat="42.510968960" lon="1.070866670">
        <ele>2237.10</ele>
        <time>2014-08-08T13:37:02Z</time>
      </trkpt>
      <trkpt lat="42.510932500" lon="1.070916790">
        <ele>2238.60</ele>
        <time>2014-08-08T13:37:04Z</time>
      </trkpt>
      <trkpt lat="42.510880110" lon="1.070986110">
        <ele>2235.70</ele>
        <time>2014-08-08T13:37:07Z</time>
      </trkpt>
      <trkpt lat="42.510726300" lon="1.071185350">
        <ele>2235.70</ele>
        <time>2014-08-08T13:37:16Z</time>
      </trkpt>
      <trkpt lat="42.510565540" lon="1.071449550">
        <ele>2235.70</ele>
        <time>2014-08-08T13:37:25Z</time>
      </trkpt>
      <trkpt lat="42.510503340" lon="1.071656830">
        <ele>2236.60</ele>
        <time>2014-08-08T13:37:30Z</time>
      </trkpt>
      <trkpt lat="42.510423630" lon="1.072001410">
        <ele>2236.60</ele>
        <time>2014-08-08T13:37:38Z</time>
      </trkpt>
      <trkpt lat="42.510304440" lon="1.072369460">
        <ele>2236.60</ele>
        <time>2014-08-08T13:37:46Z</time>
      </trkpt>
      <trkpt lat="42.510156670" lon="1.072602810">
        <ele>2235.70</ele>
        <time>2014-08-08T13:37:53Z</time>
      </trkpt>
      <trkpt lat="42.509894570" lon="1.072803060">
        <ele>2235.20</ele>
        <time>2014-08-08T13:38:02Z</time>
      </trkpt>
      <trkpt lat="42.509575890" lon="1.072989550">
        <ele>2233.80</ele>
        <time>2014-08-08T13:38:12Z</time>
      </trkpt>
      <trkpt lat="42.509294840" lon="1.073061720">
        <ele>2234.20</ele>
        <time>2014-08-08T13:38:20Z</time>
      </trkpt>
      <trkpt lat="42.509125950" lon="1.072954270">
        <ele>2230.90</ele>
        <time>2014-08-08T13:38:25Z</time>
      </trkpt>
      <trkpt lat="42.508855380" lon="1.072735250">
        <ele>2230.40</ele>
        <time>2014-08-08T13:38:31Z</time>
      </trkpt>
      <trkpt lat="42.508477940" lon="1.072492510">
        <ele>2228.00</ele>
        <time>2014-08-08T13:38:37Z</time>
      </trkpt>
      <trkpt lat="42.508355980" lon="1.072409360">
        <ele>2228.50</ele>
        <time>2014-08-08T13:38:39Z</time>
      </trkpt>
      <trkpt lat="42.508085250" lon="1.072167040">
        <ele>2226.60</ele>
        <time>2014-08-08T13:38:44Z</time>
      </trkpt>
      <trkpt lat="42.507741170" lon="1.072111720">
        <ele>2226.10</ele>
        <time>2014-08-08T13:38:50Z</time>
      </trkpt>
      <trkpt lat="42.507330710" lon="1.072106440">
        <ele>2227.50</ele>
        <time>2014-08-08T13:38:57Z</time>
      </trkpt>
      <trkpt lat="42.507036420" lon="1.072101490">
        <ele>2226.60</ele>
        <time>2014-08-08T13:39:02Z</time>
      </trkpt>
      <trkpt lat="42.506839360" lon="1.072145160">
        <ele>2229.40</ele>
        <time>2014-08-08T13:39:08Z</time>
      </trkpt>
      <trkpt lat="42.506803990" lon="1.072156480">
        <ele>2230.40</ele>
        <time>2014-08-08T13:39:10Z</time>
      </trkpt>
      <trkpt lat="42.506717660" lon="1.072179950">
        <ele>2232.80</ele>
        <time>2014-08-08T13:39:15Z</time>
      </trkpt>
      <trkpt lat="42.506602160" lon="1.072186320">
        <ele>2234.70</ele>
        <time>2014-08-08T13:39:22Z</time>
      </trkpt>
      <trkpt lat="42.506571900" lon="1.072177260">
        <ele>2232.80</ele>
        <time>2014-08-08T13:39:24Z</time>
      </trkpt>
      <trkpt lat="42.506504920" lon="1.072183720">
        <ele>2232.30</ele>
        <time>2014-08-08T13:39:28Z</time>
      </trkpt>
      <trkpt lat="42.506448680" lon="1.072194860">
        <ele>2234.20</ele>
        <time>2014-08-08T13:39:31Z</time>
      </trkpt>
      <trkpt lat="42.506382300" lon="1.072201320">
        <ele>2233.30</ele>
        <time>2014-08-08T13:39:35Z</time>
      </trkpt>
      <trkpt lat="42.506265870" lon="1.072241800">
        <ele>2236.60</ele>
        <time>2014-08-08T13:39:42Z</time>
      </trkpt>
      <trkpt lat="42.506230840" lon="1.072251280">
        <ele>2234.20</ele>
        <time>2014-08-08T13:39:44Z</time>
      </trkpt>
      <trkpt lat="42.506168140" lon="1.072264940">
        <ele>2233.80</ele>
        <time>2014-08-08T13:39:48Z</time>
      </trkpt>
      <trkpt lat="42.506064120" lon="1.072290000">
        <ele>2236.60</ele>
        <time>2014-08-08T13:39:55Z</time>
      </trkpt>
      <trkpt lat="42.505999240" lon="1.072303830">
        <ele>2237.10</ele>
        <time>2014-08-08T13:40:00Z</time>
      </trkpt>
      <trkpt lat="42.505872680" lon="1.072370050">
        <ele>2239.50</ele>
        <time>2014-08-08T13:40:10Z</time>
      </trkpt>
      <trkpt lat="42.505780310" lon="1.072392090">
        <ele>2242.40</ele>
        <time>2014-08-08T13:40:16Z</time>
      </trkpt>
      <trkpt lat="42.505747540" lon="1.072398380">
        <ele>2243.90</ele>
        <time>2014-08-08T13:40:18Z</time>
      </trkpt>
      <trkpt lat="42.505685930" lon="1.072416570">
        <ele>2241.50</ele>
        <time>2014-08-08T13:40:22Z</time>
      </trkpt>
      <trkpt lat="42.505640420" lon="1.072418240">
        <ele>2242.90</ele>
        <time>2014-08-08T13:40:25Z</time>
      </trkpt>
      <trkpt lat="42.505539500" lon="1.072434920">
        <ele>2243.90</ele>
        <time>2014-08-08T13:40:32Z</time>
      </trkpt>
      <trkpt lat="42.505509910" lon="1.072440540">
        <ele>2244.30</ele>
        <time>2014-08-08T13:40:34Z</time>
      </trkpt>
      <trkpt lat="42.505377390" lon="1.072466520">
        <ele>2246.70</ele>
        <time>2014-08-08T13:40:43Z</time>
      </trkpt>
      <trkpt lat="42.505266580" lon="1.072507170">
        <ele>2246.70</ele>
        <time>2014-08-08T13:40:51Z</time>
      </trkpt>
      <trkpt lat="42.505220900" lon="1.072549590">
        <ele>2243.90</ele>
        <time>2014-08-08T13:40:55Z</time>
      </trkpt>
      <trkpt lat="42.505193740" lon="1.072570540">
        <ele>2244.80</ele>
        <time>2014-08-08T13:40:57Z</time>
      </trkpt>
      <trkpt lat="42.505138590" lon="1.072614300">
        <ele>2242.90</ele>
        <time>2014-08-08T13:41:02Z</time>
      </trkpt>
      <trkpt lat="42.505101460" lon="1.072658800">
        <ele>2244.80</ele>
        <time>2014-08-08T13:41:05Z</time>
      </trkpt>
      <trkpt lat="42.505056030" lon="1.072706240">
        <ele>2242.40</ele>
        <time>2014-08-08T13:41:09Z</time>
      </trkpt>
      <trkpt lat="42.505030800" lon="1.072736250">
        <ele>2243.90</ele>
        <time>2014-08-08T13:41:11Z</time>
      </trkpt>
      <trkpt lat="42.504937680" lon="1.072823680">
        <ele>2244.30</ele>
        <time>2014-08-08T13:41:19Z</time>
      </trkpt>
      <trkpt lat="42.504811450" lon="1.072962140">
        <ele>2245.80</ele>
        <time>2014-08-08T13:41:29Z</time>
      </trkpt>
      <trkpt lat="42.504726790" lon="1.073131210">
        <ele>2247.70</ele>
        <time>2014-08-08T13:41:38Z</time>
      </trkpt>
      <trkpt lat="42.504646320" lon="1.073291390">
        <ele>2247.70</ele>
        <time>2014-08-08T13:41:47Z</time>
      </trkpt>
      <trkpt lat="42.504606760" lon="1.073502690">
        <ele>2248.70</ele>
        <time>2014-08-08T13:41:57Z</time>
      </trkpt>
      <trkpt lat="42.504603910" lon="1.073522810">
        <ele>2249.10</ele>
        <time>2014-08-08T13:41:58Z</time>
      </trkpt>
      <trkpt lat="42.504552190" lon="1.073735630">
        <ele>2249.60</ele>
        <time>2014-08-08T13:42:07Z</time>
      </trkpt>
      <trkpt lat="42.504548170" lon="1.073928070">
        <ele>2250.10</ele>
        <time>2014-08-08T13:42:15Z</time>
      </trkpt>
      <trkpt lat="42.504503080" lon="1.074110970">
        <ele>2251.50</ele>
        <time>2014-08-08T13:42:22Z</time>
      </trkpt>
      <trkpt lat="42.504431830" lon="1.074272400">
        <ele>2252.50</ele>
        <time>2014-08-08T13:42:28Z</time>
      </trkpt>
      <trkpt lat="42.504351190" lon="1.074505250">
        <ele>2251.50</ele>
        <time>2014-08-08T13:42:38Z</time>
      </trkpt>
      <trkpt lat="42.504277270" lon="1.074752850">
        <ele>2253.50</ele>
        <time>2014-08-08T13:42:48Z</time>
      </trkpt>
      <trkpt lat="42.504183560" lon="1.074927530">
        <ele>2253.50</ele>
        <time>2014-08-08T13:42:56Z</time>
      </trkpt>
      <trkpt lat="42.504048110" lon="1.075094750">
        <ele>2255.90</ele>
        <time>2014-08-08T13:43:06Z</time>
      </trkpt>
      <trkpt lat="42.503946350" lon="1.075239170">
        <ele>2256.80</ele>
        <time>2014-08-08T13:43:14Z</time>
      </trkpt>
      <trkpt lat="42.503840650" lon="1.075349900">
        <ele>2257.30</ele>
        <time>2014-08-08T13:43:21Z</time>
      </trkpt>
      <trkpt lat="42.503691540" lon="1.075482330">
        <ele>2258.80</ele>
        <time>2014-08-08T13:43:31Z</time>
      </trkpt>
      <trkpt lat="42.503577380" lon="1.075588870">
        <ele>2259.70</ele>
        <time>2014-08-08T13:43:39Z</time>
      </trkpt>
      <trkpt lat="42.503391130" lon="1.075743430">
        <ele>2260.70</ele>
        <time>2014-08-08T13:43:50Z</time>
      </trkpt>
      <trkpt lat="42.503224920" lon="1.075849790">
        <ele>2262.60</ele>
        <time>2014-08-08T13:43:59Z</time>
      </trkpt>
      <trkpt lat="42.503041020" lon="1.075917770">
        <ele>2263.10</ele>
        <time>2014-08-08T13:44:09Z</time>
      </trkpt>
      <trkpt lat="42.502891240" lon="1.075922970">
        <ele>2263.10</ele>
        <time>2014-08-08T13:44:17Z</time>
      </trkpt>
      <trkpt lat="42.502746480" lon="1.075955150">
        <ele>2264.00</ele>
        <time>2014-08-08T13:44:25Z</time>
      </trkpt>
      <trkpt lat="42.502681940" lon="1.075981310">
        <ele>2265.00</ele>
        <time>2014-08-08T13:44:29Z</time>
      </trkpt>
      <trkpt lat="42.502544730" lon="1.076059840">
        <ele>2264.00</ele>
        <time>2014-08-08T13:44:37Z</time>
      </trkpt>
      <trkpt lat="42.502358480" lon="1.076156150">
        <ele>2265.50</ele>
        <time>2014-08-08T13:44:47Z</time>
      </trkpt>
      <trkpt lat="42.502187910" lon="1.076279870">
        <ele>2265.00</ele>
        <time>2014-08-08T13:44:57Z</time>
      </trkpt>
      <trkpt lat="42.502018850" lon="1.076364440">
        <ele>2265.50</ele>
        <time>2014-08-08T13:45:05Z</time>
      </trkpt>
      <trkpt lat="42.501893620" lon="1.076423120">
        <ele>2266.50</ele>
        <time>2014-08-08T13:45:11Z</time>
      </trkpt>
      <trkpt lat="42.501799580" lon="1.076467200">
        <ele>2265.00</ele>
        <time>2014-08-08T13:45:15Z</time>
      </trkpt>
      <trkpt lat="42.501616180" lon="1.076558320">
        <ele>2266.50</ele>
        <time>2014-08-08T13:45:23Z</time>
      </trkpt>
      <trkpt lat="42.501414680" lon="1.076682960">
        <ele>2267.90</ele>
        <time>2014-08-08T13:45:33Z</time>
      </trkpt>
      <trkpt lat="42.501351810" lon="1.076717990">
        <ele>2266.00</ele>
        <time>2014-08-08T13:45:36Z</time>
      </trkpt>
      <trkpt lat="42.501168920" lon="1.076827790">
        <ele>2268.90</ele>
        <time>2014-08-08T13:45:45Z</time>
      </trkpt>
      <trkpt lat="42.500994410" lon="1.076913630">
        <ele>2267.90</ele>
        <time>2014-08-08T13:45:53Z</time>
      </trkpt>
      <trkpt lat="42.500796350" lon="1.077059050">
        <ele>2268.40</ele>
        <time>2014-08-08T13:46:03Z</time>
      </trkpt>
      <trkpt lat="42.500578500" lon="1.077187960">
        <ele>2270.30</ele>
        <time>2014-08-08T13:46:13Z</time>
      </trkpt>
      <trkpt lat="42.500388060" lon="1.077290980">
        <ele>2270.80</ele>
        <time>2014-08-08T13:46:22Z</time>
      </trkpt>
      <trkpt lat="42.500279180" lon="1.077357110">
        <ele>2274.10</ele>
        <time>2014-08-08T13:46:27Z</time>
      </trkpt>
      <trkpt lat="42.500255040" lon="1.077367250">
        <ele>2273.20</ele>
        <time>2014-08-08T13:46:28Z</time>
      </trkpt>
      <trkpt lat="42.500188990" lon="1.077400950">
        <ele>2271.30</ele>
        <time>2014-08-08T13:46:31Z</time>
      </trkpt>
      <trkpt lat="42.499978860" lon="1.077505890">
        <ele>2271.70</ele>
        <time>2014-08-08T13:46:40Z</time>
      </trkpt>
      <trkpt lat="42.499810050" lon="1.077560370">
        <ele>2274.10</ele>
        <time>2014-08-08T13:46:48Z</time>
      </trkpt>
      <trkpt lat="42.499640980" lon="1.077603370">
        <ele>2274.10</ele>
        <time>2014-08-08T13:46:56Z</time>
      </trkpt>
      <trkpt lat="42.499602010" lon="1.077615190">
        <ele>2275.60</ele>
        <time>2014-08-08T13:46:58Z</time>
      </trkpt>
      <trkpt lat="42.499417520" lon="1.077628940">
        <ele>2275.10</ele>
        <time>2014-08-08T13:47:07Z</time>
      </trkpt>
      <trkpt lat="42.499207300" lon="1.077583420">
        <ele>2275.60</ele>
        <time>2014-08-08T13:47:17Z</time>
      </trkpt>
      <trkpt lat="42.499120470" lon="1.077528610">
        <ele>2278.50</ele>
        <time>2014-08-08T13:47:22Z</time>
      </trkpt>
      <trkpt lat="42.499030530" lon="1.077427180">
        <ele>2275.10</ele>
        <time>2014-08-08T13:47:28Z</time>
      </trkpt>
      <trkpt lat="42.499013930" lon="1.077396090">
        <ele>2274.10</ele>
        <time>2014-08-08T13:47:30Z</time>
      </trkpt>
      <trkpt lat="42.498920900" lon="1.077257530">
        <ele>2273.20</ele>
        <time>2014-08-08T13:47:37Z</time>
      </trkpt>
      <trkpt lat="42.498796680" lon="1.077097190">
        <ele>2272.70</ele>
        <time>2014-08-08T13:47:45Z</time>
      </trkpt>
      <trkpt lat="42.498667260" lon="1.076913290">
        <ele>2274.10</ele>
        <time>2014-08-08T13:47:53Z</time>
      </trkpt>
      <trkpt lat="42.498634650" lon="1.076874060">
        <ele>2273.20</ele>
        <time>2014-08-08T13:47:55Z</time>
      </trkpt>
      <trkpt lat="42.498462570" lon="1.076671640">
        <ele>2272.70</ele>
        <time>2014-08-08T13:48:05Z</time>
      </trkpt>
      <trkpt lat="42.498336760" lon="1.076564430">
        <ele>2275.60</ele>
        <time>2014-08-08T13:48:11Z</time>
      </trkpt>
      <trkpt lat="42.498165600" lon="1.076431920">
        <ele>2274.60</ele>
        <time>2014-08-08T13:48:19Z</time>
      </trkpt>
      <trkpt lat="42.497979100" lon="1.076328570">
        <ele>2274.60</ele>
        <time>2014-08-08T13:48:27Z</time>
      </trkpt>
      <trkpt lat="42.497865360" lon="1.076262690">
        <ele>2278.50</ele>
        <time>2014-08-08T13:48:32Z</time>
      </trkpt>
      <trkpt lat="42.497783140" lon="1.076211470">
        <ele>2275.60</ele>
        <time>2014-08-08T13:48:36Z</time>
      </trkpt>
      <trkpt lat="42.497605610" lon="1.076106950">
        <ele>2276.10</ele>
        <time>2014-08-08T13:48:44Z</time>
      </trkpt>
      <trkpt lat="42.497434700" lon="1.075981310">
        <ele>2274.10</ele>
        <time>2014-08-08T13:48:52Z</time>
      </trkpt>
      <trkpt lat="42.497368900" lon="1.075934200">
        <ele>2276.10</ele>
        <time>2014-08-08T13:48:55Z</time>
      </trkpt>
      <trkpt lat="42.497302850" lon="1.075891450">
        <ele>2277.50</ele>
        <time>2014-08-08T13:48:58Z</time>
      </trkpt>
      <trkpt lat="42.497228340" lon="1.075862620">
        <ele>2280.90</ele>
        <time>2014-08-08T13:49:02Z</time>
      </trkpt>
      <trkpt lat="42.497028930" lon="1.075795230">
        <ele>2279.90</ele>
        <time>2014-08-08T13:49:11Z</time>
      </trkpt>
      <trkpt lat="42.496838910" lon="1.075702940">
        <ele>2278.90</ele>
        <time>2014-08-08T13:49:20Z</time>
      </trkpt>
      <trkpt lat="42.496607830" lon="1.075543350">
        <ele>2280.40</ele>
        <time>2014-08-08T13:49:30Z</time>
      </trkpt>
      <trkpt lat="42.496404900" lon="1.075406810">
        <ele>2279.90</ele>
        <time>2014-08-08T13:49:37Z</time>
      </trkpt>
      <trkpt lat="42.496331310" lon="1.075369760">
        <ele>2276.10</ele>
        <time>2014-08-08T13:49:39Z</time>
      </trkpt>
      <trkpt lat="42.496163330" lon="1.075255270">
        <ele>2273.70</ele>
        <time>2014-08-08T13:49:43Z</time>
      </trkpt>
      <trkpt lat="42.495997710" lon="1.075207240">
        <ele>2274.10</ele>
        <time>2014-08-08T13:49:46Z</time>
      </trkpt>
      <trkpt lat="42.495824620" lon="1.075191650">
        <ele>2271.70</ele>
        <time>2014-08-08T13:49:49Z</time>
      </trkpt>
      <trkpt lat="42.495770220" lon="1.075191900">
        <ele>2270.30</ele>
        <time>2014-08-08T13:49:50Z</time>
      </trkpt>
      <trkpt lat="42.495502000" lon="1.075123670">
        <ele>2269.30</ele>
        <time>2014-08-08T13:49:55Z</time>
      </trkpt>
      <trkpt lat="42.495407790" lon="1.074958290">
        <ele>2266.50</ele>
        <time>2014-08-08T13:49:59Z</time>
      </trkpt>
      <trkpt lat="42.495424800" lon="1.074905990">
        <ele>2266.00</ele>
        <time>2014-08-08T13:50:00Z</time>
      </trkpt>
      <trkpt lat="42.495527980" lon="1.074782440">
        <ele>2266.00</ele>
        <time>2014-08-08T13:50:03Z</time>
      </trkpt>
      <trkpt lat="42.495688410" lon="1.074639030">
        <ele>2264.00</ele>
        <time>2014-08-08T13:50:07Z</time>
      </trkpt>
      <trkpt lat="42.496007850" lon="1.074432670">
        <ele>2261.20</ele>
        <time>2014-08-08T13:50:13Z</time>
      </trkpt>
      <trkpt lat="42.496456870" lon="1.074006780">
        <ele>2258.30</ele>
        <time>2014-08-08T13:50:22Z</time>
      </trkpt>
      <trkpt lat="42.496717630" lon="1.073739400">
        <ele>2255.90</ele>
        <time>2014-08-08T13:50:27Z</time>
      </trkpt>
      <trkpt lat="42.497021050" lon="1.073417530">
        <ele>2252.00</ele>
        <time>2014-08-08T13:50:33Z</time>
      </trkpt>
      <trkpt lat="42.497421790" lon="1.073028280">
        <ele>2249.60</ele>
        <time>2014-08-08T13:50:41Z</time>
      </trkpt>
      <trkpt lat="42.497560090" lon="1.072874470">
        <ele>2247.70</ele>
        <time>2014-08-08T13:50:44Z</time>
      </trkpt>
      <trkpt lat="42.497690260" lon="1.072709010">
        <ele>2245.80</ele>
        <time>2014-08-08T13:50:47Z</time>
      </trkpt>
      <trkpt lat="42.497847260" lon="1.072245740">
        <ele>2245.30</ele>
        <time>2014-08-08T13:50:53Z</time>
      </trkpt>
      <trkpt lat="42.497886570" lon="1.071991180">
        <ele>2243.40</ele>
        <time>2014-08-08T13:50:56Z</time>
      </trkpt>
      <trkpt lat="42.497898810" lon="1.071904010">
        <ele>2241.90</ele>
        <time>2014-08-08T13:50:57Z</time>
      </trkpt>
      <trkpt lat="42.498009280" lon="1.071493800">
        <ele>2239.10</ele>
        <time>2014-08-08T13:51:02Z</time>
      </trkpt>
      <trkpt lat="42.498035680" lon="1.071428420">
        <ele>2239.10</ele>
        <time>2014-08-08T13:51:03Z</time>
      </trkpt>
      <trkpt lat="42.498094270" lon="1.071313170">
        <ele>2239.10</ele>
        <time>2014-08-08T13:51:05Z</time>
      </trkpt>
      <trkpt lat="42.498263500" lon="1.071140760">
        <ele>2237.60</ele>
        <time>2014-08-08T13:51:11Z</time>
      </trkpt>
      <trkpt lat="42.498282700" lon="1.071148380">
        <ele>2237.10</ele>
        <time>2014-08-08T13:51:17Z</time>
      </trkpt>
      <trkpt lat="42.498319750" lon="1.071147130">
        <ele>2237.10</ele>
        <time>2014-08-08T13:52:12Z</time>
      </trkpt>
      <trkpt lat="42.498421080" lon="1.070956350">
        <ele>2235.20</ele>
        <time>2014-08-08T13:52:19Z</time>
      </trkpt>
      <trkpt lat="42.498505070" lon="1.070840010">
        <ele>2233.80</ele>
        <time>2014-08-08T13:52:22Z</time>
      </trkpt>
      <trkpt lat="42.498534240" lon="1.070797770">
        <ele>2232.80</ele>
        <time>2014-08-08T13:52:23Z</time>
      </trkpt>
      <trkpt lat="42.498699860" lon="1.070616220">
        <ele>2231.40</ele>
        <time>2014-08-08T13:52:27Z</time>
      </trkpt>
      <trkpt lat="42.499129100" lon="1.070260740">
        <ele>2228.50</ele>
        <time>2014-08-08T13:52:35Z</time>
      </trkpt>
      <trkpt lat="42.499191550" lon="1.070221430">
        <ele>2229.40</ele>
        <time>2014-08-08T13:52:36Z</time>
      </trkpt>
      <trkpt lat="42.499372600" lon="1.070123780">
        <ele>2226.60</ele>
        <time>2014-08-08T13:52:39Z</time>
      </trkpt>
      <trkpt lat="42.499693460" lon="1.070012300">
        <ele>2224.20</ele>
        <time>2014-08-08T13:52:44Z</time>
      </trkpt>
      <trkpt lat="42.499846680" lon="1.069987490">
        <ele>2223.20</ele>
        <time>2014-08-08T13:52:48Z</time>
      </trkpt>
      <trkpt lat="42.499863270" lon="1.069983220">
        <ele>2225.10</ele>
        <time>2014-08-08T13:52:54Z</time>
      </trkpt>
      <trkpt lat="42.499873000" lon="1.069998050">
        <ele>2223.20</ele>
        <time>2014-08-08T13:53:02Z</time>
      </trkpt>
      <trkpt lat="42.499893200" lon="1.070021100">
        <ele>2224.60</ele>
        <time>2014-08-08T13:53:14Z</time>
      </trkpt>
      <trkpt lat="42.499898560" lon="1.070026380">
        <ele>2223.70</ele>
        <time>2014-08-08T13:53:24Z</time>
      </trkpt>
      <trkpt lat="42.499906270" lon="1.070035690">
        <ele>2224.20</ele>
        <time>2014-08-08T13:53:37Z</time>
      </trkpt>
      <trkpt lat="42.499914150" lon="1.070000990">
        <ele>2223.70</ele>
        <time>2014-08-08T13:53:46Z</time>
      </trkpt>
      <trkpt lat="42.499971400" lon="1.069953040">
        <ele>2223.70</ele>
        <time>2014-08-08T13:53:49Z</time>
      </trkpt>
      <trkpt lat="42.500084890" lon="1.069911550">
        <ele>2222.20</ele>
        <time>2014-08-08T13:53:52Z</time>
      </trkpt>
      <trkpt lat="42.500244730" lon="1.069876010">
        <ele>2220.80</ele>
        <time>2014-08-08T13:53:55Z</time>
      </trkpt>
      <trkpt lat="42.500646650" lon="1.069741310">
        <ele>2218.40</ele>
        <time>2014-08-08T13:54:01Z</time>
      </trkpt>
      <trkpt lat="42.500973460" lon="1.069597230">
        <ele>2216.90</ele>
        <time>2014-08-08T13:54:06Z</time>
      </trkpt>
      <trkpt lat="42.501340750" lon="1.069333950">
        <ele>2214.10</ele>
        <time>2014-08-08T13:54:12Z</time>
      </trkpt>
      <trkpt lat="42.501452400" lon="1.069210910">
        <ele>2213.60</ele>
        <time>2014-08-08T13:54:14Z</time>
      </trkpt>
      <trkpt lat="42.501605030" lon="1.068994320">
        <ele>2211.20</ele>
        <time>2014-08-08T13:54:17Z</time>
      </trkpt>
      <trkpt lat="42.501931760" lon="1.068319910">
        <ele>2206.80</ele>
        <time>2014-08-08T13:54:25Z</time>
      </trkpt>
      <trkpt lat="42.502076680" lon="1.067994780">
        <ele>2203.50</ele>
        <time>2014-08-08T13:54:29Z</time>
      </trkpt>
      <trkpt lat="42.502103920" lon="1.067913470">
        <ele>2203.50</ele>
        <time>2014-08-08T13:54:30Z</time>
      </trkpt>
      <trkpt lat="42.502152710" lon="1.067741560">
        <ele>2202.00</ele>
        <time>2014-08-08T13:54:32Z</time>
      </trkpt>
      <trkpt lat="42.502212300" lon="1.067410980">
        <ele>2200.10</ele>
        <time>2014-08-08T13:54:36Z</time>
      </trkpt>
      <trkpt lat="42.502298470" lon="1.067109900">
        <ele>2196.30</ele>
        <time>2014-08-08T13:54:40Z</time>
      </trkpt>
      <trkpt lat="42.502366360" lon="1.066961790">
        <ele>2195.80</ele>
        <time>2014-08-08T13:54:42Z</time>
      </trkpt>
      <trkpt lat="42.502520250" lon="1.066533980">
        <ele>2194.80</ele>
        <time>2014-08-08T13:54:47Z</time>
      </trkpt>
      <trkpt lat="42.502611030" lon="1.066040370">
        <ele>2191.90</ele>
        <time>2014-08-08T13:54:52Z</time>
      </trkpt>
      <trkpt lat="42.502708170" lon="1.065419270">
        <ele>2189.10</ele>
        <time>2014-08-08T13:54:58Z</time>
      </trkpt>
      <trkpt lat="42.502816300" lon="1.064988780">
        <ele>2186.70</ele>
        <time>2014-08-08T13:55:02Z</time>
      </trkpt>
      <trkpt lat="42.502971790" lon="1.064591220">
        <ele>2184.30</ele>
        <time>2014-08-08T13:55:06Z</time>
      </trkpt>
      <trkpt lat="42.503248140" lon="1.064153520">
        <ele>2180.90</ele>
        <time>2014-08-08T13:55:11Z</time>
      </trkpt>
      <trkpt lat="42.503307400" lon="1.064069450">
        <ele>2180.90</ele>
        <time>2014-08-08T13:55:12Z</time>
      </trkpt>
      <trkpt lat="42.503506550" lon="1.063818910">
        <ele>2179.00</ele>
        <time>2014-08-08T13:55:15Z</time>
      </trkpt>
      <trkpt lat="42.503707300" lon="1.063581710">
        <ele>2177.00</ele>
        <time>2014-08-08T13:55:18Z</time>
      </trkpt>
      <trkpt lat="42.504108290" lon="1.063178120">
        <ele>2174.60</ele>
        <time>2014-08-08T13:55:24Z</time>
      </trkpt>
      <trkpt lat="42.504298640" lon="1.063016930">
        <ele>2173.20</ele>
        <time>2014-08-08T13:55:27Z</time>
      </trkpt>
      <trkpt lat="42.504440710" lon="1.062916680">
        <ele>2172.20</ele>
        <time>2014-08-08T13:55:29Z</time>
      </trkpt>
      <trkpt lat="42.505080420" lon="1.060155520">
        <ele>2193.90</ele>
        <time>2014-08-08T14:00:25Z</time>
      </trkpt>
      <trkpt lat="42.505050830" lon="1.059931220">
        <ele>2194.80</ele>
        <time>2014-08-08T14:00:32Z</time>
      </trkpt>
      <trkpt lat="42.505042450" lon="1.059757710">
        <ele>2193.90</ele>
        <time>2014-08-08T14:00:35Z</time>
      </trkpt>
      <trkpt lat="42.505037840" lon="1.059692330">
        <ele>2193.40</ele>
        <time>2014-08-08T14:00:36Z</time>
      </trkpt>
      <trkpt lat="42.505107160" lon="1.059337610">
        <ele>2194.40</ele>
        <time>2014-08-08T14:00:42Z</time>
      </trkpt>
      <trkpt lat="42.505173380" lon="1.058917850">
        <ele>2190.00</ele>
        <time>2014-08-08T14:00:48Z</time>
      </trkpt>
      <trkpt lat="42.505190390" lon="1.058840230">
        <ele>2190.00</ele>
        <time>2014-08-08T14:00:49Z</time>
      </trkpt>
      <trkpt lat="42.505311760" lon="1.058379560">
        <ele>2187.10</ele>
        <time>2014-08-08T14:00:55Z</time>
      </trkpt>
      <trkpt lat="42.505327690" lon="1.058287280">
        <ele>2187.10</ele>
        <time>2014-08-08T14:00:56Z</time>
      </trkpt>
      <trkpt lat="42.505338920" lon="1.058090720">
        <ele>2183.80</ele>
        <time>2014-08-08T14:00:58Z</time>
      </trkpt>
      <trkpt lat="42.505341350" lon="1.057990050">
        <ele>2183.80</ele>
        <time>2014-08-08T14:00:59Z</time>
      </trkpt>
      <trkpt lat="42.505446710" lon="1.057499460">
        <ele>2182.80</ele>
        <time>2014-08-08T14:01:04Z</time>
      </trkpt>
      <trkpt lat="42.505662460" lon="1.057004590">
        <ele>2179.00</ele>
        <time>2014-08-08T14:01:10Z</time>
      </trkpt>
      <trkpt lat="42.505742170" lon="1.056858750">
        <ele>2177.50</ele>
        <time>2014-08-08T14:01:12Z</time>
      </trkpt>
      <trkpt lat="42.505855580" lon="1.056488100">
        <ele>2176.10</ele>
        <time>2014-08-08T14:01:16Z</time>
      </trkpt>
      <trkpt lat="42.506017600" lon="1.055748820">
        <ele>2175.10</ele>
        <time>2014-08-08T14:01:24Z</time>
      </trkpt>
      <trkpt lat="42.506095390" lon="1.055281690">
        <ele>2174.20</ele>
        <time>2014-08-08T14:01:30Z</time>
      </trkpt>
      <trkpt lat="42.506102930" lon="1.055212960">
        <ele>2174.60</ele>
        <time>2014-08-08T14:01:31Z</time>
      </trkpt>
      <trkpt lat="42.506090020" lon="1.054806940">
        <ele>2176.10</ele>
        <time>2014-08-08T14:01:39Z</time>
      </trkpt>
      <trkpt lat="42.506055150" lon="1.054642320">
        <ele>2176.60</ele>
        <time>2014-08-08T14:01:43Z</time>
      </trkpt>
      <trkpt lat="42.505988520" lon="1.054598400">
        <ele>2178.00</ele>
        <time>2014-08-08T14:01:47Z</time>
      </trkpt>
      <trkpt lat="42.505843840" lon="1.054333870">
        <ele>2176.60</ele>
        <time>2014-08-08T14:01:53Z</time>
      </trkpt>
      <trkpt lat="42.505841920" lon="1.054254320">
        <ele>2176.60</ele>
        <time>2014-08-08T14:01:54Z</time>
      </trkpt>
      <trkpt lat="42.505835880" lon="1.053881750">
        <ele>2173.20</ele>
        <time>2014-08-08T14:01:58Z</time>
      </trkpt>
      <trkpt lat="42.505916770" lon="1.053515710">
        <ele>2172.70</ele>
        <time>2014-08-08T14:02:02Z</time>
      </trkpt>
      <trkpt lat="42.505993380" lon="1.053384280">
        <ele>2171.30</ele>
        <time>2014-08-08T14:02:04Z</time>
      </trkpt>
      <trkpt lat="42.506178950" lon="1.053190660">
        <ele>2169.80</ele>
        <time>2014-08-08T14:02:08Z</time>
      </trkpt>
      <trkpt lat="42.506289430" lon="1.052969290">
        <ele>2169.40</ele>
        <time>2014-08-08T14:02:12Z</time>
      </trkpt>
      <trkpt lat="42.506211220" lon="1.052896870">
        <ele>2170.30</ele>
        <time>2014-08-08T14:02:15Z</time>
      </trkpt>
      <trkpt lat="42.506183310" lon="1.052881540">
        <ele>2169.80</ele>
        <time>2014-08-08T14:02:19Z</time>
      </trkpt>
      <trkpt lat="42.506192360" lon="1.052907520">
        <ele>2169.40</ele>
        <time>2014-08-08T14:02:37Z</time>
      </trkpt>
      <trkpt lat="42.506191360" lon="1.052905260">
        <ele>2170.80</ele>
        <time>2014-08-08T14:02:38Z</time>
      </trkpt>
      <trkpt lat="42.506208290" lon="1.052902150">
        <ele>2169.40</ele>
        <time>2014-08-08T14:02:44Z</time>
      </trkpt>
      <trkpt lat="42.506202090" lon="1.052910700">
        <ele>2170.80</ele>
        <time>2014-08-08T14:02:52Z</time>
      </trkpt>
      <trkpt lat="42.506201500" lon="1.052910960">
        <ele>2168.90</ele>
        <time>2014-08-08T14:02:54Z</time>
      </trkpt>
      <trkpt lat="42.506206860" lon="1.052907100">
        <ele>2168.90</ele>
        <time>2014-08-08T14:03:03Z</time>
      </trkpt>
      <trkpt lat="42.506204940" lon="1.052898050">
        <ele>2169.40</ele>
        <time>2014-08-08T14:03:11Z</time>
      </trkpt>
      <trkpt lat="42.506213070" lon="1.052901400">
        <ele>2167.90</ele>
        <time>2014-08-08T14:03:21Z</time>
      </trkpt>
      <trkpt lat="42.506182310" lon="1.052902070">
        <ele>2167.90</ele>
        <time>2014-08-08T14:03:28Z</time>
      </trkpt>
      <trkpt lat="42.506208790" lon="1.052913720">
        <ele>2167.90</ele>
        <time>2014-08-08T14:03:32Z</time>
      </trkpt>
      <trkpt lat="42.506010230" lon="1.052960580">
        <ele>2168.40</ele>
        <time>2014-08-08T14:03:41Z</time>
      </trkpt>
      <trkpt lat="42.505774530" lon="1.053034090">
        <ele>2167.90</ele>
        <time>2014-08-08T14:03:48Z</time>
      </trkpt>
      <trkpt lat="42.505624490" lon="1.053036430">
        <ele>2167.00</ele>
        <time>2014-08-08T14:03:56Z</time>
      </trkpt>
      <trkpt lat="42.505448220" lon="1.053075320">
        <ele>2165.50</ele>
        <time>2014-08-08T14:04:02Z</time>
      </trkpt>
      <trkpt lat="42.505217880" lon="1.053088070">
        <ele>2166.00</ele>
        <time>2014-08-08T14:04:08Z</time>
      </trkpt>
      <trkpt lat="42.504991820" lon="1.053064010">
        <ele>2164.10</ele>
        <time>2014-08-08T14:04:14Z</time>
      </trkpt>
      <trkpt lat="42.504803570" lon="1.053000640">
        <ele>2164.60</ele>
        <time>2014-08-08T14:04:19Z</time>
      </trkpt>
      <trkpt lat="42.504590000" lon="1.052688080">
        <ele>2164.10</ele>
        <time>2014-08-08T14:04:26Z</time>
      </trkpt>
      <trkpt lat="42.504553530" lon="1.052634690">
        <ele>2163.60</ele>
        <time>2014-08-08T14:04:27Z</time>
      </trkpt>
      <trkpt lat="42.504169310" lon="1.052343250">
        <ele>2161.70</ele>
        <time>2014-08-08T14:04:35Z</time>
      </trkpt>
      <trkpt lat="42.503886330" lon="1.052162280">
        <ele>2159.30</ele>
        <time>2014-08-08T14:04:41Z</time>
      </trkpt>
      <trkpt lat="42.503661280" lon="1.052112660">
        <ele>2158.30</ele>
        <time>2014-08-08T14:04:45Z</time>
      </trkpt>
      <trkpt lat="42.503214020" lon="1.052225480">
        <ele>2156.40</ele>
        <time>2014-08-08T14:04:54Z</time>
      </trkpt>
      <trkpt lat="42.502953680" lon="1.052188020">
        <ele>2155.90</ele>
        <time>2014-08-08T14:05:01Z</time>
      </trkpt>
      <trkpt lat="42.502873470" lon="1.052182320">
        <ele>2156.40</ele>
        <time>2014-08-08T14:05:03Z</time>
      </trkpt>
      <trkpt lat="42.502565770" lon="1.052075950">
        <ele>2156.90</ele>
        <time>2014-08-08T14:05:11Z</time>
      </trkpt>
      <trkpt lat="42.502525200" lon="1.052062710">
        <ele>2156.40</ele>
        <time>2014-08-08T14:05:12Z</time>
      </trkpt>
      <trkpt lat="42.502439450" lon="1.052045940">
        <ele>2156.40</ele>
        <time>2014-08-08T14:05:14Z</time>
      </trkpt>
      <trkpt lat="42.502055980" lon="1.052058260">
        <ele>2155.90</ele>
        <time>2014-08-08T14:05:23Z</time>
      </trkpt>
      <trkpt lat="42.501890440" lon="1.052094560">
        <ele>2156.40</ele>
        <time>2014-08-08T14:05:29Z</time>
      </trkpt>
      <trkpt lat="42.501856820" lon="1.052128500">
        <ele>2155.90</ele>
        <time>2014-08-08T14:05:33Z</time>
      </trkpt>
      <trkpt lat="42.501731770" lon="1.052114760">
        <ele>2156.40</ele>
        <time>2014-08-08T14:05:41Z</time>
      </trkpt>
      <trkpt lat="42.501531690" lon="1.052143340">
        <ele>2157.30</ele>
        <time>2014-08-08T14:05:48Z</time>
      </trkpt>
      <trkpt lat="42.501182080" lon="1.052115760">
        <ele>2157.30</ele>
        <time>2014-08-08T14:05:58Z</time>
      </trkpt>
      <trkpt lat="42.500869600" lon="1.052013760">
        <ele>2158.30</ele>
        <time>2014-08-08T14:06:07Z</time>
      </trkpt>
      <trkpt lat="42.500605830" lon="1.051874950">
        <ele>2159.70</ele>
        <time>2014-08-08T14:06:16Z</time>
      </trkpt>
      <trkpt lat="42.500409100" lon="1.051756010">
        <ele>2160.20</ele>
        <time>2014-08-08T14:06:24Z</time>
      </trkpt>
      <trkpt lat="42.500200310" lon="1.051598600">
        <ele>2161.70</ele>
        <time>2014-08-08T14:06:34Z</time>
      </trkpt>
      <trkpt lat="42.499996630" lon="1.051471450">
        <ele>2161.70</ele>
        <time>2014-08-08T14:06:44Z</time>
      </trkpt>
      <trkpt lat="42.499815500" lon="1.051329630">
        <ele>2162.10</ele>
        <time>2014-08-08T14:06:53Z</time>
      </trkpt>
      <trkpt lat="42.499558590" lon="1.051130720">
        <ele>2162.60</ele>
        <time>2014-08-08T14:07:05Z</time>
      </trkpt>
      <trkpt lat="42.499365720" lon="1.050948330">
        <ele>2163.10</ele>
        <time>2014-08-08T14:07:15Z</time>
      </trkpt>
      <trkpt lat="42.499243510" lon="1.050805590">
        <ele>2164.60</ele>
        <time>2014-08-08T14:07:22Z</time>
      </trkpt>
      <trkpt lat="42.499105970" lon="1.050637700">
        <ele>2164.60</ele>
        <time>2014-08-08T14:07:30Z</time>
      </trkpt>
      <trkpt lat="42.498939840" lon="1.050405690">
        <ele>2165.50</ele>
        <time>2014-08-08T14:07:41Z</time>
      </trkpt>
      <trkpt lat="42.498759210" lon="1.050132770">
        <ele>2166.50</ele>
        <time>2014-08-08T14:07:52Z</time>
      </trkpt>
      <trkpt lat="42.498570530" lon="1.049942760">
        <ele>2168.40</ele>
        <time>2014-08-08T14:08:02Z</time>
      </trkpt>
      <trkpt lat="42.498547480" lon="1.049923730">
        <ele>2167.90</ele>
        <time>2014-08-08T14:08:03Z</time>
      </trkpt>
      <trkpt lat="42.498478250" lon="1.049866560">
        <ele>2167.00</ele>
        <time>2014-08-08T14:08:06Z</time>
      </trkpt>
      <trkpt lat="42.498326950" lon="1.049626090">
        <ele>2167.40</ele>
        <time>2014-08-08T14:08:16Z</time>
      </trkpt>
      <trkpt lat="42.498228970" lon="1.049369010">
        <ele>2168.40</ele>
        <time>2014-08-08T14:08:25Z</time>
      </trkpt>
      <trkpt lat="42.498121350" lon="1.049167350">
        <ele>2167.40</ele>
        <time>2014-08-08T14:08:33Z</time>
      </trkpt>
      <trkpt lat="42.497949180" lon="1.049045140">
        <ele>2169.40</ele>
        <time>2014-08-08T14:08:41Z</time>
      </trkpt>
      <trkpt lat="42.497755890" lon="1.049102720">
        <ele>2169.40</ele>
        <time>2014-08-08T14:08:49Z</time>
      </trkpt>
      <trkpt lat="42.497518440" lon="1.049107160">
        <ele>2170.30</ele>
        <time>2014-08-08T14:08:58Z</time>
      </trkpt>
      <trkpt lat="42.497299160" lon="1.049060810">
        <ele>2170.30</ele>
        <time>2014-08-08T14:09:07Z</time>
      </trkpt>
      <trkpt lat="42.497077550" lon="1.048994180">
        <ele>2171.30</ele>
        <time>2014-08-08T14:09:16Z</time>
      </trkpt>
      <trkpt lat="42.496868330" lon="1.048895190">
        <ele>2174.20</ele>
        <time>2014-08-08T14:09:25Z</time>
      </trkpt>
      <trkpt lat="42.496847380" lon="1.048872640">
        <ele>2174.60</ele>
        <time>2014-08-08T14:09:26Z</time>
      </trkpt>
      <trkpt lat="42.496729610" lon="1.048605090">
        <ele>2174.20</ele>
        <time>2014-08-08T14:09:35Z</time>
      </trkpt>
      <trkpt lat="42.496633890" lon="1.048250790">
        <ele>2172.70</ele>
        <time>2014-08-08T14:09:45Z</time>
      </trkpt>
      <trkpt lat="42.496529540" lon="1.048023970">
        <ele>2171.80</ele>
        <time>2014-08-08T14:09:52Z</time>
      </trkpt>
      <trkpt lat="42.496362910" lon="1.047757430">
        <ele>2172.70</ele>
        <time>2014-08-08T14:10:01Z</time>
      </trkpt>
      <trkpt lat="42.496239940" lon="1.047412510">
        <ele>2172.20</ele>
        <time>2014-08-08T14:10:09Z</time>
      </trkpt>
      <trkpt lat="42.496030140" lon="1.047355010">
        <ele>2171.80</ele>
        <time>2014-08-08T14:10:15Z</time>
      </trkpt>
      <trkpt lat="42.495819170" lon="1.047345540">
        <ele>2172.70</ele>
        <time>2014-08-08T14:10:21Z</time>
      </trkpt>
      <trkpt lat="42.495732920" lon="1.047333220">
        <ele>2171.80</ele>
        <time>2014-08-08T14:10:23Z</time>
      </trkpt>
      <trkpt lat="42.495294630" lon="1.047390550">
        <ele>2170.80</ele>
        <time>2014-08-08T14:10:33Z</time>
      </trkpt>
      <trkpt lat="42.494879060" lon="1.047472020">
        <ele>2170.30</ele>
        <time>2014-08-08T14:10:44Z</time>
      </trkpt>
      <trkpt lat="42.494676380" lon="1.047521060">
        <ele>2170.80</ele>
        <time>2014-08-08T14:10:52Z</time>
      </trkpt>
      <trkpt lat="42.494508240" lon="1.047533710">
        <ele>2172.70</ele>
        <time>2014-08-08T14:10:59Z</time>
      </trkpt>
      <trkpt lat="42.494398520" lon="1.047502200">
        <ele>2173.20</ele>
        <time>2014-08-08T14:11:05Z</time>
      </trkpt>
      <trkpt lat="42.494226690" lon="1.047429110">
        <ele>2174.60</ele>
        <time>2014-08-08T14:11:14Z</time>
      </trkpt>
      <trkpt lat="42.494103560" lon="1.047287790">
        <ele>2176.10</ele>
        <time>2014-08-08T14:11:22Z</time>
      </trkpt>
      <trkpt lat="42.494064090" lon="1.047078070">
        <ele>2177.50</ele>
        <time>2014-08-08T14:11:31Z</time>
      </trkpt>
      <trkpt lat="42.494071130" lon="1.046845310">
        <ele>2178.50</ele>
        <time>2014-08-08T14:11:41Z</time>
      </trkpt>
      <trkpt lat="42.494070960" lon="1.046620670">
        <ele>2178.50</ele>
        <time>2014-08-08T14:11:51Z</time>
      </trkpt>
      <trkpt lat="42.494058890" lon="1.046514890">
        <ele>2179.00</ele>
        <time>2014-08-08T14:11:56Z</time>
      </trkpt>
      <trkpt lat="42.494046320" lon="1.046429900">
        <ele>2179.50</ele>
        <time>2014-08-08T14:12:00Z</time>
      </trkpt>
      <trkpt lat="42.494027460" lon="1.046323530">
        <ele>2179.50</ele>
        <time>2014-08-08T14:12:08Z</time>
      </trkpt>
      <trkpt lat="42.494035920" lon="1.046335020">
        <ele>2179.50</ele>
        <time>2014-08-08T14:12:25Z</time>
      </trkpt>
      <trkpt lat="42.494029470" lon="1.046322030">
        <ele>2179.50</ele>
        <time>2014-08-08T14:12:43Z</time>
      </trkpt>
      <trkpt lat="42.494031060" lon="1.046331500">
        <ele>2180.40</ele>
        <time>2014-08-08T14:12:57Z</time>
      </trkpt>
      <trkpt lat="42.494014630" lon="1.046314820">
        <ele>2179.90</ele>
        <time>2014-08-08T14:13:13Z</time>
      </trkpt>
      <trkpt lat="42.494015390" lon="1.046281540">
        <ele>2179.00</ele>
        <time>2014-08-08T14:13:35Z</time>
      </trkpt>
      <trkpt lat="42.493971380" lon="1.046134610">
        <ele>2179.90</ele>
        <time>2014-08-08T14:13:43Z</time>
      </trkpt>
      <trkpt lat="42.493871220" lon="1.045984490">
        <ele>2180.90</ele>
        <time>2014-08-08T14:13:52Z</time>
      </trkpt>
      <trkpt lat="42.493797370" lon="1.045801930">
        <ele>2182.80</ele>
        <time>2014-08-08T14:14:01Z</time>
      </trkpt>
      <trkpt lat="42.493758900" lon="1.045612750">
        <ele>2182.80</ele>
        <time>2014-08-08T14:14:10Z</time>
      </trkpt>
      <trkpt lat="42.493697130" lon="1.045446700">
        <ele>2183.30</ele>
        <time>2014-08-08T14:14:18Z</time>
      </trkpt>
      <trkpt lat="42.493596540" lon="1.045319970">
        <ele>2184.70</ele>
        <time>2014-08-08T14:14:26Z</time>
      </trkpt>
      <trkpt lat="42.493495540" lon="1.045182000">
        <ele>2185.20</ele>
        <time>2014-08-08T14:14:34Z</time>
      </trkpt>
      <trkpt lat="42.493393030" lon="1.045025010">
        <ele>2186.20</ele>
        <time>2014-08-08T14:14:42Z</time>
      </trkpt>
      <trkpt lat="42.493323380" lon="1.044861560">
        <ele>2186.20</ele>
        <time>2014-08-08T14:14:50Z</time>
      </trkpt>
      <trkpt lat="42.493230590" lon="1.044658890">
        <ele>2187.10</ele>
        <time>2014-08-08T14:15:00Z</time>
      </trkpt>
      <trkpt lat="42.493174350" lon="1.044483790">
        <ele>2188.10</ele>
        <time>2014-08-08T14:15:09Z</time>
      </trkpt>
      <trkpt lat="42.493154310" lon="1.044286730">
        <ele>2188.10</ele>
        <time>2014-08-08T14:15:18Z</time>
      </trkpt>
      <trkpt lat="42.493066720" lon="1.044067290">
        <ele>2190.50</ele>
        <time>2014-08-08T14:15:30Z</time>
      </trkpt>
      <trkpt lat="42.493046350" lon="1.044035020">
        <ele>2191.00</ele>
        <time>2014-08-08T14:15:32Z</time>
      </trkpt>
      <trkpt lat="42.492976780" lon="1.043913490">
        <ele>2191.90</ele>
        <time>2014-08-08T14:15:40Z</time>
      </trkpt>
      <trkpt lat="42.492910060" lon="1.043791030">
        <ele>2192.40</ele>
        <time>2014-08-08T14:15:48Z</time>
      </trkpt>
      <trkpt lat="42.492847030" lon="1.043634030">
        <ele>2193.90</ele>
        <time>2014-08-08T14:15:57Z</time>
      </trkpt>
      <trkpt lat="42.492780480" lon="1.043482150">
        <ele>2194.80</ele>
        <time>2014-08-08T14:16:06Z</time>
      </trkpt>
      <trkpt lat="42.492749220" lon="1.043360620">
        <ele>2195.80</ele>
        <time>2014-08-08T14:16:14Z</time>
      </trkpt>
      <trkpt lat="42.492724910" lon="1.043358600">
        <ele>2195.30</ele>
        <time>2014-08-08T14:16:24Z</time>
      </trkpt>
      <trkpt lat="42.492738740" lon="1.043332950">
        <ele>2195.80</ele>
        <time>2014-08-08T14:16:44Z</time>
      </trkpt>
      <trkpt lat="42.492733460" lon="1.043332870">
        <ele>2195.80</ele>
        <time>2014-08-08T14:17:03Z</time>
      </trkpt>
      <trkpt lat="42.492724570" lon="1.043357930">
        <ele>2195.30</ele>
        <time>2014-08-08T14:17:12Z</time>
      </trkpt>
      <trkpt lat="42.492695400" lon="1.043229100">
        <ele>2194.80</ele>
        <time>2014-08-08T14:17:19Z</time>
      </trkpt>
      <trkpt lat="42.492617540" lon="1.043132880">
        <ele>2195.80</ele>
        <time>2014-08-08T14:17:26Z</time>
      </trkpt>
      <trkpt lat="42.492459790" lon="1.042949320">
        <ele>2196.30</ele>
        <time>2014-08-08T14:17:37Z</time>
      </trkpt>
      <trkpt lat="42.492398430" lon="1.042743620">
        <ele>2196.80</ele>
        <time>2014-08-08T14:17:45Z</time>
      </trkpt>
      <trkpt lat="42.492338590" lon="1.042580260">
        <ele>2197.20</ele>
        <time>2014-08-08T14:17:51Z</time>
      </trkpt>
      <trkpt lat="42.492237500" lon="1.042572300">
        <ele>2198.70</ele>
        <time>2014-08-08T14:17:56Z</time>
      </trkpt>
      <trkpt lat="42.492072290" lon="1.042702130">
        <ele>2199.20</ele>
        <time>2014-08-08T14:18:05Z</time>
      </trkpt>
      <trkpt lat="42.492006080" lon="1.042728370">
        <ele>2200.10</ele>
        <time>2014-08-08T14:18:08Z</time>
      </trkpt>
      <trkpt lat="42.491851510" lon="1.042716800">
        <ele>2200.10</ele>
        <time>2014-08-08T14:18:15Z</time>
      </trkpt>
      <trkpt lat="42.491757800" lon="1.042561570">
        <ele>2201.10</ele>
        <time>2014-08-08T14:18:22Z</time>
      </trkpt>
      <trkpt lat="42.491767780" lon="1.042349420">
        <ele>2200.60</ele>
        <time>2014-08-08T14:18:30Z</time>
      </trkpt>
      <trkpt lat="42.491733920" lon="1.042154710">
        <ele>2202.00</ele>
        <time>2014-08-08T14:18:38Z</time>
      </trkpt>
      <trkpt lat="42.491694350" lon="1.041966960">
        <ele>2203.00</ele>
        <time>2014-08-08T14:18:46Z</time>
      </trkpt>
      <trkpt lat="42.491643890" lon="1.041738630">
        <ele>2204.40</ele>
        <time>2014-08-08T14:18:54Z</time>
      </trkpt>
      <trkpt lat="42.491606260" lon="1.041524890">
        <ele>2204.90</ele>
        <time>2014-08-08T14:19:02Z</time>
      </trkpt>
      <trkpt lat="42.491559240" lon="1.041198000">
        <ele>2206.80</ele>
        <time>2014-08-08T14:19:15Z</time>
      </trkpt>
      <trkpt lat="42.491573740" lon="1.040907480">
        <ele>2207.30</ele>
        <time>2014-08-08T14:19:28Z</time>
      </trkpt>
      <trkpt lat="42.491602660" lon="1.040815200">
        <ele>2207.30</ele>
        <time>2014-08-08T14:19:36Z</time>
      </trkpt>
      <trkpt lat="42.491576080" lon="1.040844620">
        <ele>2207.80</ele>
        <time>2014-08-08T14:19:50Z</time>
      </trkpt>
      <trkpt lat="42.491558230" lon="1.040841520">
        <ele>2207.30</ele>
        <time>2014-08-08T14:20:00Z</time>
      </trkpt>
      <trkpt lat="42.491596620" lon="1.040626440">
        <ele>2208.30</ele>
        <time>2014-08-08T14:20:09Z</time>
      </trkpt>
      <trkpt lat="42.491598130" lon="1.040391410">
        <ele>2208.80</ele>
        <time>2014-08-08T14:20:17Z</time>
      </trkpt>
      <trkpt lat="42.491636270" lon="1.040119500">
        <ele>2210.20</ele>
        <time>2014-08-08T14:20:27Z</time>
      </trkpt>
      <trkpt lat="42.491719670" lon="1.039806440">
        <ele>2209.70</ele>
        <time>2014-08-08T14:20:37Z</time>
      </trkpt>
      <trkpt lat="42.491664850" lon="1.039682220">
        <ele>2210.70</ele>
        <time>2014-08-08T14:20:41Z</time>
      </trkpt>
      <trkpt lat="42.491452280" lon="1.039518430">
        <ele>2211.20</ele>
        <time>2014-08-08T14:20:49Z</time>
      </trkpt>
      <trkpt lat="42.491179790" lon="1.039324640">
        <ele>2212.60</ele>
        <time>2014-08-08T14:20:59Z</time>
      </trkpt>
      <trkpt lat="42.491128240" lon="1.039288100">
        <ele>2212.60</ele>
        <time>2014-08-08T14:21:01Z</time>
      </trkpt>
      <trkpt lat="42.490934280" lon="1.039338220">
        <ele>2211.70</ele>
        <time>2014-08-08T14:21:07Z</time>
      </trkpt>
      <trkpt lat="42.490698580" lon="1.039417600">
        <ele>2212.60</ele>
        <time>2014-08-08T14:21:15Z</time>
      </trkpt>
      <trkpt lat="42.490444030" lon="1.039442330">
        <ele>2212.60</ele>
        <time>2014-08-08T14:21:23Z</time>
      </trkpt>
      <trkpt lat="42.490286780" lon="1.039440820">
        <ele>2213.10</ele>
        <time>2014-08-08T14:21:27Z</time>
      </trkpt>
      <trkpt lat="42.489909760" lon="1.039488090">
        <ele>2213.60</ele>
        <time>2014-08-08T14:21:37Z</time>
      </trkpt>
      <trkpt lat="42.489605080" lon="1.039476610">
        <ele>2214.10</ele>
        <time>2014-08-08T14:21:46Z</time>
      </trkpt>
      <trkpt lat="42.489347170" lon="1.039357590">
        <ele>2214.50</ele>
        <time>2014-08-08T14:21:55Z</time>
      </trkpt>
      <trkpt lat="42.489136030" lon="1.039041590">
        <ele>2214.10</ele>
        <time>2014-08-08T14:22:04Z</time>
      </trkpt>
      <trkpt lat="42.488959420" lon="1.038800860">
        <ele>2213.60</ele>
        <time>2014-08-08T14:22:12Z</time>
      </trkpt>
      <trkpt lat="42.488744510" lon="1.038578820">
        <ele>2212.60</ele>
        <time>2014-08-08T14:22:21Z</time>
      </trkpt>
      <trkpt lat="42.488542170" lon="1.038375310">
        <ele>2213.60</ele>
        <time>2014-08-08T14:22:30Z</time>
      </trkpt>
      <trkpt lat="42.488449890" lon="1.038315880">
        <ele>2213.10</ele>
        <time>2014-08-08T14:22:36Z</time>
      </trkpt>
      <trkpt lat="42.488430940" lon="1.038319990">
        <ele>2213.10</ele>
        <time>2014-08-08T14:22:51Z</time>
      </trkpt>
      <trkpt lat="42.488437310" lon="1.038308840">
        <ele>2212.10</ele>
        <time>2014-08-08T14:23:03Z</time>
      </trkpt>
      <trkpt lat="42.488302870" lon="1.038168280">
        <ele>2212.60</ele>
        <time>2014-08-08T14:23:11Z</time>
      </trkpt>
      <trkpt lat="42.488119890" lon="1.037958650">
        <ele>2213.60</ele>
        <time>2014-08-08T14:23:19Z</time>
      </trkpt>
      <trkpt lat="42.487872790" lon="1.037758820">
        <ele>2215.00</ele>
        <time>2014-08-08T14:23:28Z</time>
      </trkpt>
      <trkpt lat="42.487659470" lon="1.037555310">
        <ele>2215.50</ele>
        <time>2014-08-08T14:23:36Z</time>
      </trkpt>
      <trkpt lat="42.487418490" lon="1.037376100">
        <ele>2215.50</ele>
        <time>2014-08-08T14:23:45Z</time>
      </trkpt>
      <trkpt lat="42.487281700" lon="1.037195640">
        <ele>2215.50</ele>
        <time>2014-08-08T14:23:51Z</time>
      </trkpt>
      <trkpt lat="42.487129150" lon="1.036968240">
        <ele>2215.50</ele>
        <time>2014-08-08T14:23:57Z</time>
      </trkpt>
      <trkpt lat="42.486890430" lon="1.036613350">
        <ele>2214.10</ele>
        <time>2014-08-08T14:24:06Z</time>
      </trkpt>
      <trkpt lat="42.486757080" lon="1.036522910">
        <ele>2213.60</ele>
        <time>2014-08-08T14:24:10Z</time>
      </trkpt>
      <trkpt lat="42.486604530" lon="1.036580330">
        <ele>2212.10</ele>
        <time>2014-08-08T14:24:14Z</time>
      </trkpt>
      <trkpt lat="42.486351140" lon="1.036733880">
        <ele>2211.20</ele>
        <time>2014-08-08T14:24:19Z</time>
      </trkpt>
      <trkpt lat="42.486159030" lon="1.036767490">
        <ele>2209.70</ele>
        <time>2014-08-08T14:24:22Z</time>
      </trkpt>
      <trkpt lat="42.485971530" lon="1.036756770">
        <ele>2209.70</ele>
        <time>2014-08-08T14:24:25Z</time>
      </trkpt>
      <trkpt lat="42.485731300" lon="1.036653330">
        <ele>2208.30</ele>
        <time>2014-08-08T14:24:30Z</time>
      </trkpt>
      <trkpt lat="42.485622000" lon="1.036548730">
        <ele>2207.30</ele>
        <time>2014-08-08T14:24:35Z</time>
      </trkpt>
      <trkpt lat="42.485626360" lon="1.036545880">
        <ele>2206.80</ele>
        <time>2014-08-08T14:24:45Z</time>
      </trkpt>
      <trkpt lat="42.485637840" lon="1.036543860">
        <ele>2206.40</ele>
        <time>2014-08-08T14:25:05Z</time>
      </trkpt>
      <trkpt lat="42.485645640" lon="1.036547470">
        <ele>2206.40</ele>
        <time>2014-08-08T14:25:21Z</time>
      </trkpt>
      <trkpt lat="42.485654100" lon="1.036549730">
        <ele>2207.30</ele>
        <time>2014-08-08T14:25:37Z</time>
      </trkpt>
      <trkpt lat="42.485654520" lon="1.036554930">
        <ele>2206.80</ele>
        <time>2014-08-08T14:25:40Z</time>
      </trkpt>
      <trkpt lat="42.485640860" lon="1.036536820">
        <ele>2206.40</ele>
        <time>2014-08-08T14:25:42Z</time>
      </trkpt>
      <trkpt lat="42.485610350" lon="1.036489720">
        <ele>2205.90</ele>
        <time>2014-08-08T14:25:45Z</time>
      </trkpt>
      <trkpt lat="42.485520580" lon="1.036298950">
        <ele>2204.40</ele>
        <time>2014-08-08T14:25:51Z</time>
      </trkpt>
      <trkpt lat="42.485502980" lon="1.036261230">
        <ele>2205.40</ele>
        <time>2014-08-08T14:25:52Z</time>
      </trkpt>
      <trkpt lat="42.485422760" lon="1.036167350">
        <ele>2204.40</ele>
        <time>2014-08-08T14:25:55Z</time>
      </trkpt>
      <trkpt lat="42.485207600" lon="1.036074560">
        <ele>2204.00</ele>
        <time>2014-08-08T14:26:00Z</time>
      </trkpt>
      <trkpt lat="42.485116740" lon="1.036017730">
        <ele>2204.40</ele>
        <time>2014-08-08T14:26:02Z</time>
      </trkpt>
      <trkpt lat="42.485028310" lon="1.035946910">
        <ele>2202.50</ele>
        <time>2014-08-08T14:26:04Z</time>
      </trkpt>
      <trkpt lat="42.484940890" lon="1.035893600">
        <ele>2202.00</ele>
        <time>2014-08-08T14:26:06Z</time>
      </trkpt>
      <trkpt lat="42.484626480" lon="1.035800470">
        <ele>2201.10</ele>
        <time>2014-08-08T14:26:12Z</time>
      </trkpt>
      <trkpt lat="42.484407550" lon="1.035759910">
        <ele>2200.10</ele>
        <time>2014-08-08T14:26:16Z</time>
      </trkpt>
      <trkpt lat="42.484259440" lon="1.035699140">
        <ele>2199.20</ele>
        <time>2014-08-08T14:26:19Z</time>
      </trkpt>
      <trkpt lat="42.483927350" lon="1.035624790">
        <ele>2197.20</ele>
        <time>2014-08-08T14:26:26Z</time>
      </trkpt>
      <trkpt lat="42.483786700" lon="1.035616240">
        <ele>2198.20</ele>
        <time>2014-08-08T14:26:29Z</time>
      </trkpt>
      <trkpt lat="42.483490900" lon="1.035547340">
        <ele>2197.20</ele>
        <time>2014-08-08T14:26:35Z</time>
      </trkpt>
      <trkpt lat="42.483117240" lon="1.035290020">
        <ele>2194.80</ele>
        <time>2014-08-08T14:26:42Z</time>
      </trkpt>
      <trkpt lat="42.482992180" lon="1.035228410">
        <ele>2193.40</ele>
        <time>2014-08-08T14:26:44Z</time>
      </trkpt>
      <trkpt lat="42.482705940" lon="1.035179960">
        <ele>2191.50</ele>
        <time>2014-08-08T14:26:48Z</time>
      </trkpt>
      <trkpt lat="42.482023310" lon="1.035157080">
        <ele>2190.00</ele>
        <time>2014-08-08T14:26:57Z</time>
      </trkpt>
      <trkpt lat="42.481675380" lon="1.034976530">
        <ele>2188.10</ele>
        <time>2014-08-08T14:27:02Z</time>
      </trkpt>
      <trkpt lat="42.481531460" lon="1.034934120">
        <ele>2186.70</ele>
        <time>2014-08-08T14:27:04Z</time>
      </trkpt>
      <trkpt lat="42.481311940" lon="1.034910320">
        <ele>2187.10</ele>
        <time>2014-08-08T14:27:07Z</time>
      </trkpt>
      <trkpt lat="42.480954700" lon="1.034828170">
        <ele>2182.30</ele>
        <time>2014-08-08T14:27:12Z</time>
      </trkpt>
      <trkpt lat="42.480560760" lon="1.034805120">
        <ele>2181.40</ele>
        <time>2014-08-08T14:27:18Z</time>
      </trkpt>
      <trkpt lat="42.480337460" lon="1.034759780">
        <ele>2178.50</ele>
        <time>2014-08-08T14:27:22Z</time>
      </trkpt>
      <trkpt lat="42.480052480" lon="1.034769420">
        <ele>2179.00</ele>
        <time>2014-08-08T14:27:28Z</time>
      </trkpt>
      <trkpt lat="42.479908310" lon="1.034727590">
        <ele>2178.00</ele>
        <time>2014-08-08T14:27:31Z</time>
      </trkpt>
      <trkpt lat="42.479621480" lon="1.034539840">
        <ele>2178.00</ele>
        <time>2014-08-08T14:27:38Z</time>
      </trkpt>
      <trkpt lat="42.479541770" lon="1.034492900">
        <ele>2177.00</ele>
        <time>2014-08-08T14:27:40Z</time>
      </trkpt>
      <trkpt lat="42.479457030" lon="1.034483010">
        <ele>2176.10</ele>
        <time>2014-08-08T14:27:42Z</time>
      </trkpt>
      <trkpt lat="42.479169690" lon="1.034445290">
        <ele>2177.00</ele>
        <time>2014-08-08T14:27:51Z</time>
      </trkpt>
      <trkpt lat="42.478805080" lon="1.034328530">
        <ele>2176.60</ele>
        <time>2014-08-08T14:28:01Z</time>
      </trkpt>
      <trkpt lat="42.478531330" lon="1.034256610">
        <ele>2176.10</ele>
        <time>2014-08-08T14:28:08Z</time>
      </trkpt>
      <trkpt lat="42.478256150" lon="1.034166170">
        <ele>2175.60</ele>
        <time>2014-08-08T14:28:16Z</time>
      </trkpt>
      <trkpt lat="42.477984330" lon="1.034044550">
        <ele>2175.60</ele>
        <time>2014-08-08T14:28:24Z</time>
      </trkpt>
      <trkpt lat="42.477671930" lon="1.033909180">
        <ele>2174.60</ele>
        <time>2014-08-08T14:28:31Z</time>
      </trkpt>
      <trkpt lat="42.477619550" lon="1.033894600">
        <ele>2174.60</ele>
        <time>2014-08-08T14:28:32Z</time>
      </trkpt>
      <trkpt lat="42.477467750" lon="1.033869030">
        <ele>2174.60</ele>
        <time>2014-08-08T14:28:35Z</time>
      </trkpt>
      <trkpt lat="42.477297260" lon="1.033711120">
        <ele>2177.50</ele>
        <time>2014-08-08T14:28:41Z</time>
      </trkpt>
      <trkpt lat="42.477264490" lon="1.033635510">
        <ele>2177.00</ele>
        <time>2014-08-08T14:28:44Z</time>
      </trkpt>
      <trkpt lat="42.477189470" lon="1.033323620">
        <ele>2176.10</ele>
        <time>2014-08-08T14:28:52Z</time>
      </trkpt>
      <trkpt lat="42.477176390" lon="1.033234350">
        <ele>2174.20</ele>
        <time>2014-08-08T14:28:54Z</time>
      </trkpt>
      <trkpt lat="42.477078410" lon="1.032948950">
        <ele>2173.20</ele>
        <time>2014-08-08T14:29:01Z</time>
      </trkpt>
      <trkpt lat="42.477063660" lon="1.032913910">
        <ele>2173.20</ele>
        <time>2014-08-08T14:29:02Z</time>
      </trkpt>
      <trkpt lat="42.476938770" lon="1.032680480">
        <ele>2173.70</ele>
        <time>2014-08-08T14:29:09Z</time>
      </trkpt>
      <trkpt lat="42.476909510" lon="1.032405720">
        <ele>2171.80</ele>
        <time>2014-08-08T14:29:14Z</time>
      </trkpt>
      <trkpt lat="42.476930550" lon="1.032208070">
        <ele>2169.80</ele>
        <time>2014-08-08T14:29:17Z</time>
      </trkpt>
      <trkpt lat="42.477106410" lon="1.031658640">
        <ele>2165.50</ele>
        <time>2014-08-08T14:29:26Z</time>
      </trkpt>
      <trkpt lat="42.477282010" lon="1.031291350">
        <ele>2164.10</ele>
        <time>2014-08-08T14:29:34Z</time>
      </trkpt>
      <trkpt lat="42.477383680" lon="1.031055900">
        <ele>2163.10</ele>
        <time>2014-08-08T14:29:40Z</time>
      </trkpt>
      <trkpt lat="42.477385770" lon="1.031044250">
        <ele>2163.10</ele>
        <time>2014-08-08T14:29:45Z</time>
      </trkpt>
      <trkpt lat="42.477366240" lon="1.031042070">
        <ele>2163.10</ele>
        <time>2014-08-08T14:30:00Z</time>
      </trkpt>
      <trkpt lat="42.477357690" lon="1.031044830">
        <ele>2162.60</ele>
        <time>2014-08-08T14:30:13Z</time>
      </trkpt>
      <trkpt lat="42.477354430" lon="1.031056900">
        <ele>2162.60</ele>
        <time>2014-08-08T14:30:33Z</time>
      </trkpt>
      <trkpt lat="42.477383590" lon="1.031020610">
        <ele>2163.10</ele>
        <time>2014-08-08T14:30:47Z</time>
      </trkpt>
      <trkpt lat="42.477390300" lon="1.031008200">
        <ele>2162.60</ele>
        <time>2014-08-08T14:30:55Z</time>
      </trkpt>
      <trkpt lat="42.477397010" lon="1.031002420">
        <ele>2163.60</ele>
        <time>2014-08-08T14:31:09Z</time>
      </trkpt>
      <trkpt lat="42.477418380" lon="1.030955900">
        <ele>2162.60</ele>
        <time>2014-08-08T14:31:19Z</time>
      </trkpt>
      <trkpt lat="42.477537150" lon="1.030761940">
        <ele>2160.70</ele>
        <time>2014-08-08T14:31:26Z</time>
      </trkpt>
      <trkpt lat="42.477757090" lon="1.030399260">
        <ele>2161.70</ele>
        <time>2014-08-08T14:31:37Z</time>
      </trkpt>
      <trkpt lat="42.477927920" lon="1.030095250">
        <ele>2162.10</ele>
        <time>2014-08-08T14:31:46Z</time>
      </trkpt>
      <trkpt lat="42.478089770" lon="1.029784280">
        <ele>2161.70</ele>
        <time>2014-08-08T14:31:55Z</time>
      </trkpt>
      <trkpt lat="42.478219860" lon="1.029465260">
        <ele>2161.20</ele>
        <time>2014-08-08T14:32:03Z</time>
      </trkpt>
      <trkpt lat="42.478202840" lon="1.029252360">
        <ele>2160.20</ele>
        <time>2014-08-08T14:32:07Z</time>
      </trkpt>
      <trkpt lat="42.478213910" lon="1.029048430">
        <ele>2160.70</ele>
        <time>2014-08-08T14:32:10Z</time>
      </trkpt>
      <trkpt lat="42.478202420" lon="1.028857580">
        <ele>2159.30</ele>
        <time>2014-08-08T14:32:13Z</time>
      </trkpt>
      <trkpt lat="42.478195380" lon="1.028738390">
        <ele>2158.30</ele>
        <time>2014-08-08T14:32:15Z</time>
      </trkpt>
      <trkpt lat="42.478119440" lon="1.028424060">
        <ele>2158.80</ele>
        <time>2014-08-08T14:32:21Z</time>
      </trkpt>
      <trkpt lat="42.478016930" lon="1.027989460">
        <ele>2157.80</ele>
        <time>2014-08-08T14:32:28Z</time>
      </trkpt>
      <trkpt lat="42.478001680" lon="1.027846470">
        <ele>2158.30</ele>
        <time>2014-08-08T14:32:30Z</time>
      </trkpt>
      <trkpt lat="42.477967230" lon="1.027693580">
        <ele>2156.40</ele>
        <time>2014-08-08T14:32:32Z</time>
      </trkpt>
      <trkpt lat="42.477686430" lon="1.027111630">
        <ele>2154.90</ele>
        <time>2014-08-08T14:32:40Z</time>
      </trkpt>
      <trkpt lat="42.477486110" lon="1.026581550">
        <ele>2153.00</ele>
        <time>2014-08-08T14:32:47Z</time>
      </trkpt>
      <trkpt lat="42.477382670" lon="1.026072520">
        <ele>2151.60</ele>
        <time>2014-08-08T14:32:54Z</time>
      </trkpt>
      <trkpt lat="42.477315280" lon="1.025663650">
        <ele>2149.20</ele>
        <time>2014-08-08T14:33:00Z</time>
      </trkpt>
      <trkpt lat="42.477310760" lon="1.025621830">
        <ele>2149.70</ele>
        <time>2014-08-08T14:33:01Z</time>
      </trkpt>
      <trkpt lat="42.477278070" lon="1.025362830">
        <ele>2148.70</ele>
        <time>2014-08-08T14:33:08Z</time>
      </trkpt>
      <trkpt lat="42.477230540" lon="1.025067200">
        <ele>2148.70</ele>
        <time>2014-08-08T14:33:13Z</time>
      </trkpt>
      <trkpt lat="42.477101710" lon="1.024671400">
        <ele>2146.80</ele>
        <time>2014-08-08T14:33:19Z</time>
      </trkpt>
      <trkpt lat="42.477061140" lon="1.024334110">
        <ele>2145.80</ele>
        <time>2014-08-08T14:33:24Z</time>
      </trkpt>
      <trkpt lat="42.476994260" lon="1.024149960">
        <ele>2146.30</ele>
        <time>2014-08-08T14:33:27Z</time>
      </trkpt>
      <trkpt lat="42.476822680" lon="1.023859030">
        <ele>2144.80</ele>
        <time>2014-08-08T14:33:32Z</time>
      </trkpt>
      <trkpt lat="42.476703070" lon="1.023697680">
        <ele>2144.40</ele>
        <time>2014-08-08T14:33:35Z</time>
      </trkpt>
      <trkpt lat="42.476465440" lon="1.023640340">
        <ele>2143.40</ele>
        <time>2014-08-08T14:33:39Z</time>
      </trkpt>
      <trkpt lat="42.476331750" lon="1.023672030">
        <ele>2143.40</ele>
        <time>2014-08-08T14:33:41Z</time>
      </trkpt>
      <trkpt lat="42.476067550" lon="1.023669600">
        <ele>2142.00</ele>
        <time>2014-08-08T14:33:45Z</time>
      </trkpt>
      <trkpt lat="42.475764550" lon="1.023560130">
        <ele>2140.50</ele>
        <time>2014-08-08T14:33:50Z</time>
      </trkpt>
      <trkpt lat="42.475361380" lon="1.023297940">
        <ele>2138.60</ele>
        <time>2014-08-08T14:33:56Z</time>
      </trkpt>
      <trkpt lat="42.475140010" lon="1.023193590">
        <ele>2137.60</ele>
        <time>2014-08-08T14:33:59Z</time>
      </trkpt>
      <trkpt lat="42.474830380" lon="1.023058470">
        <ele>2138.10</ele>
        <time>2014-08-08T14:34:03Z</time>
      </trkpt>
      <trkpt lat="42.474532070" lon="1.023072810">
        <ele>2134.30</ele>
        <time>2014-08-08T14:34:07Z</time>
      </trkpt>
      <trkpt lat="42.474260750" lon="1.023142630">
        <ele>2133.30</ele>
        <time>2014-08-08T14:34:11Z</time>
      </trkpt>
      <trkpt lat="42.473956910" lon="1.023179340">
        <ele>2132.80</ele>
        <time>2014-08-08T14:34:16Z</time>
      </trkpt>
      <trkpt lat="42.473530520" lon="1.023225860">
        <ele>2130.90</ele>
        <time>2014-08-08T14:34:23Z</time>
      </trkpt>
      <trkpt lat="42.473259030" lon="1.023270620">
        <ele>2129.50</ele>
        <time>2014-08-08T14:34:29Z</time>
      </trkpt>
      <trkpt lat="42.472993150" lon="1.023303640">
        <ele>2129.00</ele>
        <time>2014-08-08T14:34:37Z</time>
      </trkpt>
      <trkpt lat="42.472903470" lon="1.023328120">
        <ele>2128.50</ele>
        <time>2014-08-08T14:34:43Z</time>
      </trkpt>
      <trkpt lat="42.472800450" lon="1.023367850">
        <ele>2128.50</ele>
        <time>2014-08-08T14:34:50Z</time>
      </trkpt>
      <trkpt lat="42.472622250" lon="1.023358880">
        <ele>2127.10</ele>
        <time>2014-08-08T14:34:56Z</time>
      </trkpt>
      <trkpt lat="42.472394100" lon="1.023367600">
        <ele>2128.00</ele>
        <time>2014-08-08T14:35:03Z</time>
      </trkpt>
      <trkpt lat="42.472137190" lon="1.023336330">
        <ele>2126.10</ele>
        <time>2014-08-08T14:35:10Z</time>
      </trkpt>
      <trkpt lat="42.471947600" lon="1.023286800">
        <ele>2125.10</ele>
        <time>2014-08-08T14:35:15Z</time>
      </trkpt>
      <trkpt lat="42.471701840" lon="1.023133320">
        <ele>2124.20</ele>
        <time>2014-08-08T14:35:21Z</time>
      </trkpt>
      <trkpt lat="42.471342420" lon="1.022993930">
        <ele>2123.20</ele>
        <time>2014-08-08T14:35:30Z</time>
      </trkpt>
      <trkpt lat="42.471094070" lon="1.022903830">
        <ele>2121.80</ele>
        <time>2014-08-08T14:35:36Z</time>
      </trkpt>
      <trkpt lat="42.470790220" lon="1.022717830">
        <ele>2121.30</ele>
        <time>2014-08-08T14:35:44Z</time>
      </trkpt>
      <trkpt lat="42.470722410" lon="1.022677010">
        <ele>2120.80</ele>
        <time>2014-08-08T14:35:48Z</time>
      </trkpt>
      <trkpt lat="42.470736330" lon="1.022688080">
        <ele>2120.30</ele>
        <time>2014-08-08T14:36:00Z</time>
      </trkpt>
      <trkpt lat="42.470749320" lon="1.022686900">
        <ele>2119.40</ele>
        <time>2014-08-08T14:36:19Z</time>
      </trkpt>
      <trkpt lat="42.470753840" lon="1.022684810">
        <ele>2119.80</ele>
        <time>2014-08-08T14:36:32Z</time>
      </trkpt>
      <trkpt lat="42.470760470" lon="1.022681370">
        <ele>2119.40</ele>
        <time>2014-08-08T14:36:46Z</time>
      </trkpt>
      <trkpt lat="42.470760380" lon="1.022700230">
        <ele>2119.40</ele>
        <time>2014-08-08T14:37:00Z</time>
      </trkpt>
      <trkpt lat="42.470706150" lon="1.022660750">
        <ele>2119.40</ele>
        <time>2014-08-08T14:37:09Z</time>
      </trkpt>
      <trkpt lat="42.470584200" lon="1.022578020">
        <ele>2118.90</ele>
        <time>2014-08-08T14:37:13Z</time>
      </trkpt>
      <trkpt lat="42.470490070" lon="1.022468640">
        <ele>2119.40</ele>
        <time>2014-08-08T14:37:16Z</time>
      </trkpt>
      <trkpt lat="42.470416560" lon="1.022321790">
        <ele>2119.40</ele>
        <time>2014-08-08T14:37:19Z</time>
      </trkpt>
      <trkpt lat="42.470273140" lon="1.022036720">
        <ele>2117.40</ele>
        <time>2014-08-08T14:37:24Z</time>
      </trkpt>
      <trkpt lat="42.470020850" lon="1.021824150">
        <ele>2116.50</ele>
        <time>2014-08-08T14:37:30Z</time>
      </trkpt>
      <trkpt lat="42.469801070" lon="1.021642940">
        <ele>2116.50</ele>
        <time>2014-08-08T14:37:35Z</time>
      </trkpt>
      <trkpt lat="42.469698650" lon="1.021611590">
        <ele>2116.00</ele>
        <time>2014-08-08T14:37:37Z</time>
      </trkpt>
      <trkpt lat="42.469512320" lon="1.021508070">
        <ele>2116.00</ele>
        <time>2014-08-08T14:37:41Z</time>
      </trkpt>
      <trkpt lat="42.469404690" lon="1.021385030">
        <ele>2116.00</ele>
        <time>2014-08-08T14:37:44Z</time>
      </trkpt>
      <trkpt lat="42.469157090" lon="1.021283860">
        <ele>2113.10</ele>
        <time>2014-08-08T14:37:49Z</time>
      </trkpt>
      <trkpt lat="42.468916200" lon="1.021318560">
        <ele>2113.10</ele>
        <time>2014-08-08T14:37:53Z</time>
      </trkpt>
      <trkpt lat="42.468487040" lon="1.021289390">
        <ele>2111.70</ele>
        <time>2014-08-08T14:38:00Z</time>
      </trkpt>
      <trkpt lat="42.468259310" lon="1.021357870">
        <ele>2112.20</ele>
        <time>2014-08-08T14:38:04Z</time>
      </trkpt>
      <trkpt lat="42.468156800" lon="1.021420980">
        <ele>2111.70</ele>
        <time>2014-08-08T14:38:06Z</time>
      </trkpt>
      <trkpt lat="42.467883630" lon="1.021491560">
        <ele>2110.70</ele>
        <time>2014-08-08T14:38:11Z</time>
      </trkpt>
      <trkpt lat="42.467442830" lon="1.021420900">
        <ele>2109.80</ele>
        <time>2014-08-08T14:38:19Z</time>
      </trkpt>
      <trkpt lat="42.467332440" lon="1.021415200">
        <ele>2110.70</ele>
        <time>2014-08-08T14:38:21Z</time>
      </trkpt>
      <trkpt lat="42.467068910" lon="1.021372200">
        <ele>2109.80</ele>
        <time>2014-08-08T14:38:26Z</time>
      </trkpt>
      <trkpt lat="42.466770600" lon="1.021420400">
        <ele>2110.20</ele>
        <time>2014-08-08T14:38:33Z</time>
      </trkpt>
      <trkpt lat="42.466464740" lon="1.021373540">
        <ele>2110.20</ele>
        <time>2014-08-08T14:38:43Z</time>
      </trkpt>
      <trkpt lat="42.466258800" lon="1.021325090">
        <ele>2111.20</ele>
        <time>2014-08-08T14:38:51Z</time>
      </trkpt>
      <trkpt lat="42.466092580" lon="1.021315870">
        <ele>2111.70</ele>
        <time>2014-08-08T14:38:57Z</time>
      </trkpt>
      <trkpt lat="42.465781780" lon="1.021246810">
        <ele>2111.20</ele>
        <time>2014-08-08T14:39:08Z</time>
      </trkpt>
      <trkpt lat="42.465574160" lon="1.021127370">
        <ele>2112.20</ele>
        <time>2014-08-08T14:39:15Z</time>
      </trkpt>
      <trkpt lat="42.465483720" lon="1.021024440">
        <ele>2112.20</ele>
        <time>2014-08-08T14:39:18Z</time>
      </trkpt>
      <trkpt lat="42.465367630" lon="1.020855120">
        <ele>2112.60</ele>
        <time>2014-08-08T14:39:22Z</time>
      </trkpt>
      <trkpt lat="42.465172080" lon="1.020721010">
        <ele>2113.10</ele>
        <time>2014-08-08T14:39:28Z</time>
      </trkpt>
      <trkpt lat="42.464925240" lon="1.020659740">
        <ele>2112.20</ele>
        <time>2014-08-08T14:39:35Z</time>
      </trkpt>
      <trkpt lat="42.464724570" lon="1.020848160">
        <ele>2111.70</ele>
        <time>2014-08-08T14:39:41Z</time>
      </trkpt>
      <trkpt lat="42.464542270" lon="1.020994510">
        <ele>2112.20</ele>
        <time>2014-08-08T14:39:46Z</time>
      </trkpt>
      <trkpt lat="42.464477220" lon="1.021057460">
        <ele>2113.10</ele>
        <time>2014-08-08T14:39:48Z</time>
      </trkpt>
      <trkpt lat="42.464337500" lon="1.021242530">
        <ele>2111.70</ele>
        <time>2014-08-08T14:39:54Z</time>
      </trkpt>
      <trkpt lat="42.464119820" lon="1.021327780">
        <ele>2111.20</ele>
        <time>2014-08-08T14:40:01Z</time>
      </trkpt>
      <trkpt lat="42.463878090" lon="1.021335150">
        <ele>2112.20</ele>
        <time>2014-08-08T14:40:09Z</time>
      </trkpt>
      <trkpt lat="42.463688650" lon="1.021337750">
        <ele>2110.70</ele>
        <time>2014-08-08T14:40:15Z</time>
      </trkpt>
      <trkpt lat="42.463436280" lon="1.021357110">
        <ele>2111.20</ele>
        <time>2014-08-08T14:40:22Z</time>
      </trkpt>
      <trkpt lat="42.463233270" lon="1.021418720">
        <ele>2107.80</ele>
        <time>2014-08-08T14:40:27Z</time>
      </trkpt>
      <trkpt lat="42.463049530" lon="1.021483510">
        <ele>2111.20</ele>
        <time>2014-08-08T14:40:31Z</time>
      </trkpt>
      <trkpt lat="42.462688780" lon="1.021669000">
        <ele>2111.20</ele>
        <time>2014-08-08T14:40:40Z</time>
      </trkpt>
      <trkpt lat="42.462381330" lon="1.021836730">
        <ele>2112.20</ele>
        <time>2014-08-08T14:40:49Z</time>
      </trkpt>
      <trkpt lat="42.462165750" lon="1.021838230">
        <ele>2111.70</ele>
        <time>2014-08-08T14:40:56Z</time>
      </trkpt>
      <trkpt lat="42.461958710" lon="1.021797830">
        <ele>2111.70</ele>
        <time>2014-08-08T14:41:02Z</time>
      </trkpt>
      <trkpt lat="42.461761910" lon="1.021683170">
        <ele>2112.20</ele>
        <time>2014-08-08T14:41:07Z</time>
      </trkpt>
      <trkpt lat="42.461419170" lon="1.021671520">
        <ele>2111.20</ele>
        <time>2014-08-08T14:41:14Z</time>
      </trkpt>
      <trkpt lat="42.461048020" lon="1.021715520">
        <ele>2111.70</ele>
        <time>2014-08-08T14:41:21Z</time>
      </trkpt>
      <trkpt lat="42.460693880" lon="1.021864890">
        <ele>2111.20</ele>
        <time>2014-08-08T14:41:29Z</time>
      </trkpt>
      <trkpt lat="42.460483670" lon="1.021963130">
        <ele>2111.20</ele>
        <time>2014-08-08T14:41:35Z</time>
      </trkpt>
      <trkpt lat="42.460222650" lon="1.022198990">
        <ele>2110.70</ele>
        <time>2014-08-08T14:41:43Z</time>
      </trkpt>
      <trkpt lat="42.460019480" lon="1.022423460">
        <ele>2110.70</ele>
        <time>2014-08-08T14:41:50Z</time>
      </trkpt>
      <trkpt lat="42.459823260" lon="1.022593440">
        <ele>2110.20</ele>
        <time>2014-08-08T14:41:57Z</time>
      </trkpt>
      <trkpt lat="42.459767100" lon="1.022641390">
        <ele>2108.80</ele>
        <time>2014-08-08T14:41:59Z</time>
      </trkpt>
      <trkpt lat="42.459673890" lon="1.022715400">
        <ele>2110.70</ele>
        <time>2014-08-08T14:42:02Z</time>
      </trkpt>
      <trkpt lat="42.459446410" lon="1.022956300">
        <ele>2111.70</ele>
        <time>2014-08-08T14:42:10Z</time>
      </trkpt>
      <trkpt lat="42.459318160" lon="1.023145900">
        <ele>2109.80</ele>
        <time>2014-08-08T14:42:15Z</time>
      </trkpt>
      <trkpt lat="42.459262930" lon="1.023226860">
        <ele>2109.80</ele>
        <time>2014-08-08T14:42:17Z</time>
      </trkpt>
      <trkpt lat="42.459215230" lon="1.023316470">
        <ele>2110.70</ele>
        <time>2014-08-08T14:42:19Z</time>
      </trkpt>
      <trkpt lat="42.458979700" lon="1.023643700">
        <ele>2111.70</ele>
        <time>2014-08-08T14:42:28Z</time>
      </trkpt>
      <trkpt lat="42.458793790" lon="1.023823150">
        <ele>2110.70</ele>
        <time>2014-08-08T14:42:35Z</time>
      </trkpt>
      <trkpt lat="42.458531610" lon="1.024127330">
        <ele>2110.70</ele>
        <time>2014-08-08T14:42:45Z</time>
      </trkpt>
      <trkpt lat="42.458462540" lon="1.024098830">
        <ele>2112.20</ele>
        <time>2014-08-08T14:42:50Z</time>
      </trkpt>
      <trkpt lat="42.458479970" lon="1.024045610">
        <ele>2112.60</ele>
        <time>2014-08-08T14:42:53Z</time>
      </trkpt>
      <trkpt lat="42.458572840" lon="1.023856930">
        <ele>2114.60</ele>
        <time>2014-08-08T14:43:03Z</time>
      </trkpt>
      <trkpt lat="42.458670580" lon="1.023730530">
        <ele>2117.00</ele>
        <time>2014-08-08T14:43:11Z</time>
      </trkpt>
      <trkpt lat="42.458728580" lon="1.023559210">
        <ele>2117.00</ele>
        <time>2014-08-08T14:43:20Z</time>
      </trkpt>
      <trkpt lat="42.458820860" lon="1.023400540">
        <ele>2117.90</ele>
        <time>2014-08-08T14:43:29Z</time>
      </trkpt>
      <trkpt lat="42.458886330" lon="1.023257290">
        <ele>2118.90</ele>
        <time>2014-08-08T14:43:37Z</time>
      </trkpt>
      <trkpt lat="42.458941310" lon="1.023117230">
        <ele>2120.30</ele>
        <time>2014-08-08T14:43:45Z</time>
      </trkpt>
      <trkpt lat="42.459006100" lon="1.022917660">
        <ele>2120.80</ele>
        <time>2014-08-08T14:43:55Z</time>
      </trkpt>
      <trkpt lat="42.459060250" lon="1.022733340">
        <ele>2122.30</ele>
        <time>2014-08-08T14:44:04Z</time>
      </trkpt>
      <trkpt lat="42.459137030" lon="1.022598220">
        <ele>2125.60</ele>
        <time>2014-08-08T14:44:11Z</time>
      </trkpt>
      <trkpt lat="42.459204500" lon="1.022460840">
        <ele>2125.10</ele>
        <time>2014-08-08T14:44:18Z</time>
      </trkpt>
      <trkpt lat="42.459259990" lon="1.022367470">
        <ele>2126.60</ele>
        <time>2014-08-08T14:44:23Z</time>
      </trkpt>
      <trkpt lat="42.459369960" lon="1.022140820">
        <ele>2125.10</ele>
        <time>2014-08-08T14:44:35Z</time>
      </trkpt>
      <trkpt lat="42.459467280" lon="1.021972760">
        <ele>2127.50</ele>
        <time>2014-08-08T14:44:44Z</time>
      </trkpt>
      <trkpt lat="42.459509940" lon="1.021917860">
        <ele>2126.60</ele>
        <time>2014-08-08T14:44:50Z</time>
      </trkpt>
      <trkpt lat="42.459510700" lon="1.021918030">
        <ele>2127.10</ele>
        <time>2014-08-08T14:45:08Z</time>
      </trkpt>
      <trkpt lat="42.459508600" lon="1.021920880">
        <ele>2126.60</ele>
        <time>2014-08-08T14:45:24Z</time>
      </trkpt>
      <trkpt lat="42.459554110" lon="1.021888530">
        <ele>2127.10</ele>
        <time>2014-08-08T14:45:30Z</time>
      </trkpt>
      <trkpt lat="42.459634580" lon="1.021792220">
        <ele>2127.10</ele>
        <time>2014-08-08T14:45:38Z</time>
      </trkpt>
      <trkpt lat="42.459630720" lon="1.021786350">
        <ele>2130.40</ele>
        <time>2014-08-08T14:45:41Z</time>
      </trkpt>
      <trkpt lat="42.459632230" lon="1.021785600">
        <ele>2127.50</ele>
        <time>2014-08-08T14:45:45Z</time>
      </trkpt>
      <trkpt lat="42.459626700" lon="1.021784760">
        <ele>2128.00</ele>
        <time>2014-08-08T14:45:54Z</time>
      </trkpt>
      <trkpt lat="42.459655620" lon="1.021757850">
        <ele>2129.00</ele>
        <time>2014-08-08T14:46:02Z</time>
      </trkpt>
      <trkpt lat="42.459732310" lon="1.021640170">
        <ele>2129.50</ele>
        <time>2014-08-08T14:46:09Z</time>
      </trkpt>
      <trkpt lat="42.459779750" lon="1.021550820">
        <ele>2129.90</ele>
        <time>2014-08-08T14:46:14Z</time>
      </trkpt>
      <trkpt lat="42.459845130" lon="1.021498940">
        <ele>2131.90</ele>
        <time>2014-08-08T14:46:18Z</time>
      </trkpt>
      <trkpt lat="42.459916040" lon="1.021349740">
        <ele>2131.40</ele>
        <time>2014-08-08T14:46:26Z</time>
      </trkpt>
      <trkpt lat="42.459940270" lon="1.021319900">
        <ele>2132.30</ele>
        <time>2014-08-08T14:46:28Z</time>
      </trkpt>
      <trkpt lat="42.460026270" lon="1.021210680">
        <ele>2132.30</ele>
        <time>2014-08-08T14:46:35Z</time>
      </trkpt>
      <trkpt lat="42.460142770" lon="1.021065760">
        <ele>2133.30</ele>
        <time>2014-08-08T14:46:44Z</time>
      </trkpt>
      <trkpt lat="42.460237150" lon="1.020943380">
        <ele>2134.70</ele>
        <time>2014-08-08T14:46:52Z</time>
      </trkpt>
      <trkpt lat="42.460362800" lon="1.020794350">
        <ele>2137.60</ele>
        <time>2014-08-08T14:47:01Z</time>
      </trkpt>
      <trkpt lat="42.460419800" lon="1.020782200">
        <ele>2139.10</ele>
        <time>2014-08-08T14:47:04Z</time>
      </trkpt>
      <trkpt lat="42.460594890" lon="1.020717910">
        <ele>2138.60</ele>
        <time>2014-08-08T14:47:14Z</time>
      </trkpt>
      <trkpt lat="42.460642080" lon="1.020678430">
        <ele>2137.20</ele>
        <time>2014-08-08T14:47:17Z</time>
      </trkpt>
      <trkpt lat="42.460771330" lon="1.020606350">
        <ele>2140.50</ele>
        <time>2014-08-08T14:47:25Z</time>
      </trkpt>
      <trkpt lat="42.460805200" lon="1.020594280">
        <ele>2142.00</ele>
        <time>2014-08-08T14:47:27Z</time>
      </trkpt>
      <trkpt lat="42.460954810" lon="1.020560750">
        <ele>2143.40</ele>
        <time>2014-08-08T14:47:35Z</time>
      </trkpt>
      <trkpt lat="42.461022870" lon="1.020541220">
        <ele>2140.50</ele>
        <time>2014-08-08T14:47:39Z</time>
      </trkpt>
      <trkpt lat="42.461160920" lon="1.020525540">
        <ele>2144.40</ele>
        <time>2014-08-08T14:47:47Z</time>
      </trkpt>
      <trkpt lat="42.461193110" lon="1.020517410">
        <ele>2145.30</ele>
        <time>2014-08-08T14:47:49Z</time>
      </trkpt>
      <trkpt lat="42.461264190" lon="1.020483890">
        <ele>2146.30</ele>
        <time>2014-08-08T14:47:54Z</time>
      </trkpt>
      <trkpt lat="42.461374240" lon="1.020408700">
        <ele>2145.30</ele>
        <time>2014-08-08T14:48:01Z</time>
      </trkpt>
      <trkpt lat="42.461497290" lon="1.020334860">
        <ele>2147.70</ele>
        <time>2014-08-08T14:48:09Z</time>
      </trkpt>
      <trkpt lat="42.461544230" lon="1.020305860">
        <ele>2150.10</ele>
        <time>2014-08-08T14:48:12Z</time>
      </trkpt>
      <trkpt lat="42.461653780" lon="1.020238550">
        <ele>2150.60</ele>
        <time>2014-08-08T14:48:19Z</time>
      </trkpt>
      <trkpt lat="42.461696950" lon="1.020211140">
        <ele>2148.70</ele>
        <time>2014-08-08T14:48:22Z</time>
      </trkpt>
      <trkpt lat="42.461839360" lon="1.020102260">
        <ele>2150.60</ele>
        <time>2014-08-08T14:48:31Z</time>
      </trkpt>
      <trkpt lat="42.462031380" lon="1.019982400">
        <ele>2150.60</ele>
        <time>2014-08-08T14:48:42Z</time>
      </trkpt>
      <trkpt lat="42.462187120" lon="1.019910560">
        <ele>2151.10</ele>
        <time>2014-08-08T14:48:51Z</time>
      </trkpt>
      <trkpt lat="42.462356270" lon="1.019855580">
        <ele>2153.50</ele>
        <time>2014-08-08T14:49:01Z</time>
      </trkpt>
      <trkpt lat="42.462370520" lon="1.019842170">
        <ele>2153.00</ele>
        <time>2014-08-08T14:49:02Z</time>
      </trkpt>
      <trkpt lat="42.462428100" lon="1.019680900">
        <ele>2155.40</ele>
        <time>2014-08-08T14:49:10Z</time>
      </trkpt>
      <trkpt lat="42.462429690" lon="1.019502530">
        <ele>2157.80</ele>
        <time>2014-08-08T14:49:16Z</time>
      </trkpt>
      <trkpt lat="42.462447040" lon="1.019457190">
        <ele>2160.70</ele>
        <time>2014-08-08T14:49:18Z</time>
      </trkpt>
      <trkpt lat="42.462455680" lon="1.019432210">
        <ele>2159.70</ele>
        <time>2014-08-08T14:49:19Z</time>
      </trkpt>
      <trkpt lat="42.462467080" lon="1.019377560">
        <ele>2159.30</ele>
        <time>2014-08-08T14:49:21Z</time>
      </trkpt>
      <trkpt lat="42.462504710" lon="1.019273540">
        <ele>2156.40</ele>
        <time>2014-08-08T14:49:26Z</time>
      </trkpt>
      <trkpt lat="42.462529440" lon="1.019213270">
        <ele>2159.70</ele>
        <time>2014-08-08T14:49:29Z</time>
      </trkpt>
      <trkpt lat="42.462610320" lon="1.019046560">
        <ele>2158.80</ele>
        <time>2014-08-08T14:49:38Z</time>
      </trkpt>
      <trkpt lat="42.462620720" lon="1.019033900">
        <ele>2158.30</ele>
        <time>2014-08-08T14:49:46Z</time>
      </trkpt>
      <trkpt lat="42.462616190" lon="1.019028700">
        <ele>2158.30</ele>
        <time>2014-08-08T14:50:01Z</time>
      </trkpt>
      <trkpt lat="42.462609150" lon="1.019025440">
        <ele>2159.70</ele>
        <time>2014-08-08T14:50:18Z</time>
      </trkpt>
      <trkpt lat="42.462618200" lon="1.019005650">
        <ele>2159.30</ele>
        <time>2014-08-08T14:50:23Z</time>
      </trkpt>
      <trkpt lat="42.462707390" lon="1.018952680">
        <ele>2161.70</ele>
        <time>2014-08-08T14:50:28Z</time>
      </trkpt>
      <trkpt lat="42.462870750" lon="1.018909090">
        <ele>2162.60</ele>
        <time>2014-08-08T14:50:36Z</time>
      </trkpt>
      <trkpt lat="42.463011150" lon="1.018943040">
        <ele>2162.10</ele>
        <time>2014-08-08T14:50:43Z</time>
      </trkpt>
      <trkpt lat="42.463046770" lon="1.018971880">
        <ele>2163.10</ele>
        <time>2014-08-08T14:50:45Z</time>
      </trkpt>
      <trkpt lat="42.463193950" lon="1.019063910">
        <ele>2163.10</ele>
        <time>2014-08-08T14:50:53Z</time>
      </trkpt>
      <trkpt lat="42.463329990" lon="1.018992580">
        <ele>2162.60</ele>
        <time>2014-08-08T14:51:00Z</time>
      </trkpt>
      <trkpt lat="42.463430320" lon="1.018971620">
        <ele>2164.60</ele>
        <time>2014-08-08T14:51:05Z</time>
      </trkpt>
      <trkpt lat="42.463542470" lon="1.018970870">
        <ele>2165.00</ele>
        <time>2014-08-08T14:51:11Z</time>
      </trkpt>
      <trkpt lat="42.463621260" lon="1.018948070">
        <ele>2167.90</ele>
        <time>2014-08-08T14:51:15Z</time>
      </trkpt>
      <trkpt lat="42.463834500" lon="1.018820830">
        <ele>2169.40</ele>
        <time>2014-08-08T14:51:27Z</time>
      </trkpt>
      <trkpt lat="42.464021670" lon="1.018688730">
        <ele>2169.80</ele>
        <time>2014-08-08T14:51:37Z</time>
      </trkpt>
      <trkpt lat="42.464172370" lon="1.018562750">
        <ele>2170.30</ele>
        <time>2014-08-08T14:51:46Z</time>
      </trkpt>
      <trkpt lat="42.464343950" lon="1.018520590">
        <ele>2171.80</ele>
        <time>2014-08-08T14:51:54Z</time>
      </trkpt>
      <trkpt lat="42.464541930" lon="1.018540290">
        <ele>2173.20</ele>
        <time>2014-08-08T14:52:04Z</time>
      </trkpt>
      <trkpt lat="42.464756260" lon="1.018571050">
        <ele>2172.20</ele>
        <time>2014-08-08T14:52:14Z</time>
      </trkpt>
      <trkpt lat="42.464907380" lon="1.018597290">
        <ele>2173.20</ele>
        <time>2014-08-08T14:52:21Z</time>
      </trkpt>
      <trkpt lat="42.465048120" lon="1.018652190">
        <ele>2173.70</ele>
        <time>2014-08-08T14:52:28Z</time>
      </trkpt>
      <trkpt lat="42.465172000" lon="1.018728380">
        <ele>2173.70</ele>
        <time>2014-08-08T14:52:35Z</time>
      </trkpt>
      <trkpt lat="42.465257750" lon="1.018614470">
        <ele>2176.10</ele>
        <time>2014-08-08T14:52:42Z</time>
      </trkpt>
      <trkpt lat="42.465246520" lon="1.018590830">
        <ele>2176.10</ele>
        <time>2014-08-08T14:52:43Z</time>
      </trkpt>
      <trkpt lat="42.465216680" lon="1.018549510">
        <ele>2177.00</ele>
        <time>2014-08-08T14:52:45Z</time>
      </trkpt>
      <trkpt lat="42.465130010" lon="1.018470640">
        <ele>2178.00</ele>
        <time>2014-08-08T14:52:50Z</time>
      </trkpt>
      <trkpt lat="42.464970670" lon="1.018333680">
        <ele>2177.50</ele>
        <time>2014-08-08T14:52:59Z</time>
      </trkpt>
      <trkpt lat="42.464846870" lon="1.018154890">
        <ele>2180.90</ele>
        <time>2014-08-08T14:53:08Z</time>
      </trkpt>
      <trkpt lat="42.464755340" lon="1.017967970">
        <ele>2183.30</ele>
        <time>2014-08-08T14:53:16Z</time>
      </trkpt>
      <trkpt lat="42.464744360" lon="1.017893880">
        <ele>2183.80</ele>
        <time>2014-08-08T14:53:19Z</time>
      </trkpt>
      <trkpt lat="42.464786770" lon="1.017845770">
        <ele>2186.20</ele>
        <time>2014-08-08T14:53:23Z</time>
      </trkpt>
      <trkpt lat="42.464817700" lon="1.017679220">
        <ele>2185.70</ele>
        <time>2014-08-08T15:03:36Z</time>
      </trkpt>
      <trkpt lat="42.464859610" lon="1.017599760">
        <ele>2182.30</ele>
        <time>2014-08-08T15:03:38Z</time>
      </trkpt>
      <trkpt lat="42.464889360" lon="1.017559860">
        <ele>2182.80</ele>
        <time>2014-08-08T15:03:39Z</time>
      </trkpt>
      <trkpt lat="42.464954990" lon="1.017474200">
        <ele>2183.30</ele>
        <time>2014-08-08T15:03:41Z</time>
      </trkpt>
      <trkpt lat="42.465036210" lon="1.017299600">
        <ele>2179.00</ele>
        <time>2014-08-08T15:03:44Z</time>
      </trkpt>
      <trkpt lat="42.465108300" lon="1.016997270">
        <ele>2176.60</ele>
        <time>2014-08-08T15:03:48Z</time>
      </trkpt>
      <trkpt lat="42.465127660" lon="1.016911020">
        <ele>2176.10</ele>
        <time>2014-08-08T15:03:49Z</time>
      </trkpt>
      <trkpt lat="42.465150790" lon="1.016553700">
        <ele>2172.70</ele>
        <time>2014-08-08T15:03:53Z</time>
      </trkpt>
      <trkpt lat="42.465226730" lon="1.016160170">
        <ele>2168.90</ele>
        <time>2014-08-08T15:03:58Z</time>
      </trkpt>
      <trkpt lat="42.465411220" lon="1.015989260">
        <ele>2166.50</ele>
        <time>2014-08-08T15:04:02Z</time>
      </trkpt>
      <trkpt lat="42.465533010" lon="1.015932510">
        <ele>2166.00</ele>
        <time>2014-08-08T15:04:04Z</time>
      </trkpt>
      <trkpt lat="42.465818580" lon="1.015688770">
        <ele>2162.60</ele>
        <time>2014-08-08T15:04:09Z</time>
      </trkpt>
      <trkpt lat="42.466066270" lon="1.015531020">
        <ele>2160.70</ele>
        <time>2014-08-08T15:04:13Z</time>
      </trkpt>
      <trkpt lat="42.466206910" lon="1.015474530">
        <ele>2160.20</ele>
        <time>2014-08-08T15:04:15Z</time>
      </trkpt>
      <trkpt lat="42.466350580" lon="1.015385090">
        <ele>2157.80</ele>
        <time>2014-08-08T15:04:17Z</time>
      </trkpt>
      <trkpt lat="42.466488550" lon="1.015268580">
        <ele>2155.90</ele>
        <time>2014-08-08T15:04:19Z</time>
      </trkpt>
      <trkpt lat="42.466709490" lon="1.015119890">
        <ele>2154.00</ele>
        <time>2014-08-08T15:04:22Z</time>
      </trkpt>
      <trkpt lat="42.466853830" lon="1.015023330">
        <ele>2153.00</ele>
        <time>2014-08-08T15:04:24Z</time>
      </trkpt>
      <trkpt lat="42.467062960" lon="1.014849740">
        <ele>2150.60</ele>
        <time>2014-08-08T15:04:27Z</time>
      </trkpt>
      <trkpt lat="42.467380380" lon="1.014509690">
        <ele>2147.20</ele>
        <time>2014-08-08T15:04:32Z</time>
      </trkpt>
      <trkpt lat="42.467682800" lon="1.014218080">
        <ele>2143.90</ele>
        <time>2014-08-08T15:04:38Z</time>
      </trkpt>
      <trkpt lat="42.467738370" lon="1.014033170">
        <ele>2142.00</ele>
        <time>2014-08-08T15:04:42Z</time>
      </trkpt>
      <trkpt lat="42.467606360" lon="1.014023700">
        <ele>2140.50</ele>
        <time>2014-08-08T15:04:45Z</time>
      </trkpt>
      <trkpt lat="42.467556650" lon="1.014052870">
        <ele>2140.50</ele>
        <time>2014-08-08T15:04:46Z</time>
      </trkpt>
      <trkpt lat="42.467441570" lon="1.014106260">
        <ele>2140.00</ele>
        <time>2014-08-08T15:04:48Z</time>
      </trkpt>
      <trkpt lat="42.467229840" lon="1.014166030">
        <ele>2137.60</ele>
        <time>2014-08-08T15:04:51Z</time>
      </trkpt>
      <trkpt lat="42.466836480" lon="1.014268120">
        <ele>2133.80</ele>
        <time>2014-08-08T15:04:56Z</time>
      </trkpt>
      <trkpt lat="42.466757600" lon="1.014296530">
        <ele>2134.30</ele>
        <time>2014-08-08T15:04:57Z</time>
      </trkpt>
      <trkpt lat="42.466677730" lon="1.014322180">
        <ele>2133.30</ele>
        <time>2014-08-08T15:04:58Z</time>
      </trkpt>
      <trkpt lat="42.466511930" lon="1.014332490">
        <ele>2132.30</ele>
        <time>2014-08-08T15:05:00Z</time>
      </trkpt>
      <trkpt lat="42.466268190" lon="1.014295020">
        <ele>2130.40</ele>
        <time>2014-08-08T15:05:03Z</time>
      </trkpt>
      <trkpt lat="42.465774320" lon="1.014277000">
        <ele>2126.60</ele>
        <time>2014-08-08T15:05:09Z</time>
      </trkpt>
      <trkpt lat="42.465703160" lon="1.014291000">
        <ele>2126.10</ele>
        <time>2014-08-08T15:05:10Z</time>
      </trkpt>
      <trkpt lat="42.465531080" lon="1.014209860">
        <ele>2124.20</ele>
        <time>2014-08-08T15:05:14Z</time>
      </trkpt>
      <trkpt lat="42.465552790" lon="1.014101990">
        <ele>2122.70</ele>
        <time>2014-08-08T15:05:16Z</time>
      </trkpt>
      <trkpt lat="42.465745910" lon="1.014030830">
        <ele>2121.30</ele>
        <time>2014-08-08T15:05:20Z</time>
      </trkpt>
      <trkpt lat="42.465874570" lon="1.013964690">
        <ele>2119.80</ele>
        <time>2014-08-08T15:05:22Z</time>
      </trkpt>
      <trkpt lat="42.466125530" lon="1.013711980">
        <ele>2117.40</ele>
        <time>2014-08-08T15:05:26Z</time>
      </trkpt>
      <trkpt lat="42.466462480" lon="1.013444430">
        <ele>2114.10</ele>
        <time>2014-08-08T15:05:31Z</time>
      </trkpt>
      <trkpt lat="42.466923730" lon="1.013246200">
        <ele>2111.20</ele>
        <time>2014-08-08T15:05:37Z</time>
      </trkpt>
      <trkpt lat="42.467087770" lon="1.013181320">
        <ele>2108.80</ele>
        <time>2014-08-08T15:05:39Z</time>
      </trkpt>
      <trkpt lat="42.467366800" lon="1.013075290">
        <ele>2106.90</ele>
        <time>2014-08-08T15:05:44Z</time>
      </trkpt>
      <trkpt lat="42.467313910" lon="1.012968840">
        <ele>2106.40</ele>
        <time>2014-08-08T15:05:47Z</time>
      </trkpt>
      <trkpt lat="42.467135130" lon="1.013004460">
        <ele>2104.90</ele>
        <time>2014-08-08T15:05:51Z</time>
      </trkpt>
      <trkpt lat="42.467082400" lon="1.013010330">
        <ele>2104.00</ele>
        <time>2014-08-08T15:05:52Z</time>
      </trkpt>
      <trkpt lat="42.466898920" lon="1.013026340">
        <ele>2103.50</ele>
        <time>2014-08-08T15:05:55Z</time>
      </trkpt>
      <trkpt lat="42.466686780" lon="1.013011920">
        <ele>2101.60</ele>
        <time>2014-08-08T15:05:58Z</time>
      </trkpt>
      <trkpt lat="42.466458960" lon="1.013005470">
        <ele>2100.10</ele>
        <time>2014-08-08T15:06:01Z</time>
      </trkpt>
      <trkpt lat="42.466065010" lon="1.012870770">
        <ele>2097.30</ele>
        <time>2014-08-08T15:06:06Z</time>
      </trkpt>
      <trkpt lat="42.465842380" lon="1.012737160">
        <ele>2094.40</ele>
        <time>2014-08-08T15:06:09Z</time>
      </trkpt>
      <trkpt lat="42.465527900" lon="1.012585790">
        <ele>2091.00</ele>
        <time>2014-08-08T15:06:14Z</time>
      </trkpt>
      <trkpt lat="42.465498390" lon="1.012537420">
        <ele>2091.50</ele>
        <time>2014-08-08T15:06:15Z</time>
      </trkpt>
      <trkpt lat="42.465489930" lon="1.012415970">
        <ele>2089.60</ele>
        <time>2014-08-08T15:06:17Z</time>
      </trkpt>
      <trkpt lat="42.465540890" lon="1.012330730">
        <ele>2088.60</ele>
        <time>2014-08-08T15:06:19Z</time>
      </trkpt>
      <trkpt lat="42.465588080" lon="1.012292500">
        <ele>2087.60</ele>
        <time>2014-08-08T15:06:22Z</time>
      </trkpt>
      <trkpt lat="42.465657230" lon="1.012288900">
        <ele>2086.20</ele>
        <time>2014-08-08T15:06:25Z</time>
      </trkpt>
      <trkpt lat="42.465766860" lon="1.012267690">
        <ele>2085.70</ele>
        <time>2014-08-08T15:06:30Z</time>
      </trkpt>
      <trkpt lat="42.465755550" lon="1.012274060">
        <ele>2085.20</ele>
        <time>2014-08-08T15:06:46Z</time>
      </trkpt>
      <trkpt lat="42.465849510" lon="1.012298960">
        <ele>2084.80</ele>
        <time>2014-08-08T15:06:53Z</time>
      </trkpt>
      <trkpt lat="42.465989740" lon="1.012348410">
        <ele>2083.30</ele>
        <time>2014-08-08T15:06:56Z</time>
      </trkpt>
      <trkpt lat="42.466242030" lon="1.012378670">
        <ele>2081.90</ele>
        <time>2014-08-08T15:07:00Z</time>
      </trkpt>
      <trkpt lat="42.466578320" lon="1.012305160">
        <ele>2079.50</ele>
        <time>2014-08-08T15:07:04Z</time>
      </trkpt>
      <trkpt lat="42.466755340" lon="1.012246490">
        <ele>2078.00</ele>
        <time>2014-08-08T15:07:06Z</time>
      </trkpt>
      <trkpt lat="42.466965810" lon="1.012102490">
        <ele>2076.60</ele>
        <time>2014-08-08T15:07:09Z</time>
      </trkpt>
      <trkpt lat="42.467238310" lon="1.012014140">
        <ele>2071.80</ele>
        <time>2014-08-08T15:07:13Z</time>
      </trkpt>
      <trkpt lat="42.467362690" lon="1.012074570">
        <ele>2071.30</ele>
        <time>2014-08-08T15:07:15Z</time>
      </trkpt>
      <trkpt lat="42.467462860" lon="1.012115390">
        <ele>2069.90</ele>
        <time>2014-08-08T15:07:17Z</time>
      </trkpt>
      <trkpt lat="42.467536280" lon="1.012002740">
        <ele>2068.40</ele>
        <time>2014-08-08T15:07:20Z</time>
      </trkpt>
      <trkpt lat="42.467432010" lon="1.011867880">
        <ele>2066.50</ele>
        <time>2014-08-08T15:07:23Z</time>
      </trkpt>
      <trkpt lat="42.467058430" lon="1.011784730">
        <ele>2065.10</ele>
        <time>2014-08-08T15:07:29Z</time>
      </trkpt>
      <trkpt lat="42.466990290" lon="1.011809790">
        <ele>2064.60</ele>
        <time>2014-08-08T15:07:30Z</time>
      </trkpt>
      <trkpt lat="42.466679650" lon="1.011874830">
        <ele>2059.80</ele>
        <time>2014-08-08T15:07:34Z</time>
      </trkpt>
      <trkpt lat="42.466604800" lon="1.011878610">
        <ele>2059.80</ele>
        <time>2014-08-08T15:07:35Z</time>
      </trkpt>
      <trkpt lat="42.466539510" lon="1.011880200">
        <ele>2058.30</ele>
        <time>2014-08-08T15:07:36Z</time>
      </trkpt>
      <trkpt lat="42.466457620" lon="1.011730580">
        <ele>2056.40</ele>
        <time>2014-08-08T15:07:40Z</time>
      </trkpt>
      <trkpt lat="42.466584270" lon="1.011673580">
        <ele>2055.90</ele>
        <time>2014-08-08T15:07:43Z</time>
      </trkpt>
      <trkpt lat="42.466894480" lon="1.011546770">
        <ele>2052.60</ele>
        <time>2014-08-08T15:07:48Z</time>
      </trkpt>
      <trkpt lat="42.467043760" lon="1.011429420">
        <ele>2051.10</ele>
        <time>2014-08-08T15:07:50Z</time>
      </trkpt>
      <trkpt lat="42.467180140" lon="1.011274770">
        <ele>2048.70</ele>
        <time>2014-08-08T15:07:52Z</time>
      </trkpt>
      <trkpt lat="42.467301340" lon="1.011125910">
        <ele>2048.70</ele>
        <time>2014-08-08T15:07:54Z</time>
      </trkpt>
      <trkpt lat="42.467589340" lon="1.010997080">
        <ele>2045.80</ele>
        <time>2014-08-08T15:07:59Z</time>
      </trkpt>
      <trkpt lat="42.467751110" lon="1.011102940">
        <ele>2043.40</ele>
        <time>2014-08-08T15:08:02Z</time>
      </trkpt>
      <trkpt lat="42.467853790" lon="1.011227830">
        <ele>2041.50</ele>
        <time>2014-08-08T15:08:04Z</time>
      </trkpt>
      <trkpt lat="42.468093010" lon="1.011445600">
        <ele>2037.70</ele>
        <time>2014-08-08T15:08:08Z</time>
      </trkpt>
      <trkpt lat="42.468213370" lon="1.011551880">
        <ele>2036.20</ele>
        <time>2014-08-08T15:08:10Z</time>
      </trkpt>
      <trkpt lat="42.468402550" lon="1.011766620">
        <ele>2032.40</ele>
        <time>2014-08-08T15:08:13Z</time>
      </trkpt>
      <trkpt lat="42.468475810" lon="1.011826970">
        <ele>2032.80</ele>
        <time>2014-08-08T15:08:14Z</time>
      </trkpt>
      <trkpt lat="42.468729200" lon="1.011891180">
        <ele>2029.00</ele>
        <time>2014-08-08T15:08:19Z</time>
      </trkpt>
      <trkpt lat="42.468725760" lon="1.011764780">
        <ele>2027.60</ele>
        <time>2014-08-08T15:08:22Z</time>
      </trkpt>
      <trkpt lat="42.468565160" lon="1.011627150">
        <ele>2025.20</ele>
        <time>2014-08-08T15:08:26Z</time>
      </trkpt>
      <trkpt lat="42.468527190" lon="1.011574430">
        <ele>2025.20</ele>
        <time>2014-08-08T15:08:27Z</time>
      </trkpt>
      <trkpt lat="42.468417640" lon="1.011266810">
        <ele>2021.80</ele>
        <time>2014-08-08T15:08:31Z</time>
      </trkpt>
      <trkpt lat="42.468330640" lon="1.011124150">
        <ele>2020.80</ele>
        <time>2014-08-08T15:08:33Z</time>
      </trkpt>
      <trkpt lat="42.468161150" lon="1.010944020">
        <ele>2017.90</ele>
        <time>2014-08-08T15:08:36Z</time>
      </trkpt>
      <trkpt lat="42.468094690" lon="1.010890460">
        <ele>2018.40</ele>
        <time>2014-08-08T15:08:37Z</time>
      </trkpt>
      <trkpt lat="42.467883380" lon="1.010621150">
        <ele>2014.60</ele>
        <time>2014-08-08T15:08:41Z</time>
      </trkpt>
      <trkpt lat="42.467603340" lon="1.010368770">
        <ele>2011.20</ele>
        <time>2014-08-08T15:08:46Z</time>
      </trkpt>
      <trkpt lat="42.467406030" lon="1.010333150">
        <ele>2010.70</ele>
        <time>2014-08-08T15:08:49Z</time>
      </trkpt>
      <trkpt lat="42.467183570" lon="1.010361900">
        <ele>2005.90</ele>
        <time>2014-08-08T15:08:52Z</time>
      </trkpt>
      <trkpt lat="42.467033870" lon="1.010385870">
        <ele>2004.50</ele>
        <time>2014-08-08T15:08:54Z</time>
      </trkpt>
      <trkpt lat="42.466827930" lon="1.010491650">
        <ele>2003.50</ele>
        <time>2014-08-08T15:08:57Z</time>
      </trkpt>
      <trkpt lat="42.466624250" lon="1.010438010">
        <ele>2004.00</ele>
        <time>2014-08-08T15:09:01Z</time>
      </trkpt>
      <trkpt lat="42.466536410" lon="1.010297360">
        <ele>2001.60</ele>
        <time>2014-08-08T15:09:04Z</time>
      </trkpt>
      <trkpt lat="42.466446130" lon="1.010078930">
        <ele>2002.60</ele>
        <time>2014-08-08T15:09:08Z</time>
      </trkpt>
      <trkpt lat="42.466371370" lon="1.009950180">
        <ele>1999.20</ele>
        <time>2014-08-08T15:09:11Z</time>
      </trkpt>
      <trkpt lat="42.466332220" lon="1.009877180">
        <ele>1996.80</ele>
        <time>2014-08-08T15:09:15Z</time>
      </trkpt>
      <trkpt lat="42.466332890" lon="1.009884800">
        <ele>1997.80</ele>
        <time>2014-08-08T15:09:30Z</time>
      </trkpt>
      <trkpt lat="42.466288220" lon="1.009832750">
        <ele>1996.80</ele>
        <time>2014-08-08T15:09:44Z</time>
      </trkpt>
      <trkpt lat="42.466189310" lon="1.009688080">
        <ele>1995.40</ele>
        <time>2014-08-08T15:09:47Z</time>
      </trkpt>
      <trkpt lat="42.466150500" lon="1.009629070">
        <ele>1993.90</ele>
        <time>2014-08-08T15:09:48Z</time>
      </trkpt>
      <trkpt lat="42.465895530" lon="1.009340820">
        <ele>1990.60</ele>
        <time>2014-08-08T15:09:53Z</time>
      </trkpt>
      <trkpt lat="42.465842470" lon="1.009291200">
        <ele>1990.10</ele>
        <time>2014-08-08T15:09:54Z</time>
      </trkpt>
      <trkpt lat="42.465578610" lon="1.009258170">
        <ele>1988.10</ele>
        <time>2014-08-08T15:09:59Z</time>
      </trkpt>
      <trkpt lat="42.465400490" lon="1.009381050">
        <ele>1985.30</ele>
        <time>2014-08-08T15:10:02Z</time>
      </trkpt>
      <trkpt lat="42.465279370" lon="1.009480540">
        <ele>1984.30</ele>
        <time>2014-08-08T15:10:04Z</time>
      </trkpt>
      <trkpt lat="42.465069410" lon="1.009753880">
        <ele>1981.40</ele>
        <time>2014-08-08T15:10:08Z</time>
      </trkpt>
      <trkpt lat="42.464832030" lon="1.009811460">
        <ele>1980.90</ele>
        <time>2014-08-08T15:10:12Z</time>
      </trkpt>
      <trkpt lat="42.464614350" lon="1.009738960">
        <ele>1978.10</ele>
        <time>2014-08-08T15:10:15Z</time>
      </trkpt>
      <trkpt lat="42.464125850" lon="1.009753540">
        <ele>1977.10</ele>
        <time>2014-08-08T15:10:21Z</time>
      </trkpt>
      <trkpt lat="42.463892080" lon="1.009811800">
        <ele>1975.20</ele>
        <time>2014-08-08T15:10:24Z</time>
      </trkpt>
      <trkpt lat="42.463817230" lon="1.009835680">
        <ele>1975.20</ele>
        <time>2014-08-08T15:10:25Z</time>
      </trkpt>
      <trkpt lat="42.463408870" lon="1.010136760">
        <ele>1970.40</ele>
        <time>2014-08-08T15:10:31Z</time>
      </trkpt>
      <trkpt lat="42.463351450" lon="1.010186470">
        <ele>1968.00</ele>
        <time>2014-08-08T15:10:32Z</time>
      </trkpt>
      <trkpt lat="42.463267460" lon="1.010311440">
        <ele>1967.50</ele>
        <time>2014-08-08T15:10:34Z</time>
      </trkpt>
      <trkpt lat="42.463185740" lon="1.010631550">
        <ele>1966.00</ele>
        <time>2014-08-08T15:10:38Z</time>
      </trkpt>
      <trkpt lat="42.463086080" lon="1.010903290">
        <ele>1962.70</ele>
        <time>2014-08-08T15:10:43Z</time>
      </trkpt>
      <trkpt lat="42.463040900" lon="1.010759790">
        <ele>1960.30</ele>
        <time>2014-08-08T15:10:46Z</time>
      </trkpt>
      <trkpt lat="42.463042410" lon="1.010685110">
        <ele>1960.30</ele>
        <time>2014-08-08T15:10:47Z</time>
      </trkpt>
      <trkpt lat="42.463086500" lon="1.010310520">
        <ele>1958.30</ele>
        <time>2014-08-08T15:10:51Z</time>
      </trkpt>
      <trkpt lat="42.463170490" lon="1.010023610">
        <ele>1956.40</ele>
        <time>2014-08-08T15:10:54Z</time>
      </trkpt>
      <trkpt lat="42.463427470" lon="1.009489260">
        <ele>1953.10</ele>
        <time>2014-08-08T15:11:00Z</time>
      </trkpt>
      <trkpt lat="42.463625290" lon="1.009103360">
        <ele>1949.70</ele>
        <time>2014-08-08T15:11:04Z</time>
      </trkpt>
      <trkpt lat="42.463665940" lon="1.008998580">
        <ele>1949.70</ele>
        <time>2014-08-08T15:11:05Z</time>
      </trkpt>
      <trkpt lat="42.463769880" lon="1.008694570">
        <ele>1946.30</ele>
        <time>2014-08-08T15:11:08Z</time>
      </trkpt>
      <trkpt lat="42.463968610" lon="1.008463820">
        <ele>1943.40</ele>
        <time>2014-08-08T15:11:12Z</time>
      </trkpt>
      <trkpt lat="42.464038520" lon="1.008441270">
        <ele>1942.50</ele>
        <time>2014-08-08T15:11:13Z</time>
      </trkpt>
      <trkpt lat="42.464273960" lon="1.008397430">
        <ele>1940.60</ele>
        <time>2014-08-08T15:11:16Z</time>
      </trkpt>
      <trkpt lat="42.464417630" lon="1.008409840">
        <ele>1939.10</ele>
        <time>2014-08-08T15:11:18Z</time>
      </trkpt>
      <trkpt lat="42.464595410" lon="1.008537750">
        <ele>1937.70</ele>
        <time>2014-08-08T15:11:21Z</time>
      </trkpt>
      <trkpt lat="42.464785430" lon="1.008588370">
        <ele>1934.30</ele>
        <time>2014-08-08T15:11:26Z</time>
      </trkpt>
      <trkpt lat="42.464687270" lon="1.008432810">
        <ele>1932.40</ele>
        <time>2014-08-08T15:11:29Z</time>
      </trkpt>
      <trkpt lat="42.464643190" lon="1.008364410">
        <ele>1931.90</ele>
        <time>2014-08-08T15:11:30Z</time>
      </trkpt>
      <trkpt lat="42.464597420" lon="1.008186800">
        <ele>1931.00</ele>
        <time>2014-08-08T15:11:32Z</time>
      </trkpt>
      <trkpt lat="42.464526590" lon="1.007630660">
        <ele>1925.70</ele>
        <time>2014-08-08T15:11:37Z</time>
      </trkpt>
      <trkpt lat="42.464469180" lon="1.007288340">
        <ele>1921.80</ele>
        <time>2014-08-08T15:11:40Z</time>
      </trkpt>
      <trkpt lat="42.464452250" lon="1.007187090">
        <ele>1921.80</ele>
        <time>2014-08-08T15:11:41Z</time>
      </trkpt>
      <trkpt lat="42.464434810" lon="1.007093290">
        <ele>1920.90</ele>
        <time>2014-08-08T15:11:42Z</time>
      </trkpt>
      <trkpt lat="42.464278240" lon="1.006795400">
        <ele>1917.00</ele>
        <time>2014-08-08T15:11:47Z</time>
      </trkpt>
      <trkpt lat="42.464123840" lon="1.006751310">
        <ele>1916.50</ele>
        <time>2014-08-08T15:11:50Z</time>
      </trkpt>
      <trkpt lat="42.463766270" lon="1.006717870">
        <ele>1913.60</ele>
        <time>2014-08-08T15:11:55Z</time>
      </trkpt>
      <trkpt lat="42.463600310" lon="1.006714850">
        <ele>1912.20</ele>
        <time>2014-08-08T15:11:57Z</time>
      </trkpt>
      <trkpt lat="42.463244250" lon="1.006726080">
        <ele>1909.80</ele>
        <time>2014-08-08T15:12:01Z</time>
      </trkpt>
      <trkpt lat="42.462965460" lon="1.006723650">
        <ele>1907.90</ele>
        <time>2014-08-08T15:12:04Z</time>
      </trkpt>
      <trkpt lat="42.462786180" lon="1.006723820">
        <ele>1905.00</ele>
        <time>2014-08-08T15:12:06Z</time>
      </trkpt>
      <trkpt lat="42.462617620" lon="1.006745530">
        <ele>1903.60</ele>
        <time>2014-08-08T15:12:08Z</time>
      </trkpt>
      <trkpt lat="42.462268260" lon="1.006954910">
        <ele>1903.10</ele>
        <time>2014-08-08T15:12:13Z</time>
      </trkpt>
      <trkpt lat="42.462193490" lon="1.007066890">
        <ele>1902.10</ele>
        <time>2014-08-08T15:12:15Z</time>
      </trkpt>
      <trkpt lat="42.462181340" lon="1.007290020">
        <ele>1900.70</ele>
        <time>2014-08-08T15:12:18Z</time>
      </trkpt>
      <trkpt lat="42.462213610" lon="1.007572320">
        <ele>1898.30</ele>
        <time>2014-08-08T15:12:21Z</time>
      </trkpt>
      <trkpt lat="42.462165240" lon="1.007774660">
        <ele>1896.80</ele>
        <time>2014-08-08T15:12:25Z</time>
      </trkpt>
      <trkpt lat="42.462085870" lon="1.007651530">
        <ele>1895.90</ele>
        <time>2014-08-08T15:12:28Z</time>
      </trkpt>
      <trkpt lat="42.462007330" lon="1.007365030">
        <ele>1894.40</ele>
        <time>2014-08-08T15:12:33Z</time>
      </trkpt>
      <trkpt lat="42.461882860" lon="1.007385240">
        <ele>1894.90</ele>
        <time>2014-08-08T15:12:37Z</time>
      </trkpt>
      <trkpt lat="42.461895850" lon="1.007590930">
        <ele>1894.40</ele>
        <time>2014-08-08T15:12:40Z</time>
      </trkpt>
      <trkpt lat="42.462056530" lon="1.008210350">
        <ele>1892.50</ele>
        <time>2014-08-08T15:12:47Z</time>
      </trkpt>
      <trkpt lat="42.462086450" lon="1.008619300">
        <ele>1888.20</ele>
        <time>2014-08-08T15:12:51Z</time>
      </trkpt>
      <trkpt lat="42.462055780" lon="1.008729020">
        <ele>1887.20</ele>
        <time>2014-08-08T15:12:52Z</time>
      </trkpt>
      <trkpt lat="42.461957120" lon="1.009054910">
        <ele>1884.30</ele>
        <time>2014-08-08T15:12:55Z</time>
      </trkpt>
      <trkpt lat="42.461934660" lon="1.009412820">
        <ele>1881.90</ele>
        <time>2014-08-08T15:12:58Z</time>
      </trkpt>
      <trkpt lat="42.461935410" lon="1.009541060">
        <ele>1881.40</ele>
        <time>2014-08-08T15:12:59Z</time>
      </trkpt>
      <trkpt lat="42.461871880" lon="1.009885470">
        <ele>1879.50</ele>
        <time>2014-08-08T15:13:02Z</time>
      </trkpt>
      <trkpt lat="42.461798280" lon="1.010088400">
        <ele>1879.00</ele>
        <time>2014-08-08T15:13:04Z</time>
      </trkpt>
      <trkpt lat="42.461718740" lon="1.010414040">
        <ele>1876.60</ele>
        <time>2014-08-08T15:13:07Z</time>
      </trkpt>
      <trkpt lat="42.461684210" lon="1.010663310">
        <ele>1874.70</ele>
        <time>2014-08-08T15:13:10Z</time>
      </trkpt>
      <trkpt lat="42.461583370" lon="1.010659880">
        <ele>1874.20</ele>
        <time>2014-08-08T15:13:14Z</time>
      </trkpt>
      <trkpt lat="42.461614550" lon="1.010272210">
        <ele>1870.90</ele>
        <time>2014-08-08T15:13:19Z</time>
      </trkpt>
      <trkpt lat="42.461602570" lon="1.010174730">
        <ele>1870.40</ele>
        <time>2014-08-08T15:13:20Z</time>
      </trkpt>
      <trkpt lat="42.461582370" lon="1.009980690">
        <ele>1867.50</ele>
        <time>2014-08-08T15:13:22Z</time>
      </trkpt>
      <trkpt lat="42.461533420" lon="1.009536030">
        <ele>1862.20</ele>
        <time>2014-08-08T15:13:26Z</time>
      </trkpt>
      <trkpt lat="42.461494440" lon="1.009178540">
        <ele>1858.40</ele>
        <time>2014-08-08T15:13:29Z</time>
      </trkpt>
      <trkpt lat="42.461435010" lon="1.008849970">
        <ele>1853.60</ele>
        <time>2014-08-08T15:13:32Z</time>
      </trkpt>
      <trkpt lat="42.461415570" lon="1.008764650">
        <ele>1853.10</ele>
        <time>2014-08-08T15:13:33Z</time>
      </trkpt>
      <trkpt lat="42.461262760" lon="1.008541850">
        <ele>1849.20</ele>
        <time>2014-08-08T15:13:37Z</time>
      </trkpt>
      <trkpt lat="42.461140470" lon="1.008315630">
        <ele>1846.80</ele>
        <time>2014-08-08T15:13:40Z</time>
      </trkpt>
      <trkpt lat="42.461106610" lon="1.008220160">
        <ele>1845.40</ele>
        <time>2014-08-08T15:13:41Z</time>
      </trkpt>
      <trkpt lat="42.461004600" lon="1.007777420">
        <ele>1840.60</ele>
        <time>2014-08-08T15:13:45Z</time>
      </trkpt>
      <trkpt lat="42.460991530" lon="1.007663680">
        <ele>1838.20</ele>
        <time>2014-08-08T15:13:46Z</time>
      </trkpt>
      <trkpt lat="42.460978620" lon="1.007329080">
        <ele>1834.80</ele>
        <time>2014-08-08T15:13:49Z</time>
      </trkpt>
      <trkpt lat="42.460981890" lon="1.007032190">
        <ele>1830.50</ele>
        <time>2014-08-08T15:13:52Z</time>
      </trkpt>
      <trkpt lat="42.461074170" lon="1.006775700">
        <ele>1829.10</ele>
        <time>2014-08-08T15:13:56Z</time>
      </trkpt>
      <trkpt lat="42.461200820" lon="1.006622570">
        <ele>1826.60</ele>
        <time>2014-08-08T15:13:59Z</time>
      </trkpt>
      <trkpt lat="42.461404330" lon="1.006356860">
        <ele>1823.80</ele>
        <time>2014-08-08T15:14:03Z</time>
      </trkpt>
      <trkpt lat="42.461492090" lon="1.006238340">
        <ele>1820.40</ele>
        <time>2014-08-08T15:14:05Z</time>
      </trkpt>
      <trkpt lat="42.461532910" lon="1.006181760">
        <ele>1820.90</ele>
        <time>2014-08-08T15:14:06Z</time>
      </trkpt>
      <trkpt lat="42.461612040" lon="1.006064830">
        <ele>1817.50</ele>
        <time>2014-08-08T15:14:08Z</time>
      </trkpt>
      <trkpt lat="42.461864670" lon="1.005724610">
        <ele>1815.10</ele>
        <time>2014-08-08T15:14:13Z</time>
      </trkpt>
      <trkpt lat="42.461961310" lon="1.005572560">
        <ele>1813.70</ele>
        <time>2014-08-08T15:14:15Z</time>
      </trkpt>
      <trkpt lat="42.462177730" lon="1.005230160">
        <ele>1809.80</ele>
        <time>2014-08-08T15:14:19Z</time>
      </trkpt>
      <trkpt lat="42.462350820" lon="1.004866220">
        <ele>1809.30</ele>
        <time>2014-08-08T15:14:23Z</time>
      </trkpt>
      <trkpt lat="42.462546120" lon="1.004532450">
        <ele>1808.90</ele>
        <time>2014-08-08T15:14:27Z</time>
      </trkpt>
      <trkpt lat="42.462749380" lon="1.004370850">
        <ele>1806.90</ele>
        <time>2014-08-08T15:14:31Z</time>
      </trkpt>
      <trkpt lat="42.462966890" lon="1.004339250">
        <ele>1803.60</ele>
        <time>2014-08-08T15:14:34Z</time>
      </trkpt>
      <trkpt lat="42.463213480" lon="1.004345120">
        <ele>1802.10</ele>
        <time>2014-08-08T15:14:37Z</time>
      </trkpt>
      <trkpt lat="42.463841540" lon="1.004350400">
        <ele>1798.80</ele>
        <time>2014-08-08T15:14:44Z</time>
      </trkpt>
      <trkpt lat="42.464212520" lon="1.004352330">
        <ele>1795.90</ele>
        <time>2014-08-08T15:14:48Z</time>
      </trkpt>
      <trkpt lat="42.464507400" lon="1.004303960">
        <ele>1792.50</ele>
        <time>2014-08-08T15:14:51Z</time>
      </trkpt>
      <trkpt lat="42.464883080" lon="1.004244450">
        <ele>1790.10</ele>
        <time>2014-08-08T15:14:55Z</time>
      </trkpt>
      <trkpt lat="42.465127740" lon="1.004218800">
        <ele>1785.80</ele>
        <time>2014-08-08T15:14:58Z</time>
      </trkpt>
      <trkpt lat="42.465203100" lon="1.004220400">
        <ele>1785.80</ele>
        <time>2014-08-08T15:14:59Z</time>
      </trkpt>
      <trkpt lat="42.465410130" lon="1.004321820">
        <ele>1783.90</ele>
        <time>2014-08-08T15:15:02Z</time>
      </trkpt>
      <trkpt lat="42.465605760" lon="1.004499260">
        <ele>1782.40</ele>
        <time>2014-08-08T15:15:05Z</time>
      </trkpt>
      <trkpt lat="42.465786900" lon="1.004515690">
        <ele>1780.00</ele>
        <time>2014-08-08T15:15:09Z</time>
      </trkpt>
      <trkpt lat="42.465816820" lon="1.004460790">
        <ele>1779.10</ele>
        <time>2014-08-08T15:15:10Z</time>
      </trkpt>
      <trkpt lat="42.466027790" lon="1.004123250">
        <ele>1775.20</ele>
        <time>2014-08-08T15:15:15Z</time>
      </trkpt>
      <trkpt lat="42.466076990" lon="1.004063400">
        <ele>1775.70</ele>
        <time>2014-08-08T15:15:16Z</time>
      </trkpt>
      <trkpt lat="42.466224010" lon="1.003976480">
        <ele>1772.80</ele>
        <time>2014-08-08T15:15:19Z</time>
      </trkpt>
      <trkpt lat="42.466248740" lon="1.003895680">
        <ele>1772.30</ele>
        <time>2014-08-08T15:15:44Z</time>
      </trkpt>
      <trkpt lat="42.466239180" lon="1.003879500">
        <ele>1771.90</ele>
        <time>2014-08-08T15:15:53Z</time>
      </trkpt>
      <trkpt lat="42.466109260" lon="1.003877070">
        <ele>1769.40</ele>
        <time>2014-08-08T15:15:58Z</time>
      </trkpt>
      <trkpt lat="42.465907010" lon="1.003997770">
        <ele>1767.00</ele>
        <time>2014-08-08T15:16:02Z</time>
      </trkpt>
      <trkpt lat="42.465735100" lon="1.004134900">
        <ele>1764.20</ele>
        <time>2014-08-08T15:16:05Z</time>
      </trkpt>
      <trkpt lat="42.465639630" lon="1.004168680">
        <ele>1762.20</ele>
        <time>2014-08-08T15:16:07Z</time>
      </trkpt>
      <trkpt lat="42.465557060" lon="1.004093240">
        <ele>1761.30</ele>
        <time>2014-08-08T15:16:09Z</time>
      </trkpt>
      <trkpt lat="42.465390010" lon="1.003877490">
        <ele>1761.30</ele>
        <time>2014-08-08T15:16:13Z</time>
      </trkpt>
      <trkpt lat="42.465112820" lon="1.003684540">
        <ele>1758.40</ele>
        <time>2014-08-08T15:16:18Z</time>
      </trkpt>
      <trkpt lat="42.464801020" lon="1.003603070">
        <ele>1756.00</ele>
        <time>2014-08-08T15:16:22Z</time>
      </trkpt>
      <trkpt lat="42.464359960" lon="1.003492340">
        <ele>1752.60</ele>
        <time>2014-08-08T15:16:27Z</time>
      </trkpt>
      <trkpt lat="42.463947150" lon="1.003336610">
        <ele>1751.70</ele>
        <time>2014-08-08T15:16:32Z</time>
      </trkpt>
      <trkpt lat="42.463738950" lon="1.003162520">
        <ele>1749.30</ele>
        <time>2014-08-08T15:16:35Z</time>
      </trkpt>
      <trkpt lat="42.463665690" lon="1.003097390">
        <ele>1748.30</ele>
        <time>2014-08-08T15:16:36Z</time>
      </trkpt>
      <trkpt lat="42.463331500" lon="1.002875690">
        <ele>1744.90</ele>
        <time>2014-08-08T15:16:40Z</time>
      </trkpt>
      <trkpt lat="42.463148860" lon="1.002757420">
        <ele>1742.50</ele>
        <time>2014-08-08T15:16:42Z</time>
      </trkpt>
      <trkpt lat="42.462819620" lon="1.002444020">
        <ele>1740.60</ele>
        <time>2014-08-08T15:16:46Z</time>
      </trkpt>
      <trkpt lat="42.462612000" lon="1.002108990">
        <ele>1738.20</ele>
        <time>2014-08-08T15:16:50Z</time>
      </trkpt>
      <trkpt lat="42.462376470" lon="1.001782350">
        <ele>1734.80</ele>
        <time>2014-08-08T15:16:55Z</time>
      </trkpt>
      <trkpt lat="42.462183100" lon="1.001654700">
        <ele>1731.50</ele>
        <time>2014-08-08T15:16:58Z</time>
      </trkpt>
      <trkpt lat="42.462033650" lon="1.001618150">
        <ele>1731.50</ele>
        <time>2014-08-08T15:17:00Z</time>
      </trkpt>
      <trkpt lat="42.461822930" lon="1.001621250">
        <ele>1730.00</ele>
        <time>2014-08-08T15:17:03Z</time>
      </trkpt>
      <trkpt lat="42.461666350" lon="1.001662240">
        <ele>1729.60</ele>
        <time>2014-08-08T15:17:07Z</time>
      </trkpt>
      <trkpt lat="42.461582950" lon="1.001692830">
        <ele>1729.10</ele>
        <time>2014-08-08T15:17:09Z</time>
      </trkpt>
      <trkpt lat="42.461413390" lon="1.001726110">
        <ele>1726.70</ele>
        <time>2014-08-08T15:17:14Z</time>
      </trkpt>
      <trkpt lat="42.461406430" lon="1.001745970">
        <ele>1727.20</ele>
        <time>2014-08-08T15:17:41Z</time>
      </trkpt>
      <trkpt lat="42.461419420" lon="1.001748570">
        <ele>1726.70</ele>
        <time>2014-08-08T15:17:46Z</time>
      </trkpt>
      <trkpt lat="42.461432830" lon="1.001821240">
        <ele>1727.20</ele>
        <time>2014-08-08T15:17:52Z</time>
      </trkpt>
      <trkpt lat="42.461308280" lon="1.002121740">
        <ele>1726.20</ele>
        <time>2014-08-08T15:17:58Z</time>
      </trkpt>
      <trkpt lat="42.461307100" lon="1.002199600">
        <ele>1725.20</ele>
        <time>2014-08-08T15:17:59Z</time>
      </trkpt>
      <trkpt lat="42.461302580" lon="1.002363800">
        <ele>1723.80</ele>
        <time>2014-08-08T15:18:01Z</time>
      </trkpt>
      <trkpt lat="42.461273660" lon="1.002631360">
        <ele>1721.90</ele>
        <time>2014-08-08T15:18:04Z</time>
      </trkpt>
      <trkpt lat="42.461093030" lon="1.003129580">
        <ele>1718.00</ele>
        <time>2014-08-08T15:18:09Z</time>
      </trkpt>
      <trkpt lat="42.460943920" lon="1.003292270">
        <ele>1713.70</ele>
        <time>2014-08-08T15:18:11Z</time>
      </trkpt>
      <trkpt lat="42.460854980" lon="1.003355890">
        <ele>1714.20</ele>
        <time>2014-08-08T15:18:12Z</time>
      </trkpt>
      <trkpt lat="42.460676530" lon="1.003439960">
        <ele>1713.70</ele>
        <time>2014-08-08T15:18:14Z</time>
      </trkpt>
      <trkpt lat="42.460270100" lon="1.003711530">
        <ele>1710.80</ele>
        <time>2014-08-08T15:18:20Z</time>
      </trkpt>
      <trkpt lat="42.460170020" lon="1.003948490">
        <ele>1707.40</ele>
        <time>2014-08-08T15:18:23Z</time>
      </trkpt>
      <trkpt lat="42.460150070" lon="1.004040690">
        <ele>1707.00</ele>
        <time>2014-08-08T15:18:24Z</time>
      </trkpt>
      <trkpt lat="42.460089880" lon="1.004344360">
        <ele>1704.10</ele>
        <time>2014-08-08T15:18:27Z</time>
      </trkpt>
      <trkpt lat="42.459834660" lon="1.004854150">
        <ele>1702.20</ele>
        <time>2014-08-08T15:18:32Z</time>
      </trkpt>
      <trkpt lat="42.459498710" lon="1.005128320">
        <ele>1699.30</ele>
        <time>2014-08-08T15:18:36Z</time>
      </trkpt>
      <trkpt lat="42.459413630" lon="1.005171240">
        <ele>1697.80</ele>
        <time>2014-08-08T15:18:37Z</time>
      </trkpt>
      <trkpt lat="42.459099060" lon="1.005281630">
        <ele>1695.90</ele>
        <time>2014-08-08T15:18:41Z</time>
      </trkpt>
      <trkpt lat="42.458900740" lon="1.005420520">
        <ele>1693.50</ele>
        <time>2014-08-08T15:18:44Z</time>
      </trkpt>
      <trkpt lat="42.458811140" lon="1.005579190">
        <ele>1692.10</ele>
        <time>2014-08-08T15:18:46Z</time>
      </trkpt>
      <trkpt lat="42.458666300" lon="1.005946310">
        <ele>1690.10</ele>
        <time>2014-08-08T15:18:50Z</time>
      </trkpt>
      <trkpt lat="42.458511570" lon="1.006147650">
        <ele>1688.70</ele>
        <time>2014-08-08T15:18:54Z</time>
      </trkpt>
      <trkpt lat="42.458465890" lon="1.006056450">
        <ele>1687.30</ele>
        <time>2014-08-08T15:18:56Z</time>
      </trkpt>
      <trkpt lat="42.458521630" lon="1.005892000">
        <ele>1686.80</ele>
        <time>2014-08-08T15:18:59Z</time>
      </trkpt>
      <trkpt lat="42.458593130" lon="1.005611790">
        <ele>1686.30</ele>
        <time>2014-08-08T15:19:03Z</time>
      </trkpt>
      <trkpt lat="42.458641830" lon="1.005440550">
        <ele>1685.30</ele>
        <time>2014-08-08T15:19:05Z</time>
      </trkpt>
      <trkpt lat="42.458715500" lon="1.005239300">
        <ele>1683.40</ele>
        <time>2014-08-08T15:19:07Z</time>
      </trkpt>
      <trkpt lat="42.458776440" lon="1.005028910">
        <ele>1681.00</ele>
        <time>2014-08-08T15:19:09Z</time>
      </trkpt>
      <trkpt lat="42.458851710" lon="1.004836630">
        <ele>1679.60</ele>
        <time>2014-08-08T15:19:11Z</time>
      </trkpt>
      <trkpt lat="42.459097130" lon="1.004514680">
        <ele>1678.10</ele>
        <time>2014-08-08T15:19:15Z</time>
      </trkpt>
      <trkpt lat="42.459237780" lon="1.004356520">
        <ele>1675.70</ele>
        <time>2014-08-08T15:19:17Z</time>
      </trkpt>
      <trkpt lat="42.459392010" lon="1.003987800">
        <ele>1672.40</ele>
        <time>2014-08-08T15:19:21Z</time>
      </trkpt>
      <trkpt lat="42.459444810" lon="1.003668780">
        <ele>1670.90</ele>
        <time>2014-08-08T15:19:24Z</time>
      </trkpt>
      <trkpt lat="42.459539110" lon="1.003070150">
        <ele>1667.50</ele>
        <time>2014-08-08T15:19:29Z</time>
      </trkpt>
      <trkpt lat="42.459606840" lon="1.002700760">
        <ele>1665.10</ele>
        <time>2014-08-08T15:19:32Z</time>
      </trkpt>
      <trkpt lat="42.459736500" lon="1.002197420">
        <ele>1661.80</ele>
        <time>2014-08-08T15:19:36Z</time>
      </trkpt>
      <trkpt lat="42.459811940" lon="1.001960550">
        <ele>1660.80</ele>
        <time>2014-08-08T15:19:38Z</time>
      </trkpt>
      <trkpt lat="42.459847980" lon="1.001550680">
        <ele>1657.90</ele>
        <time>2014-08-08T15:19:42Z</time>
      </trkpt>
      <trkpt lat="42.459851500" lon="1.001459650">
        <ele>1657.50</ele>
        <time>2014-08-08T15:19:43Z</time>
      </trkpt>
      <trkpt lat="42.459798030" lon="1.001288910">
        <ele>1655.50</ele>
        <time>2014-08-08T15:19:46Z</time>
      </trkpt>
      <trkpt lat="42.459679000" lon="1.001383790">
        <ele>1654.10</ele>
        <time>2014-08-08T15:19:49Z</time>
      </trkpt>
      <trkpt lat="42.459652680" lon="1.001458890">
        <ele>1653.60</ele>
        <time>2014-08-08T15:19:50Z</time>
      </trkpt>
      <trkpt lat="42.459539700" lon="1.001937920">
        <ele>1649.80</ele>
        <time>2014-08-08T15:19:55Z</time>
      </trkpt>
      <trkpt lat="42.459467190" lon="1.002148890">
        <ele>1648.80</ele>
        <time>2014-08-08T15:19:57Z</time>
      </trkpt>
      <trkpt lat="42.459342970" lon="1.002311330">
        <ele>1647.40</ele>
        <time>2014-08-08T15:19:59Z</time>
      </trkpt>
      <trkpt lat="42.459128400" lon="1.002750290">
        <ele>1647.40</ele>
        <time>2014-08-08T15:20:05Z</time>
      </trkpt>
      <trkpt lat="42.458961930" lon="1.003331500">
        <ele>1644.00</ele>
        <time>2014-08-08T15:20:11Z</time>
      </trkpt>
      <trkpt lat="42.458694470" lon="1.003557810">
        <ele>1642.10</ele>
        <time>2014-08-08T15:20:15Z</time>
      </trkpt>
      <trkpt lat="42.458500010" lon="1.003753360">
        <ele>1640.20</ele>
        <time>2014-08-08T15:20:18Z</time>
      </trkpt>
      <trkpt lat="42.458292970" lon="1.003963570">
        <ele>1636.80</ele>
        <time>2014-08-08T15:20:21Z</time>
      </trkpt>
      <trkpt lat="42.458229610" lon="1.004041690">
        <ele>1637.30</ele>
        <time>2014-08-08T15:20:22Z</time>
      </trkpt>
      <trkpt lat="42.457950660" lon="1.004347720">
        <ele>1632.90</ele>
        <time>2014-08-08T15:20:26Z</time>
      </trkpt>
      <trkpt lat="42.457881670" lon="1.004421810">
        <ele>1632.50</ele>
        <time>2014-08-08T15:20:27Z</time>
      </trkpt>
      <trkpt lat="42.457773210" lon="1.004590790">
        <ele>1631.50</ele>
        <time>2014-08-08T15:20:29Z</time>
      </trkpt>
      <trkpt lat="42.457687720" lon="1.004880390">
        <ele>1631.00</ele>
        <time>2014-08-08T15:20:32Z</time>
      </trkpt>
      <trkpt lat="42.457658130" lon="1.005193030">
        <ele>1630.10</ele>
        <time>2014-08-08T15:20:35Z</time>
      </trkpt>
      <trkpt lat="42.457538680" lon="1.005720420">
        <ele>1627.70</ele>
        <time>2014-08-08T15:20:40Z</time>
      </trkpt>
      <trkpt lat="42.457399040" lon="1.005873890">
        <ele>1626.20</ele>
        <time>2014-08-08T15:20:44Z</time>
      </trkpt>
      <trkpt lat="42.457364430" lon="1.005840200">
        <ele>1625.70</ele>
        <time>2014-08-08T15:20:45Z</time>
      </trkpt>
      <trkpt lat="42.457206680" lon="1.005595280">
        <ele>1626.70</ele>
        <time>2014-08-08T15:20:50Z</time>
      </trkpt>
      <trkpt lat="42.457092850" lon="1.005258410">
        <ele>1625.70</ele>
        <time>2014-08-08T15:20:54Z</time>
      </trkpt>
      <trkpt lat="42.457075840" lon="1.005070320">
        <ele>1624.30</ele>
        <time>2014-08-08T15:20:56Z</time>
      </trkpt>
      <trkpt lat="42.456910460" lon="1.004623650">
        <ele>1620.90</ele>
        <time>2014-08-08T15:21:01Z</time>
      </trkpt>
      <trkpt lat="42.456804260" lon="1.004322320">
        <ele>1620.00</ele>
        <time>2014-08-08T15:21:04Z</time>
      </trkpt>
      <trkpt lat="42.456562950" lon="1.004058710">
        <ele>1615.60</ele>
        <time>2014-08-08T15:21:09Z</time>
      </trkpt>
      <trkpt lat="42.456471920" lon="1.004121410">
        <ele>1613.70</ele>
        <time>2014-08-08T15:21:11Z</time>
      </trkpt>
      <trkpt lat="42.456440570" lon="1.004186950">
        <ele>1613.20</ele>
        <time>2014-08-08T15:21:12Z</time>
      </trkpt>
      <trkpt lat="42.456247960" lon="1.004340260">
        <ele>1610.40</ele>
        <time>2014-08-08T15:21:17Z</time>
      </trkpt>
      <trkpt lat="42.456222140" lon="1.004137000">
        <ele>1608.90</ele>
        <time>2014-08-08T15:21:20Z</time>
      </trkpt>
      <trkpt lat="42.456394640" lon="1.003847490">
        <ele>1607.50</ele>
        <time>2014-08-08T15:21:24Z</time>
      </trkpt>
      <trkpt lat="42.456467900" lon="1.003680270">
        <ele>1605.10</ele>
        <time>2014-08-08T15:21:27Z</time>
      </trkpt>
      <trkpt lat="42.456366730" lon="1.003648250">
        <ele>1603.60</ele>
        <time>2014-08-08T15:21:30Z</time>
      </trkpt>
      <trkpt lat="42.456273020" lon="1.003728550">
        <ele>1602.70</ele>
        <time>2014-08-08T15:21:32Z</time>
      </trkpt>
      <trkpt lat="42.456176040" lon="1.003845220">
        <ele>1601.20</ele>
        <time>2014-08-08T15:21:34Z</time>
      </trkpt>
      <trkpt lat="42.456018880" lon="1.003903310">
        <ele>1598.80</ele>
        <time>2014-08-08T15:21:38Z</time>
      </trkpt>
      <trkpt lat="42.456067740" lon="1.003775740">
        <ele>1597.40</ele>
        <time>2014-08-08T15:21:41Z</time>
      </trkpt>
      <trkpt lat="42.456199840" lon="1.003641880">
        <ele>1595.00</ele>
        <time>2014-08-08T15:21:44Z</time>
      </trkpt>
      <trkpt lat="42.456305290" lon="1.003344910">
        <ele>1590.20</ele>
        <time>2014-08-08T15:21:48Z</time>
      </trkpt>
      <trkpt lat="42.456363540" lon="1.003107110">
        <ele>1588.20</ele>
        <time>2014-08-08T15:21:51Z</time>
      </trkpt>
      <trkpt lat="42.456501260" lon="1.003076350">
        <ele>1586.80</ele>
        <time>2014-08-08T15:21:54Z</time>
      </trkpt>
      <trkpt lat="42.456665960" lon="1.003266700">
        <ele>1584.40</ele>
        <time>2014-08-08T15:21:58Z</time>
      </trkpt>
      <trkpt lat="42.456695380" lon="1.003334260">
        <ele>1584.40</ele>
        <time>2014-08-08T15:21:59Z</time>
      </trkpt>
      <trkpt lat="42.456753300" lon="1.003468620">
        <ele>1583.00</ele>
        <time>2014-08-08T15:22:01Z</time>
      </trkpt>
      <trkpt lat="42.456943650" lon="1.003671630">
        <ele>1580.10</ele>
        <time>2014-08-08T15:22:06Z</time>
      </trkpt>
      <trkpt lat="42.457010790" lon="1.003628970">
        <ele>1579.60</ele>
        <time>2014-08-08T15:22:08Z</time>
      </trkpt>
      <trkpt lat="42.457070220" lon="1.003497210">
        <ele>1578.10</ele>
        <time>2014-08-08T15:22:11Z</time>
      </trkpt>
      <trkpt lat="42.457120850" lon="1.003238290">
        <ele>1575.30</ele>
        <time>2014-08-08T15:22:14Z</time>
      </trkpt>
      <trkpt lat="42.457129980" lon="1.003152210">
        <ele>1574.80</ele>
        <time>2014-08-08T15:22:15Z</time>
      </trkpt>
      <trkpt lat="42.457099810" lon="1.002798150">
        <ele>1571.90</ele>
        <time>2014-08-08T15:22:19Z</time>
      </trkpt>
      <trkpt lat="42.457092520" lon="1.002623390">
        <ele>1570.00</ele>
        <time>2014-08-08T15:22:21Z</time>
      </trkpt>
      <trkpt lat="42.457141380" lon="1.002500180">
        <ele>1568.50</ele>
        <time>2014-08-08T15:22:23Z</time>
      </trkpt>
      <trkpt lat="42.457187060" lon="1.002452400">
        <ele>1568.50</ele>
        <time>2014-08-08T15:22:24Z</time>
      </trkpt>
      <trkpt lat="42.457362410" lon="1.002282500">
        <ele>1564.70</ele>
        <time>2014-08-08T15:22:27Z</time>
      </trkpt>
      <trkpt lat="42.457579000" lon="1.002057870">
        <ele>1561.30</ele>
        <time>2014-08-08T15:22:30Z</time>
      </trkpt>
      <trkpt lat="42.457757280" lon="1.001658220">
        <ele>1558.40</ele>
        <time>2014-08-08T15:22:34Z</time>
      </trkpt>
      <trkpt lat="42.457920900" lon="1.001303410">
        <ele>1558.00</ele>
        <time>2014-08-08T15:22:38Z</time>
      </trkpt>
      <trkpt lat="42.458004130" lon="1.001086240">
        <ele>1558.00</ele>
        <time>2014-08-08T15:22:41Z</time>
      </trkpt>
      <trkpt lat="42.458043280" lon="1.000839560">
        <ele>1556.00</ele>
        <time>2014-08-08T15:22:44Z</time>
      </trkpt>
      <trkpt lat="42.458098340" lon="1.000694550">
        <ele>1556.00</ele>
        <time>2014-08-08T15:22:46Z</time>
      </trkpt>
      <trkpt lat="42.458169930" lon="1.000429260">
        <ele>1553.60</ele>
        <time>2014-08-08T15:22:49Z</time>
      </trkpt>
      <trkpt lat="42.458245450" lon="1.000255920">
        <ele>1552.20</ele>
        <time>2014-08-08T15:22:51Z</time>
      </trkpt>
      <trkpt lat="42.458402690" lon="0.999947130">
        <ele>1549.30</ele>
        <time>2014-08-08T15:22:55Z</time>
      </trkpt>
      <trkpt lat="42.458417110" lon="0.999601130">
        <ele>1545.90</ele>
        <time>2014-08-08T15:22:59Z</time>
      </trkpt>
      <trkpt lat="42.458408640" lon="0.999407170">
        <ele>1545.90</ele>
        <time>2014-08-08T15:23:01Z</time>
      </trkpt>
      <trkpt lat="42.458460190" lon="0.999162170">
        <ele>1544.00</ele>
        <time>2014-08-08T15:23:04Z</time>
      </trkpt>
      <trkpt lat="42.458610390" lon="0.998939040">
        <ele>1540.20</ele>
        <time>2014-08-08T15:23:07Z</time>
      </trkpt>
      <trkpt lat="42.458713660" lon="0.998805600">
        <ele>1538.30</ele>
        <time>2014-08-08T15:23:09Z</time>
      </trkpt>
      <trkpt lat="42.458810970" lon="0.998460690">
        <ele>1534.40</ele>
        <time>2014-08-08T15:23:14Z</time>
      </trkpt>
      <trkpt lat="42.458919350" lon="0.998132370">
        <ele>1531.00</ele>
        <time>2014-08-08T15:23:18Z</time>
      </trkpt>
      <trkpt lat="42.459006610" lon="0.997844700">
        <ele>1528.60</ele>
        <time>2014-08-08T15:23:21Z</time>
      </trkpt>
      <trkpt lat="42.459108450" lon="0.997594420">
        <ele>1527.20</ele>
        <time>2014-08-08T15:23:24Z</time>
      </trkpt>
      <trkpt lat="42.459147840" lon="0.997531720">
        <ele>1526.70</ele>
        <time>2014-08-08T15:23:25Z</time>
      </trkpt>
      <trkpt lat="42.459133840" lon="0.997408420">
        <ele>1524.80</ele>
        <time>2014-08-08T15:23:29Z</time>
      </trkpt>
      <trkpt lat="42.459034770" lon="0.997558290">
        <ele>1522.40</ele>
        <time>2014-08-08T15:23:32Z</time>
      </trkpt>
      <trkpt lat="42.459000660" lon="0.997629870">
        <ele>1521.90</ele>
        <time>2014-08-08T15:23:33Z</time>
      </trkpt>
      <trkpt lat="42.458774180" lon="0.998028850">
        <ele>1519.50</ele>
        <time>2014-08-08T15:23:38Z</time>
      </trkpt>
      <trkpt lat="42.458559180" lon="0.998304950">
        <ele>1518.50</ele>
        <time>2014-08-08T15:23:42Z</time>
      </trkpt>
      <trkpt lat="42.458372680" lon="0.998588340">
        <ele>1515.20</ele>
        <time>2014-08-08T15:23:47Z</time>
      </trkpt>
      <trkpt lat="42.458310320" lon="0.998611810">
        <ele>1514.70</ele>
        <time>2014-08-08T15:23:48Z</time>
      </trkpt>
      <trkpt lat="42.458053590" lon="0.998768560">
        <ele>1512.30</ele>
        <time>2014-08-08T15:23:52Z</time>
      </trkpt>
      <trkpt lat="42.457877900" lon="0.999004170">
        <ele>1509.90</ele>
        <time>2014-08-08T15:23:55Z</time>
      </trkpt>
      <trkpt lat="42.457760640" lon="0.999207010">
        <ele>1508.00</ele>
        <time>2014-08-08T15:23:57Z</time>
      </trkpt>
      <trkpt lat="42.457537850" lon="0.999460560">
        <ele>1506.50</ele>
        <time>2014-08-08T15:24:00Z</time>
      </trkpt>
      <trkpt lat="42.457463750" lon="0.999533660">
        <ele>1506.00</ele>
        <time>2014-08-08T15:24:01Z</time>
      </trkpt>
      <trkpt lat="42.457236940" lon="0.999767340">
        <ele>1504.60</ele>
        <time>2014-08-08T15:24:06Z</time>
      </trkpt>
      <trkpt lat="42.457234760" lon="0.999632730">
        <ele>1503.20</ele>
        <time>2014-08-08T15:24:09Z</time>
      </trkpt>
      <trkpt lat="42.457266440" lon="0.999588310">
        <ele>1503.60</ele>
        <time>2014-08-08T15:24:10Z</time>
      </trkpt>
      <trkpt lat="42.457510350" lon="0.999234590">
        <ele>1499.30</ele>
        <time>2014-08-08T15:24:16Z</time>
      </trkpt>
      <trkpt lat="42.457638680" lon="0.998824380">
        <ele>1496.00</ele>
        <time>2014-08-08T15:24:20Z</time>
      </trkpt>
      <trkpt lat="42.457859040" lon="0.998421130">
        <ele>1492.60</ele>
        <time>2014-08-08T15:24:25Z</time>
      </trkpt>
      <trkpt lat="42.458108650" lon="0.998213590">
        <ele>1490.20</ele>
        <time>2014-08-08T15:24:29Z</time>
      </trkpt>
      <trkpt lat="42.458138330" lon="0.998141670">
        <ele>1489.70</ele>
        <time>2014-08-08T15:24:30Z</time>
      </trkpt>
      <trkpt lat="42.458185180" lon="0.997805310">
        <ele>1486.80</ele>
        <time>2014-08-08T15:24:34Z</time>
      </trkpt>
      <trkpt lat="42.458222820" lon="0.997734980">
        <ele>1486.30</ele>
        <time>2014-08-08T15:24:35Z</time>
      </trkpt>
      <trkpt lat="42.458371010" lon="0.997517470">
        <ele>1484.90</ele>
        <time>2014-08-08T15:24:38Z</time>
      </trkpt>
      <trkpt lat="42.458507130" lon="0.997149670">
        <ele>1482.50</ele>
        <time>2014-08-08T15:24:42Z</time>
      </trkpt>
      <trkpt lat="42.458554910" lon="0.996957310">
        <ele>1482.00</ele>
        <time>2014-08-08T15:24:44Z</time>
      </trkpt>
      <trkpt lat="42.458667640" lon="0.996749610">
        <ele>1479.60</ele>
        <time>2014-08-08T15:24:47Z</time>
      </trkpt>
      <trkpt lat="42.458622880" lon="0.996663100">
        <ele>1477.70</ele>
        <time>2014-08-08T15:24:51Z</time>
      </trkpt>
      <trkpt lat="42.458521460" lon="0.996838540">
        <ele>1476.70</ele>
        <time>2014-08-08T15:24:55Z</time>
      </trkpt>
      <trkpt lat="42.458372600" lon="0.997131570">
        <ele>1475.30</ele>
        <time>2014-08-08T15:25:00Z</time>
      </trkpt>
      <trkpt lat="42.458189710" lon="0.997380850">
        <ele>1473.80</ele>
        <time>2014-08-08T15:25:04Z</time>
      </trkpt>
      <trkpt lat="42.458062300" lon="0.997480090">
        <ele>1472.40</ele>
        <time>2014-08-08T15:25:06Z</time>
      </trkpt>
      <trkpt lat="42.457773550" lon="0.997809250">
        <ele>1469.00</ele>
        <time>2014-08-08T15:25:11Z</time>
      </trkpt>
      <trkpt lat="42.457533150" lon="0.997906220">
        <ele>1465.20</ele>
        <time>2014-08-08T15:25:15Z</time>
      </trkpt>
      <trkpt lat="42.457346660" lon="0.997928270">
        <ele>1462.80</ele>
        <time>2014-08-08T15:25:18Z</time>
      </trkpt>
      <trkpt lat="42.457085890" lon="0.998086850">
        <ele>1460.90</ele>
        <time>2014-08-08T15:25:22Z</time>
      </trkpt>
      <trkpt lat="42.457004090" lon="0.998095400">
        <ele>1459.90</ele>
        <time>2014-08-08T15:25:24Z</time>
      </trkpt>
      <trkpt lat="42.457017670" lon="0.997971020">
        <ele>1458.90</ele>
        <time>2014-08-08T15:25:27Z</time>
      </trkpt>
      <trkpt lat="42.457169380" lon="0.997879400">
        <ele>1458.00</ele>
        <time>2014-08-08T15:25:31Z</time>
      </trkpt>
      <trkpt lat="42.457266520" lon="0.997800700">
        <ele>1456.10</ele>
        <time>2014-08-08T15:25:33Z</time>
      </trkpt>
      <trkpt lat="42.457370960" lon="0.997709670">
        <ele>1456.10</ele>
        <time>2014-08-08T15:25:35Z</time>
      </trkpt>
      <trkpt lat="42.457541030" lon="0.997577910">
        <ele>1454.60</ele>
        <time>2014-08-08T15:25:38Z</time>
      </trkpt>
      <trkpt lat="42.457745630" lon="0.997184630">
        <ele>1450.80</ele>
        <time>2014-08-08T15:25:43Z</time>
      </trkpt>
      <trkpt lat="42.457942610" lon="0.996865530">
        <ele>1447.90</ele>
        <time>2014-08-08T15:25:47Z</time>
      </trkpt>
      <trkpt lat="42.458012010" lon="0.996682380">
        <ele>1446.40</ele>
        <time>2014-08-08T15:25:49Z</time>
      </trkpt>
      <trkpt lat="42.458139500" lon="0.996297990">
        <ele>1443.10</ele>
        <time>2014-08-08T15:25:53Z</time>
      </trkpt>
      <trkpt lat="42.458259110" lon="0.996108390">
        <ele>1441.60</ele>
        <time>2014-08-08T15:25:56Z</time>
      </trkpt>
      <trkpt lat="42.458253240" lon="0.995980820">
        <ele>1440.20</ele>
        <time>2014-08-08T15:26:00Z</time>
      </trkpt>
      <trkpt lat="42.458138160" lon="0.996118950">
        <ele>1438.80</ele>
        <time>2014-08-08T15:26:04Z</time>
      </trkpt>
      <trkpt lat="42.457955940" lon="0.996494040">
        <ele>1438.80</ele>
        <time>2014-08-08T15:26:10Z</time>
      </trkpt>
      <trkpt lat="42.457744040" lon="0.996692110">
        <ele>1436.80</ele>
        <time>2014-08-08T15:26:14Z</time>
      </trkpt>
      <trkpt lat="42.457253950" lon="0.996842560">
        <ele>1433.00</ele>
        <time>2014-08-08T15:26:21Z</time>
      </trkpt>
      <trkpt lat="42.457145240" lon="0.996854460">
        <ele>1431.10</ele>
        <time>2014-08-08T15:26:24Z</time>
      </trkpt>
      <trkpt lat="42.457238030" lon="0.996751450">
        <ele>1429.60</ele>
        <time>2014-08-08T15:26:28Z</time>
      </trkpt>
      <trkpt lat="42.457281610" lon="0.996709790">
        <ele>1429.10</ele>
        <time>2014-08-08T15:26:29Z</time>
      </trkpt>
      <trkpt lat="42.457439690" lon="0.996575930">
        <ele>1427.20</ele>
        <time>2014-08-08T15:26:33Z</time>
      </trkpt>
      <trkpt lat="42.457570280" lon="0.996493540">
        <ele>1426.70</ele>
        <time>2014-08-08T15:26:36Z</time>
      </trkpt>
      <trkpt lat="42.457757870" lon="0.996304360">
        <ele>1425.30</ele>
        <time>2014-08-08T15:26:40Z</time>
      </trkpt>
      <trkpt lat="42.457792570" lon="0.996221460">
        <ele>1423.40</ele>
        <time>2014-08-08T15:26:41Z</time>
      </trkpt>
      <trkpt lat="42.458101110" lon="0.995572030">
        <ele>1420.00</ele>
        <time>2014-08-08T15:26:48Z</time>
      </trkpt>
      <trkpt lat="42.458143100" lon="0.995491570">
        <ele>1419.00</ele>
        <time>2014-08-08T15:26:49Z</time>
      </trkpt>
      <trkpt lat="42.458353490" lon="0.995328960">
        <ele>1417.10</ele>
        <time>2014-08-08T15:26:53Z</time>
      </trkpt>
      <trkpt lat="42.458417440" lon="0.995324930">
        <ele>1417.10</ele>
        <time>2014-08-08T15:26:54Z</time>
      </trkpt>
      <trkpt lat="42.458555660" lon="0.995319320">
        <ele>1416.20</ele>
        <time>2014-08-08T15:26:56Z</time>
      </trkpt>
      <trkpt lat="42.458911310" lon="0.995218650">
        <ele>1414.20</ele>
        <time>2014-08-08T15:27:01Z</time>
      </trkpt>
      <trkpt lat="42.459011720" lon="0.995159890">
        <ele>1413.30</ele>
        <time>2014-08-08T15:27:03Z</time>
      </trkpt>
      <trkpt lat="42.459039460" lon="0.995064930">
        <ele>1411.80</ele>
        <time>2014-08-08T15:27:05Z</time>
      </trkpt>
      <trkpt lat="42.458887670" lon="0.995035420">
        <ele>1409.90</ele>
        <time>2014-08-08T15:27:09Z</time>
      </trkpt>
      <trkpt lat="42.458688850" lon="0.995167610">
        <ele>1407.50</ele>
        <time>2014-08-08T15:27:13Z</time>
      </trkpt>
      <trkpt lat="42.458626070" lon="0.995193420">
        <ele>1408.00</ele>
        <time>2014-08-08T15:27:14Z</time>
      </trkpt>
      <trkpt lat="42.458553060" lon="0.995204820">
        <ele>1407.00</ele>
        <time>2014-08-08T15:27:15Z</time>
      </trkpt>
      <trkpt lat="42.458483490" lon="0.995192580">
        <ele>1407.00</ele>
        <time>2014-08-08T15:27:16Z</time>
      </trkpt>
      <trkpt lat="42.458334970" lon="0.995141290">
        <ele>1406.60</ele>
        <time>2014-08-08T15:27:18Z</time>
      </trkpt>
      <trkpt lat="42.458264810" lon="0.995129220">
        <ele>1405.60</ele>
        <time>2014-08-08T15:27:19Z</time>
      </trkpt>
      <trkpt lat="42.457966580" lon="0.995360470">
        <ele>1403.20</ele>
        <time>2014-08-08T15:27:24Z</time>
      </trkpt>
      <trkpt lat="42.457820320" lon="0.995498610">
        <ele>1401.30</ele>
        <time>2014-08-08T15:27:26Z</time>
      </trkpt>
      <trkpt lat="42.457662740" lon="0.995494920">
        <ele>1399.30</ele>
        <time>2014-08-08T15:27:29Z</time>
      </trkpt>
      <trkpt lat="42.457562410" lon="0.995294510">
        <ele>1395.50</ele>
        <time>2014-08-08T15:27:32Z</time>
      </trkpt>
      <trkpt lat="42.457541620" lon="0.995204400">
        <ele>1396.00</ele>
        <time>2014-08-08T15:27:33Z</time>
      </trkpt>
      <trkpt lat="42.457332830" lon="0.994909190">
        <ele>1394.10</ele>
        <time>2014-08-08T15:27:37Z</time>
      </trkpt>
      <trkpt lat="42.457110870" lon="0.994832580">
        <ele>1391.70</ele>
        <time>2014-08-08T15:27:40Z</time>
      </trkpt>
      <trkpt lat="42.456982380" lon="0.994844650">
        <ele>1390.20</ele>
        <time>2014-08-08T15:27:43Z</time>
      </trkpt>
      <trkpt lat="42.456927900" lon="0.994912880">
        <ele>1388.80</ele>
        <time>2014-08-08T15:29:18Z</time>
      </trkpt>
      <trkpt lat="42.456675850" lon="0.994822770">
        <ele>1387.80</ele>
        <time>2014-08-08T15:29:25Z</time>
      </trkpt>
      <trkpt lat="42.456648690" lon="0.994855380">
        <ele>1387.30</ele>
        <time>2014-08-08T15:29:30Z</time>
      </trkpt>
      <trkpt lat="42.456627070" lon="0.994893180">
        <ele>1386.80</ele>
        <time>2014-08-08T15:29:47Z</time>
      </trkpt>
      <trkpt lat="42.456626570" lon="0.994893600">
        <ele>1385.40</ele>
        <time>2014-08-08T15:29:50Z</time>
      </trkpt>
      <trkpt lat="42.456614500" lon="0.994898800">
        <ele>1385.90</ele>
        <time>2014-08-08T15:29:55Z</time>
      </trkpt>
      <trkpt lat="42.456542580" lon="0.994933080">
        <ele>1386.80</ele>
        <time>2014-08-08T15:29:58Z</time>
      </trkpt>
      <trkpt lat="42.456356170" lon="0.994949510">
        <ele>1384.00</ele>
        <time>2014-08-08T15:30:02Z</time>
      </trkpt>
      <trkpt lat="42.456320290" lon="0.994849600">
        <ele>1383.00</ele>
        <time>2014-08-08T15:30:04Z</time>
      </trkpt>
      <trkpt lat="42.456331690" lon="0.994809530">
        <ele>1381.60</ele>
        <time>2014-08-08T15:30:07Z</time>
      </trkpt>
      <trkpt lat="42.456322890" lon="0.994793020">
        <ele>1381.60</ele>
        <time>2014-08-08T15:30:39Z</time>
      </trkpt>
      <trkpt lat="42.456398660" lon="0.994750100">
        <ele>1380.60</ele>
        <time>2014-08-08T15:30:43Z</time>
      </trkpt>
      <trkpt lat="42.456480970" lon="0.994691600">
        <ele>1380.10</ele>
        <time>2014-08-08T15:30:45Z</time>
      </trkpt>
      <trkpt lat="42.456691860" lon="0.994486580">
        <ele>1376.80</ele>
        <time>2014-08-08T15:30:49Z</time>
      </trkpt>
      <trkpt lat="42.456729500" lon="0.994447600">
        <ele>1376.30</ele>
        <time>2014-08-08T15:30:51Z</time>
      </trkpt>
      <trkpt lat="42.456758410" lon="0.994404350">
        <ele>1376.80</ele>
        <time>2014-08-08T15:31:00Z</time>
      </trkpt>
      <trkpt lat="42.456758080" lon="0.994399400">
        <ele>1375.80</ele>
        <time>2014-08-08T15:31:18Z</time>
      </trkpt>
      <trkpt lat="42.456890090" lon="0.994360180">
        <ele>1375.30</ele>
        <time>2014-08-08T15:31:37Z</time>
      </trkpt>
      <trkpt lat="42.456934180" lon="0.994356910">
        <ele>1374.80</ele>
        <time>2014-08-08T15:31:38Z</time>
      </trkpt>
      <trkpt lat="42.457008110" lon="0.994349780">
        <ele>1372.90</ele>
        <time>2014-08-08T15:31:41Z</time>
      </trkpt>
      <trkpt lat="42.457224450" lon="0.994306200">
        <ele>1370.50</ele>
        <time>2014-08-08T15:32:16Z</time>
      </trkpt>
      <trkpt lat="42.457545890" lon="0.994361600">
        <ele>1367.60</ele>
        <time>2014-08-08T15:32:20Z</time>
      </trkpt>
      <trkpt lat="42.457738260" lon="0.994285410">
        <ele>1364.70</ele>
        <time>2014-08-08T15:32:23Z</time>
      </trkpt>
      <trkpt lat="42.457828870" lon="0.994192040">
        <ele>1362.80</ele>
        <time>2014-08-08T15:32:25Z</time>
      </trkpt>
      <trkpt lat="42.457944620" lon="0.994090450">
        <ele>1361.80</ele>
        <time>2014-08-08T15:32:27Z</time>
      </trkpt>
      <trkpt lat="42.458032630" lon="0.994049710">
        <ele>1360.90</ele>
        <time>2014-08-08T15:32:29Z</time>
      </trkpt>
      <trkpt lat="42.458094070" lon="0.994040320">
        <ele>1360.90</ele>
        <time>2014-08-08T15:32:30Z</time>
      </trkpt>
      <trkpt lat="42.458370250" lon="0.994092210">
        <ele>1357.50</ele>
        <time>2014-08-08T15:32:34Z</time>
      </trkpt>
      <trkpt lat="42.458552220" lon="0.994072850">
        <ele>1356.10</ele>
        <time>2014-08-08T15:32:37Z</time>
      </trkpt>
      <trkpt lat="42.458792620" lon="0.993948210">
        <ele>1353.70</ele>
        <time>2014-08-08T15:32:41Z</time>
      </trkpt>
      <trkpt lat="42.458847940" lon="0.993950890">
        <ele>1353.20</ele>
        <time>2014-08-08T15:32:42Z</time>
      </trkpt>
      <trkpt lat="42.458902340" lon="0.993968910">
        <ele>1353.20</ele>
        <time>2014-08-08T15:32:43Z</time>
      </trkpt>
      <trkpt lat="42.459059580" lon="0.993992130">
        <ele>1351.30</ele>
        <time>2014-08-08T15:32:46Z</time>
      </trkpt>
      <trkpt lat="42.459143990" lon="0.993887610">
        <ele>1350.30</ele>
        <time>2014-08-08T15:32:48Z</time>
      </trkpt>
      <trkpt lat="42.459207020" lon="0.993846370">
        <ele>1349.80</ele>
        <time>2014-08-08T15:32:49Z</time>
      </trkpt>
      <trkpt lat="42.459646060" lon="0.993605300">
        <ele>1347.40</ele>
        <time>2014-08-08T15:32:56Z</time>
      </trkpt>
      <trkpt lat="42.459809590" lon="0.993548140">
        <ele>1346.50</ele>
        <time>2014-08-08T15:32:58Z</time>
      </trkpt>
      <trkpt lat="42.460408900" lon="0.993289890">
        <ele>1343.60</ele>
        <time>2014-08-08T15:33:05Z</time>
      </trkpt>
      <trkpt lat="42.460567820" lon="0.993208500">
        <ele>1343.60</ele>
        <time>2014-08-08T15:33:07Z</time>
      </trkpt>
      <trkpt lat="42.460878710" lon="0.992850760">
        <ele>1337.80</ele>
        <time>2014-08-08T15:33:12Z</time>
      </trkpt>
      <trkpt lat="42.460939810" lon="0.992780690">
        <ele>1336.40</ele>
        <time>2014-08-08T15:33:13Z</time>
      </trkpt>
      <trkpt lat="42.461077190" lon="0.992692930">
        <ele>1335.40</ele>
        <time>2014-08-08T15:33:15Z</time>
      </trkpt>
      <trkpt lat="42.461335440" lon="0.992666860">
        <ele>1332.00</ele>
        <time>2014-08-08T15:33:18Z</time>
      </trkpt>
      <trkpt lat="42.461436100" lon="0.992671810">
        <ele>1332.00</ele>
        <time>2014-08-08T15:33:19Z</time>
      </trkpt>
      <trkpt lat="42.461746740" lon="0.992692680">
        <ele>1329.60</ele>
        <time>2014-08-08T15:33:22Z</time>
      </trkpt>
      <trkpt lat="42.461889980" lon="0.992667790">
        <ele>1329.60</ele>
        <time>2014-08-08T15:33:24Z</time>
      </trkpt>
      <trkpt lat="42.462173880" lon="0.992689080">
        <ele>1327.70</ele>
        <time>2014-08-08T15:33:27Z</time>
      </trkpt>
      <trkpt lat="42.462393730" lon="0.992597550">
        <ele>1325.30</ele>
        <time>2014-08-08T15:33:31Z</time>
      </trkpt>
      <trkpt lat="42.462427930" lon="0.992548340">
        <ele>1324.40</ele>
        <time>2014-08-08T15:33:32Z</time>
      </trkpt>
      <trkpt lat="42.462029540" lon="0.992448850">
        <ele>1322.00</ele>
        <time>2014-08-08T15:33:39Z</time>
      </trkpt>
      <trkpt lat="42.461943460" lon="0.992456480">
        <ele>1321.00</ele>
        <time>2014-08-08T15:33:40Z</time>
      </trkpt>
      <trkpt lat="42.461513630" lon="0.992572230">
        <ele>1319.10</ele>
        <time>2014-08-08T15:33:45Z</time>
      </trkpt>
      <trkpt lat="42.461223120" lon="0.992547340">
        <ele>1317.10</ele>
        <time>2014-08-08T15:33:48Z</time>
      </trkpt>
      <trkpt lat="42.460942410" lon="0.992562010">
        <ele>1315.70</ele>
        <time>2014-08-08T15:33:51Z</time>
      </trkpt>
      <trkpt lat="42.460849450" lon="0.992596540">
        <ele>1314.30</ele>
        <time>2014-08-08T15:33:52Z</time>
      </trkpt>
      <trkpt lat="42.460196000" lon="0.992844980">
        <ele>1310.40</ele>
        <time>2014-08-08T15:33:59Z</time>
      </trkpt>
      <trkpt lat="42.460000870" lon="0.992892420">
        <ele>1309.90</ele>
        <time>2014-08-08T15:34:01Z</time>
      </trkpt>
      <trkpt lat="42.459359230" lon="0.992880690">
        <ele>1306.60</ele>
        <time>2014-08-08T15:34:08Z</time>
      </trkpt>
      <trkpt lat="42.459220180" lon="0.992846490">
        <ele>1305.60</ele>
        <time>2014-08-08T15:34:10Z</time>
      </trkpt>
      <trkpt lat="42.459184140" lon="0.992823860">
        <ele>1304.70</ele>
        <time>2014-08-08T15:34:11Z</time>
      </trkpt>
      <trkpt lat="42.459130160" lon="0.992740370">
        <ele>1303.70</ele>
        <time>2014-08-08T15:34:12Z</time>
      </trkpt>
      <trkpt lat="42.458983980" lon="0.992672730">
        <ele>1302.70</ele>
        <time>2014-08-08T15:34:15Z</time>
      </trkpt>
      <trkpt lat="42.458917090" lon="0.992692600">
        <ele>1301.30</ele>
        <time>2014-08-08T15:34:16Z</time>
      </trkpt>
      <trkpt lat="42.458615260" lon="0.992763170">
        <ele>1299.40</ele>
        <time>2014-08-08T15:34:20Z</time>
      </trkpt>
      <trkpt lat="42.458223490" lon="0.992717070">
        <ele>1297.40</ele>
        <time>2014-08-08T15:34:25Z</time>
      </trkpt>
      <trkpt lat="42.457914280" lon="0.992440550">
        <ele>1296.50</ele>
        <time>2014-08-08T15:34:30Z</time>
      </trkpt>
      <trkpt lat="42.457816290" lon="0.992296800">
        <ele>1295.50</ele>
        <time>2014-08-08T15:34:32Z</time>
      </trkpt>
      <trkpt lat="42.457706240" lon="0.992181720">
        <ele>1292.20</ele>
        <time>2014-08-08T15:34:34Z</time>
      </trkpt>
      <trkpt lat="42.457538940" lon="0.992065880">
        <ele>1289.80</ele>
        <time>2014-08-08T15:34:37Z</time>
      </trkpt>
      <trkpt lat="42.457268200" lon="0.992006790">
        <ele>1287.30</ele>
        <time>2014-08-08T15:34:40Z</time>
      </trkpt>
      <trkpt lat="42.456808450" lon="0.991959100">
        <ele>1285.90</ele>
        <time>2014-08-08T15:34:45Z</time>
      </trkpt>
      <trkpt lat="42.456435960" lon="0.991840240">
        <ele>1283.50</ele>
        <time>2014-08-08T15:34:49Z</time>
      </trkpt>
      <trkpt lat="42.456269160" lon="0.991712330">
        <ele>1283.00</ele>
        <time>2014-08-08T15:34:51Z</time>
      </trkpt>
      <trkpt lat="42.455869180" lon="0.991444780">
        <ele>1281.60</ele>
        <time>2014-08-08T15:34:56Z</time>
      </trkpt>
      <trkpt lat="42.455444720" lon="0.991262810">
        <ele>1281.60</ele>
        <time>2014-08-08T15:35:02Z</time>
      </trkpt>
      <trkpt lat="42.455200640" lon="0.991169270">
        <ele>1281.60</ele>
        <time>2014-08-08T15:35:06Z</time>
      </trkpt>
      <trkpt lat="42.455056890" lon="0.991033570">
        <ele>1280.60</ele>
        <time>2014-08-08T15:35:09Z</time>
      </trkpt>
      <trkpt lat="42.455039450" lon="0.990953770">
        <ele>1280.10</ele>
        <time>2014-08-08T15:35:10Z</time>
      </trkpt>
      <trkpt lat="42.454909620" lon="0.990618580">
        <ele>1280.60</ele>
        <time>2014-08-08T15:35:15Z</time>
      </trkpt>
      <trkpt lat="42.454802080" lon="0.990513720">
        <ele>1282.10</ele>
        <time>2014-08-08T15:35:19Z</time>
      </trkpt>
      <trkpt lat="42.454728740" lon="0.990446080">
        <ele>1283.50</ele>
        <time>2014-08-08T15:35:22Z</time>
      </trkpt>
      <trkpt lat="42.454578950" lon="0.990244410">
        <ele>1284.00</ele>
        <time>2014-08-08T15:35:30Z</time>
      </trkpt>
      <trkpt lat="42.454544500" lon="0.990051960">
        <ele>1283.50</ele>
        <time>2014-08-08T15:35:36Z</time>
      </trkpt>
      <trkpt lat="42.454490610" lon="0.989948450">
        <ele>1282.50</ele>
        <time>2014-08-08T15:35:41Z</time>
      </trkpt>
      <trkpt lat="42.454493960" lon="0.989939560">
        <ele>1282.10</ele>
        <time>2014-08-08T15:35:54Z</time>
      </trkpt>
      <trkpt lat="42.454482560" lon="0.989946690">
        <ele>1282.10</ele>
        <time>2014-08-08T15:36:04Z</time>
      </trkpt>
      <trkpt lat="42.454477700" lon="0.989932770">
        <ele>1285.90</ele>
        <time>2014-08-08T15:36:11Z</time>
      </trkpt>
      <trkpt lat="42.454479960" lon="0.989931100">
        <ele>1282.50</ele>
        <time>2014-08-08T15:36:13Z</time>
      </trkpt>
      <trkpt lat="42.454480970" lon="0.989932690">
        <ele>1282.10</ele>
        <time>2014-08-08T15:36:14Z</time>
      </trkpt>
      <trkpt lat="42.454449530" lon="0.989862280">
        <ele>1282.10</ele>
        <time>2014-08-08T15:36:20Z</time>
      </trkpt>
      <trkpt lat="42.454299160" lon="0.989686510">
        <ele>1280.60</ele>
        <time>2014-08-08T15:36:25Z</time>
      </trkpt>
      <trkpt lat="42.454170670" lon="0.989542680">
        <ele>1280.60</ele>
        <time>2014-08-08T15:36:28Z</time>
      </trkpt>
      <trkpt lat="42.453883420" lon="0.989341260">
        <ele>1278.70</ele>
        <time>2014-08-08T15:36:33Z</time>
      </trkpt>
      <trkpt lat="42.453599860" lon="0.989264230">
        <ele>1277.30</ele>
        <time>2014-08-08T15:36:37Z</time>
      </trkpt>
      <trkpt lat="42.453443960" lon="0.989236740">
        <ele>1275.80</ele>
        <time>2014-08-08T15:36:39Z</time>
      </trkpt>
      <trkpt lat="42.453194930" lon="0.989191140">
        <ele>1274.90</ele>
        <time>2014-08-08T15:36:42Z</time>
      </trkpt>
      <trkpt lat="42.452746420" lon="0.989251910">
        <ele>1271.50</ele>
        <time>2014-08-08T15:36:47Z</time>
      </trkpt>
      <trkpt lat="42.452020210" lon="0.989443100">
        <ele>1267.60</ele>
        <time>2014-08-08T15:36:55Z</time>
      </trkpt>
      <trkpt lat="42.451484520" lon="0.989533710">
        <ele>1263.80</ele>
        <time>2014-08-08T15:37:01Z</time>
      </trkpt>
      <trkpt lat="42.450898290" lon="0.989572100">
        <ele>1261.40</ele>
        <time>2014-08-08T15:37:07Z</time>
      </trkpt>
      <trkpt lat="42.450692930" lon="0.989540580">
        <ele>1259.50</ele>
        <time>2014-08-08T15:37:09Z</time>
      </trkpt>
      <trkpt lat="42.450172250" lon="0.989287620">
        <ele>1255.60</ele>
        <time>2014-08-08T15:37:14Z</time>
      </trkpt>
      <trkpt lat="42.449599260" lon="0.989314100">
        <ele>1252.70</ele>
        <time>2014-08-08T15:37:19Z</time>
      </trkpt>
      <trkpt lat="42.449027620" lon="0.989446290">
        <ele>1250.30</ele>
        <time>2014-08-08T15:37:24Z</time>
      </trkpt>
      <trkpt lat="42.448689990" lon="0.989501020">
        <ele>1248.90</ele>
        <time>2014-08-08T15:37:27Z</time>
      </trkpt>
      <trkpt lat="42.448170900" lon="0.989489620">
        <ele>1248.40</ele>
        <time>2014-08-08T15:37:32Z</time>
      </trkpt>
      <trkpt lat="42.447494820" lon="0.989478720">
        <ele>1247.50</ele>
        <time>2014-08-08T15:37:40Z</time>
      </trkpt>
      <trkpt lat="42.446870370" lon="0.989572270">
        <ele>1247.00</ele>
        <time>2014-08-08T15:37:49Z</time>
      </trkpt>
      <trkpt lat="42.446419170" lon="0.989663960">
        <ele>1247.00</ele>
        <time>2014-08-08T15:37:56Z</time>
      </trkpt>
      <trkpt lat="42.446227390" lon="0.989681820">
        <ele>1247.00</ele>
        <time>2014-08-08T15:37:59Z</time>
      </trkpt>
      <trkpt lat="42.445865710" lon="0.989528260">
        <ele>1246.00</ele>
        <time>2014-08-08T15:38:05Z</time>
      </trkpt>
      <trkpt lat="42.445334890" lon="0.989178230">
        <ele>1244.60</ele>
        <time>2014-08-08T15:38:13Z</time>
      </trkpt>
      <trkpt lat="42.444998940" lon="0.988990390">
        <ele>1241.70</ele>
        <time>2014-08-08T15:38:17Z</time>
      </trkpt>
      <trkpt lat="42.444724260" lon="0.988920660">
        <ele>1240.20</ele>
        <time>2014-08-08T15:38:20Z</time>
      </trkpt>
      <trkpt lat="42.444528630" lon="0.988929790">
        <ele>1238.80</ele>
        <time>2014-08-08T15:38:22Z</time>
      </trkpt>
      <trkpt lat="42.443900990" lon="0.988775730">
        <ele>1238.30</ele>
        <time>2014-08-08T15:38:29Z</time>
      </trkpt>
      <trkpt lat="42.443507460" lon="0.988632400">
        <ele>1237.40</ele>
        <time>2014-08-08T15:38:34Z</time>
      </trkpt>
      <trkpt lat="42.443127590" lon="0.988708930">
        <ele>1236.90</ele>
        <time>2014-08-08T15:38:39Z</time>
      </trkpt>
      <trkpt lat="42.442992480" lon="0.988803310">
        <ele>1237.40</ele>
        <time>2014-08-08T15:38:41Z</time>
      </trkpt>
      <trkpt lat="42.442487390" lon="0.989251740">
        <ele>1236.40</ele>
        <time>2014-08-08T15:38:49Z</time>
      </trkpt>
      <trkpt lat="42.442123950" lon="0.989336320">
        <ele>1235.90</ele>
        <time>2014-08-08T15:38:54Z</time>
      </trkpt>
      <trkpt lat="42.441972650" lon="0.989338330">
        <ele>1235.90</ele>
        <time>2014-08-08T15:38:56Z</time>
      </trkpt>
      <trkpt lat="42.441564120" lon="0.989185190">
        <ele>1233.00</ele>
        <time>2014-08-08T15:39:01Z</time>
      </trkpt>
      <trkpt lat="42.441190540" lon="0.988985700">
        <ele>1230.10</ele>
        <time>2014-08-08T15:39:05Z</time>
      </trkpt>
      <trkpt lat="42.440785690" lon="0.988980250">
        <ele>1227.70</ele>
        <time>2014-08-08T15:39:09Z</time>
      </trkpt>
      <trkpt lat="42.440447480" lon="0.989079910">
        <ele>1226.30</ele>
        <time>2014-08-08T15:39:12Z</time>
      </trkpt>
      <trkpt lat="42.440208350" lon="0.989098350">
        <ele>1224.40</ele>
        <time>2014-08-08T15:39:14Z</time>
      </trkpt>
      <trkpt lat="42.439843980" lon="0.989097180">
        <ele>1222.90</ele>
        <time>2014-08-08T15:39:17Z</time>
      </trkpt>
      <trkpt lat="42.439382060" lon="0.988933980">
        <ele>1220.10</ele>
        <time>2014-08-08T15:39:21Z</time>
      </trkpt>
      <trkpt lat="42.438975620" lon="0.988652350">
        <ele>1216.70</ele>
        <time>2014-08-08T15:39:25Z</time>
      </trkpt>
      <trkpt lat="42.438867660" lon="0.988642960">
        <ele>1217.20</ele>
        <time>2014-08-08T15:39:26Z</time>
      </trkpt>
      <trkpt lat="42.438110940" lon="0.988855780">
        <ele>1215.20</ele>
        <time>2014-08-08T15:39:34Z</time>
      </trkpt>
      <trkpt lat="42.437629820" lon="0.988996260">
        <ele>1212.40</ele>
        <time>2014-08-08T15:39:39Z</time>
      </trkpt>
      <trkpt lat="42.437308210" lon="0.989077900">
        <ele>1209.50</ele>
        <time>2014-08-08T15:39:42Z</time>
      </trkpt>
      <trkpt lat="42.436975190" lon="0.989050740">
        <ele>1207.10</ele>
        <time>2014-08-08T15:39:45Z</time>
      </trkpt>
      <trkpt lat="42.436872010" lon="0.988976310">
        <ele>1206.60</ele>
        <time>2014-08-08T15:39:46Z</time>
      </trkpt>
      <trkpt lat="42.436575380" lon="0.988697700">
        <ele>1205.20</ele>
        <time>2014-08-08T15:39:49Z</time>
      </trkpt>
      <trkpt lat="42.436274720" lon="0.988413550">
        <ele>1201.80</ele>
        <time>2014-08-08T15:39:52Z</time>
      </trkpt>
      <trkpt lat="42.436166510" lon="0.988324370">
        <ele>1201.80</ele>
        <time>2014-08-08T15:39:53Z</time>
      </trkpt>
      <trkpt lat="42.435720510" lon="0.988032510">
        <ele>1197.50</ele>
        <time>2014-08-08T15:39:57Z</time>
      </trkpt>
      <trkpt lat="42.435609450" lon="0.987967800">
        <ele>1197.50</ele>
        <time>2014-08-08T15:39:58Z</time>
      </trkpt>
      <trkpt lat="42.435166380" lon="0.987678380">
        <ele>1195.10</ele>
        <time>2014-08-08T15:40:02Z</time>
      </trkpt>
      <trkpt lat="42.435000330" lon="0.987541500">
        <ele>1195.10</ele>
        <time>2014-08-08T15:40:04Z</time>
      </trkpt>
      <trkpt lat="42.434847030" lon="0.987303790">
        <ele>1193.60</ele>
        <time>2014-08-08T15:40:06Z</time>
      </trkpt>
      <trkpt lat="42.434582240" lon="0.986880840">
        <ele>1193.10</ele>
        <time>2014-08-08T15:40:10Z</time>
      </trkpt>
      <trkpt lat="42.434193660" lon="0.986609770">
        <ele>1190.30</ele>
        <time>2014-08-08T15:40:15Z</time>
      </trkpt>
      <trkpt lat="42.433755540" lon="0.986589400">
        <ele>1187.90</ele>
        <time>2014-08-08T15:40:20Z</time>
      </trkpt>
      <trkpt lat="42.433371310" lon="0.986582270">
        <ele>1185.90</ele>
        <time>2014-08-08T15:40:24Z</time>
      </trkpt>
      <trkpt lat="42.432736720" lon="0.986356050">
        <ele>1185.00</ele>
        <time>2014-08-08T15:40:31Z</time>
      </trkpt>
      <trkpt lat="42.432668820" lon="0.986335850">
        <ele>1184.50</ele>
        <time>2014-08-08T15:40:32Z</time>
      </trkpt>
      <trkpt lat="42.432565980" lon="0.986330150">
        <ele>1185.00</ele>
        <time>2014-08-08T15:40:33Z</time>
      </trkpt>
      <trkpt lat="42.432474950" lon="0.986337270">
        <ele>1184.50</ele>
        <time>2014-08-08T15:40:34Z</time>
      </trkpt>
      <trkpt lat="42.432033060" lon="0.986606660">
        <ele>1181.10</ele>
        <time>2014-08-08T15:40:39Z</time>
      </trkpt>
      <trkpt lat="42.431954020" lon="0.986669450">
        <ele>1180.20</ele>
        <time>2014-08-08T15:40:40Z</time>
      </trkpt>
      <trkpt lat="42.431748240" lon="0.986762820">
        <ele>1180.60</ele>
        <time>2014-08-08T15:40:42Z</time>
      </trkpt>
      <trkpt lat="42.431483290" lon="0.986762740">
        <ele>1179.20</ele>
        <time>2014-08-08T15:40:45Z</time>
      </trkpt>
      <trkpt lat="42.431191430" lon="0.986724850">
        <ele>1177.80</ele>
        <time>2014-08-08T15:40:48Z</time>
      </trkpt>
      <trkpt lat="42.431092610" lon="0.986708920">
        <ele>1177.80</ele>
        <time>2014-08-08T15:40:49Z</time>
      </trkpt>
      <trkpt lat="42.430905860" lon="0.986651760">
        <ele>1176.30</ele>
        <time>2014-08-08T15:40:51Z</time>
      </trkpt>
      <trkpt lat="42.430422050" lon="0.986408350">
        <ele>1173.40</ele>
        <time>2014-08-08T15:40:56Z</time>
      </trkpt>
      <trkpt lat="42.430226840" lon="0.986292180">
        <ele>1172.00</ele>
        <time>2014-08-08T15:40:58Z</time>
      </trkpt>
      <trkpt lat="42.429828200" lon="0.986053120">
        <ele>1167.70</ele>
        <time>2014-08-08T15:41:02Z</time>
      </trkpt>
      <trkpt lat="42.429209610" lon="0.985679380">
        <ele>1163.30</ele>
        <time>2014-08-08T15:41:08Z</time>
      </trkpt>
      <trkpt lat="42.429106510" lon="0.985619190">
        <ele>1165.30</ele>
        <time>2014-08-08T15:41:09Z</time>
      </trkpt>
      <trkpt lat="42.428446940" lon="0.985128350">
        <ele>1161.90</ele>
        <time>2014-08-08T15:41:16Z</time>
      </trkpt>
      <trkpt lat="42.428354320" lon="0.985061630">
        <ele>1161.90</ele>
        <time>2014-08-08T15:41:17Z</time>
      </trkpt>
      <trkpt lat="42.427880830" lon="0.984799190">
        <ele>1158.10</ele>
        <time>2014-08-08T15:41:22Z</time>
      </trkpt>
      <trkpt lat="42.427529380" lon="0.984502050">
        <ele>1156.60</ele>
        <time>2014-08-08T15:41:26Z</time>
      </trkpt>
      <trkpt lat="42.427356370" lon="0.984346570">
        <ele>1155.60</ele>
        <time>2014-08-08T15:41:28Z</time>
      </trkpt>
      <trkpt lat="42.426876590" lon="0.984150100">
        <ele>1153.20</ele>
        <time>2014-08-08T15:41:33Z</time>
      </trkpt>
      <trkpt lat="42.426679620" lon="0.984114050">
        <ele>1151.80</ele>
        <time>2014-08-08T15:41:35Z</time>
      </trkpt>
      <trkpt lat="42.426292710" lon="0.983896710">
        <ele>1149.90</ele>
        <time>2014-08-08T15:41:39Z</time>
      </trkpt>
      <trkpt lat="42.425961120" lon="0.983530170">
        <ele>1148.00</ele>
        <time>2014-08-08T15:41:43Z</time>
      </trkpt>
      <trkpt lat="42.425558960" lon="0.983071010">
        <ele>1144.60</ele>
        <time>2014-08-08T15:41:48Z</time>
      </trkpt>
      <trkpt lat="42.425169120" lon="0.982665240">
        <ele>1143.10</ele>
        <time>2014-08-08T15:41:53Z</time>
      </trkpt>
      <trkpt lat="42.424795790" lon="0.982551670">
        <ele>1140.70</ele>
        <time>2014-08-08T15:41:57Z</time>
      </trkpt>
      <trkpt lat="42.424692770" lon="0.982572710">
        <ele>1139.80</ele>
        <time>2014-08-08T15:41:58Z</time>
      </trkpt>
      <trkpt lat="42.424484230" lon="0.982623080">
        <ele>1139.80</ele>
        <time>2014-08-08T15:42:00Z</time>
      </trkpt>
      <trkpt lat="42.424065550" lon="0.982580840">
        <ele>1135.90</ele>
        <time>2014-08-08T15:42:04Z</time>
      </trkpt>
      <trkpt lat="42.423498520" lon="0.982459800">
        <ele>1133.10</ele>
        <time>2014-08-08T15:42:10Z</time>
      </trkpt>
      <trkpt lat="42.422965850" lon="0.982213540">
        <ele>1130.70</ele>
        <time>2014-08-08T15:42:16Z</time>
      </trkpt>
      <trkpt lat="42.422386410" lon="0.981871390">
        <ele>1127.30</ele>
        <time>2014-08-08T15:42:24Z</time>
      </trkpt>
      <trkpt lat="42.422234280" lon="0.981788580">
        <ele>1126.80</ele>
        <time>2014-08-08T15:42:26Z</time>
      </trkpt>
      <trkpt lat="42.421549730" lon="0.981523460">
        <ele>1124.40</ele>
        <time>2014-08-08T15:42:34Z</time>
      </trkpt>
      <trkpt lat="42.421279580" lon="0.981445590">
        <ele>1123.00</ele>
        <time>2014-08-08T15:42:37Z</time>
      </trkpt>
      <trkpt lat="42.420510870" lon="0.981381300">
        <ele>1120.10</ele>
        <time>2014-08-08T15:42:45Z</time>
      </trkpt>
      <trkpt lat="42.419962190" lon="0.981372170">
        <ele>1116.70</ele>
        <time>2014-08-08T15:42:51Z</time>
      </trkpt>
      <trkpt lat="42.419731270" lon="0.981276030">
        <ele>1114.80</ele>
        <time>2014-08-08T15:42:57Z</time>
      </trkpt>
      <trkpt lat="42.419517790" lon="0.981265970">
        <ele>1114.80</ele>
        <time>2014-08-08T15:43:04Z</time>
      </trkpt>
      <trkpt lat="42.419376890" lon="0.981267900">
        <ele>1114.30</ele>
        <time>2014-08-08T15:43:11Z</time>
      </trkpt>
      <trkpt lat="42.419347720" lon="0.981272250">
        <ele>1113.30</ele>
        <time>2014-08-08T15:44:19Z</time>
      </trkpt>
    </trkseg>
  </trk>
</gpx>
